<?xml version="1.0" encoding="UTF-8" standalone="no" ?>
<gpx xmlns="http://www.topografix.com/GPX/1/1" xmlns:xsi="http://www.w3.org/2001/XMLSchema-instance" xsi:schemaLocation="http://www.topografix.com/GPX/1/1 http://www.topografix.com/GPX/1/1/gpx.xsd" version="1.1" creator="VisuGPX - https://www.visugpx.com">
  <metadata>
    <name>CO des bornes et des cabornes</name>
    <desc><![CDATA[Fait le 16 février 2014]]></desc>
  </metadata>
  <trk>
    <name><![CDATA[2014-02-16T08:20:33Z]]></name>
    <trkseg>
      <trkpt lat="45.82821" lon="4.81247">
        <ele>411</ele>
        <time>2014-02-16T08:20:33Z</time>
      </trkpt>
      <trkpt lat="45.82822" lon="4.81239">
        <ele>411</ele>
        <time>2014-02-16T08:20:36Z</time>
      </trkpt>
      <trkpt lat="45.82825" lon="4.81234">
        <ele>411</ele>
        <time>2014-02-16T08:20:38Z</time>
      </trkpt>
      <trkpt lat="45.82831" lon="4.81226">
        <ele>411</ele>
        <time>2014-02-16T08:20:41Z</time>
      </trkpt>
      <trkpt lat="45.8284" lon="4.81207">
        <ele>407</ele>
        <time>2014-02-16T08:20:47Z</time>
      </trkpt>
      <trkpt lat="45.8284" lon="4.81203">
        <ele>407</ele>
        <time>2014-02-16T08:20:48Z</time>
      </trkpt>
      <trkpt lat="45.82843" lon="4.81188">
        <ele>407</ele>
        <time>2014-02-16T08:20:52Z</time>
      </trkpt>
      <trkpt lat="45.82848" lon="4.81179">
        <ele>407</ele>
        <time>2014-02-16T08:20:55Z</time>
      </trkpt>
      <trkpt lat="45.82852" lon="4.81172">
        <ele>407</ele>
        <time>2014-02-16T08:20:57Z</time>
      </trkpt>
      <trkpt lat="45.8286" lon="4.81158">
        <ele>408</ele>
        <time>2014-02-16T08:21:02Z</time>
      </trkpt>
      <trkpt lat="45.8287" lon="4.81148">
        <ele>408</ele>
        <time>2014-02-16T08:21:07Z</time>
      </trkpt>
      <trkpt lat="45.82876" lon="4.81143">
        <ele>407</ele>
        <time>2014-02-16T08:21:10Z</time>
      </trkpt>
      <trkpt lat="45.82879" lon="4.81137">
        <ele>407</ele>
        <time>2014-02-16T08:21:12Z</time>
      </trkpt>
      <trkpt lat="45.82885" lon="4.81124">
        <ele>407</ele>
        <time>2014-02-16T08:21:17Z</time>
      </trkpt>
      <trkpt lat="45.82887" lon="4.81119">
        <ele>407</ele>
        <time>2014-02-16T08:21:19Z</time>
      </trkpt>
      <trkpt lat="45.82893" lon="4.81113">
        <ele>408</ele>
        <time>2014-02-16T08:21:22Z</time>
      </trkpt>
      <trkpt lat="45.82902" lon="4.81103">
        <ele>408</ele>
        <time>2014-02-16T08:21:28Z</time>
      </trkpt>
      <trkpt lat="45.82904" lon="4.81103">
        <ele>408</ele>
        <time>2014-02-16T08:21:29Z</time>
      </trkpt>
      <trkpt lat="45.8291" lon="4.81108">
        <ele>408</ele>
        <time>2014-02-16T08:21:32Z</time>
      </trkpt>
      <trkpt lat="45.82915" lon="4.81119">
        <ele>407</ele>
        <time>2014-02-16T08:21:36Z</time>
      </trkpt>
      <trkpt lat="45.82917" lon="4.81119">
        <ele>403</ele>
        <time>2014-02-16T08:21:38Z</time>
      </trkpt>
      <trkpt lat="45.8292" lon="4.81119">
        <ele>403</ele>
        <time>2014-02-16T08:21:40Z</time>
      </trkpt>
      <trkpt lat="45.82921" lon="4.81119">
        <ele>402</ele>
        <time>2014-02-16T08:21:41Z</time>
      </trkpt>
      <trkpt lat="45.82918" lon="4.81119">
        <ele>403</ele>
        <time>2014-02-16T08:21:44Z</time>
      </trkpt>
      <trkpt lat="45.82917" lon="4.81118">
        <ele>403</ele>
        <time>2014-02-16T08:21:45Z</time>
      </trkpt>
      <trkpt lat="45.82919" lon="4.81116">
        <ele>403</ele>
        <time>2014-02-16T08:21:48Z</time>
      </trkpt>
      <trkpt lat="45.82921" lon="4.81115">
        <ele>403</ele>
        <time>2014-02-16T08:21:50Z</time>
      </trkpt>
      <trkpt lat="45.82924" lon="4.81114">
        <ele>403</ele>
        <time>2014-02-16T08:21:52Z</time>
      </trkpt>
      <trkpt lat="45.82924" lon="4.81108">
        <ele>403</ele>
        <time>2014-02-16T08:21:57Z</time>
      </trkpt>
      <trkpt lat="45.82929" lon="4.81104">
        <ele>403</ele>
        <time>2014-02-16T08:22:01Z</time>
      </trkpt>
      <trkpt lat="45.82931" lon="4.81103">
        <ele>403</ele>
        <time>2014-02-16T08:22:02Z</time>
      </trkpt>
      <trkpt lat="45.8294" lon="4.81097">
        <ele>403</ele>
        <time>2014-02-16T08:22:07Z</time>
      </trkpt>
      <trkpt lat="45.82947" lon="4.81096">
        <ele>402</ele>
        <time>2014-02-16T08:22:10Z</time>
      </trkpt>
      <trkpt lat="45.82949" lon="4.81095">
        <ele>402</ele>
        <time>2014-02-16T08:22:11Z</time>
      </trkpt>
      <trkpt lat="45.82956" lon="4.81089">
        <ele>402</ele>
        <time>2014-02-16T08:22:15Z</time>
      </trkpt>
      <trkpt lat="45.82964" lon="4.81082">
        <ele>408</ele>
        <time>2014-02-16T08:22:19Z</time>
      </trkpt>
      <trkpt lat="45.82966" lon="4.8108">
        <ele>408</ele>
        <time>2014-02-16T08:22:20Z</time>
      </trkpt>
      <trkpt lat="45.82969" lon="4.81079">
        <ele>408</ele>
        <time>2014-02-16T08:22:21Z</time>
      </trkpt>
      <trkpt lat="45.82979" lon="4.81073">
        <ele>408</ele>
        <time>2014-02-16T08:22:26Z</time>
      </trkpt>
      <trkpt lat="45.82983" lon="4.81072">
        <ele>407</ele>
        <time>2014-02-16T08:22:27Z</time>
      </trkpt>
      <trkpt lat="45.83001" lon="4.81068">
        <ele>404</ele>
        <time>2014-02-16T08:22:33Z</time>
      </trkpt>
      <trkpt lat="45.83008" lon="4.81066">
        <ele>403</ele>
        <time>2014-02-16T08:22:36Z</time>
      </trkpt>
      <trkpt lat="45.83014" lon="4.81061">
        <ele>403</ele>
        <time>2014-02-16T08:22:38Z</time>
      </trkpt>
      <trkpt lat="45.83018" lon="4.81058">
        <ele>403</ele>
        <time>2014-02-16T08:22:40Z</time>
      </trkpt>
      <trkpt lat="45.83021" lon="4.81057">
        <ele>403</ele>
        <time>2014-02-16T08:22:42Z</time>
      </trkpt>
      <trkpt lat="45.83022" lon="4.81056">
        <ele>403</ele>
        <time>2014-02-16T08:22:43Z</time>
      </trkpt>
      <trkpt lat="45.83033" lon="4.81054">
        <ele>402</ele>
        <time>2014-02-16T08:22:48Z</time>
      </trkpt>
      <trkpt lat="45.83036" lon="4.81054">
        <ele>402</ele>
        <time>2014-02-16T08:22:49Z</time>
      </trkpt>
      <trkpt lat="45.83048" lon="4.81057">
        <ele>400</ele>
        <time>2014-02-16T08:22:53Z</time>
      </trkpt>
      <trkpt lat="45.83056" lon="4.81055">
        <ele>400</ele>
        <time>2014-02-16T08:22:56Z</time>
      </trkpt>
      <trkpt lat="45.83057" lon="4.81055">
        <ele>400</ele>
        <time>2014-02-16T08:22:57Z</time>
      </trkpt>
      <trkpt lat="45.83057" lon="4.8105">
        <ele>400</ele>
        <time>2014-02-16T08:23:00Z</time>
      </trkpt>
      <trkpt lat="45.83064" lon="4.8105">
        <ele>400</ele>
        <time>2014-02-16T08:23:04Z</time>
      </trkpt>
      <trkpt lat="45.83074" lon="4.81044">
        <ele>400</ele>
        <time>2014-02-16T08:23:07Z</time>
      </trkpt>
      <trkpt lat="45.83079" lon="4.81037">
        <ele>401</ele>
        <time>2014-02-16T08:23:09Z</time>
      </trkpt>
      <trkpt lat="45.83085" lon="4.81022">
        <ele>395</ele>
        <time>2014-02-16T08:23:14Z</time>
      </trkpt>
      <trkpt lat="45.83089" lon="4.8101">
        <ele>398</ele>
        <time>2014-02-16T08:23:18Z</time>
      </trkpt>
      <trkpt lat="45.83093" lon="4.81003">
        <ele>399</ele>
        <time>2014-02-16T08:23:20Z</time>
      </trkpt>
      <trkpt lat="45.83095" lon="4.80997">
        <ele>404</ele>
        <time>2014-02-16T08:23:22Z</time>
      </trkpt>
      <trkpt lat="45.83099" lon="4.80987">
        <ele>404</ele>
        <time>2014-02-16T08:23:26Z</time>
      </trkpt>
      <trkpt lat="45.83103" lon="4.80982">
        <ele>404</ele>
        <time>2014-02-16T08:23:28Z</time>
      </trkpt>
      <trkpt lat="45.83107" lon="4.80977">
        <ele>404</ele>
        <time>2014-02-16T08:23:30Z</time>
      </trkpt>
      <trkpt lat="45.83108" lon="4.80975">
        <ele>404</ele>
        <time>2014-02-16T08:23:31Z</time>
      </trkpt>
      <trkpt lat="45.83127" lon="4.80975">
        <ele>403</ele>
        <time>2014-02-16T08:23:36Z</time>
      </trkpt>
      <trkpt lat="45.8313" lon="4.80975">
        <ele>402</ele>
        <time>2014-02-16T08:23:37Z</time>
      </trkpt>
      <trkpt lat="45.83135" lon="4.80974">
        <ele>402</ele>
        <time>2014-02-16T08:23:40Z</time>
      </trkpt>
      <trkpt lat="45.83139" lon="4.80975">
        <ele>401</ele>
        <time>2014-02-16T08:23:43Z</time>
      </trkpt>
      <trkpt lat="45.83141" lon="4.80974">
        <ele>401</ele>
        <time>2014-02-16T08:23:44Z</time>
      </trkpt>
      <trkpt lat="45.83141" lon="4.80974">
        <ele>401</ele>
        <time>2014-02-16T08:23:45Z</time>
      </trkpt>
      <trkpt lat="45.83145" lon="4.80968">
        <ele>402</ele>
        <time>2014-02-16T08:23:50Z</time>
      </trkpt>
      <trkpt lat="45.83148" lon="4.80961">
        <ele>402</ele>
        <time>2014-02-16T08:23:52Z</time>
      </trkpt>
      <trkpt lat="45.83152" lon="4.80962">
        <ele>402</ele>
        <time>2014-02-16T08:23:56Z</time>
      </trkpt>
      <trkpt lat="45.83152" lon="4.80967">
        <ele>401</ele>
        <time>2014-02-16T08:24:00Z</time>
      </trkpt>
      <trkpt lat="45.83152" lon="4.80971">
        <ele>400</ele>
        <time>2014-02-16T08:24:03Z</time>
      </trkpt>
      <trkpt lat="45.83152" lon="4.80973">
        <ele>400</ele>
        <time>2014-02-16T08:24:04Z</time>
      </trkpt>
      <trkpt lat="45.83151" lon="4.80973">
        <ele>400</ele>
        <time>2014-02-16T08:24:05Z</time>
      </trkpt>
      <trkpt lat="45.83152" lon="4.8098">
        <ele>399</ele>
        <time>2014-02-16T08:24:10Z</time>
      </trkpt>
      <trkpt lat="45.83151" lon="4.80983">
        <ele>398</ele>
        <time>2014-02-16T08:24:13Z</time>
      </trkpt>
      <trkpt lat="45.83151" lon="4.80983">
        <ele>398</ele>
        <time>2014-02-16T08:24:15Z</time>
      </trkpt>
      <trkpt lat="45.83151" lon="4.80987">
        <ele>398</ele>
        <time>2014-02-16T08:24:19Z</time>
      </trkpt>
      <trkpt lat="45.83153" lon="4.80992">
        <ele>396</ele>
        <time>2014-02-16T08:24:24Z</time>
      </trkpt>
      <trkpt lat="45.83154" lon="4.80995">
        <ele>395</ele>
        <time>2014-02-16T08:24:27Z</time>
      </trkpt>
      <trkpt lat="45.83154" lon="4.80997">
        <ele>395</ele>
        <time>2014-02-16T08:24:30Z</time>
      </trkpt>
      <trkpt lat="45.83157" lon="4.81">
        <ele>389</ele>
        <time>2014-02-16T08:24:37Z</time>
      </trkpt>
      <trkpt lat="45.83158" lon="4.81003">
        <ele>389</ele>
        <time>2014-02-16T08:24:42Z</time>
      </trkpt>
      <trkpt lat="45.83159" lon="4.81002">
        <ele>389</ele>
        <time>2014-02-16T08:24:47Z</time>
      </trkpt>
      <trkpt lat="45.83162" lon="4.80997">
        <ele>392</ele>
        <time>2014-02-16T08:24:51Z</time>
      </trkpt>
      <trkpt lat="45.83157" lon="4.8101">
        <ele>389</ele>
        <time>2014-02-16T08:34:19Z</time>
      </trkpt>
      <trkpt lat="45.83158" lon="4.81014">
        <ele>389</ele>
        <time>2014-02-16T08:34:23Z</time>
      </trkpt>
      <trkpt lat="45.83157" lon="4.81017">
        <ele>389</ele>
        <time>2014-02-16T08:34:28Z</time>
      </trkpt>
      <trkpt lat="45.83155" lon="4.81021">
        <ele>388</ele>
        <time>2014-02-16T08:34:36Z</time>
      </trkpt>
      <trkpt lat="45.83151" lon="4.81021">
        <ele>389</ele>
        <time>2014-02-16T08:34:41Z</time>
      </trkpt>
      <trkpt lat="45.83147" lon="4.8102">
        <ele>389</ele>
        <time>2014-02-16T08:34:44Z</time>
      </trkpt>
      <trkpt lat="45.83146" lon="4.81022">
        <ele>389</ele>
        <time>2014-02-16T08:34:45Z</time>
      </trkpt>
      <trkpt lat="45.83146" lon="4.81024">
        <ele>389</ele>
        <time>2014-02-16T08:34:47Z</time>
      </trkpt>
      <trkpt lat="45.83146" lon="4.81026">
        <ele>388</ele>
        <time>2014-02-16T08:34:51Z</time>
      </trkpt>
      <trkpt lat="45.83147" lon="4.81028">
        <ele>388</ele>
        <time>2014-02-16T08:34:56Z</time>
      </trkpt>
      <trkpt lat="45.83149" lon="4.81037">
        <ele>387</ele>
        <time>2014-02-16T08:35:00Z</time>
      </trkpt>
      <trkpt lat="45.8315" lon="4.81039">
        <ele>387</ele>
        <time>2014-02-16T08:35:01Z</time>
      </trkpt>
      <trkpt lat="45.83152" lon="4.81042">
        <ele>387</ele>
        <time>2014-02-16T08:35:05Z</time>
      </trkpt>
      <trkpt lat="45.83152" lon="4.81043">
        <ele>386</ele>
        <time>2014-02-16T08:35:06Z</time>
      </trkpt>
      <trkpt lat="45.83154" lon="4.81048">
        <ele>386</ele>
        <time>2014-02-16T08:35:11Z</time>
      </trkpt>
      <trkpt lat="45.83154" lon="4.81048">
        <ele>386</ele>
        <time>2014-02-16T08:35:12Z</time>
      </trkpt>
      <trkpt lat="45.83156" lon="4.81048">
        <ele>386</ele>
        <time>2014-02-16T08:35:17Z</time>
      </trkpt>
      <trkpt lat="45.83157" lon="4.81048">
        <ele>386</ele>
        <time>2014-02-16T08:35:18Z</time>
      </trkpt>
      <trkpt lat="45.83161" lon="4.81048">
        <ele>385</ele>
        <time>2014-02-16T08:35:22Z</time>
      </trkpt>
      <trkpt lat="45.83162" lon="4.81047">
        <ele>385</ele>
        <time>2014-02-16T08:35:23Z</time>
      </trkpt>
      <trkpt lat="45.83166" lon="4.81046">
        <ele>385</ele>
        <time>2014-02-16T08:35:27Z</time>
      </trkpt>
      <trkpt lat="45.83168" lon="4.81049">
        <ele>382</ele>
        <time>2014-02-16T08:35:30Z</time>
      </trkpt>
      <trkpt lat="45.83168" lon="4.8105">
        <ele>382</ele>
        <time>2014-02-16T08:35:31Z</time>
      </trkpt>
      <trkpt lat="45.8317" lon="4.81054">
        <ele>382</ele>
        <time>2014-02-16T08:35:33Z</time>
      </trkpt>
      <trkpt lat="45.83173" lon="4.81053">
        <ele>382</ele>
        <time>2014-02-16T08:35:37Z</time>
      </trkpt>
      <trkpt lat="45.83177" lon="4.81055">
        <ele>382</ele>
        <time>2014-02-16T08:35:40Z</time>
      </trkpt>
      <trkpt lat="45.83182" lon="4.81058">
        <ele>382</ele>
        <time>2014-02-16T08:35:43Z</time>
      </trkpt>
      <trkpt lat="45.83183" lon="4.81059">
        <ele>382</ele>
        <time>2014-02-16T08:35:44Z</time>
      </trkpt>
      <trkpt lat="45.83185" lon="4.81062">
        <ele>381</ele>
        <time>2014-02-16T08:35:47Z</time>
      </trkpt>
      <trkpt lat="45.83185" lon="4.81066">
        <ele>381</ele>
        <time>2014-02-16T08:35:51Z</time>
      </trkpt>
      <trkpt lat="45.83185" lon="4.81068">
        <ele>381</ele>
        <time>2014-02-16T08:35:52Z</time>
      </trkpt>
      <trkpt lat="45.83186" lon="4.81069">
        <ele>381</ele>
        <time>2014-02-16T08:35:55Z</time>
      </trkpt>
      <trkpt lat="45.83188" lon="4.8107">
        <ele>381</ele>
        <time>2014-02-16T08:35:56Z</time>
      </trkpt>
      <trkpt lat="45.83198" lon="4.81072">
        <ele>381</ele>
        <time>2014-02-16T08:36:00Z</time>
      </trkpt>
      <trkpt lat="45.832" lon="4.81072">
        <ele>381</ele>
        <time>2014-02-16T08:36:01Z</time>
      </trkpt>
      <trkpt lat="45.8321" lon="4.81074">
        <ele>382</ele>
        <time>2014-02-16T08:36:05Z</time>
      </trkpt>
      <trkpt lat="45.8322" lon="4.81076">
        <ele>381</ele>
        <time>2014-02-16T08:36:09Z</time>
      </trkpt>
      <trkpt lat="45.83225" lon="4.81077">
        <ele>381</ele>
        <time>2014-02-16T08:36:11Z</time>
      </trkpt>
      <trkpt lat="45.83238" lon="4.81081">
        <ele>380</ele>
        <time>2014-02-16T08:36:16Z</time>
      </trkpt>
      <trkpt lat="45.83239" lon="4.81082">
        <ele>379</ele>
        <time>2014-02-16T08:36:17Z</time>
      </trkpt>
      <trkpt lat="45.8324" lon="4.81084">
        <ele>375</ele>
        <time>2014-02-16T08:36:18Z</time>
      </trkpt>
      <trkpt lat="45.83242" lon="4.81095">
        <ele>374</ele>
        <time>2014-02-16T08:36:22Z</time>
      </trkpt>
      <trkpt lat="45.83241" lon="4.81107">
        <ele>372</ele>
        <time>2014-02-16T08:36:25Z</time>
      </trkpt>
      <trkpt lat="45.8324" lon="4.81115">
        <ele>371</ele>
        <time>2014-02-16T08:36:27Z</time>
      </trkpt>
      <trkpt lat="45.8324" lon="4.81125">
        <ele>370</ele>
        <time>2014-02-16T08:36:29Z</time>
      </trkpt>
      <trkpt lat="45.83241" lon="4.81134">
        <ele>369</ele>
        <time>2014-02-16T08:36:31Z</time>
      </trkpt>
      <trkpt lat="45.83242" lon="4.81138">
        <ele>369</ele>
        <time>2014-02-16T08:36:32Z</time>
      </trkpt>
      <trkpt lat="45.83243" lon="4.81157">
        <ele>367</ele>
        <time>2014-02-16T08:36:37Z</time>
      </trkpt>
      <trkpt lat="45.83244" lon="4.81161">
        <ele>367</ele>
        <time>2014-02-16T08:36:38Z</time>
      </trkpt>
      <trkpt lat="45.83245" lon="4.81164">
        <ele>367</ele>
        <time>2014-02-16T08:36:40Z</time>
      </trkpt>
      <trkpt lat="45.83246" lon="4.81164">
        <ele>367</ele>
        <time>2014-02-16T08:36:41Z</time>
      </trkpt>
      <trkpt lat="45.8325" lon="4.81164">
        <ele>366</ele>
        <time>2014-02-16T08:36:46Z</time>
      </trkpt>
      <trkpt lat="45.83249" lon="4.81161">
        <ele>367</ele>
        <time>2014-02-16T08:36:51Z</time>
      </trkpt>
      <trkpt lat="45.83246" lon="4.81158">
        <ele>367</ele>
        <time>2014-02-16T08:36:56Z</time>
      </trkpt>
      <trkpt lat="45.83247" lon="4.81163">
        <ele>367</ele>
        <time>2014-02-16T08:38:00Z</time>
      </trkpt>
      <trkpt lat="45.83249" lon="4.81165">
        <ele>366</ele>
        <time>2014-02-16T08:38:02Z</time>
      </trkpt>
      <trkpt lat="45.83248" lon="4.81166">
        <ele>366</ele>
        <time>2014-02-16T08:38:06Z</time>
      </trkpt>
      <trkpt lat="45.83247" lon="4.81163">
        <ele>367</ele>
        <time>2014-02-16T08:38:10Z</time>
      </trkpt>
      <trkpt lat="45.83245" lon="4.81165">
        <ele>367</ele>
        <time>2014-02-16T08:38:14Z</time>
      </trkpt>
      <trkpt lat="45.83243" lon="4.81164">
        <ele>367</ele>
        <time>2014-02-16T08:38:15Z</time>
      </trkpt>
      <trkpt lat="45.83242" lon="4.81163">
        <ele>367</ele>
        <time>2014-02-16T08:38:21Z</time>
      </trkpt>
      <trkpt lat="45.83241" lon="4.81162">
        <ele>367</ele>
        <time>2014-02-16T08:38:22Z</time>
      </trkpt>
      <trkpt lat="45.83242" lon="4.81161">
        <ele>367</ele>
        <time>2014-02-16T08:38:25Z</time>
      </trkpt>
      <trkpt lat="45.83243" lon="4.81162">
        <ele>367</ele>
        <time>2014-02-16T08:38:31Z</time>
      </trkpt>
      <trkpt lat="45.8324" lon="4.8116">
        <ele>367</ele>
        <time>2014-02-16T08:38:34Z</time>
      </trkpt>
      <trkpt lat="45.83239" lon="4.81158">
        <ele>368</ele>
        <time>2014-02-16T08:38:35Z</time>
      </trkpt>
      <trkpt lat="45.83242" lon="4.81143">
        <ele>369</ele>
        <time>2014-02-16T08:38:40Z</time>
      </trkpt>
      <trkpt lat="45.83241" lon="4.81142">
        <ele>369</ele>
        <time>2014-02-16T08:38:41Z</time>
      </trkpt>
      <trkpt lat="45.83236" lon="4.81138">
        <ele>369</ele>
        <time>2014-02-16T08:38:44Z</time>
      </trkpt>
      <trkpt lat="45.8323" lon="4.81145">
        <ele>369</ele>
        <time>2014-02-16T08:38:48Z</time>
      </trkpt>
      <trkpt lat="45.8323" lon="4.81149">
        <ele>368</ele>
        <time>2014-02-16T08:38:49Z</time>
      </trkpt>
      <trkpt lat="45.83232" lon="4.81164">
        <ele>368</ele>
        <time>2014-02-16T08:38:52Z</time>
      </trkpt>
      <trkpt lat="45.83233" lon="4.81169">
        <ele>362</ele>
        <time>2014-02-16T08:38:53Z</time>
      </trkpt>
      <trkpt lat="45.83234" lon="4.81178">
        <ele>361</ele>
        <time>2014-02-16T08:38:55Z</time>
      </trkpt>
      <trkpt lat="45.83235" lon="4.8119">
        <ele>360</ele>
        <time>2014-02-16T08:38:58Z</time>
      </trkpt>
      <trkpt lat="45.83234" lon="4.81194">
        <ele>360</ele>
        <time>2014-02-16T08:38:59Z</time>
      </trkpt>
      <trkpt lat="45.83232" lon="4.81203">
        <ele>359</ele>
        <time>2014-02-16T08:39:01Z</time>
      </trkpt>
      <trkpt lat="45.83229" lon="4.81223">
        <ele>357</ele>
        <time>2014-02-16T08:39:06Z</time>
      </trkpt>
      <trkpt lat="45.8323" lon="4.81223">
        <ele>357</ele>
        <time>2014-02-16T08:39:07Z</time>
      </trkpt>
      <trkpt lat="45.8323" lon="4.81227">
        <ele>357</ele>
        <time>2014-02-16T08:39:10Z</time>
      </trkpt>
      <trkpt lat="45.83231" lon="4.8123">
        <ele>357</ele>
        <time>2014-02-16T08:39:12Z</time>
      </trkpt>
      <trkpt lat="45.83232" lon="4.81235">
        <ele>357</ele>
        <time>2014-02-16T08:39:17Z</time>
      </trkpt>
      <trkpt lat="45.83233" lon="4.81239">
        <ele>356</ele>
        <time>2014-02-16T08:39:20Z</time>
      </trkpt>
      <trkpt lat="45.83233" lon="4.81241">
        <ele>356</ele>
        <time>2014-02-16T08:39:21Z</time>
      </trkpt>
      <trkpt lat="45.83233" lon="4.81256">
        <ele>350</ele>
        <time>2014-02-16T08:39:26Z</time>
      </trkpt>
      <trkpt lat="45.83234" lon="4.81261">
        <ele>350</ele>
        <time>2014-02-16T08:39:27Z</time>
      </trkpt>
      <trkpt lat="45.83236" lon="4.81279">
        <ele>347</ele>
        <time>2014-02-16T08:39:32Z</time>
      </trkpt>
      <trkpt lat="45.83238" lon="4.81284">
        <ele>347</ele>
        <time>2014-02-16T08:39:34Z</time>
      </trkpt>
      <trkpt lat="45.8324" lon="4.81287">
        <ele>346</ele>
        <time>2014-02-16T08:39:36Z</time>
      </trkpt>
      <trkpt lat="45.8324" lon="4.8129">
        <ele>346</ele>
        <time>2014-02-16T08:39:37Z</time>
      </trkpt>
      <trkpt lat="45.83243" lon="4.81298">
        <ele>345</ele>
        <time>2014-02-16T08:39:40Z</time>
      </trkpt>
      <trkpt lat="45.83245" lon="4.81304">
        <ele>345</ele>
        <time>2014-02-16T08:39:42Z</time>
      </trkpt>
      <trkpt lat="45.83247" lon="4.81307">
        <ele>345</ele>
        <time>2014-02-16T08:39:43Z</time>
      </trkpt>
      <trkpt lat="45.83249" lon="4.81316">
        <ele>344</ele>
        <time>2014-02-16T08:39:46Z</time>
      </trkpt>
      <trkpt lat="45.83252" lon="4.81328">
        <ele>346</ele>
        <time>2014-02-16T08:39:50Z</time>
      </trkpt>
      <trkpt lat="45.83251" lon="4.81331">
        <ele>345</ele>
        <time>2014-02-16T08:39:51Z</time>
      </trkpt>
      <trkpt lat="45.8325" lon="4.81334">
        <ele>344</ele>
        <time>2014-02-16T08:39:52Z</time>
      </trkpt>
      <trkpt lat="45.83243" lon="4.81342">
        <ele>338</ele>
        <time>2014-02-16T08:39:56Z</time>
      </trkpt>
      <trkpt lat="45.83242" lon="4.81346">
        <ele>336</ele>
        <time>2014-02-16T08:39:58Z</time>
      </trkpt>
      <trkpt lat="45.83243" lon="4.81348">
        <ele>336</ele>
        <time>2014-02-16T08:40:00Z</time>
      </trkpt>
      <trkpt lat="45.83244" lon="4.8135">
        <ele>335</ele>
        <time>2014-02-16T08:40:05Z</time>
      </trkpt>
      <trkpt lat="45.83243" lon="4.8135">
        <ele>335</ele>
        <time>2014-02-16T08:40:06Z</time>
      </trkpt>
      <trkpt lat="45.83241" lon="4.8135">
        <ele>335</ele>
        <time>2014-02-16T08:40:07Z</time>
      </trkpt>
      <trkpt lat="45.83238" lon="4.8135">
        <ele>334</ele>
        <time>2014-02-16T08:40:09Z</time>
      </trkpt>
      <trkpt lat="45.83235" lon="4.81356">
        <ele>332</ele>
        <time>2014-02-16T08:40:11Z</time>
      </trkpt>
      <trkpt lat="45.8323" lon="4.81359">
        <ele>331</ele>
        <time>2014-02-16T08:40:13Z</time>
      </trkpt>
      <trkpt lat="45.83224" lon="4.81362">
        <ele>330</ele>
        <time>2014-02-16T08:40:16Z</time>
      </trkpt>
      <trkpt lat="45.83217" lon="4.81354">
        <ele>330</ele>
        <time>2014-02-16T08:40:20Z</time>
      </trkpt>
      <trkpt lat="45.83212" lon="4.81352">
        <ele>330</ele>
        <time>2014-02-16T08:40:22Z</time>
      </trkpt>
      <trkpt lat="45.83208" lon="4.81351">
        <ele>329</ele>
        <time>2014-02-16T08:40:24Z</time>
      </trkpt>
      <trkpt lat="45.83208" lon="4.81353">
        <ele>329</ele>
        <time>2014-02-16T08:40:25Z</time>
      </trkpt>
      <trkpt lat="45.83205" lon="4.8136">
        <ele>328</ele>
        <time>2014-02-16T08:40:27Z</time>
      </trkpt>
      <trkpt lat="45.83196" lon="4.8136">
        <ele>327</ele>
        <time>2014-02-16T08:40:32Z</time>
      </trkpt>
      <trkpt lat="45.83194" lon="4.81359">
        <ele>327</ele>
        <time>2014-02-16T08:40:33Z</time>
      </trkpt>
      <trkpt lat="45.83192" lon="4.81358">
        <ele>327</ele>
        <time>2014-02-16T08:40:37Z</time>
      </trkpt>
      <trkpt lat="45.83191" lon="4.81362">
        <ele>327</ele>
        <time>2014-02-16T08:40:42Z</time>
      </trkpt>
      <trkpt lat="45.83193" lon="4.81367">
        <ele>326</ele>
        <time>2014-02-16T08:40:45Z</time>
      </trkpt>
      <trkpt lat="45.83194" lon="4.81369">
        <ele>326</ele>
        <time>2014-02-16T08:40:47Z</time>
      </trkpt>
      <trkpt lat="45.83193" lon="4.81359">
        <ele>327</ele>
        <time>2014-02-16T08:44:50Z</time>
      </trkpt>
      <trkpt lat="45.83193" lon="4.81357">
        <ele>327</ele>
        <time>2014-02-16T08:44:52Z</time>
      </trkpt>
      <trkpt lat="45.83195" lon="4.81356">
        <ele>328</ele>
        <time>2014-02-16T08:44:55Z</time>
      </trkpt>
      <trkpt lat="45.83196" lon="4.81357">
        <ele>328</ele>
        <time>2014-02-16T08:44:56Z</time>
      </trkpt>
      <trkpt lat="45.832" lon="4.81362">
        <ele>327</ele>
        <time>2014-02-16T08:45:01Z</time>
      </trkpt>
      <trkpt lat="45.83202" lon="4.81361">
        <ele>328</ele>
        <time>2014-02-16T08:45:02Z</time>
      </trkpt>
      <trkpt lat="45.83206" lon="4.81357">
        <ele>328</ele>
        <time>2014-02-16T08:45:05Z</time>
      </trkpt>
      <trkpt lat="45.83207" lon="4.81355">
        <ele>329</ele>
        <time>2014-02-16T08:45:06Z</time>
      </trkpt>
      <trkpt lat="45.83208" lon="4.81352">
        <ele>329</ele>
        <time>2014-02-16T08:45:07Z</time>
      </trkpt>
      <trkpt lat="45.83211" lon="4.8135">
        <ele>330</ele>
        <time>2014-02-16T08:45:09Z</time>
      </trkpt>
      <trkpt lat="45.83215" lon="4.81351">
        <ele>330</ele>
        <time>2014-02-16T08:45:11Z</time>
      </trkpt>
      <trkpt lat="45.8322" lon="4.81356">
        <ele>330</ele>
        <time>2014-02-16T08:45:14Z</time>
      </trkpt>
      <trkpt lat="45.83224" lon="4.8136">
        <ele>330</ele>
        <time>2014-02-16T08:45:16Z</time>
      </trkpt>
      <trkpt lat="45.83227" lon="4.81361">
        <ele>330</ele>
        <time>2014-02-16T08:45:18Z</time>
      </trkpt>
      <trkpt lat="45.83228" lon="4.8136">
        <ele>331</ele>
        <time>2014-02-16T08:45:19Z</time>
      </trkpt>
      <trkpt lat="45.83232" lon="4.81358">
        <ele>332</ele>
        <time>2014-02-16T08:45:21Z</time>
      </trkpt>
      <trkpt lat="45.83235" lon="4.81355">
        <ele>333</ele>
        <time>2014-02-16T08:45:23Z</time>
      </trkpt>
      <trkpt lat="45.83237" lon="4.81354">
        <ele>333</ele>
        <time>2014-02-16T08:45:24Z</time>
      </trkpt>
      <trkpt lat="45.83241" lon="4.81351">
        <ele>334</ele>
        <time>2014-02-16T08:45:27Z</time>
      </trkpt>
      <trkpt lat="45.83243" lon="4.81351">
        <ele>335</ele>
        <time>2014-02-16T08:45:29Z</time>
      </trkpt>
      <trkpt lat="45.83244" lon="4.81348">
        <ele>336</ele>
        <time>2014-02-16T08:45:34Z</time>
      </trkpt>
      <trkpt lat="45.83245" lon="4.81338">
        <ele>340</ele>
        <time>2014-02-16T08:45:41Z</time>
      </trkpt>
      <trkpt lat="45.83246" lon="4.81337">
        <ele>341</ele>
        <time>2014-02-16T08:45:42Z</time>
      </trkpt>
      <trkpt lat="45.83248" lon="4.81333">
        <ele>344</ele>
        <time>2014-02-16T08:45:45Z</time>
      </trkpt>
      <trkpt lat="45.8325" lon="4.81331">
        <ele>344</ele>
        <time>2014-02-16T08:45:47Z</time>
      </trkpt>
      <trkpt lat="45.83254" lon="4.81328">
        <ele>346</ele>
        <time>2014-02-16T08:45:51Z</time>
      </trkpt>
      <trkpt lat="45.83254" lon="4.81325">
        <ele>346</ele>
        <time>2014-02-16T08:45:54Z</time>
      </trkpt>
      <trkpt lat="45.83253" lon="4.8132">
        <ele>347</ele>
        <time>2014-02-16T08:45:58Z</time>
      </trkpt>
      <trkpt lat="45.83251" lon="4.81318">
        <ele>348</ele>
        <time>2014-02-16T08:46:00Z</time>
      </trkpt>
      <trkpt lat="45.8325" lon="4.81316">
        <ele>344</ele>
        <time>2014-02-16T08:46:01Z</time>
      </trkpt>
      <trkpt lat="45.83249" lon="4.81313">
        <ele>345</ele>
        <time>2014-02-16T08:46:03Z</time>
      </trkpt>
      <trkpt lat="45.83248" lon="4.81312">
        <ele>345</ele>
        <time>2014-02-16T08:46:04Z</time>
      </trkpt>
      <trkpt lat="45.83245" lon="4.81307">
        <ele>345</ele>
        <time>2014-02-16T08:46:09Z</time>
      </trkpt>
      <trkpt lat="45.83245" lon="4.81301">
        <ele>345</ele>
        <time>2014-02-16T08:46:13Z</time>
      </trkpt>
      <trkpt lat="45.83244" lon="4.81296">
        <ele>346</ele>
        <time>2014-02-16T08:46:16Z</time>
      </trkpt>
      <trkpt lat="45.83243" lon="4.81293">
        <ele>346</ele>
        <time>2014-02-16T08:46:18Z</time>
      </trkpt>
      <trkpt lat="45.83242" lon="4.8129">
        <ele>346</ele>
        <time>2014-02-16T08:46:21Z</time>
      </trkpt>
      <trkpt lat="45.83241" lon="4.81287">
        <ele>347</ele>
        <time>2014-02-16T08:46:23Z</time>
      </trkpt>
      <trkpt lat="45.83239" lon="4.81284">
        <ele>347</ele>
        <time>2014-02-16T08:46:25Z</time>
      </trkpt>
      <trkpt lat="45.83237" lon="4.81281">
        <ele>347</ele>
        <time>2014-02-16T08:46:27Z</time>
      </trkpt>
      <trkpt lat="45.83235" lon="4.81276">
        <ele>348</ele>
        <time>2014-02-16T08:46:30Z</time>
      </trkpt>
      <trkpt lat="45.83235" lon="4.81273">
        <ele>348</ele>
        <time>2014-02-16T08:46:32Z</time>
      </trkpt>
      <trkpt lat="45.83235" lon="4.8127">
        <ele>348</ele>
        <time>2014-02-16T08:46:33Z</time>
      </trkpt>
      <trkpt lat="45.83235" lon="4.81268">
        <ele>349</ele>
        <time>2014-02-16T08:46:34Z</time>
      </trkpt>
      <trkpt lat="45.83233" lon="4.8126">
        <ele>350</ele>
        <time>2014-02-16T08:46:38Z</time>
      </trkpt>
      <trkpt lat="45.83232" lon="4.81255">
        <ele>350</ele>
        <time>2014-02-16T08:46:40Z</time>
      </trkpt>
      <trkpt lat="45.83231" lon="4.81248">
        <ele>356</ele>
        <time>2014-02-16T08:46:42Z</time>
      </trkpt>
      <trkpt lat="45.83231" lon="4.81244">
        <ele>356</ele>
        <time>2014-02-16T08:46:43Z</time>
      </trkpt>
      <trkpt lat="45.83232" lon="4.81232">
        <ele>357</ele>
        <time>2014-02-16T08:46:46Z</time>
      </trkpt>
      <trkpt lat="45.83233" lon="4.81217">
        <ele>358</ele>
        <time>2014-02-16T08:46:49Z</time>
      </trkpt>
      <trkpt lat="45.83233" lon="4.81211">
        <ele>358</ele>
        <time>2014-02-16T08:46:50Z</time>
      </trkpt>
      <trkpt lat="45.83234" lon="4.81191">
        <ele>360</ele>
        <time>2014-02-16T08:46:55Z</time>
      </trkpt>
      <trkpt lat="45.83234" lon="4.81187">
        <ele>360</ele>
        <time>2014-02-16T08:46:56Z</time>
      </trkpt>
      <trkpt lat="45.83234" lon="4.81184">
        <ele>361</ele>
        <time>2014-02-16T08:46:57Z</time>
      </trkpt>
      <trkpt lat="45.83231" lon="4.81175">
        <ele>361</ele>
        <time>2014-02-16T08:47:00Z</time>
      </trkpt>
      <trkpt lat="45.83226" lon="4.81163">
        <ele>368</ele>
        <time>2014-02-16T08:47:04Z</time>
      </trkpt>
      <trkpt lat="45.83227" lon="4.81156">
        <ele>368</ele>
        <time>2014-02-16T08:47:06Z</time>
      </trkpt>
      <trkpt lat="45.83228" lon="4.81152">
        <ele>368</ele>
        <time>2014-02-16T08:47:07Z</time>
      </trkpt>
      <trkpt lat="45.83231" lon="4.8114">
        <ele>369</ele>
        <time>2014-02-16T08:47:11Z</time>
      </trkpt>
      <trkpt lat="45.83232" lon="4.81139">
        <ele>369</ele>
        <time>2014-02-16T08:47:12Z</time>
      </trkpt>
      <trkpt lat="45.83233" lon="4.81135">
        <ele>369</ele>
        <time>2014-02-16T08:47:14Z</time>
      </trkpt>
      <trkpt lat="45.83236" lon="4.81133">
        <ele>370</ele>
        <time>2014-02-16T08:47:16Z</time>
      </trkpt>
      <trkpt lat="45.83236" lon="4.8113">
        <ele>370</ele>
        <time>2014-02-16T08:47:17Z</time>
      </trkpt>
      <trkpt lat="45.83234" lon="4.8112">
        <ele>371</ele>
        <time>2014-02-16T08:47:21Z</time>
      </trkpt>
      <trkpt lat="45.83235" lon="4.81113">
        <ele>371</ele>
        <time>2014-02-16T08:47:25Z</time>
      </trkpt>
      <trkpt lat="45.83235" lon="4.8111">
        <ele>372</ele>
        <time>2014-02-16T08:47:26Z</time>
      </trkpt>
      <trkpt lat="45.83235" lon="4.81098">
        <ele>373</ele>
        <time>2014-02-16T08:47:31Z</time>
      </trkpt>
      <trkpt lat="45.83236" lon="4.81094">
        <ele>373</ele>
        <time>2014-02-16T08:47:33Z</time>
      </trkpt>
      <trkpt lat="45.83234" lon="4.8109">
        <ele>374</ele>
        <time>2014-02-16T08:47:37Z</time>
      </trkpt>
      <trkpt lat="45.83233" lon="4.81087">
        <ele>374</ele>
        <time>2014-02-16T08:47:39Z</time>
      </trkpt>
      <trkpt lat="45.83229" lon="4.81084">
        <ele>373</ele>
        <time>2014-02-16T08:47:42Z</time>
      </trkpt>
      <trkpt lat="45.83223" lon="4.81082">
        <ele>381</ele>
        <time>2014-02-16T08:47:47Z</time>
      </trkpt>
      <trkpt lat="45.83218" lon="4.81083">
        <ele>381</ele>
        <time>2014-02-16T08:47:50Z</time>
      </trkpt>
      <trkpt lat="45.83215" lon="4.81081">
        <ele>381</ele>
        <time>2014-02-16T08:47:52Z</time>
      </trkpt>
      <trkpt lat="45.83213" lon="4.81081">
        <ele>381</ele>
        <time>2014-02-16T08:47:53Z</time>
      </trkpt>
      <trkpt lat="45.83199" lon="4.81075">
        <ele>381</ele>
        <time>2014-02-16T08:48:00Z</time>
      </trkpt>
      <trkpt lat="45.83197" lon="4.81074">
        <ele>381</ele>
        <time>2014-02-16T08:48:01Z</time>
      </trkpt>
      <trkpt lat="45.8319" lon="4.81068">
        <ele>381</ele>
        <time>2014-02-16T08:48:05Z</time>
      </trkpt>
      <trkpt lat="45.83181" lon="4.81063">
        <ele>381</ele>
        <time>2014-02-16T08:48:09Z</time>
      </trkpt>
      <trkpt lat="45.83179" lon="4.81062">
        <ele>381</ele>
        <time>2014-02-16T08:48:10Z</time>
      </trkpt>
      <trkpt lat="45.83171" lon="4.81066">
        <ele>380</ele>
        <time>2014-02-16T08:48:15Z</time>
      </trkpt>
      <trkpt lat="45.83175" lon="4.81063">
        <ele>380</ele>
        <time>2014-02-16T08:48:21Z</time>
      </trkpt>
      <trkpt lat="45.83176" lon="4.81057">
        <ele>381</ele>
        <time>2014-02-16T08:48:30Z</time>
      </trkpt>
      <trkpt lat="45.83176" lon="4.81053">
        <ele>382</ele>
        <time>2014-02-16T08:48:34Z</time>
      </trkpt>
      <trkpt lat="45.83178" lon="4.81054">
        <ele>382</ele>
        <time>2014-02-16T08:48:36Z</time>
      </trkpt>
      <trkpt lat="45.8318" lon="4.81054">
        <ele>382</ele>
        <time>2014-02-16T08:48:38Z</time>
      </trkpt>
      <trkpt lat="45.83181" lon="4.81054">
        <ele>382</ele>
        <time>2014-02-16T08:48:40Z</time>
      </trkpt>
      <trkpt lat="45.83183" lon="4.81054">
        <ele>382</ele>
        <time>2014-02-16T08:48:43Z</time>
      </trkpt>
      <trkpt lat="45.83187" lon="4.81049">
        <ele>383</ele>
        <time>2014-02-16T08:48:47Z</time>
      </trkpt>
      <trkpt lat="45.8319" lon="4.81043">
        <ele>384</ele>
        <time>2014-02-16T08:48:52Z</time>
      </trkpt>
      <trkpt lat="45.8319" lon="4.81042">
        <ele>384</ele>
        <time>2014-02-16T08:48:53Z</time>
      </trkpt>
      <trkpt lat="45.83192" lon="4.81038">
        <ele>384</ele>
        <time>2014-02-16T08:48:56Z</time>
      </trkpt>
      <trkpt lat="45.83194" lon="4.81035">
        <ele>385</ele>
        <time>2014-02-16T08:48:59Z</time>
      </trkpt>
      <trkpt lat="45.83195" lon="4.81034">
        <ele>385</ele>
        <time>2014-02-16T08:49:00Z</time>
      </trkpt>
      <trkpt lat="45.83198" lon="4.81033">
        <ele>385</ele>
        <time>2014-02-16T08:49:03Z</time>
      </trkpt>
      <trkpt lat="45.832" lon="4.81032">
        <ele>385</ele>
        <time>2014-02-16T08:49:07Z</time>
      </trkpt>
      <trkpt lat="45.83202" lon="4.81029">
        <ele>385</ele>
        <time>2014-02-16T08:49:10Z</time>
      </trkpt>
      <trkpt lat="45.83204" lon="4.81026">
        <ele>386</ele>
        <time>2014-02-16T08:49:24Z</time>
      </trkpt>
      <trkpt lat="45.83204" lon="4.81024">
        <ele>386</ele>
        <time>2014-02-16T08:49:27Z</time>
      </trkpt>
      <trkpt lat="45.83203" lon="4.81021">
        <ele>386</ele>
        <time>2014-02-16T08:49:29Z</time>
      </trkpt>
      <trkpt lat="45.83204" lon="4.81016">
        <ele>386</ele>
        <time>2014-02-16T08:49:33Z</time>
      </trkpt>
      <trkpt lat="45.83206" lon="4.81014">
        <ele>387</ele>
        <time>2014-02-16T08:49:35Z</time>
      </trkpt>
      <trkpt lat="45.83208" lon="4.81012">
        <ele>387</ele>
        <time>2014-02-16T08:49:37Z</time>
      </trkpt>
      <trkpt lat="45.8321" lon="4.8101">
        <ele>387</ele>
        <time>2014-02-16T08:49:40Z</time>
      </trkpt>
      <trkpt lat="45.83213" lon="4.81009">
        <ele>387</ele>
        <time>2014-02-16T08:49:44Z</time>
      </trkpt>
      <trkpt lat="45.83215" lon="4.81007">
        <ele>388</ele>
        <time>2014-02-16T08:49:47Z</time>
      </trkpt>
      <trkpt lat="45.83218" lon="4.81008">
        <ele>388</ele>
        <time>2014-02-16T08:49:51Z</time>
      </trkpt>
      <trkpt lat="45.83221" lon="4.81009">
        <ele>388</ele>
        <time>2014-02-16T08:49:55Z</time>
      </trkpt>
      <trkpt lat="45.83224" lon="4.81009">
        <ele>388</ele>
        <time>2014-02-16T08:50:00Z</time>
      </trkpt>
      <trkpt lat="45.83224" lon="4.81006">
        <ele>389</ele>
        <time>2014-02-16T08:50:08Z</time>
      </trkpt>
      <trkpt lat="45.83225" lon="4.81003">
        <ele>389</ele>
        <time>2014-02-16T08:50:10Z</time>
      </trkpt>
      <trkpt lat="45.83226" lon="4.8101">
        <ele>389</ele>
        <time>2014-02-16T08:50:23Z</time>
      </trkpt>
      <trkpt lat="45.83227" lon="4.8101">
        <ele>389</ele>
        <time>2014-02-16T08:50:24Z</time>
      </trkpt>
      <trkpt lat="45.83229" lon="4.8101">
        <ele>389</ele>
        <time>2014-02-16T08:50:26Z</time>
      </trkpt>
      <trkpt lat="45.83229" lon="4.8101">
        <ele>389</ele>
        <time>2014-02-16T08:50:27Z</time>
      </trkpt>
      <trkpt lat="45.83224" lon="4.8101">
        <ele>388</ele>
        <time>2014-02-16T08:50:35Z</time>
      </trkpt>
      <trkpt lat="45.83227" lon="4.81006">
        <ele>389</ele>
        <time>2014-02-16T08:51:12Z</time>
      </trkpt>
      <trkpt lat="45.83232" lon="4.81006">
        <ele>390</ele>
        <time>2014-02-16T08:51:16Z</time>
      </trkpt>
      <trkpt lat="45.83233" lon="4.81006">
        <ele>390</ele>
        <time>2014-02-16T08:51:17Z</time>
      </trkpt>
      <trkpt lat="45.83238" lon="4.81004">
        <ele>391</ele>
        <time>2014-02-16T08:51:23Z</time>
      </trkpt>
      <trkpt lat="45.83243" lon="4.81003">
        <ele>393</ele>
        <time>2014-02-16T08:51:28Z</time>
      </trkpt>
      <trkpt lat="45.83241" lon="4.81004">
        <ele>392</ele>
        <time>2014-02-16T08:51:30Z</time>
      </trkpt>
      <trkpt lat="45.83238" lon="4.81003">
        <ele>391</ele>
        <time>2014-02-16T08:51:32Z</time>
      </trkpt>
      <trkpt lat="45.83236" lon="4.81">
        <ele>391</ele>
        <time>2014-02-16T08:51:34Z</time>
      </trkpt>
      <trkpt lat="45.83235" lon="4.81">
        <ele>391</ele>
        <time>2014-02-16T08:51:36Z</time>
      </trkpt>
      <trkpt lat="45.83235" lon="4.80998">
        <ele>397</ele>
        <time>2014-02-16T08:51:37Z</time>
      </trkpt>
      <trkpt lat="45.83235" lon="4.80991">
        <ele>398</ele>
        <time>2014-02-16T08:51:41Z</time>
      </trkpt>
      <trkpt lat="45.83233" lon="4.80988">
        <ele>398</ele>
        <time>2014-02-16T08:51:47Z</time>
      </trkpt>
      <trkpt lat="45.83231" lon="4.80982">
        <ele>398</ele>
        <time>2014-02-16T08:51:53Z</time>
      </trkpt>
      <trkpt lat="45.83229" lon="4.80978">
        <ele>398</ele>
        <time>2014-02-16T08:52:00Z</time>
      </trkpt>
      <trkpt lat="45.83228" lon="4.80979">
        <ele>398</ele>
        <time>2014-02-16T08:52:03Z</time>
      </trkpt>
      <trkpt lat="45.83228" lon="4.8098">
        <ele>398</ele>
        <time>2014-02-16T08:52:05Z</time>
      </trkpt>
      <trkpt lat="45.83227" lon="4.80976">
        <ele>399</ele>
        <time>2014-02-16T08:52:12Z</time>
      </trkpt>
      <trkpt lat="45.83225" lon="4.80974">
        <ele>399</ele>
        <time>2014-02-16T08:52:17Z</time>
      </trkpt>
      <trkpt lat="45.83224" lon="4.80975">
        <ele>399</ele>
        <time>2014-02-16T08:52:22Z</time>
      </trkpt>
      <trkpt lat="45.83223" lon="4.80971">
        <ele>399</ele>
        <time>2014-02-16T08:52:43Z</time>
      </trkpt>
      <trkpt lat="45.83223" lon="4.80966">
        <ele>399</ele>
        <time>2014-02-16T08:52:51Z</time>
      </trkpt>
      <trkpt lat="45.83225" lon="4.80962">
        <ele>400</ele>
        <time>2014-02-16T08:52:57Z</time>
      </trkpt>
      <trkpt lat="45.83225" lon="4.80961">
        <ele>400</ele>
        <time>2014-02-16T08:52:58Z</time>
      </trkpt>
      <trkpt lat="45.83223" lon="4.80958">
        <ele>400</ele>
        <time>2014-02-16T08:53:02Z</time>
      </trkpt>
      <trkpt lat="45.83224" lon="4.80954">
        <ele>400</ele>
        <time>2014-02-16T08:53:07Z</time>
      </trkpt>
      <trkpt lat="45.83227" lon="4.80952">
        <ele>401</ele>
        <time>2014-02-16T08:53:13Z</time>
      </trkpt>
      <trkpt lat="45.83233" lon="4.80948">
        <ele>401</ele>
        <time>2014-02-16T08:53:18Z</time>
      </trkpt>
      <trkpt lat="45.83233" lon="4.80948">
        <ele>401</ele>
        <time>2014-02-16T08:53:19Z</time>
      </trkpt>
      <trkpt lat="45.83236" lon="4.80944">
        <ele>402</ele>
        <time>2014-02-16T08:53:22Z</time>
      </trkpt>
      <trkpt lat="45.83238" lon="4.80942">
        <ele>402</ele>
        <time>2014-02-16T08:53:24Z</time>
      </trkpt>
      <trkpt lat="45.83238" lon="4.8094">
        <ele>402</ele>
        <time>2014-02-16T08:53:26Z</time>
      </trkpt>
      <trkpt lat="45.83238" lon="4.80938">
        <ele>403</ele>
        <time>2014-02-16T08:53:28Z</time>
      </trkpt>
      <trkpt lat="45.83239" lon="4.80937">
        <ele>403</ele>
        <time>2014-02-16T08:53:29Z</time>
      </trkpt>
      <trkpt lat="45.83242" lon="4.80932">
        <ele>404</ele>
        <time>2014-02-16T08:53:34Z</time>
      </trkpt>
      <trkpt lat="45.83243" lon="4.80929">
        <ele>404</ele>
        <time>2014-02-16T08:53:37Z</time>
      </trkpt>
      <trkpt lat="45.83243" lon="4.80927">
        <ele>405</ele>
        <time>2014-02-16T08:53:38Z</time>
      </trkpt>
      <trkpt lat="45.83244" lon="4.80926">
        <ele>405</ele>
        <time>2014-02-16T08:53:39Z</time>
      </trkpt>
      <trkpt lat="45.83244" lon="4.80924">
        <ele>405</ele>
        <time>2014-02-16T08:53:40Z</time>
      </trkpt>
      <trkpt lat="45.83248" lon="4.8092">
        <ele>407</ele>
        <time>2014-02-16T08:53:43Z</time>
      </trkpt>
      <trkpt lat="45.83248" lon="4.80919">
        <ele>407</ele>
        <time>2014-02-16T08:53:44Z</time>
      </trkpt>
      <trkpt lat="45.83248" lon="4.80918">
        <ele>407</ele>
        <time>2014-02-16T08:53:45Z</time>
      </trkpt>
      <trkpt lat="45.83248" lon="4.80917">
        <ele>407</ele>
        <time>2014-02-16T08:53:46Z</time>
      </trkpt>
      <trkpt lat="45.83248" lon="4.80916">
        <ele>408</ele>
        <time>2014-02-16T08:53:48Z</time>
      </trkpt>
      <trkpt lat="45.8325" lon="4.80909">
        <ele>409</ele>
        <time>2014-02-16T08:53:52Z</time>
      </trkpt>
      <trkpt lat="45.8325" lon="4.80906">
        <ele>410</ele>
        <time>2014-02-16T08:53:54Z</time>
      </trkpt>
      <trkpt lat="45.8325" lon="4.80905">
        <ele>410</ele>
        <time>2014-02-16T08:53:55Z</time>
      </trkpt>
      <trkpt lat="45.8325" lon="4.80903">
        <ele>410</ele>
        <time>2014-02-16T08:53:56Z</time>
      </trkpt>
      <trkpt lat="45.8325" lon="4.80902">
        <ele>410</ele>
        <time>2014-02-16T08:53:57Z</time>
      </trkpt>
      <trkpt lat="45.83252" lon="4.809">
        <ele>411</ele>
        <time>2014-02-16T08:54:00Z</time>
      </trkpt>
      <trkpt lat="45.83252" lon="4.809">
        <ele>411</ele>
        <time>2014-02-16T08:54:01Z</time>
      </trkpt>
      <trkpt lat="45.83256" lon="4.80896">
        <ele>411</ele>
        <time>2014-02-16T08:54:07Z</time>
      </trkpt>
      <trkpt lat="45.83256" lon="4.80892">
        <ele>412</ele>
        <time>2014-02-16T08:54:10Z</time>
      </trkpt>
      <trkpt lat="45.83256" lon="4.80891">
        <ele>412</ele>
        <time>2014-02-16T08:54:11Z</time>
      </trkpt>
      <trkpt lat="45.83252" lon="4.80883">
        <ele>412</ele>
        <time>2014-02-16T08:54:16Z</time>
      </trkpt>
      <trkpt lat="45.83252" lon="4.80882">
        <ele>413</ele>
        <time>2014-02-16T08:54:17Z</time>
      </trkpt>
      <trkpt lat="45.83251" lon="4.80876">
        <ele>413</ele>
        <time>2014-02-16T08:54:20Z</time>
      </trkpt>
      <trkpt lat="45.8325" lon="4.80868">
        <ele>412</ele>
        <time>2014-02-16T08:54:24Z</time>
      </trkpt>
      <trkpt lat="45.8325" lon="4.80858">
        <ele>413</ele>
        <time>2014-02-16T08:54:28Z</time>
      </trkpt>
      <trkpt lat="45.8325" lon="4.80855">
        <ele>414</ele>
        <time>2014-02-16T08:54:29Z</time>
      </trkpt>
      <trkpt lat="45.83251" lon="4.80846">
        <ele>415</ele>
        <time>2014-02-16T08:54:33Z</time>
      </trkpt>
      <trkpt lat="45.8325" lon="4.80843">
        <ele>415</ele>
        <time>2014-02-16T08:54:34Z</time>
      </trkpt>
      <trkpt lat="45.83249" lon="4.80837">
        <ele>415</ele>
        <time>2014-02-16T08:54:36Z</time>
      </trkpt>
      <trkpt lat="45.83251" lon="4.80835">
        <ele>416</ele>
        <time>2014-02-16T08:54:38Z</time>
      </trkpt>
      <trkpt lat="45.83252" lon="4.80834">
        <ele>416</ele>
        <time>2014-02-16T08:54:39Z</time>
      </trkpt>
      <trkpt lat="45.83257" lon="4.80833">
        <ele>417</ele>
        <time>2014-02-16T08:54:43Z</time>
      </trkpt>
      <trkpt lat="45.83259" lon="4.80833">
        <ele>417</ele>
        <time>2014-02-16T08:54:45Z</time>
      </trkpt>
      <trkpt lat="45.8326" lon="4.80832">
        <ele>417</ele>
        <time>2014-02-16T08:54:48Z</time>
      </trkpt>
      <trkpt lat="45.83263" lon="4.80832">
        <ele>418</ele>
        <time>2014-02-16T08:54:53Z</time>
      </trkpt>
      <trkpt lat="45.83266" lon="4.80831">
        <ele>418</ele>
        <time>2014-02-16T08:54:55Z</time>
      </trkpt>
      <trkpt lat="45.83269" lon="4.80827">
        <ele>418</ele>
        <time>2014-02-16T08:54:57Z</time>
      </trkpt>
      <trkpt lat="45.8327" lon="4.80825">
        <ele>419</ele>
        <time>2014-02-16T08:54:58Z</time>
      </trkpt>
      <trkpt lat="45.83274" lon="4.80819">
        <ele>419</ele>
        <time>2014-02-16T08:55:01Z</time>
      </trkpt>
      <trkpt lat="45.83275" lon="4.80819">
        <ele>419</ele>
        <time>2014-02-16T08:55:02Z</time>
      </trkpt>
      <trkpt lat="45.83277" lon="4.8082">
        <ele>419</ele>
        <time>2014-02-16T08:55:03Z</time>
      </trkpt>
      <trkpt lat="45.83281" lon="4.80822">
        <ele>419</ele>
        <time>2014-02-16T08:55:06Z</time>
      </trkpt>
      <trkpt lat="45.83282" lon="4.80822">
        <ele>419</ele>
        <time>2014-02-16T08:55:07Z</time>
      </trkpt>
      <trkpt lat="45.83283" lon="4.8082">
        <ele>420</ele>
        <time>2014-02-16T08:55:33Z</time>
      </trkpt>
      <trkpt lat="45.83285" lon="4.80819">
        <ele>420</ele>
        <time>2014-02-16T08:55:35Z</time>
      </trkpt>
      <trkpt lat="45.83286" lon="4.80818">
        <ele>420</ele>
        <time>2014-02-16T08:55:37Z</time>
      </trkpt>
      <trkpt lat="45.83289" lon="4.80819">
        <ele>420</ele>
        <time>2014-02-16T08:55:42Z</time>
      </trkpt>
      <trkpt lat="45.8329" lon="4.80821">
        <ele>420</ele>
        <time>2014-02-16T08:56:02Z</time>
      </trkpt>
      <trkpt lat="45.83286" lon="4.8082">
        <ele>420</ele>
        <time>2014-02-16T08:56:05Z</time>
      </trkpt>
      <trkpt lat="45.83285" lon="4.80813">
        <ele>420</ele>
        <time>2014-02-16T08:56:08Z</time>
      </trkpt>
      <trkpt lat="45.83285" lon="4.80809">
        <ele>420</ele>
        <time>2014-02-16T08:56:10Z</time>
      </trkpt>
      <trkpt lat="45.83284" lon="4.80808">
        <ele>420</ele>
        <time>2014-02-16T08:56:11Z</time>
      </trkpt>
      <trkpt lat="45.83283" lon="4.80804">
        <ele>420</ele>
        <time>2014-02-16T08:56:14Z</time>
      </trkpt>
      <trkpt lat="45.83284" lon="4.80797">
        <ele>420</ele>
        <time>2014-02-16T08:56:18Z</time>
      </trkpt>
      <trkpt lat="45.83283" lon="4.80796">
        <ele>420</ele>
        <time>2014-02-16T08:56:20Z</time>
      </trkpt>
      <trkpt lat="45.83278" lon="4.80791">
        <ele>420</ele>
        <time>2014-02-16T08:56:25Z</time>
      </trkpt>
      <trkpt lat="45.83273" lon="4.8079">
        <ele>420</ele>
        <time>2014-02-16T08:56:30Z</time>
      </trkpt>
      <trkpt lat="45.83272" lon="4.80788">
        <ele>420</ele>
        <time>2014-02-16T08:56:31Z</time>
      </trkpt>
      <trkpt lat="45.83269" lon="4.80779">
        <ele>420</ele>
        <time>2014-02-16T08:56:34Z</time>
      </trkpt>
      <trkpt lat="45.83271" lon="4.80775">
        <ele>420</ele>
        <time>2014-02-16T08:56:36Z</time>
      </trkpt>
      <trkpt lat="45.83271" lon="4.80772">
        <ele>420</ele>
        <time>2014-02-16T08:56:38Z</time>
      </trkpt>
      <trkpt lat="45.83271" lon="4.80771">
        <ele>420</ele>
        <time>2014-02-16T08:56:39Z</time>
      </trkpt>
      <trkpt lat="45.8327" lon="4.80767">
        <ele>420</ele>
        <time>2014-02-16T08:56:42Z</time>
      </trkpt>
      <trkpt lat="45.83268" lon="4.8076">
        <ele>420</ele>
        <time>2014-02-16T08:56:46Z</time>
      </trkpt>
      <trkpt lat="45.83272" lon="4.80752">
        <ele>421</ele>
        <time>2014-02-16T08:56:50Z</time>
      </trkpt>
      <trkpt lat="45.83272" lon="4.80749">
        <ele>422</ele>
        <time>2014-02-16T08:56:51Z</time>
      </trkpt>
      <trkpt lat="45.83271" lon="4.80737">
        <ele>422</ele>
        <time>2014-02-16T08:56:55Z</time>
      </trkpt>
      <trkpt lat="45.83272" lon="4.80735">
        <ele>422</ele>
        <time>2014-02-16T08:56:56Z</time>
      </trkpt>
      <trkpt lat="45.83275" lon="4.80726">
        <ele>422</ele>
        <time>2014-02-16T08:57:00Z</time>
      </trkpt>
      <trkpt lat="45.83276" lon="4.80723">
        <ele>422</ele>
        <time>2014-02-16T08:57:01Z</time>
      </trkpt>
      <trkpt lat="45.83282" lon="4.80713">
        <ele>423</ele>
        <time>2014-02-16T08:57:06Z</time>
      </trkpt>
      <trkpt lat="45.83283" lon="4.80712">
        <ele>423</ele>
        <time>2014-02-16T08:57:07Z</time>
      </trkpt>
      <trkpt lat="45.83286" lon="4.80713">
        <ele>423</ele>
        <time>2014-02-16T08:57:10Z</time>
      </trkpt>
      <trkpt lat="45.83287" lon="4.80714">
        <ele>423</ele>
        <time>2014-02-16T08:57:11Z</time>
      </trkpt>
      <trkpt lat="45.83289" lon="4.80714">
        <ele>423</ele>
        <time>2014-02-16T08:57:12Z</time>
      </trkpt>
      <trkpt lat="45.83293" lon="4.80714">
        <ele>423</ele>
        <time>2014-02-16T08:57:15Z</time>
      </trkpt>
      <trkpt lat="45.833" lon="4.80711">
        <ele>423</ele>
        <time>2014-02-16T08:57:21Z</time>
      </trkpt>
      <trkpt lat="45.83306" lon="4.80706">
        <ele>424</ele>
        <time>2014-02-16T08:57:28Z</time>
      </trkpt>
      <trkpt lat="45.8331" lon="4.80705">
        <ele>424</ele>
        <time>2014-02-16T08:57:32Z</time>
      </trkpt>
      <trkpt lat="45.83312" lon="4.80706">
        <ele>424</ele>
        <time>2014-02-16T08:57:35Z</time>
      </trkpt>
      <trkpt lat="45.83316" lon="4.80706">
        <ele>424</ele>
        <time>2014-02-16T08:57:42Z</time>
      </trkpt>
      <trkpt lat="45.83317" lon="4.80703">
        <ele>424</ele>
        <time>2014-02-16T08:57:47Z</time>
      </trkpt>
      <trkpt lat="45.83323" lon="4.80698">
        <ele>424</ele>
        <time>2014-02-16T08:57:52Z</time>
      </trkpt>
      <trkpt lat="45.83323" lon="4.80697">
        <ele>425</ele>
        <time>2014-02-16T08:57:53Z</time>
      </trkpt>
      <trkpt lat="45.83326" lon="4.80693">
        <ele>425</ele>
        <time>2014-02-16T08:57:56Z</time>
      </trkpt>
      <trkpt lat="45.83329" lon="4.80692">
        <ele>425</ele>
        <time>2014-02-16T08:57:58Z</time>
      </trkpt>
      <trkpt lat="45.8333" lon="4.80691">
        <ele>425</ele>
        <time>2014-02-16T08:57:59Z</time>
      </trkpt>
      <trkpt lat="45.83335" lon="4.80684">
        <ele>429</ele>
        <time>2014-02-16T08:58:03Z</time>
      </trkpt>
      <trkpt lat="45.83336" lon="4.80682">
        <ele>429</ele>
        <time>2014-02-16T08:58:04Z</time>
      </trkpt>
      <trkpt lat="45.83339" lon="4.80676">
        <ele>429</ele>
        <time>2014-02-16T08:58:08Z</time>
      </trkpt>
      <trkpt lat="45.83339" lon="4.80675">
        <ele>429</ele>
        <time>2014-02-16T08:58:09Z</time>
      </trkpt>
      <trkpt lat="45.83339" lon="4.80669">
        <ele>428</ele>
        <time>2014-02-16T08:58:13Z</time>
      </trkpt>
      <trkpt lat="45.83341" lon="4.80667">
        <ele>429</ele>
        <time>2014-02-16T08:58:14Z</time>
      </trkpt>
      <trkpt lat="45.83347" lon="4.80664">
        <ele>431</ele>
        <time>2014-02-16T08:58:17Z</time>
      </trkpt>
      <trkpt lat="45.83348" lon="4.80663">
        <ele>431</ele>
        <time>2014-02-16T08:58:18Z</time>
      </trkpt>
      <trkpt lat="45.83349" lon="4.80662">
        <ele>431</ele>
        <time>2014-02-16T08:58:19Z</time>
      </trkpt>
      <trkpt lat="45.83355" lon="4.80665">
        <ele>432</ele>
        <time>2014-02-16T08:58:23Z</time>
      </trkpt>
      <trkpt lat="45.83358" lon="4.80665">
        <ele>432</ele>
        <time>2014-02-16T08:58:25Z</time>
      </trkpt>
      <trkpt lat="45.83362" lon="4.80664">
        <ele>433</ele>
        <time>2014-02-16T08:58:27Z</time>
      </trkpt>
      <trkpt lat="45.83365" lon="4.80664">
        <ele>433</ele>
        <time>2014-02-16T08:58:29Z</time>
      </trkpt>
      <trkpt lat="45.83372" lon="4.80661">
        <ele>434</ele>
        <time>2014-02-16T08:58:32Z</time>
      </trkpt>
      <trkpt lat="45.83377" lon="4.80657">
        <ele>434</ele>
        <time>2014-02-16T08:58:36Z</time>
      </trkpt>
      <trkpt lat="45.8338" lon="4.8065">
        <ele>435</ele>
        <time>2014-02-16T08:58:41Z</time>
      </trkpt>
      <trkpt lat="45.8338" lon="4.80648">
        <ele>435</ele>
        <time>2014-02-16T08:58:42Z</time>
      </trkpt>
      <trkpt lat="45.8338" lon="4.80635">
        <ele>435</ele>
        <time>2014-02-16T08:58:51Z</time>
      </trkpt>
      <trkpt lat="45.83379" lon="4.80627">
        <ele>435</ele>
        <time>2014-02-16T08:59:00Z</time>
      </trkpt>
      <trkpt lat="45.83379" lon="4.80626">
        <ele>435</ele>
        <time>2014-02-16T08:59:02Z</time>
      </trkpt>
      <trkpt lat="45.83378" lon="4.80624">
        <ele>435</ele>
        <time>2014-02-16T08:59:03Z</time>
      </trkpt>
      <trkpt lat="45.83377" lon="4.80621">
        <ele>435</ele>
        <time>2014-02-16T08:59:05Z</time>
      </trkpt>
      <trkpt lat="45.83376" lon="4.80605">
        <ele>435</ele>
        <time>2014-02-16T08:59:13Z</time>
      </trkpt>
      <trkpt lat="45.83375" lon="4.80598">
        <ele>435</ele>
        <time>2014-02-16T08:59:17Z</time>
      </trkpt>
      <trkpt lat="45.83373" lon="4.80588">
        <ele>435</ele>
        <time>2014-02-16T08:59:20Z</time>
      </trkpt>
      <trkpt lat="45.83369" lon="4.80571">
        <ele>438</ele>
        <time>2014-02-16T08:59:25Z</time>
      </trkpt>
      <trkpt lat="45.83369" lon="4.80568">
        <ele>439</ele>
        <time>2014-02-16T08:59:26Z</time>
      </trkpt>
      <trkpt lat="45.83369" lon="4.80566">
        <ele>439</ele>
        <time>2014-02-16T08:59:27Z</time>
      </trkpt>
      <trkpt lat="45.83372" lon="4.80562">
        <ele>439</ele>
        <time>2014-02-16T08:59:30Z</time>
      </trkpt>
      <trkpt lat="45.83374" lon="4.80561">
        <ele>439</ele>
        <time>2014-02-16T08:59:33Z</time>
      </trkpt>
      <trkpt lat="45.83376" lon="4.8056">
        <ele>440</ele>
        <time>2014-02-16T08:59:36Z</time>
      </trkpt>
      <trkpt lat="45.83378" lon="4.80559">
        <ele>440</ele>
        <time>2014-02-16T08:59:38Z</time>
      </trkpt>
      <trkpt lat="45.83382" lon="4.80558">
        <ele>440</ele>
        <time>2014-02-16T08:59:41Z</time>
      </trkpt>
      <trkpt lat="45.83383" lon="4.80558">
        <ele>440</ele>
        <time>2014-02-16T08:59:42Z</time>
      </trkpt>
      <trkpt lat="45.83387" lon="4.80556">
        <ele>441</ele>
        <time>2014-02-16T08:59:47Z</time>
      </trkpt>
      <trkpt lat="45.83388" lon="4.80551">
        <ele>441</ele>
        <time>2014-02-16T08:59:56Z</time>
      </trkpt>
      <trkpt lat="45.83387" lon="4.80547">
        <ele>441</ele>
        <time>2014-02-16T09:00:20Z</time>
      </trkpt>
      <trkpt lat="45.83388" lon="4.80545">
        <ele>441</ele>
        <time>2014-02-16T09:00:30Z</time>
      </trkpt>
      <trkpt lat="45.83389" lon="4.80547">
        <ele>441</ele>
        <time>2014-02-16T09:00:36Z</time>
      </trkpt>
      <trkpt lat="45.8339" lon="4.80544">
        <ele>441</ele>
        <time>2014-02-16T09:00:50Z</time>
      </trkpt>
      <trkpt lat="45.83391" lon="4.80543">
        <ele>441</ele>
        <time>2014-02-16T09:00:51Z</time>
      </trkpt>
      <trkpt lat="45.83391" lon="4.80541">
        <ele>441</ele>
        <time>2014-02-16T09:00:52Z</time>
      </trkpt>
      <trkpt lat="45.83392" lon="4.8054">
        <ele>441</ele>
        <time>2014-02-16T09:00:55Z</time>
      </trkpt>
      <trkpt lat="45.83395" lon="4.80536">
        <ele>442</ele>
        <time>2014-02-16T09:01:01Z</time>
      </trkpt>
      <trkpt lat="45.83395" lon="4.80531">
        <ele>442</ele>
        <time>2014-02-16T09:01:08Z</time>
      </trkpt>
      <trkpt lat="45.83393" lon="4.8053">
        <ele>442</ele>
        <time>2014-02-16T09:01:13Z</time>
      </trkpt>
      <trkpt lat="45.83391" lon="4.80524">
        <ele>442</ele>
        <time>2014-02-16T09:01:20Z</time>
      </trkpt>
      <trkpt lat="45.8339" lon="4.80522">
        <ele>442</ele>
        <time>2014-02-16T09:01:23Z</time>
      </trkpt>
      <trkpt lat="45.83387" lon="4.80521">
        <ele>442</ele>
        <time>2014-02-16T09:01:26Z</time>
      </trkpt>
      <trkpt lat="45.83387" lon="4.80521">
        <ele>442</ele>
        <time>2014-02-16T09:01:27Z</time>
      </trkpt>
      <trkpt lat="45.83384" lon="4.80524">
        <ele>442</ele>
        <time>2014-02-16T09:01:31Z</time>
      </trkpt>
      <trkpt lat="45.83383" lon="4.80524">
        <ele>442</ele>
        <time>2014-02-16T09:01:33Z</time>
      </trkpt>
      <trkpt lat="45.83381" lon="4.80525">
        <ele>441</ele>
        <time>2014-02-16T09:01:35Z</time>
      </trkpt>
      <trkpt lat="45.8338" lon="4.80526">
        <ele>441</ele>
        <time>2014-02-16T09:01:36Z</time>
      </trkpt>
      <trkpt lat="45.83378" lon="4.80526">
        <ele>441</ele>
        <time>2014-02-16T09:01:39Z</time>
      </trkpt>
      <trkpt lat="45.83376" lon="4.80526">
        <ele>441</ele>
        <time>2014-02-16T09:01:47Z</time>
      </trkpt>
      <trkpt lat="45.83373" lon="4.8053">
        <ele>441</ele>
        <time>2014-02-16T09:01:53Z</time>
      </trkpt>
      <trkpt lat="45.83371" lon="4.8053">
        <ele>441</ele>
        <time>2014-02-16T09:01:55Z</time>
      </trkpt>
      <trkpt lat="45.83371" lon="4.80527">
        <ele>441</ele>
        <time>2014-02-16T09:01:57Z</time>
      </trkpt>
      <trkpt lat="45.83371" lon="4.80526">
        <ele>441</ele>
        <time>2014-02-16T09:01:58Z</time>
      </trkpt>
      <trkpt lat="45.83371" lon="4.8052">
        <ele>441</ele>
        <time>2014-02-16T09:02:03Z</time>
      </trkpt>
      <trkpt lat="45.83368" lon="4.80517">
        <ele>441</ele>
        <time>2014-02-16T09:02:06Z</time>
      </trkpt>
      <trkpt lat="45.83366" lon="4.80516">
        <ele>441</ele>
        <time>2014-02-16T09:02:10Z</time>
      </trkpt>
      <trkpt lat="45.83363" lon="4.80514">
        <ele>440</ele>
        <time>2014-02-16T09:02:13Z</time>
      </trkpt>
      <trkpt lat="45.83359" lon="4.80511">
        <ele>440</ele>
        <time>2014-02-16T09:02:16Z</time>
      </trkpt>
      <trkpt lat="45.83358" lon="4.80511">
        <ele>440</ele>
        <time>2014-02-16T09:02:18Z</time>
      </trkpt>
      <trkpt lat="45.83354" lon="4.80517">
        <ele>440</ele>
        <time>2014-02-16T09:02:22Z</time>
      </trkpt>
      <trkpt lat="45.83351" lon="4.80523">
        <ele>440</ele>
        <time>2014-02-16T09:02:26Z</time>
      </trkpt>
      <trkpt lat="45.8335" lon="4.80525">
        <ele>440</ele>
        <time>2014-02-16T09:02:28Z</time>
      </trkpt>
      <trkpt lat="45.83348" lon="4.80529">
        <ele>439</ele>
        <time>2014-02-16T09:02:32Z</time>
      </trkpt>
      <trkpt lat="45.83347" lon="4.80531">
        <ele>439</ele>
        <time>2014-02-16T09:02:34Z</time>
      </trkpt>
      <trkpt lat="45.83347" lon="4.80533">
        <ele>439</ele>
        <time>2014-02-16T09:02:35Z</time>
      </trkpt>
      <trkpt lat="45.83347" lon="4.8054">
        <ele>439</ele>
        <time>2014-02-16T09:02:39Z</time>
      </trkpt>
      <trkpt lat="45.83346" lon="4.80541">
        <ele>439</ele>
        <time>2014-02-16T09:02:40Z</time>
      </trkpt>
      <trkpt lat="45.83345" lon="4.80545">
        <ele>438</ele>
        <time>2014-02-16T09:02:44Z</time>
      </trkpt>
      <trkpt lat="45.83345" lon="4.80548">
        <ele>438</ele>
        <time>2014-02-16T09:02:46Z</time>
      </trkpt>
      <trkpt lat="45.83345" lon="4.8055">
        <ele>438</ele>
        <time>2014-02-16T09:02:47Z</time>
      </trkpt>
      <trkpt lat="45.83346" lon="4.80552">
        <ele>438</ele>
        <time>2014-02-16T09:02:53Z</time>
      </trkpt>
      <trkpt lat="45.83346" lon="4.80552">
        <ele>438</ele>
        <time>2014-02-16T09:03:00Z</time>
      </trkpt>
      <trkpt lat="45.83346" lon="4.80561">
        <ele>437</ele>
        <time>2014-02-16T09:03:17Z</time>
      </trkpt>
      <trkpt lat="45.83349" lon="4.80563">
        <ele>437</ele>
        <time>2014-02-16T09:03:21Z</time>
      </trkpt>
      <trkpt lat="45.83352" lon="4.80563">
        <ele>437</ele>
        <time>2014-02-16T09:03:23Z</time>
      </trkpt>
      <trkpt lat="45.83354" lon="4.80562">
        <ele>437</ele>
        <time>2014-02-16T09:03:25Z</time>
      </trkpt>
      <trkpt lat="45.83355" lon="4.80561">
        <ele>437</ele>
        <time>2014-02-16T09:03:26Z</time>
      </trkpt>
      <trkpt lat="45.83359" lon="4.8056">
        <ele>438</ele>
        <time>2014-02-16T09:03:30Z</time>
      </trkpt>
      <trkpt lat="45.83366" lon="4.80563">
        <ele>438</ele>
        <time>2014-02-16T09:04:32Z</time>
      </trkpt>
      <trkpt lat="45.83369" lon="4.80564">
        <ele>439</ele>
        <time>2014-02-16T09:04:34Z</time>
      </trkpt>
      <trkpt lat="45.83372" lon="4.80562">
        <ele>439</ele>
        <time>2014-02-16T09:04:37Z</time>
      </trkpt>
      <trkpt lat="45.83374" lon="4.8056">
        <ele>439</ele>
        <time>2014-02-16T09:04:41Z</time>
      </trkpt>
      <trkpt lat="45.83376" lon="4.8056">
        <ele>440</ele>
        <time>2014-02-16T09:04:42Z</time>
      </trkpt>
      <trkpt lat="45.83383" lon="4.80557">
        <ele>440</ele>
        <time>2014-02-16T09:04:48Z</time>
      </trkpt>
      <trkpt lat="45.83387" lon="4.80557">
        <ele>441</ele>
        <time>2014-02-16T09:04:51Z</time>
      </trkpt>
      <trkpt lat="45.83391" lon="4.80556">
        <ele>441</ele>
        <time>2014-02-16T09:04:54Z</time>
      </trkpt>
      <trkpt lat="45.83398" lon="4.80555">
        <ele>441</ele>
        <time>2014-02-16T09:04:59Z</time>
      </trkpt>
      <trkpt lat="45.83404" lon="4.80553">
        <ele>442</ele>
        <time>2014-02-16T09:05:05Z</time>
      </trkpt>
      <trkpt lat="45.83405" lon="4.80553">
        <ele>442</ele>
        <time>2014-02-16T09:05:06Z</time>
      </trkpt>
      <trkpt lat="45.83411" lon="4.80553">
        <ele>442</ele>
        <time>2014-02-16T09:05:12Z</time>
      </trkpt>
      <trkpt lat="45.83421" lon="4.80547">
        <ele>450</ele>
        <time>2014-02-16T09:05:20Z</time>
      </trkpt>
      <trkpt lat="45.83422" lon="4.80546">
        <ele>450</ele>
        <time>2014-02-16T09:05:21Z</time>
      </trkpt>
      <trkpt lat="45.83429" lon="4.80539">
        <ele>450</ele>
        <time>2014-02-16T09:05:27Z</time>
      </trkpt>
      <trkpt lat="45.83431" lon="4.80537">
        <ele>450</ele>
        <time>2014-02-16T09:05:29Z</time>
      </trkpt>
      <trkpt lat="45.8343" lon="4.80532">
        <ele>451</ele>
        <time>2014-02-16T09:05:33Z</time>
      </trkpt>
      <trkpt lat="45.83429" lon="4.8053">
        <ele>451</ele>
        <time>2014-02-16T09:05:35Z</time>
      </trkpt>
      <trkpt lat="45.83428" lon="4.80527">
        <ele>451</ele>
        <time>2014-02-16T09:05:39Z</time>
      </trkpt>
      <trkpt lat="45.83427" lon="4.80526">
        <ele>450</ele>
        <time>2014-02-16T09:05:40Z</time>
      </trkpt>
      <trkpt lat="45.83426" lon="4.80524">
        <ele>450</ele>
        <time>2014-02-16T09:05:44Z</time>
      </trkpt>
      <trkpt lat="45.83422" lon="4.80518">
        <ele>450</ele>
        <time>2014-02-16T09:06:19Z</time>
      </trkpt>
      <trkpt lat="45.8342" lon="4.80516">
        <ele>450</ele>
        <time>2014-02-16T09:06:25Z</time>
      </trkpt>
      <trkpt lat="45.83418" lon="4.80516">
        <ele>450</ele>
        <time>2014-02-16T09:06:30Z</time>
      </trkpt>
      <trkpt lat="45.8342" lon="4.80509">
        <ele>450</ele>
        <time>2014-02-16T09:06:40Z</time>
      </trkpt>
      <trkpt lat="45.83421" lon="4.8051">
        <ele>450</ele>
        <time>2014-02-16T09:06:53Z</time>
      </trkpt>
      <trkpt lat="45.83423" lon="4.80512">
        <ele>450</ele>
        <time>2014-02-16T09:07:01Z</time>
      </trkpt>
      <trkpt lat="45.8342" lon="4.80514">
        <ele>450</ele>
        <time>2014-02-16T09:07:05Z</time>
      </trkpt>
      <trkpt lat="45.83419" lon="4.80514">
        <ele>450</ele>
        <time>2014-02-16T09:07:07Z</time>
      </trkpt>
      <trkpt lat="45.83414" lon="4.80516">
        <ele>445</ele>
        <time>2014-02-16T09:07:15Z</time>
      </trkpt>
      <trkpt lat="45.83411" lon="4.8051">
        <ele>446</ele>
        <time>2014-02-16T09:07:20Z</time>
      </trkpt>
      <trkpt lat="45.83411" lon="4.80508">
        <ele>446</ele>
        <time>2014-02-16T09:07:21Z</time>
      </trkpt>
      <trkpt lat="45.83411" lon="4.80506">
        <ele>447</ele>
        <time>2014-02-16T09:07:22Z</time>
      </trkpt>
      <trkpt lat="45.83414" lon="4.80499">
        <ele>449</ele>
        <time>2014-02-16T09:07:27Z</time>
      </trkpt>
      <trkpt lat="45.83415" lon="4.80498">
        <ele>449</ele>
        <time>2014-02-16T09:07:28Z</time>
      </trkpt>
      <trkpt lat="45.83416" lon="4.80489">
        <ele>449</ele>
        <time>2014-02-16T09:07:34Z</time>
      </trkpt>
      <trkpt lat="45.83416" lon="4.80486">
        <ele>449</ele>
        <time>2014-02-16T09:07:36Z</time>
      </trkpt>
      <trkpt lat="45.83416" lon="4.80484">
        <ele>449</ele>
        <time>2014-02-16T09:07:37Z</time>
      </trkpt>
      <trkpt lat="45.83417" lon="4.80481">
        <ele>449</ele>
        <time>2014-02-16T09:07:39Z</time>
      </trkpt>
      <trkpt lat="45.83417" lon="4.80479">
        <ele>449</ele>
        <time>2014-02-16T09:07:41Z</time>
      </trkpt>
      <trkpt lat="45.83419" lon="4.80475">
        <ele>455</ele>
        <time>2014-02-16T09:07:45Z</time>
      </trkpt>
      <trkpt lat="45.83419" lon="4.80473">
        <ele>455</ele>
        <time>2014-02-16T09:07:46Z</time>
      </trkpt>
      <trkpt lat="45.83417" lon="4.80461">
        <ele>456</ele>
        <time>2014-02-16T09:07:53Z</time>
      </trkpt>
      <trkpt lat="45.83415" lon="4.80453">
        <ele>451</ele>
        <time>2014-02-16T09:07:58Z</time>
      </trkpt>
      <trkpt lat="45.83414" lon="4.80449">
        <ele>452</ele>
        <time>2014-02-16T09:08:00Z</time>
      </trkpt>
      <trkpt lat="45.83413" lon="4.80445">
        <ele>452</ele>
        <time>2014-02-16T09:08:03Z</time>
      </trkpt>
      <trkpt lat="45.83412" lon="4.80438">
        <ele>453</ele>
        <time>2014-02-16T09:08:07Z</time>
      </trkpt>
      <trkpt lat="45.83412" lon="4.80436">
        <ele>453</ele>
        <time>2014-02-16T09:08:08Z</time>
      </trkpt>
      <trkpt lat="45.83412" lon="4.80434">
        <ele>453</ele>
        <time>2014-02-16T09:08:09Z</time>
      </trkpt>
      <trkpt lat="45.8341" lon="4.80425">
        <ele>455</ele>
        <time>2014-02-16T09:08:14Z</time>
      </trkpt>
      <trkpt lat="45.8341" lon="4.80423">
        <ele>455</ele>
        <time>2014-02-16T09:08:15Z</time>
      </trkpt>
      <trkpt lat="45.83409" lon="4.8042">
        <ele>455</ele>
        <time>2014-02-16T09:08:19Z</time>
      </trkpt>
      <trkpt lat="45.83409" lon="4.8042">
        <ele>455</ele>
        <time>2014-02-16T09:08:21Z</time>
      </trkpt>
      <trkpt lat="45.83412" lon="4.80421">
        <ele>456</ele>
        <time>2014-02-16T09:08:27Z</time>
      </trkpt>
      <trkpt lat="45.83412" lon="4.80421">
        <ele>456</ele>
        <time>2014-02-16T09:08:28Z</time>
      </trkpt>
      <trkpt lat="45.83415" lon="4.80419">
        <ele>457</ele>
        <time>2014-02-16T09:08:34Z</time>
      </trkpt>
      <trkpt lat="45.83415" lon="4.80419">
        <ele>457</ele>
        <time>2014-02-16T09:08:35Z</time>
      </trkpt>
      <trkpt lat="45.83417" lon="4.80417">
        <ele>458</ele>
        <time>2014-02-16T09:08:39Z</time>
      </trkpt>
      <trkpt lat="45.83418" lon="4.80414">
        <ele>459</ele>
        <time>2014-02-16T09:08:43Z</time>
      </trkpt>
      <trkpt lat="45.8342" lon="4.80413">
        <ele>459</ele>
        <time>2014-02-16T09:08:48Z</time>
      </trkpt>
      <trkpt lat="45.83422" lon="4.80406">
        <ele>460</ele>
        <time>2014-02-16T09:09:49Z</time>
      </trkpt>
      <trkpt lat="45.83422" lon="4.80405">
        <ele>461</ele>
        <time>2014-02-16T09:10:05Z</time>
      </trkpt>
      <trkpt lat="45.83423" lon="4.80404">
        <ele>461</ele>
        <time>2014-02-16T09:10:25Z</time>
      </trkpt>
      <trkpt lat="45.83424" lon="4.80404">
        <ele>461</ele>
        <time>2014-02-16T09:10:28Z</time>
      </trkpt>
      <trkpt lat="45.83427" lon="4.80404">
        <ele>461</ele>
        <time>2014-02-16T09:10:38Z</time>
      </trkpt>
      <trkpt lat="45.83426" lon="4.8041">
        <ele>461</ele>
        <time>2014-02-16T09:10:51Z</time>
      </trkpt>
      <trkpt lat="45.83424" lon="4.8041">
        <ele>460</ele>
        <time>2014-02-16T09:11:04Z</time>
      </trkpt>
      <trkpt lat="45.83422" lon="4.8041">
        <ele>460</ele>
        <time>2014-02-16T09:11:09Z</time>
      </trkpt>
      <trkpt lat="45.83423" lon="4.80409">
        <ele>460</ele>
        <time>2014-02-16T09:11:17Z</time>
      </trkpt>
      <trkpt lat="45.83423" lon="4.80412">
        <ele>460</ele>
        <time>2014-02-16T09:11:22Z</time>
      </trkpt>
      <trkpt lat="45.83424" lon="4.8041">
        <ele>460</ele>
        <time>2014-02-16T09:11:29Z</time>
      </trkpt>
      <trkpt lat="45.83421" lon="4.80411">
        <ele>460</ele>
        <time>2014-02-16T09:11:45Z</time>
      </trkpt>
      <trkpt lat="45.8342" lon="4.80411">
        <ele>459</ele>
        <time>2014-02-16T09:11:46Z</time>
      </trkpt>
      <trkpt lat="45.83416" lon="4.80413">
        <ele>458</ele>
        <time>2014-02-16T09:11:52Z</time>
      </trkpt>
      <trkpt lat="45.83415" lon="4.80416">
        <ele>458</ele>
        <time>2014-02-16T09:11:55Z</time>
      </trkpt>
      <trkpt lat="45.83415" lon="4.80418">
        <ele>457</ele>
        <time>2014-02-16T09:11:57Z</time>
      </trkpt>
      <trkpt lat="45.83413" lon="4.8042">
        <ele>456</ele>
        <time>2014-02-16T09:12:03Z</time>
      </trkpt>
      <trkpt lat="45.83412" lon="4.80428">
        <ele>455</ele>
        <time>2014-02-16T09:12:09Z</time>
      </trkpt>
      <trkpt lat="45.83413" lon="4.8043">
        <ele>454</ele>
        <time>2014-02-16T09:12:10Z</time>
      </trkpt>
      <trkpt lat="45.83418" lon="4.80444">
        <ele>457</ele>
        <time>2014-02-16T09:12:14Z</time>
      </trkpt>
      <trkpt lat="45.83419" lon="4.80448">
        <ele>457</ele>
        <time>2014-02-16T09:12:15Z</time>
      </trkpt>
      <trkpt lat="45.83419" lon="4.80456">
        <ele>457</ele>
        <time>2014-02-16T09:12:17Z</time>
      </trkpt>
      <trkpt lat="45.8342" lon="4.80461">
        <ele>456</ele>
        <time>2014-02-16T09:12:18Z</time>
      </trkpt>
      <trkpt lat="45.83421" lon="4.80469">
        <ele>456</ele>
        <time>2014-02-16T09:12:20Z</time>
      </trkpt>
      <trkpt lat="45.83422" lon="4.80474">
        <ele>455</ele>
        <time>2014-02-16T09:12:22Z</time>
      </trkpt>
      <trkpt lat="45.8342" lon="4.8048">
        <ele>454</ele>
        <time>2014-02-16T09:12:25Z</time>
      </trkpt>
      <trkpt lat="45.83419" lon="4.80482">
        <ele>454</ele>
        <time>2014-02-16T09:12:28Z</time>
      </trkpt>
      <trkpt lat="45.83418" lon="4.80485">
        <ele>453</ele>
        <time>2014-02-16T09:12:29Z</time>
      </trkpt>
      <trkpt lat="45.83419" lon="4.80488">
        <ele>453</ele>
        <time>2014-02-16T09:12:32Z</time>
      </trkpt>
      <trkpt lat="45.83418" lon="4.80491">
        <ele>452</ele>
        <time>2014-02-16T09:12:34Z</time>
      </trkpt>
      <trkpt lat="45.83417" lon="4.80498">
        <ele>450</ele>
        <time>2014-02-16T09:12:37Z</time>
      </trkpt>
      <trkpt lat="45.83416" lon="4.80503">
        <ele>448</ele>
        <time>2014-02-16T09:12:39Z</time>
      </trkpt>
      <trkpt lat="45.83414" lon="4.80505">
        <ele>447</ele>
        <time>2014-02-16T09:12:40Z</time>
      </trkpt>
      <trkpt lat="45.83405" lon="4.80508">
        <ele>445</ele>
        <time>2014-02-16T09:12:43Z</time>
      </trkpt>
      <trkpt lat="45.83402" lon="4.80508">
        <ele>445</ele>
        <time>2014-02-16T09:12:44Z</time>
      </trkpt>
      <trkpt lat="45.83396" lon="4.8051">
        <ele>444</ele>
        <time>2014-02-16T09:12:48Z</time>
      </trkpt>
      <trkpt lat="45.83395" lon="4.80512">
        <ele>444</ele>
        <time>2014-02-16T09:12:49Z</time>
      </trkpt>
      <trkpt lat="45.83395" lon="4.80514">
        <ele>443</ele>
        <time>2014-02-16T09:12:53Z</time>
      </trkpt>
      <trkpt lat="45.83396" lon="4.80515">
        <ele>443</ele>
        <time>2014-02-16T09:12:59Z</time>
      </trkpt>
      <trkpt lat="45.8339" lon="4.80518">
        <ele>443</ele>
        <time>2014-02-16T09:13:28Z</time>
      </trkpt>
      <trkpt lat="45.83388" lon="4.80522">
        <ele>442</ele>
        <time>2014-02-16T09:13:32Z</time>
      </trkpt>
      <trkpt lat="45.83387" lon="4.80521">
        <ele>442</ele>
        <time>2014-02-16T09:13:36Z</time>
      </trkpt>
      <trkpt lat="45.83388" lon="4.80522">
        <ele>442</ele>
        <time>2014-02-16T09:13:37Z</time>
      </trkpt>
      <trkpt lat="45.8339" lon="4.80529">
        <ele>442</ele>
        <time>2014-02-16T09:13:41Z</time>
      </trkpt>
      <trkpt lat="45.83391" lon="4.80531">
        <ele>442</ele>
        <time>2014-02-16T09:13:43Z</time>
      </trkpt>
      <trkpt lat="45.83393" lon="4.80534">
        <ele>442</ele>
        <time>2014-02-16T09:13:46Z</time>
      </trkpt>
      <trkpt lat="45.83393" lon="4.80535">
        <ele>442</ele>
        <time>2014-02-16T09:13:47Z</time>
      </trkpt>
      <trkpt lat="45.83395" lon="4.80538">
        <ele>442</ele>
        <time>2014-02-16T09:13:52Z</time>
      </trkpt>
      <trkpt lat="45.83395" lon="4.80541">
        <ele>442</ele>
        <time>2014-02-16T09:13:58Z</time>
      </trkpt>
      <trkpt lat="45.83393" lon="4.80546">
        <ele>441</ele>
        <time>2014-02-16T09:14:05Z</time>
      </trkpt>
      <trkpt lat="45.83394" lon="4.80547">
        <ele>441</ele>
        <time>2014-02-16T09:14:06Z</time>
      </trkpt>
      <trkpt lat="45.83393" lon="4.8055">
        <ele>441</ele>
        <time>2014-02-16T09:14:11Z</time>
      </trkpt>
      <trkpt lat="45.83391" lon="4.80555">
        <ele>441</ele>
        <time>2014-02-16T09:14:24Z</time>
      </trkpt>
      <trkpt lat="45.83392" lon="4.80558">
        <ele>441</ele>
        <time>2014-02-16T09:14:27Z</time>
      </trkpt>
      <trkpt lat="45.83394" lon="4.80558">
        <ele>441</ele>
        <time>2014-02-16T09:14:29Z</time>
      </trkpt>
      <trkpt lat="45.83394" lon="4.80558">
        <ele>441</ele>
        <time>2014-02-16T09:14:30Z</time>
      </trkpt>
      <trkpt lat="45.83399" lon="4.80557">
        <ele>441</ele>
        <time>2014-02-16T09:14:33Z</time>
      </trkpt>
      <trkpt lat="45.834" lon="4.80556">
        <ele>441</ele>
        <time>2014-02-16T09:14:34Z</time>
      </trkpt>
      <trkpt lat="45.83412" lon="4.80555">
        <ele>442</ele>
        <time>2014-02-16T09:14:40Z</time>
      </trkpt>
      <trkpt lat="45.8342" lon="4.80547">
        <ele>449</ele>
        <time>2014-02-16T09:14:44Z</time>
      </trkpt>
      <trkpt lat="45.83426" lon="4.80542">
        <ele>450</ele>
        <time>2014-02-16T09:14:47Z</time>
      </trkpt>
      <trkpt lat="45.8343" lon="4.80539">
        <ele>450</ele>
        <time>2014-02-16T09:14:50Z</time>
      </trkpt>
      <trkpt lat="45.83439" lon="4.80533">
        <ele>451</ele>
        <time>2014-02-16T09:14:56Z</time>
      </trkpt>
      <trkpt lat="45.83443" lon="4.80531">
        <ele>451</ele>
        <time>2014-02-16T09:15:00Z</time>
      </trkpt>
      <trkpt lat="45.83445" lon="4.8053">
        <ele>451</ele>
        <time>2014-02-16T09:15:02Z</time>
      </trkpt>
      <trkpt lat="45.83453" lon="4.80528">
        <ele>452</ele>
        <time>2014-02-16T09:15:09Z</time>
      </trkpt>
      <trkpt lat="45.83454" lon="4.80528">
        <ele>452</ele>
        <time>2014-02-16T09:15:10Z</time>
      </trkpt>
      <trkpt lat="45.83457" lon="4.80527">
        <ele>452</ele>
        <time>2014-02-16T09:15:13Z</time>
      </trkpt>
      <trkpt lat="45.83462" lon="4.80527">
        <ele>453</ele>
        <time>2014-02-16T09:15:16Z</time>
      </trkpt>
      <trkpt lat="45.83468" lon="4.80523">
        <ele>453</ele>
        <time>2014-02-16T09:15:20Z</time>
      </trkpt>
      <trkpt lat="45.83478" lon="4.80515">
        <ele>455</ele>
        <time>2014-02-16T09:15:26Z</time>
      </trkpt>
      <trkpt lat="45.8348" lon="4.80514">
        <ele>455</ele>
        <time>2014-02-16T09:15:27Z</time>
      </trkpt>
      <trkpt lat="45.83485" lon="4.8051">
        <ele>456</ele>
        <time>2014-02-16T09:15:34Z</time>
      </trkpt>
      <trkpt lat="45.83483" lon="4.80507">
        <ele>456</ele>
        <time>2014-02-16T09:15:40Z</time>
      </trkpt>
      <trkpt lat="45.83483" lon="4.80502">
        <ele>456</ele>
        <time>2014-02-16T09:15:45Z</time>
      </trkpt>
      <trkpt lat="45.83481" lon="4.80496">
        <ele>459</ele>
        <time>2014-02-16T09:15:49Z</time>
      </trkpt>
      <trkpt lat="45.83481" lon="4.80495">
        <ele>459</ele>
        <time>2014-02-16T09:15:50Z</time>
      </trkpt>
      <trkpt lat="45.8348" lon="4.80491">
        <ele>459</ele>
        <time>2014-02-16T09:15:53Z</time>
      </trkpt>
      <trkpt lat="45.83482" lon="4.80483">
        <ele>459</ele>
        <time>2014-02-16T09:15:59Z</time>
      </trkpt>
      <trkpt lat="45.8348" lon="4.80479">
        <ele>459</ele>
        <time>2014-02-16T09:16:02Z</time>
      </trkpt>
      <trkpt lat="45.83478" lon="4.80475">
        <ele>459</ele>
        <time>2014-02-16T09:16:07Z</time>
      </trkpt>
      <trkpt lat="45.83477" lon="4.80473">
        <ele>459</ele>
        <time>2014-02-16T09:16:09Z</time>
      </trkpt>
      <trkpt lat="45.83477" lon="4.80472">
        <ele>459</ele>
        <time>2014-02-16T09:16:10Z</time>
      </trkpt>
      <trkpt lat="45.83477" lon="4.80471">
        <ele>459</ele>
        <time>2014-02-16T09:16:12Z</time>
      </trkpt>
      <trkpt lat="45.83478" lon="4.80467">
        <ele>459</ele>
        <time>2014-02-16T09:16:17Z</time>
      </trkpt>
      <trkpt lat="45.8348" lon="4.80464">
        <ele>459</ele>
        <time>2014-02-16T09:16:22Z</time>
      </trkpt>
      <trkpt lat="45.83483" lon="4.80463">
        <ele>459</ele>
        <time>2014-02-16T09:16:26Z</time>
      </trkpt>
      <trkpt lat="45.83483" lon="4.80462">
        <ele>459</ele>
        <time>2014-02-16T09:16:27Z</time>
      </trkpt>
      <trkpt lat="45.83484" lon="4.80461">
        <ele>459</ele>
        <time>2014-02-16T09:16:30Z</time>
      </trkpt>
      <trkpt lat="45.83488" lon="4.80459">
        <ele>460</ele>
        <time>2014-02-16T09:16:39Z</time>
      </trkpt>
      <trkpt lat="45.8349" lon="4.80455">
        <ele>460</ele>
        <time>2014-02-16T09:16:42Z</time>
      </trkpt>
      <trkpt lat="45.83491" lon="4.80454">
        <ele>460</ele>
        <time>2014-02-16T09:16:43Z</time>
      </trkpt>
      <trkpt lat="45.83495" lon="4.80451">
        <ele>460</ele>
        <time>2014-02-16T09:16:47Z</time>
      </trkpt>
      <trkpt lat="45.83494" lon="4.80451">
        <ele>460</ele>
        <time>2014-02-16T09:17:05Z</time>
      </trkpt>
      <trkpt lat="45.83492" lon="4.80449">
        <ele>461</ele>
        <time>2014-02-16T09:17:08Z</time>
      </trkpt>
      <trkpt lat="45.83492" lon="4.80448">
        <ele>461</ele>
        <time>2014-02-16T09:17:09Z</time>
      </trkpt>
      <trkpt lat="45.83491" lon="4.80444">
        <ele>461</ele>
        <time>2014-02-16T09:17:13Z</time>
      </trkpt>
      <trkpt lat="45.83491" lon="4.80442">
        <ele>461</ele>
        <time>2014-02-16T09:17:15Z</time>
      </trkpt>
      <trkpt lat="45.83491" lon="4.80439">
        <ele>461</ele>
        <time>2014-02-16T09:17:17Z</time>
      </trkpt>
      <trkpt lat="45.83491" lon="4.80436">
        <ele>462</ele>
        <time>2014-02-16T09:17:19Z</time>
      </trkpt>
      <trkpt lat="45.83493" lon="4.80428">
        <ele>463</ele>
        <time>2014-02-16T09:17:25Z</time>
      </trkpt>
      <trkpt lat="45.83494" lon="4.80426">
        <ele>463</ele>
        <time>2014-02-16T09:17:26Z</time>
      </trkpt>
      <trkpt lat="45.83498" lon="4.80422">
        <ele>464</ele>
        <time>2014-02-16T09:17:32Z</time>
      </trkpt>
      <trkpt lat="45.83499" lon="4.80421">
        <ele>465</ele>
        <time>2014-02-16T09:17:34Z</time>
      </trkpt>
      <trkpt lat="45.83504" lon="4.80417">
        <ele>466</ele>
        <time>2014-02-16T09:17:37Z</time>
      </trkpt>
      <trkpt lat="45.83513" lon="4.80406">
        <ele>468</ele>
        <time>2014-02-16T09:17:42Z</time>
      </trkpt>
      <trkpt lat="45.83515" lon="4.80404">
        <ele>469</ele>
        <time>2014-02-16T09:17:43Z</time>
      </trkpt>
      <trkpt lat="45.8352" lon="4.80392">
        <ele>470</ele>
        <time>2014-02-16T09:17:47Z</time>
      </trkpt>
      <trkpt lat="45.83523" lon="4.80382">
        <ele>470</ele>
        <time>2014-02-16T09:17:50Z</time>
      </trkpt>
      <trkpt lat="45.83527" lon="4.80372">
        <ele>471</ele>
        <time>2014-02-16T09:17:53Z</time>
      </trkpt>
      <trkpt lat="45.83537" lon="4.80366">
        <ele>471</ele>
        <time>2014-02-16T09:17:58Z</time>
      </trkpt>
      <trkpt lat="45.83539" lon="4.80365">
        <ele>471</ele>
        <time>2014-02-16T09:17:59Z</time>
      </trkpt>
      <trkpt lat="45.83544" lon="4.80361">
        <ele>471</ele>
        <time>2014-02-16T09:18:02Z</time>
      </trkpt>
      <trkpt lat="45.83549" lon="4.80358">
        <ele>471</ele>
        <time>2014-02-16T09:18:06Z</time>
      </trkpt>
      <trkpt lat="45.83551" lon="4.80357">
        <ele>472</ele>
        <time>2014-02-16T09:18:08Z</time>
      </trkpt>
      <trkpt lat="45.83551" lon="4.80353">
        <ele>472</ele>
        <time>2014-02-16T09:18:12Z</time>
      </trkpt>
      <trkpt lat="45.8355" lon="4.80352">
        <ele>472</ele>
        <time>2014-02-16T09:18:13Z</time>
      </trkpt>
      <trkpt lat="45.83549" lon="4.8035">
        <ele>472</ele>
        <time>2014-02-16T09:18:14Z</time>
      </trkpt>
      <trkpt lat="45.83545" lon="4.80342">
        <ele>472</ele>
        <time>2014-02-16T09:18:19Z</time>
      </trkpt>
      <trkpt lat="45.8354" lon="4.80333">
        <ele>475</ele>
        <time>2014-02-16T09:18:23Z</time>
      </trkpt>
      <trkpt lat="45.83539" lon="4.80331">
        <ele>475</ele>
        <time>2014-02-16T09:18:24Z</time>
      </trkpt>
      <trkpt lat="45.83537" lon="4.80326">
        <ele>475</ele>
        <time>2014-02-16T09:18:26Z</time>
      </trkpt>
      <trkpt lat="45.83533" lon="4.80318">
        <ele>475</ele>
        <time>2014-02-16T09:18:29Z</time>
      </trkpt>
      <trkpt lat="45.83531" lon="4.80314">
        <ele>475</ele>
        <time>2014-02-16T09:18:31Z</time>
      </trkpt>
      <trkpt lat="45.83528" lon="4.80309">
        <ele>475</ele>
        <time>2014-02-16T09:18:33Z</time>
      </trkpt>
      <trkpt lat="45.83526" lon="4.80305">
        <ele>475</ele>
        <time>2014-02-16T09:18:34Z</time>
      </trkpt>
      <trkpt lat="45.83519" lon="4.80292">
        <ele>476</ele>
        <time>2014-02-16T09:18:39Z</time>
      </trkpt>
      <trkpt lat="45.83517" lon="4.80286">
        <ele>476</ele>
        <time>2014-02-16T09:18:41Z</time>
      </trkpt>
      <trkpt lat="45.83511" lon="4.80278">
        <ele>476</ele>
        <time>2014-02-16T09:18:45Z</time>
      </trkpt>
      <trkpt lat="45.8351" lon="4.80276">
        <ele>476</ele>
        <time>2014-02-16T09:18:46Z</time>
      </trkpt>
      <trkpt lat="45.83507" lon="4.80267">
        <ele>477</ele>
        <time>2014-02-16T09:18:49Z</time>
      </trkpt>
      <trkpt lat="45.83506" lon="4.80264">
        <ele>477</ele>
        <time>2014-02-16T09:18:50Z</time>
      </trkpt>
      <trkpt lat="45.83505" lon="4.80252">
        <ele>478</ele>
        <time>2014-02-16T09:18:53Z</time>
      </trkpt>
      <trkpt lat="45.83503" lon="4.80248">
        <ele>479</ele>
        <time>2014-02-16T09:18:54Z</time>
      </trkpt>
      <trkpt lat="45.83501" lon="4.80239">
        <ele>479</ele>
        <time>2014-02-16T09:18:57Z</time>
      </trkpt>
      <trkpt lat="45.83501" lon="4.80233">
        <ele>480</ele>
        <time>2014-02-16T09:18:59Z</time>
      </trkpt>
      <trkpt lat="45.835" lon="4.80221">
        <ele>478</ele>
        <time>2014-02-16T09:19:03Z</time>
      </trkpt>
      <trkpt lat="45.835" lon="4.80211">
        <ele>481</ele>
        <time>2014-02-16T09:19:07Z</time>
      </trkpt>
      <trkpt lat="45.83499" lon="4.80208">
        <ele>479</ele>
        <time>2014-02-16T09:19:08Z</time>
      </trkpt>
      <trkpt lat="45.83499" lon="4.80202">
        <ele>479</ele>
        <time>2014-02-16T09:19:10Z</time>
      </trkpt>
      <trkpt lat="45.83502" lon="4.80193">
        <ele>483</ele>
        <time>2014-02-16T09:19:13Z</time>
      </trkpt>
      <trkpt lat="45.83504" lon="4.80186">
        <ele>483</ele>
        <time>2014-02-16T09:19:16Z</time>
      </trkpt>
      <trkpt lat="45.83505" lon="4.80181">
        <ele>483</ele>
        <time>2014-02-16T09:19:18Z</time>
      </trkpt>
      <trkpt lat="45.8351" lon="4.80167">
        <ele>486</ele>
        <time>2014-02-16T09:19:24Z</time>
      </trkpt>
      <trkpt lat="45.83512" lon="4.80164">
        <ele>487</ele>
        <time>2014-02-16T09:19:25Z</time>
      </trkpt>
      <trkpt lat="45.83517" lon="4.80154">
        <ele>487</ele>
        <time>2014-02-16T09:19:29Z</time>
      </trkpt>
      <trkpt lat="45.83521" lon="4.80151">
        <ele>488</ele>
        <time>2014-02-16T09:19:32Z</time>
      </trkpt>
      <trkpt lat="45.83522" lon="4.80149">
        <ele>488</ele>
        <time>2014-02-16T09:19:35Z</time>
      </trkpt>
      <trkpt lat="45.83522" lon="4.80145">
        <ele>488</ele>
        <time>2014-02-16T09:19:43Z</time>
      </trkpt>
      <trkpt lat="45.83524" lon="4.80142">
        <ele>488</ele>
        <time>2014-02-16T09:20:02Z</time>
      </trkpt>
      <trkpt lat="45.83527" lon="4.80141">
        <ele>488</ele>
        <time>2014-02-16T09:20:05Z</time>
      </trkpt>
      <trkpt lat="45.83539" lon="4.80128">
        <ele>489</ele>
        <time>2014-02-16T09:20:14Z</time>
      </trkpt>
      <trkpt lat="45.83547" lon="4.80112">
        <ele>490</ele>
        <time>2014-02-16T09:20:19Z</time>
      </trkpt>
      <trkpt lat="45.83551" lon="4.80106">
        <ele>490</ele>
        <time>2014-02-16T09:20:21Z</time>
      </trkpt>
      <trkpt lat="45.83556" lon="4.80098">
        <ele>491</ele>
        <time>2014-02-16T09:20:24Z</time>
      </trkpt>
      <trkpt lat="45.83564" lon="4.80084">
        <ele>492</ele>
        <time>2014-02-16T09:20:30Z</time>
      </trkpt>
      <trkpt lat="45.83578" lon="4.8007">
        <ele>498</ele>
        <time>2014-02-16T09:20:38Z</time>
      </trkpt>
      <trkpt lat="45.8358" lon="4.80068">
        <ele>499</ele>
        <time>2014-02-16T09:20:39Z</time>
      </trkpt>
      <trkpt lat="45.83585" lon="4.80059">
        <ele>501</ele>
        <time>2014-02-16T09:20:43Z</time>
      </trkpt>
      <trkpt lat="45.83593" lon="4.80049">
        <ele>502</ele>
        <time>2014-02-16T09:20:48Z</time>
      </trkpt>
      <trkpt lat="45.83592" lon="4.80046">
        <ele>503</ele>
        <time>2014-02-16T09:20:50Z</time>
      </trkpt>
      <trkpt lat="45.83591" lon="4.80043">
        <ele>503</ele>
        <time>2014-02-16T09:20:52Z</time>
      </trkpt>
      <trkpt lat="45.8359" lon="4.80039">
        <ele>504</ele>
        <time>2014-02-16T09:20:58Z</time>
      </trkpt>
      <trkpt lat="45.83591" lon="4.80032">
        <ele>505</ele>
        <time>2014-02-16T09:21:00Z</time>
      </trkpt>
      <trkpt lat="45.83593" lon="4.80025">
        <ele>506</ele>
        <time>2014-02-16T09:21:02Z</time>
      </trkpt>
      <trkpt lat="45.83589" lon="4.80018">
        <ele>507</ele>
        <time>2014-02-16T09:21:05Z</time>
      </trkpt>
      <trkpt lat="45.83586" lon="4.80009">
        <ele>509</ele>
        <time>2014-02-16T09:21:09Z</time>
      </trkpt>
      <trkpt lat="45.83588" lon="4.80006">
        <ele>510</ele>
        <time>2014-02-16T09:21:11Z</time>
      </trkpt>
      <trkpt lat="45.83589" lon="4.80004">
        <ele>510</ele>
        <time>2014-02-16T09:21:12Z</time>
      </trkpt>
      <trkpt lat="45.83589" lon="4.80002">
        <ele>510</ele>
        <time>2014-02-16T09:21:14Z</time>
      </trkpt>
      <trkpt lat="45.83588" lon="4.79994">
        <ele>512</ele>
        <time>2014-02-16T09:21:19Z</time>
      </trkpt>
      <trkpt lat="45.83587" lon="4.79983">
        <ele>513</ele>
        <time>2014-02-16T09:21:25Z</time>
      </trkpt>
      <trkpt lat="45.8359" lon="4.7998">
        <ele>513</ele>
        <time>2014-02-16T09:21:30Z</time>
      </trkpt>
      <trkpt lat="45.8359" lon="4.79979">
        <ele>513</ele>
        <time>2014-02-16T09:21:31Z</time>
      </trkpt>
      <trkpt lat="45.8359" lon="4.79978">
        <ele>513</ele>
        <time>2014-02-16T09:21:32Z</time>
      </trkpt>
      <trkpt lat="45.83596" lon="4.79976">
        <ele>513</ele>
        <time>2014-02-16T09:21:37Z</time>
      </trkpt>
      <trkpt lat="45.83598" lon="4.79969">
        <ele>513</ele>
        <time>2014-02-16T09:21:42Z</time>
      </trkpt>
      <trkpt lat="45.83599" lon="4.79964">
        <ele>513</ele>
        <time>2014-02-16T09:21:46Z</time>
      </trkpt>
      <trkpt lat="45.83598" lon="4.79961">
        <ele>513</ele>
        <time>2014-02-16T09:21:49Z</time>
      </trkpt>
      <trkpt lat="45.83598" lon="4.79959">
        <ele>513</ele>
        <time>2014-02-16T09:21:50Z</time>
      </trkpt>
      <trkpt lat="45.83598" lon="4.79958">
        <ele>513</ele>
        <time>2014-02-16T09:21:51Z</time>
      </trkpt>
      <trkpt lat="45.83597" lon="4.79952">
        <ele>514</ele>
        <time>2014-02-16T09:21:54Z</time>
      </trkpt>
      <trkpt lat="45.83599" lon="4.79944">
        <ele>514</ele>
        <time>2014-02-16T09:21:59Z</time>
      </trkpt>
      <trkpt lat="45.836" lon="4.79943">
        <ele>514</ele>
        <time>2014-02-16T09:22:00Z</time>
      </trkpt>
      <trkpt lat="45.836" lon="4.79942">
        <ele>514</ele>
        <time>2014-02-16T09:22:01Z</time>
      </trkpt>
      <trkpt lat="45.83601" lon="4.79936">
        <ele>514</ele>
        <time>2014-02-16T09:22:06Z</time>
      </trkpt>
      <trkpt lat="45.83602" lon="4.79933">
        <ele>514</ele>
        <time>2014-02-16T09:22:08Z</time>
      </trkpt>
      <trkpt lat="45.83605" lon="4.79927">
        <ele>514</ele>
        <time>2014-02-16T09:22:14Z</time>
      </trkpt>
      <trkpt lat="45.83606" lon="4.79925">
        <ele>514</ele>
        <time>2014-02-16T09:22:15Z</time>
      </trkpt>
      <trkpt lat="45.83606" lon="4.7992">
        <ele>514</ele>
        <time>2014-02-16T09:22:19Z</time>
      </trkpt>
      <trkpt lat="45.83603" lon="4.79914">
        <ele>512</ele>
        <time>2014-02-16T09:22:30Z</time>
      </trkpt>
      <trkpt lat="45.83602" lon="4.79916">
        <ele>512</ele>
        <time>2014-02-16T09:22:57Z</time>
      </trkpt>
      <trkpt lat="45.83604" lon="4.79915">
        <ele>512</ele>
        <time>2014-02-16T09:22:58Z</time>
      </trkpt>
      <trkpt lat="45.83607" lon="4.79915">
        <ele>511</ele>
        <time>2014-02-16T09:22:59Z</time>
      </trkpt>
      <trkpt lat="45.83615" lon="4.79916">
        <ele>511</ele>
        <time>2014-02-16T09:23:02Z</time>
      </trkpt>
      <trkpt lat="45.83626" lon="4.79915">
        <ele>511</ele>
        <time>2014-02-16T09:23:06Z</time>
      </trkpt>
      <trkpt lat="45.83628" lon="4.79914">
        <ele>511</ele>
        <time>2014-02-16T09:23:07Z</time>
      </trkpt>
      <trkpt lat="45.83643" lon="4.79913">
        <ele>512</ele>
        <time>2014-02-16T09:23:12Z</time>
      </trkpt>
      <trkpt lat="45.83646" lon="4.79913">
        <ele>512</ele>
        <time>2014-02-16T09:23:13Z</time>
      </trkpt>
      <trkpt lat="45.83661" lon="4.79912">
        <ele>514</ele>
        <time>2014-02-16T09:23:17Z</time>
      </trkpt>
      <trkpt lat="45.83666" lon="4.79912">
        <ele>515</ele>
        <time>2014-02-16T09:23:19Z</time>
      </trkpt>
      <trkpt lat="45.83675" lon="4.79911">
        <ele>515</ele>
        <time>2014-02-16T09:23:23Z</time>
      </trkpt>
      <trkpt lat="45.83686" lon="4.79911">
        <ele>515</ele>
        <time>2014-02-16T09:23:27Z</time>
      </trkpt>
      <trkpt lat="45.83692" lon="4.79912">
        <ele>516</ele>
        <time>2014-02-16T09:23:29Z</time>
      </trkpt>
      <trkpt lat="45.83706" lon="4.79913">
        <ele>516</ele>
        <time>2014-02-16T09:23:34Z</time>
      </trkpt>
      <trkpt lat="45.83723" lon="4.79913">
        <ele>518</ele>
        <time>2014-02-16T09:23:40Z</time>
      </trkpt>
      <trkpt lat="45.83725" lon="4.79912">
        <ele>518</ele>
        <time>2014-02-16T09:23:41Z</time>
      </trkpt>
      <trkpt lat="45.83736" lon="4.79909">
        <ele>519</ele>
        <time>2014-02-16T09:23:44Z</time>
      </trkpt>
      <trkpt lat="45.83744" lon="4.79903">
        <ele>519</ele>
        <time>2014-02-16T09:23:46Z</time>
      </trkpt>
      <trkpt lat="45.83749" lon="4.79899">
        <ele>519</ele>
        <time>2014-02-16T09:23:48Z</time>
      </trkpt>
      <trkpt lat="45.83751" lon="4.79896">
        <ele>524</ele>
        <time>2014-02-16T09:23:50Z</time>
      </trkpt>
      <trkpt lat="45.8375" lon="4.79895">
        <ele>518</ele>
        <time>2014-02-16T09:23:51Z</time>
      </trkpt>
      <trkpt lat="45.83742" lon="4.79891">
        <ele>518</ele>
        <time>2014-02-16T09:23:55Z</time>
      </trkpt>
      <trkpt lat="45.8374" lon="4.79891">
        <ele>517</ele>
        <time>2014-02-16T09:23:56Z</time>
      </trkpt>
      <trkpt lat="45.83731" lon="4.79892">
        <ele>517</ele>
        <time>2014-02-16T09:24:00Z</time>
      </trkpt>
      <trkpt lat="45.83723" lon="4.79892">
        <ele>516</ele>
        <time>2014-02-16T09:24:04Z</time>
      </trkpt>
      <trkpt lat="45.83722" lon="4.79892">
        <ele>516</ele>
        <time>2014-02-16T09:24:05Z</time>
      </trkpt>
      <trkpt lat="45.83721" lon="4.79891">
        <ele>516</ele>
        <time>2014-02-16T09:24:06Z</time>
      </trkpt>
      <trkpt lat="45.83718" lon="4.79887">
        <ele>516</ele>
        <time>2014-02-16T09:24:09Z</time>
      </trkpt>
      <trkpt lat="45.83717" lon="4.79885">
        <ele>516</ele>
        <time>2014-02-16T09:24:11Z</time>
      </trkpt>
      <trkpt lat="45.83717" lon="4.79881">
        <ele>515</ele>
        <time>2014-02-16T09:24:14Z</time>
      </trkpt>
      <trkpt lat="45.83716" lon="4.79875">
        <ele>515</ele>
        <time>2014-02-16T09:24:18Z</time>
      </trkpt>
      <trkpt lat="45.83715" lon="4.79873">
        <ele>515</ele>
        <time>2014-02-16T09:24:20Z</time>
      </trkpt>
      <trkpt lat="45.83713" lon="4.7987">
        <ele>515</ele>
        <time>2014-02-16T09:24:26Z</time>
      </trkpt>
      <trkpt lat="45.83713" lon="4.79869">
        <ele>514</ele>
        <time>2014-02-16T09:24:27Z</time>
      </trkpt>
      <trkpt lat="45.83705" lon="4.79859">
        <ele>513</ele>
        <time>2014-02-16T09:24:34Z</time>
      </trkpt>
      <trkpt lat="45.837" lon="4.79851">
        <ele>512</ele>
        <time>2014-02-16T09:24:37Z</time>
      </trkpt>
      <trkpt lat="45.83692" lon="4.79841">
        <ele>511</ele>
        <time>2014-02-16T09:24:41Z</time>
      </trkpt>
      <trkpt lat="45.83685" lon="4.79834">
        <ele>509</ele>
        <time>2014-02-16T09:24:44Z</time>
      </trkpt>
      <trkpt lat="45.83679" lon="4.79829">
        <ele>504</ele>
        <time>2014-02-16T09:24:46Z</time>
      </trkpt>
      <trkpt lat="45.83669" lon="4.79815">
        <ele>503</ele>
        <time>2014-02-16T09:24:51Z</time>
      </trkpt>
      <trkpt lat="45.83661" lon="4.79799">
        <ele>497</ele>
        <time>2014-02-16T09:24:56Z</time>
      </trkpt>
      <trkpt lat="45.83657" lon="4.79793">
        <ele>496</ele>
        <time>2014-02-16T09:24:58Z</time>
      </trkpt>
      <trkpt lat="45.83651" lon="4.79782">
        <ele>495</ele>
        <time>2014-02-16T09:25:01Z</time>
      </trkpt>
      <trkpt lat="45.83648" lon="4.79772">
        <ele>495</ele>
        <time>2014-02-16T09:25:05Z</time>
      </trkpt>
      <trkpt lat="45.83649" lon="4.79773">
        <ele>495</ele>
        <time>2014-02-16T09:25:06Z</time>
      </trkpt>
      <trkpt lat="45.83648" lon="4.79773">
        <ele>495</ele>
        <time>2014-02-16T09:25:09Z</time>
      </trkpt>
      <trkpt lat="45.83643" lon="4.79762">
        <ele>494</ele>
        <time>2014-02-16T09:25:13Z</time>
      </trkpt>
      <trkpt lat="45.83641" lon="4.79753">
        <ele>494</ele>
        <time>2014-02-16T09:25:15Z</time>
      </trkpt>
      <trkpt lat="45.83637" lon="4.79744">
        <ele>489</ele>
        <time>2014-02-16T09:25:18Z</time>
      </trkpt>
      <trkpt lat="45.83635" lon="4.79734">
        <ele>488</ele>
        <time>2014-02-16T09:25:21Z</time>
      </trkpt>
      <trkpt lat="45.83634" lon="4.79731">
        <ele>488</ele>
        <time>2014-02-16T09:25:22Z</time>
      </trkpt>
      <trkpt lat="45.83632" lon="4.79727">
        <ele>488</ele>
        <time>2014-02-16T09:25:23Z</time>
      </trkpt>
      <trkpt lat="45.83626" lon="4.79715">
        <ele>487</ele>
        <time>2014-02-16T09:25:27Z</time>
      </trkpt>
      <trkpt lat="45.8362" lon="4.79704">
        <ele>487</ele>
        <time>2014-02-16T09:25:30Z</time>
      </trkpt>
      <trkpt lat="45.83619" lon="4.797">
        <ele>487</ele>
        <time>2014-02-16T09:25:31Z</time>
      </trkpt>
      <trkpt lat="45.83617" lon="4.79688">
        <ele>486</ele>
        <time>2014-02-16T09:25:34Z</time>
      </trkpt>
      <trkpt lat="45.83618" lon="4.79679">
        <ele>486</ele>
        <time>2014-02-16T09:25:36Z</time>
      </trkpt>
      <trkpt lat="45.83619" lon="4.79671">
        <ele>486</ele>
        <time>2014-02-16T09:25:38Z</time>
      </trkpt>
      <trkpt lat="45.83625" lon="4.79658">
        <ele>484</ele>
        <time>2014-02-16T09:25:42Z</time>
      </trkpt>
      <trkpt lat="45.83626" lon="4.79655">
        <ele>484</ele>
        <time>2014-02-16T09:25:43Z</time>
      </trkpt>
      <trkpt lat="45.83631" lon="4.79643">
        <ele>485</ele>
        <time>2014-02-16T09:25:47Z</time>
      </trkpt>
      <trkpt lat="45.83635" lon="4.79632">
        <ele>485</ele>
        <time>2014-02-16T09:25:50Z</time>
      </trkpt>
      <trkpt lat="45.83638" lon="4.79622">
        <ele>485</ele>
        <time>2014-02-16T09:25:53Z</time>
      </trkpt>
      <trkpt lat="45.83638" lon="4.79604">
        <ele>485</ele>
        <time>2014-02-16T09:25:58Z</time>
      </trkpt>
      <trkpt lat="45.83636" lon="4.79579">
        <ele>484</ele>
        <time>2014-02-16T09:26:05Z</time>
      </trkpt>
      <trkpt lat="45.83636" lon="4.79576">
        <ele>484</ele>
        <time>2014-02-16T09:26:06Z</time>
      </trkpt>
      <trkpt lat="45.83637" lon="4.79558">
        <ele>483</ele>
        <time>2014-02-16T09:26:13Z</time>
      </trkpt>
      <trkpt lat="45.83636" lon="4.79556">
        <ele>483</ele>
        <time>2014-02-16T09:26:19Z</time>
      </trkpt>
      <trkpt lat="45.83637" lon="4.79554">
        <ele>483</ele>
        <time>2014-02-16T09:26:26Z</time>
      </trkpt>
      <trkpt lat="45.83639" lon="4.79552">
        <ele>483</ele>
        <time>2014-02-16T09:26:27Z</time>
      </trkpt>
      <trkpt lat="45.83647" lon="4.79544">
        <ele>484</ele>
        <time>2014-02-16T09:26:31Z</time>
      </trkpt>
      <trkpt lat="45.83655" lon="4.79539">
        <ele>484</ele>
        <time>2014-02-16T09:26:35Z</time>
      </trkpt>
      <trkpt lat="45.83657" lon="4.79539">
        <ele>484</ele>
        <time>2014-02-16T09:26:36Z</time>
      </trkpt>
      <trkpt lat="45.83668" lon="4.79536">
        <ele>489</ele>
        <time>2014-02-16T09:26:41Z</time>
      </trkpt>
      <trkpt lat="45.83669" lon="4.79533">
        <ele>489</ele>
        <time>2014-02-16T09:26:42Z</time>
      </trkpt>
      <trkpt lat="45.83672" lon="4.79528">
        <ele>489</ele>
        <time>2014-02-16T09:26:44Z</time>
      </trkpt>
      <trkpt lat="45.83677" lon="4.79516">
        <ele>489</ele>
        <time>2014-02-16T09:26:49Z</time>
      </trkpt>
      <trkpt lat="45.83682" lon="4.79505">
        <ele>488</ele>
        <time>2014-02-16T09:26:53Z</time>
      </trkpt>
      <trkpt lat="45.83684" lon="4.79499">
        <ele>488</ele>
        <time>2014-02-16T09:26:55Z</time>
      </trkpt>
      <trkpt lat="45.83688" lon="4.79484">
        <ele>489</ele>
        <time>2014-02-16T09:27:00Z</time>
      </trkpt>
      <trkpt lat="45.83689" lon="4.79478">
        <ele>489</ele>
        <time>2014-02-16T09:27:02Z</time>
      </trkpt>
      <trkpt lat="45.83691" lon="4.79467">
        <ele>489</ele>
        <time>2014-02-16T09:27:05Z</time>
      </trkpt>
      <trkpt lat="45.83694" lon="4.79451">
        <ele>490</ele>
        <time>2014-02-16T09:27:10Z</time>
      </trkpt>
      <trkpt lat="45.83698" lon="4.7943">
        <ele>489</ele>
        <time>2014-02-16T09:27:17Z</time>
      </trkpt>
      <trkpt lat="45.83699" lon="4.79426">
        <ele>489</ele>
        <time>2014-02-16T09:27:19Z</time>
      </trkpt>
      <trkpt lat="45.83701" lon="4.79419">
        <ele>490</ele>
        <time>2014-02-16T09:27:23Z</time>
      </trkpt>
      <trkpt lat="45.83703" lon="4.79402">
        <ele>491</ele>
        <time>2014-02-16T09:27:31Z</time>
      </trkpt>
      <trkpt lat="45.83703" lon="4.79399">
        <ele>491</ele>
        <time>2014-02-16T09:27:32Z</time>
      </trkpt>
      <trkpt lat="45.83705" lon="4.79381">
        <ele>491</ele>
        <time>2014-02-16T09:27:38Z</time>
      </trkpt>
      <trkpt lat="45.83706" lon="4.79373">
        <ele>492</ele>
        <time>2014-02-16T09:27:41Z</time>
      </trkpt>
      <trkpt lat="45.83707" lon="4.79368">
        <ele>492</ele>
        <time>2014-02-16T09:27:43Z</time>
      </trkpt>
      <trkpt lat="45.83707" lon="4.79364">
        <ele>492</ele>
        <time>2014-02-16T09:27:45Z</time>
      </trkpt>
      <trkpt lat="45.83708" lon="4.79363">
        <ele>492</ele>
        <time>2014-02-16T09:27:48Z</time>
      </trkpt>
      <trkpt lat="45.83705" lon="4.79361">
        <ele>492</ele>
        <time>2014-02-16T09:27:52Z</time>
      </trkpt>
      <trkpt lat="45.83707" lon="4.79357">
        <ele>492</ele>
        <time>2014-02-16T09:27:56Z</time>
      </trkpt>
      <trkpt lat="45.83708" lon="4.79356">
        <ele>492</ele>
        <time>2014-02-16T09:27:57Z</time>
      </trkpt>
      <trkpt lat="45.8371" lon="4.79352">
        <ele>492</ele>
        <time>2014-02-16T09:28:01Z</time>
      </trkpt>
      <trkpt lat="45.83711" lon="4.79352">
        <ele>492</ele>
        <time>2014-02-16T09:28:02Z</time>
      </trkpt>
      <trkpt lat="45.83713" lon="4.79351">
        <ele>493</ele>
        <time>2014-02-16T09:28:05Z</time>
      </trkpt>
      <trkpt lat="45.83716" lon="4.79348">
        <ele>493</ele>
        <time>2014-02-16T09:28:11Z</time>
      </trkpt>
      <trkpt lat="45.83718" lon="4.79348">
        <ele>493</ele>
        <time>2014-02-16T09:28:12Z</time>
      </trkpt>
      <trkpt lat="45.83729" lon="4.79348">
        <ele>494</ele>
        <time>2014-02-16T09:28:17Z</time>
      </trkpt>
      <trkpt lat="45.83742" lon="4.79347">
        <ele>495</ele>
        <time>2014-02-16T09:28:22Z</time>
      </trkpt>
      <trkpt lat="45.83749" lon="4.79347">
        <ele>496</ele>
        <time>2014-02-16T09:28:25Z</time>
      </trkpt>
      <trkpt lat="45.83757" lon="4.79346">
        <ele>498</ele>
        <time>2014-02-16T09:28:28Z</time>
      </trkpt>
      <trkpt lat="45.83769" lon="4.79345">
        <ele>499</ele>
        <time>2014-02-16T09:28:33Z</time>
      </trkpt>
      <trkpt lat="45.83772" lon="4.79345">
        <ele>499</ele>
        <time>2014-02-16T09:28:34Z</time>
      </trkpt>
      <trkpt lat="45.83784" lon="4.79345">
        <ele>499</ele>
        <time>2014-02-16T09:28:40Z</time>
      </trkpt>
      <trkpt lat="45.83789" lon="4.79345">
        <ele>499</ele>
        <time>2014-02-16T09:28:45Z</time>
      </trkpt>
      <trkpt lat="45.83792" lon="4.79348">
        <ele>499</ele>
        <time>2014-02-16T09:28:48Z</time>
      </trkpt>
      <trkpt lat="45.83794" lon="4.79351">
        <ele>499</ele>
        <time>2014-02-16T09:28:53Z</time>
      </trkpt>
      <trkpt lat="45.83798" lon="4.79352">
        <ele>500</ele>
        <time>2014-02-16T09:28:58Z</time>
      </trkpt>
      <trkpt lat="45.83799" lon="4.79352">
        <ele>500</ele>
        <time>2014-02-16T09:28:59Z</time>
      </trkpt>
      <trkpt lat="45.83802" lon="4.79353">
        <ele>500</ele>
        <time>2014-02-16T09:29:03Z</time>
      </trkpt>
      <trkpt lat="45.83806" lon="4.79352">
        <ele>500</ele>
        <time>2014-02-16T09:29:06Z</time>
      </trkpt>
      <trkpt lat="45.83811" lon="4.79351">
        <ele>500</ele>
        <time>2014-02-16T09:29:11Z</time>
      </trkpt>
      <trkpt lat="45.83813" lon="4.79352">
        <ele>500</ele>
        <time>2014-02-16T09:29:19Z</time>
      </trkpt>
      <trkpt lat="45.83815" lon="4.79352">
        <ele>500</ele>
        <time>2014-02-16T09:29:25Z</time>
      </trkpt>
      <trkpt lat="45.83819" lon="4.79356">
        <ele>500</ele>
        <time>2014-02-16T09:29:34Z</time>
      </trkpt>
      <trkpt lat="45.83822" lon="4.79359">
        <ele>500</ele>
        <time>2014-02-16T09:29:41Z</time>
      </trkpt>
      <trkpt lat="45.83823" lon="4.79359">
        <ele>500</ele>
        <time>2014-02-16T09:29:42Z</time>
      </trkpt>
      <trkpt lat="45.83826" lon="4.79359">
        <ele>500</ele>
        <time>2014-02-16T09:29:49Z</time>
      </trkpt>
      <trkpt lat="45.8383" lon="4.79352">
        <ele>500</ele>
        <time>2014-02-16T09:29:55Z</time>
      </trkpt>
      <trkpt lat="45.8383" lon="4.79351">
        <ele>500</ele>
        <time>2014-02-16T09:29:56Z</time>
      </trkpt>
      <trkpt lat="45.83828" lon="4.79346">
        <ele>500</ele>
        <time>2014-02-16T09:30:00Z</time>
      </trkpt>
      <trkpt lat="45.83827" lon="4.79344">
        <ele>500</ele>
        <time>2014-02-16T09:30:02Z</time>
      </trkpt>
      <trkpt lat="45.83826" lon="4.79342">
        <ele>500</ele>
        <time>2014-02-16T09:30:05Z</time>
      </trkpt>
      <trkpt lat="45.83826" lon="4.79341">
        <ele>500</ele>
        <time>2014-02-16T09:30:06Z</time>
      </trkpt>
      <trkpt lat="45.83824" lon="4.79335">
        <ele>500</ele>
        <time>2014-02-16T09:30:12Z</time>
      </trkpt>
      <trkpt lat="45.83824" lon="4.79336">
        <ele>500</ele>
        <time>2014-02-16T09:30:19Z</time>
      </trkpt>
      <trkpt lat="45.83821" lon="4.79333">
        <ele>502</ele>
        <time>2014-02-16T09:30:28Z</time>
      </trkpt>
      <trkpt lat="45.83821" lon="4.79336">
        <ele>500</ele>
        <time>2014-02-16T09:30:38Z</time>
      </trkpt>
      <trkpt lat="45.83824" lon="4.79332">
        <ele>502</ele>
        <time>2014-02-16T09:31:05Z</time>
      </trkpt>
      <trkpt lat="45.83827" lon="4.79331">
        <ele>502</ele>
        <time>2014-02-16T09:31:06Z</time>
      </trkpt>
      <trkpt lat="45.83836" lon="4.79325">
        <ele>503</ele>
        <time>2014-02-16T09:31:10Z</time>
      </trkpt>
      <trkpt lat="45.8384" lon="4.79317">
        <ele>504</ele>
        <time>2014-02-16T09:31:13Z</time>
      </trkpt>
      <trkpt lat="45.83839" lon="4.79313">
        <ele>504</ele>
        <time>2014-02-16T09:31:14Z</time>
      </trkpt>
      <trkpt lat="45.83844" lon="4.79309">
        <ele>505</ele>
        <time>2014-02-16T09:31:17Z</time>
      </trkpt>
      <trkpt lat="45.83847" lon="4.79308">
        <ele>505</ele>
        <time>2014-02-16T09:31:18Z</time>
      </trkpt>
      <trkpt lat="45.83855" lon="4.79306">
        <ele>505</ele>
        <time>2014-02-16T09:31:21Z</time>
      </trkpt>
      <trkpt lat="45.83857" lon="4.79305">
        <ele>505</ele>
        <time>2014-02-16T09:31:22Z</time>
      </trkpt>
      <trkpt lat="45.83864" lon="4.79299">
        <ele>506</ele>
        <time>2014-02-16T09:31:26Z</time>
      </trkpt>
      <trkpt lat="45.83865" lon="4.79296">
        <ele>506</ele>
        <time>2014-02-16T09:31:27Z</time>
      </trkpt>
      <trkpt lat="45.83865" lon="4.79287">
        <ele>506</ele>
        <time>2014-02-16T09:31:30Z</time>
      </trkpt>
      <trkpt lat="45.83865" lon="4.79283">
        <ele>506</ele>
        <time>2014-02-16T09:31:31Z</time>
      </trkpt>
      <trkpt lat="45.83863" lon="4.79264">
        <ele>507</ele>
        <time>2014-02-16T09:31:37Z</time>
      </trkpt>
      <trkpt lat="45.83863" lon="4.7926">
        <ele>507</ele>
        <time>2014-02-16T09:31:39Z</time>
      </trkpt>
      <trkpt lat="45.83863" lon="4.79258">
        <ele>507</ele>
        <time>2014-02-16T09:31:43Z</time>
      </trkpt>
      <trkpt lat="45.83863" lon="4.79253">
        <ele>507</ele>
        <time>2014-02-16T09:31:51Z</time>
      </trkpt>
      <trkpt lat="45.83862" lon="4.79245">
        <ele>511</ele>
        <time>2014-02-16T09:31:58Z</time>
      </trkpt>
      <trkpt lat="45.83861" lon="4.79235">
        <ele>511</ele>
        <time>2014-02-16T09:32:04Z</time>
      </trkpt>
      <trkpt lat="45.83861" lon="4.79232">
        <ele>511</ele>
        <time>2014-02-16T09:32:06Z</time>
      </trkpt>
      <trkpt lat="45.83859" lon="4.79219">
        <ele>512</ele>
        <time>2014-02-16T09:32:13Z</time>
      </trkpt>
      <trkpt lat="45.83859" lon="4.7921">
        <ele>512</ele>
        <time>2014-02-16T09:32:18Z</time>
      </trkpt>
      <trkpt lat="45.83858" lon="4.79204">
        <ele>512</ele>
        <time>2014-02-16T09:32:21Z</time>
      </trkpt>
      <trkpt lat="45.83857" lon="4.7919">
        <ele>513</ele>
        <time>2014-02-16T09:32:29Z</time>
      </trkpt>
      <trkpt lat="45.83856" lon="4.79184">
        <ele>513</ele>
        <time>2014-02-16T09:32:32Z</time>
      </trkpt>
      <trkpt lat="45.83854" lon="4.79168">
        <ele>513</ele>
        <time>2014-02-16T09:32:40Z</time>
      </trkpt>
      <trkpt lat="45.83854" lon="4.79157">
        <ele>518</ele>
        <time>2014-02-16T09:32:45Z</time>
      </trkpt>
      <trkpt lat="45.83852" lon="4.7915">
        <ele>519</ele>
        <time>2014-02-16T09:32:49Z</time>
      </trkpt>
      <trkpt lat="45.83842" lon="4.79141">
        <ele>519</ele>
        <time>2014-02-16T09:32:57Z</time>
      </trkpt>
      <trkpt lat="45.83841" lon="4.7914">
        <ele>519</ele>
        <time>2014-02-16T09:32:58Z</time>
      </trkpt>
      <trkpt lat="45.83839" lon="4.79132">
        <ele>520</ele>
        <time>2014-02-16T09:33:04Z</time>
      </trkpt>
      <trkpt lat="45.83839" lon="4.79128">
        <ele>520</ele>
        <time>2014-02-16T09:33:06Z</time>
      </trkpt>
      <trkpt lat="45.83842" lon="4.79125">
        <ele>521</ele>
        <time>2014-02-16T09:33:09Z</time>
      </trkpt>
      <trkpt lat="45.83846" lon="4.79118">
        <ele>522</ele>
        <time>2014-02-16T09:33:15Z</time>
      </trkpt>
      <trkpt lat="45.83847" lon="4.79116">
        <ele>522</ele>
        <time>2014-02-16T09:33:17Z</time>
      </trkpt>
      <trkpt lat="45.83852" lon="4.79106">
        <ele>523</ele>
        <time>2014-02-16T09:33:25Z</time>
      </trkpt>
      <trkpt lat="45.83857" lon="4.79096">
        <ele>523</ele>
        <time>2014-02-16T09:33:31Z</time>
      </trkpt>
      <trkpt lat="45.83859" lon="4.79093">
        <ele>523</ele>
        <time>2014-02-16T09:33:33Z</time>
      </trkpt>
      <trkpt lat="45.83867" lon="4.79082">
        <ele>531</ele>
        <time>2014-02-16T09:33:39Z</time>
      </trkpt>
      <trkpt lat="45.8387" lon="4.79077">
        <ele>531</ele>
        <time>2014-02-16T09:33:41Z</time>
      </trkpt>
      <trkpt lat="45.83876" lon="4.79066">
        <ele>531</ele>
        <time>2014-02-16T09:33:46Z</time>
      </trkpt>
      <trkpt lat="45.8388" lon="4.79054">
        <ele>532</ele>
        <time>2014-02-16T09:33:53Z</time>
      </trkpt>
      <trkpt lat="45.83881" lon="4.79053">
        <ele>532</ele>
        <time>2014-02-16T09:33:54Z</time>
      </trkpt>
      <trkpt lat="45.83881" lon="4.79048">
        <ele>533</ele>
        <time>2014-02-16T09:33:58Z</time>
      </trkpt>
      <trkpt lat="45.83881" lon="4.79047">
        <ele>533</ele>
        <time>2014-02-16T09:33:59Z</time>
      </trkpt>
      <trkpt lat="45.8388" lon="4.79043">
        <ele>533</ele>
        <time>2014-02-16T09:34:02Z</time>
      </trkpt>
      <trkpt lat="45.83882" lon="4.79041">
        <ele>533</ele>
        <time>2014-02-16T09:34:05Z</time>
      </trkpt>
      <trkpt lat="45.83884" lon="4.79041">
        <ele>533</ele>
        <time>2014-02-16T09:34:12Z</time>
      </trkpt>
      <trkpt lat="45.83885" lon="4.79038">
        <ele>533</ele>
        <time>2014-02-16T09:34:25Z</time>
      </trkpt>
      <trkpt lat="45.83886" lon="4.79042">
        <ele>533</ele>
        <time>2014-02-16T09:34:30Z</time>
      </trkpt>
      <trkpt lat="45.83887" lon="4.79043">
        <ele>533</ele>
        <time>2014-02-16T09:34:31Z</time>
      </trkpt>
      <trkpt lat="45.83886" lon="4.79047">
        <ele>533</ele>
        <time>2014-02-16T09:34:34Z</time>
      </trkpt>
      <trkpt lat="45.83883" lon="4.79047">
        <ele>533</ele>
        <time>2014-02-16T09:34:36Z</time>
      </trkpt>
      <trkpt lat="45.83881" lon="4.79047">
        <ele>533</ele>
        <time>2014-02-16T09:34:42Z</time>
      </trkpt>
      <trkpt lat="45.83881" lon="4.79044">
        <ele>533</ele>
        <time>2014-02-16T09:34:51Z</time>
      </trkpt>
      <trkpt lat="45.83884" lon="4.79046">
        <ele>533</ele>
        <time>2014-02-16T09:34:56Z</time>
      </trkpt>
      <trkpt lat="45.83887" lon="4.79043">
        <ele>533</ele>
        <time>2014-02-16T09:35:23Z</time>
      </trkpt>
      <trkpt lat="45.83889" lon="4.79044">
        <ele>533</ele>
        <time>2014-02-16T09:35:55Z</time>
      </trkpt>
      <trkpt lat="45.83889" lon="4.79043">
        <ele>533</ele>
        <time>2014-02-16T09:35:56Z</time>
      </trkpt>
      <trkpt lat="45.83888" lon="4.79038">
        <ele>533</ele>
        <time>2014-02-16T09:36:00Z</time>
      </trkpt>
      <trkpt lat="45.83888" lon="4.79037">
        <ele>533</ele>
        <time>2014-02-16T09:36:01Z</time>
      </trkpt>
      <trkpt lat="45.83888" lon="4.79036">
        <ele>534</ele>
        <time>2014-02-16T09:36:02Z</time>
      </trkpt>
      <trkpt lat="45.83891" lon="4.79035">
        <ele>534</ele>
        <time>2014-02-16T09:36:05Z</time>
      </trkpt>
      <trkpt lat="45.83895" lon="4.79034">
        <ele>534</ele>
        <time>2014-02-16T09:36:09Z</time>
      </trkpt>
      <trkpt lat="45.83897" lon="4.79034">
        <ele>534</ele>
        <time>2014-02-16T09:36:10Z</time>
      </trkpt>
      <trkpt lat="45.83898" lon="4.79034">
        <ele>534</ele>
        <time>2014-02-16T09:36:11Z</time>
      </trkpt>
      <trkpt lat="45.83906" lon="4.79032">
        <ele>534</ele>
        <time>2014-02-16T09:36:19Z</time>
      </trkpt>
      <trkpt lat="45.83909" lon="4.79032">
        <ele>534</ele>
        <time>2014-02-16T09:36:22Z</time>
      </trkpt>
      <trkpt lat="45.83911" lon="4.79031">
        <ele>534</ele>
        <time>2014-02-16T09:36:25Z</time>
      </trkpt>
      <trkpt lat="45.83911" lon="4.79031">
        <ele>534</ele>
        <time>2014-02-16T09:36:26Z</time>
      </trkpt>
      <trkpt lat="45.83913" lon="4.7903">
        <ele>535</ele>
        <time>2014-02-16T09:36:33Z</time>
      </trkpt>
      <trkpt lat="45.83914" lon="4.7903">
        <ele>535</ele>
        <time>2014-02-16T09:36:47Z</time>
      </trkpt>
      <trkpt lat="45.83918" lon="4.79028">
        <ele>537</ele>
        <time>2014-02-16T09:37:05Z</time>
      </trkpt>
      <trkpt lat="45.83924" lon="4.79029">
        <ele>537</ele>
        <time>2014-02-16T09:37:12Z</time>
      </trkpt>
      <trkpt lat="45.8393" lon="4.79026">
        <ele>537</ele>
        <time>2014-02-16T09:37:19Z</time>
      </trkpt>
      <trkpt lat="45.83935" lon="4.79022">
        <ele>537</ele>
        <time>2014-02-16T09:37:23Z</time>
      </trkpt>
      <trkpt lat="45.83938" lon="4.79019">
        <ele>537</ele>
        <time>2014-02-16T09:37:26Z</time>
      </trkpt>
      <trkpt lat="45.83941" lon="4.79016">
        <ele>538</ele>
        <time>2014-02-16T09:37:31Z</time>
      </trkpt>
      <trkpt lat="45.83944" lon="4.79013">
        <ele>538</ele>
        <time>2014-02-16T09:37:38Z</time>
      </trkpt>
      <trkpt lat="45.83946" lon="4.79013">
        <ele>538</ele>
        <time>2014-02-16T09:37:40Z</time>
      </trkpt>
      <trkpt lat="45.83952" lon="4.79014">
        <ele>538</ele>
        <time>2014-02-16T09:37:46Z</time>
      </trkpt>
      <trkpt lat="45.83959" lon="4.79015">
        <ele>538</ele>
        <time>2014-02-16T09:37:53Z</time>
      </trkpt>
      <trkpt lat="45.83963" lon="4.79017">
        <ele>538</ele>
        <time>2014-02-16T09:37:56Z</time>
      </trkpt>
      <trkpt lat="45.8397" lon="4.79019">
        <ele>538</ele>
        <time>2014-02-16T09:38:00Z</time>
      </trkpt>
      <trkpt lat="45.8398" lon="4.79023">
        <ele>538</ele>
        <time>2014-02-16T09:38:07Z</time>
      </trkpt>
      <trkpt lat="45.83982" lon="4.79023">
        <ele>539</ele>
        <time>2014-02-16T09:38:08Z</time>
      </trkpt>
      <trkpt lat="45.83991" lon="4.79025">
        <ele>539</ele>
        <time>2014-02-16T09:38:14Z</time>
      </trkpt>
      <trkpt lat="45.83993" lon="4.79025">
        <ele>539</ele>
        <time>2014-02-16T09:38:16Z</time>
      </trkpt>
      <trkpt lat="45.83997" lon="4.79024">
        <ele>539</ele>
        <time>2014-02-16T09:38:20Z</time>
      </trkpt>
      <trkpt lat="45.83999" lon="4.79026">
        <ele>539</ele>
        <time>2014-02-16T09:38:57Z</time>
      </trkpt>
      <trkpt lat="45.83999" lon="4.79024">
        <ele>539</ele>
        <time>2014-02-16T09:38:59Z</time>
      </trkpt>
      <trkpt lat="45.84" lon="4.79024">
        <ele>539</ele>
        <time>2014-02-16T09:39:03Z</time>
      </trkpt>
      <trkpt lat="45.83995" lon="4.79027">
        <ele>539</ele>
        <time>2014-02-16T09:39:18Z</time>
      </trkpt>
      <trkpt lat="45.83989" lon="4.79026">
        <ele>539</ele>
        <time>2014-02-16T09:39:24Z</time>
      </trkpt>
      <trkpt lat="45.83987" lon="4.79024">
        <ele>539</ele>
        <time>2014-02-16T09:39:26Z</time>
      </trkpt>
      <trkpt lat="45.83982" lon="4.79021">
        <ele>539</ele>
        <time>2014-02-16T09:39:32Z</time>
      </trkpt>
      <trkpt lat="45.83981" lon="4.7902">
        <ele>539</ele>
        <time>2014-02-16T09:39:33Z</time>
      </trkpt>
      <trkpt lat="45.83979" lon="4.79019">
        <ele>539</ele>
        <time>2014-02-16T09:39:35Z</time>
      </trkpt>
      <trkpt lat="45.8397" lon="4.79016">
        <ele>538</ele>
        <time>2014-02-16T09:39:42Z</time>
      </trkpt>
      <trkpt lat="45.83965" lon="4.79017">
        <ele>538</ele>
        <time>2014-02-16T09:39:45Z</time>
      </trkpt>
      <trkpt lat="45.83962" lon="4.79016">
        <ele>538</ele>
        <time>2014-02-16T09:39:47Z</time>
      </trkpt>
      <trkpt lat="45.83953" lon="4.79015">
        <ele>538</ele>
        <time>2014-02-16T09:39:54Z</time>
      </trkpt>
      <trkpt lat="45.83947" lon="4.79013">
        <ele>538</ele>
        <time>2014-02-16T09:40:00Z</time>
      </trkpt>
      <trkpt lat="45.83944" lon="4.79013">
        <ele>538</ele>
        <time>2014-02-16T09:40:02Z</time>
      </trkpt>
      <trkpt lat="45.83941" lon="4.7901">
        <ele>538</ele>
        <time>2014-02-16T09:40:08Z</time>
      </trkpt>
      <trkpt lat="45.83942" lon="4.79007">
        <ele>538</ele>
        <time>2014-02-16T09:40:13Z</time>
      </trkpt>
      <trkpt lat="45.83944" lon="4.79001">
        <ele>538</ele>
        <time>2014-02-16T09:40:20Z</time>
      </trkpt>
      <trkpt lat="45.83944" lon="4.78995">
        <ele>545</ele>
        <time>2014-02-16T09:40:26Z</time>
      </trkpt>
      <trkpt lat="45.83943" lon="4.78994">
        <ele>545</ele>
        <time>2014-02-16T09:40:27Z</time>
      </trkpt>
      <trkpt lat="45.83938" lon="4.78991">
        <ele>545</ele>
        <time>2014-02-16T09:40:32Z</time>
      </trkpt>
      <trkpt lat="45.83936" lon="4.7899">
        <ele>545</ele>
        <time>2014-02-16T09:40:34Z</time>
      </trkpt>
      <trkpt lat="45.83936" lon="4.7899">
        <ele>545</ele>
        <time>2014-02-16T09:40:38Z</time>
      </trkpt>
      <trkpt lat="45.83931" lon="4.7899">
        <ele>544</ele>
        <time>2014-02-16T09:40:48Z</time>
      </trkpt>
      <trkpt lat="45.83927" lon="4.78989">
        <ele>544</ele>
        <time>2014-02-16T09:40:52Z</time>
      </trkpt>
      <trkpt lat="45.83926" lon="4.78989">
        <ele>544</ele>
        <time>2014-02-16T09:40:55Z</time>
      </trkpt>
      <trkpt lat="45.83925" lon="4.78988">
        <ele>544</ele>
        <time>2014-02-16T09:40:58Z</time>
      </trkpt>
      <trkpt lat="45.83923" lon="4.78991">
        <ele>543</ele>
        <time>2014-02-16T09:41:02Z</time>
      </trkpt>
      <trkpt lat="45.83923" lon="4.78991">
        <ele>543</ele>
        <time>2014-02-16T09:41:11Z</time>
      </trkpt>
      <trkpt lat="45.83918" lon="4.78988">
        <ele>543</ele>
        <time>2014-02-16T09:41:58Z</time>
      </trkpt>
      <trkpt lat="45.83917" lon="4.78987">
        <ele>543</ele>
        <time>2014-02-16T09:42:04Z</time>
      </trkpt>
      <trkpt lat="45.83914" lon="4.78985">
        <ele>542</ele>
        <time>2014-02-16T09:42:18Z</time>
      </trkpt>
      <trkpt lat="45.83912" lon="4.78986">
        <ele>542</ele>
        <time>2014-02-16T09:42:23Z</time>
      </trkpt>
      <trkpt lat="45.83912" lon="4.78989">
        <ele>542</ele>
        <time>2014-02-16T09:42:31Z</time>
      </trkpt>
      <trkpt lat="45.83912" lon="4.78989">
        <ele>542</ele>
        <time>2014-02-16T09:42:48Z</time>
      </trkpt>
      <trkpt lat="45.8391" lon="4.78991">
        <ele>542</ele>
        <time>2014-02-16T09:43:07Z</time>
      </trkpt>
      <trkpt lat="45.83913" lon="4.7899">
        <ele>542</ele>
        <time>2014-02-16T09:43:15Z</time>
      </trkpt>
      <trkpt lat="45.83915" lon="4.78993">
        <ele>541</ele>
        <time>2014-02-16T09:43:52Z</time>
      </trkpt>
      <trkpt lat="45.83916" lon="4.78998">
        <ele>540</ele>
        <time>2014-02-16T09:43:59Z</time>
      </trkpt>
      <trkpt lat="45.83916" lon="4.79001">
        <ele>540</ele>
        <time>2014-02-16T09:44:08Z</time>
      </trkpt>
      <trkpt lat="45.83916" lon="4.79001">
        <ele>540</ele>
        <time>2014-02-16T09:44:15Z</time>
      </trkpt>
      <trkpt lat="45.83914" lon="4.78998">
        <ele>541</ele>
        <time>2014-02-16T09:44:46Z</time>
      </trkpt>
      <trkpt lat="45.83912" lon="4.78992">
        <ele>541</ele>
        <time>2014-02-16T09:44:56Z</time>
      </trkpt>
      <trkpt lat="45.83908" lon="4.7899">
        <ele>542</ele>
        <time>2014-02-16T09:45:02Z</time>
      </trkpt>
      <trkpt lat="45.83905" lon="4.7899">
        <ele>542</ele>
        <time>2014-02-16T09:45:05Z</time>
      </trkpt>
      <trkpt lat="45.83903" lon="4.7899">
        <ele>542</ele>
        <time>2014-02-16T09:45:09Z</time>
      </trkpt>
      <trkpt lat="45.83901" lon="4.78987">
        <ele>542</ele>
        <time>2014-02-16T09:45:12Z</time>
      </trkpt>
      <trkpt lat="45.83898" lon="4.78986">
        <ele>543</ele>
        <time>2014-02-16T09:45:15Z</time>
      </trkpt>
      <trkpt lat="45.839" lon="4.78985">
        <ele>543</ele>
        <time>2014-02-16T09:45:22Z</time>
      </trkpt>
      <trkpt lat="45.83899" lon="4.78985">
        <ele>543</ele>
        <time>2014-02-16T09:47:16Z</time>
      </trkpt>
      <trkpt lat="45.83897" lon="4.78984">
        <ele>543</ele>
        <time>2014-02-16T09:47:44Z</time>
      </trkpt>
      <trkpt lat="45.83899" lon="4.78986">
        <ele>542</ele>
        <time>2014-02-16T09:48:27Z</time>
      </trkpt>
      <trkpt lat="45.83897" lon="4.78984">
        <ele>543</ele>
        <time>2014-02-16T09:49:13Z</time>
      </trkpt>
      <trkpt lat="45.83893" lon="4.78982">
        <ele>543</ele>
        <time>2014-02-16T09:49:46Z</time>
      </trkpt>
      <trkpt lat="45.83892" lon="4.78981">
        <ele>543</ele>
        <time>2014-02-16T09:49:47Z</time>
      </trkpt>
      <trkpt lat="45.83889" lon="4.78975">
        <ele>543</ele>
        <time>2014-02-16T09:49:51Z</time>
      </trkpt>
      <trkpt lat="45.83888" lon="4.78974">
        <ele>543</ele>
        <time>2014-02-16T09:49:52Z</time>
      </trkpt>
      <trkpt lat="45.83886" lon="4.78973">
        <ele>543</ele>
        <time>2014-02-16T09:49:56Z</time>
      </trkpt>
      <trkpt lat="45.83886" lon="4.78972">
        <ele>544</ele>
        <time>2014-02-16T09:50:06Z</time>
      </trkpt>
      <trkpt lat="45.83883" lon="4.78969">
        <ele>544</ele>
        <time>2014-02-16T09:50:23Z</time>
      </trkpt>
      <trkpt lat="45.83882" lon="4.7897">
        <ele>544</ele>
        <time>2014-02-16T09:50:24Z</time>
      </trkpt>
      <trkpt lat="45.83879" lon="4.7897">
        <ele>544</ele>
        <time>2014-02-16T09:50:31Z</time>
      </trkpt>
      <trkpt lat="45.83876" lon="4.78969">
        <ele>544</ele>
        <time>2014-02-16T09:50:41Z</time>
      </trkpt>
      <trkpt lat="45.83877" lon="4.78974">
        <ele>543</ele>
        <time>2014-02-16T09:50:51Z</time>
      </trkpt>
      <trkpt lat="45.83877" lon="4.78977">
        <ele>543</ele>
        <time>2014-02-16T09:50:58Z</time>
      </trkpt>
      <trkpt lat="45.8387" lon="4.78975">
        <ele>543</ele>
        <time>2014-02-16T09:52:01Z</time>
      </trkpt>
      <trkpt lat="45.83872" lon="4.7897">
        <ele>543</ele>
        <time>2014-02-16T09:53:21Z</time>
      </trkpt>
      <trkpt lat="45.83871" lon="4.78971">
        <ele>543</ele>
        <time>2014-02-16T09:53:35Z</time>
      </trkpt>
      <trkpt lat="45.83872" lon="4.78973">
        <ele>543</ele>
        <time>2014-02-16T09:53:42Z</time>
      </trkpt>
      <trkpt lat="45.83874" lon="4.78969">
        <ele>544</ele>
        <time>2014-02-16T09:53:53Z</time>
      </trkpt>
      <trkpt lat="45.83872" lon="4.78969">
        <ele>544</ele>
        <time>2014-02-16T09:53:58Z</time>
      </trkpt>
      <trkpt lat="45.83871" lon="4.78965">
        <ele>544</ele>
        <time>2014-02-16T09:54:04Z</time>
      </trkpt>
      <trkpt lat="45.83868" lon="4.78966">
        <ele>544</ele>
        <time>2014-02-16T09:54:09Z</time>
      </trkpt>
      <trkpt lat="45.83866" lon="4.78964">
        <ele>544</ele>
        <time>2014-02-16T09:54:13Z</time>
      </trkpt>
      <trkpt lat="45.83863" lon="4.78965">
        <ele>544</ele>
        <time>2014-02-16T09:54:18Z</time>
      </trkpt>
      <trkpt lat="45.8386" lon="4.78967">
        <ele>543</ele>
        <time>2014-02-16T09:54:24Z</time>
      </trkpt>
      <trkpt lat="45.83862" lon="4.78964">
        <ele>544</ele>
        <time>2014-02-16T09:54:47Z</time>
      </trkpt>
      <trkpt lat="45.83862" lon="4.78962">
        <ele>544</ele>
        <time>2014-02-16T09:54:49Z</time>
      </trkpt>
      <trkpt lat="45.83862" lon="4.78958">
        <ele>544</ele>
        <time>2014-02-16T09:54:53Z</time>
      </trkpt>
      <trkpt lat="45.83861" lon="4.78957">
        <ele>544</ele>
        <time>2014-02-16T09:54:55Z</time>
      </trkpt>
      <trkpt lat="45.83855" lon="4.78952">
        <ele>544</ele>
        <time>2014-02-16T09:54:59Z</time>
      </trkpt>
      <trkpt lat="45.83851" lon="4.78951">
        <ele>544</ele>
        <time>2014-02-16T09:55:02Z</time>
      </trkpt>
      <trkpt lat="45.83849" lon="4.7895">
        <ele>544</ele>
        <time>2014-02-16T09:55:04Z</time>
      </trkpt>
      <trkpt lat="45.83848" lon="4.78949">
        <ele>544</ele>
        <time>2014-02-16T09:55:05Z</time>
      </trkpt>
      <trkpt lat="45.83844" lon="4.78947">
        <ele>545</ele>
        <time>2014-02-16T09:55:10Z</time>
      </trkpt>
      <trkpt lat="45.83843" lon="4.78952">
        <ele>544</ele>
        <time>2014-02-16T09:55:15Z</time>
      </trkpt>
      <trkpt lat="45.83842" lon="4.78955">
        <ele>544</ele>
        <time>2014-02-16T09:55:21Z</time>
      </trkpt>
      <trkpt lat="45.83841" lon="4.78957">
        <ele>544</ele>
        <time>2014-02-16T09:55:26Z</time>
      </trkpt>
      <trkpt lat="45.8384" lon="4.7896">
        <ele>543</ele>
        <time>2014-02-16T09:55:31Z</time>
      </trkpt>
      <trkpt lat="45.8384" lon="4.78963">
        <ele>543</ele>
        <time>2014-02-16T09:55:37Z</time>
      </trkpt>
      <trkpt lat="45.8384" lon="4.78963">
        <ele>543</ele>
        <time>2014-02-16T09:55:38Z</time>
      </trkpt>
      <trkpt lat="45.83836" lon="4.78962">
        <ele>543</ele>
        <time>2014-02-16T09:55:42Z</time>
      </trkpt>
      <trkpt lat="45.83834" lon="4.78965">
        <ele>543</ele>
        <time>2014-02-16T09:55:48Z</time>
      </trkpt>
      <trkpt lat="45.83832" lon="4.78967">
        <ele>541</ele>
        <time>2014-02-16T09:55:50Z</time>
      </trkpt>
      <trkpt lat="45.83829" lon="4.78972">
        <ele>540</ele>
        <time>2014-02-16T09:55:58Z</time>
      </trkpt>
      <trkpt lat="45.83825" lon="4.78975">
        <ele>540</ele>
        <time>2014-02-16T09:56:03Z</time>
      </trkpt>
      <trkpt lat="45.83824" lon="4.78975">
        <ele>540</ele>
        <time>2014-02-16T09:56:04Z</time>
      </trkpt>
      <trkpt lat="45.83823" lon="4.78975">
        <ele>540</ele>
        <time>2014-02-16T09:56:05Z</time>
      </trkpt>
      <trkpt lat="45.83822" lon="4.78976">
        <ele>540</ele>
        <time>2014-02-16T09:56:06Z</time>
      </trkpt>
      <trkpt lat="45.83821" lon="4.7898">
        <ele>540</ele>
        <time>2014-02-16T09:56:09Z</time>
      </trkpt>
      <trkpt lat="45.83821" lon="4.78982">
        <ele>540</ele>
        <time>2014-02-16T09:56:11Z</time>
      </trkpt>
      <trkpt lat="45.83824" lon="4.78982">
        <ele>540</ele>
        <time>2014-02-16T09:56:14Z</time>
      </trkpt>
      <trkpt lat="45.83827" lon="4.78982">
        <ele>540</ele>
        <time>2014-02-16T09:56:18Z</time>
      </trkpt>
      <trkpt lat="45.83828" lon="4.78985">
        <ele>539</ele>
        <time>2014-02-16T09:56:23Z</time>
      </trkpt>
      <trkpt lat="45.83829" lon="4.7899">
        <ele>539</ele>
        <time>2014-02-16T09:56:26Z</time>
      </trkpt>
      <trkpt lat="45.8383" lon="4.78997">
        <ele>538</ele>
        <time>2014-02-16T09:56:30Z</time>
      </trkpt>
      <trkpt lat="45.83831" lon="4.79003">
        <ele>537</ele>
        <time>2014-02-16T09:56:34Z</time>
      </trkpt>
      <trkpt lat="45.83831" lon="4.79004">
        <ele>537</ele>
        <time>2014-02-16T09:56:35Z</time>
      </trkpt>
      <trkpt lat="45.8383" lon="4.79015">
        <ele>534</ele>
        <time>2014-02-16T09:56:53Z</time>
      </trkpt>
      <trkpt lat="45.8383" lon="4.79017">
        <ele>534</ele>
        <time>2014-02-16T09:56:54Z</time>
      </trkpt>
      <trkpt lat="45.83829" lon="4.79019">
        <ele>534</ele>
        <time>2014-02-16T09:56:55Z</time>
      </trkpt>
      <trkpt lat="45.83825" lon="4.79024">
        <ele>533</ele>
        <time>2014-02-16T09:56:58Z</time>
      </trkpt>
      <trkpt lat="45.83824" lon="4.79024">
        <ele>533</ele>
        <time>2014-02-16T09:57:03Z</time>
      </trkpt>
      <trkpt lat="45.83828" lon="4.7902">
        <ele>534</ele>
        <time>2014-02-16T09:57:06Z</time>
      </trkpt>
      <trkpt lat="45.8383" lon="4.79015">
        <ele>534</ele>
        <time>2014-02-16T09:57:08Z</time>
      </trkpt>
      <trkpt lat="45.83832" lon="4.79009">
        <ele>536</ele>
        <time>2014-02-16T09:57:12Z</time>
      </trkpt>
      <trkpt lat="45.83832" lon="4.79006">
        <ele>536</ele>
        <time>2014-02-16T09:57:14Z</time>
      </trkpt>
      <trkpt lat="45.8383" lon="4.78995">
        <ele>539</ele>
        <time>2014-02-16T09:57:19Z</time>
      </trkpt>
      <trkpt lat="45.83829" lon="4.78989">
        <ele>539</ele>
        <time>2014-02-16T09:57:21Z</time>
      </trkpt>
      <trkpt lat="45.83829" lon="4.78987">
        <ele>539</ele>
        <time>2014-02-16T09:57:24Z</time>
      </trkpt>
      <trkpt lat="45.83828" lon="4.78986">
        <ele>539</ele>
        <time>2014-02-16T09:57:25Z</time>
      </trkpt>
      <trkpt lat="45.8383" lon="4.78983">
        <ele>540</ele>
        <time>2014-02-16T09:57:29Z</time>
      </trkpt>
      <trkpt lat="45.8383" lon="4.7898">
        <ele>540</ele>
        <time>2014-02-16T09:57:34Z</time>
      </trkpt>
      <trkpt lat="45.83831" lon="4.78982">
        <ele>540</ele>
        <time>2014-02-16T09:57:39Z</time>
      </trkpt>
      <trkpt lat="45.83833" lon="4.78981">
        <ele>540</ele>
        <time>2014-02-16T09:57:44Z</time>
      </trkpt>
      <trkpt lat="45.83832" lon="4.78982">
        <ele>540</ele>
        <time>2014-02-16T09:57:48Z</time>
      </trkpt>
      <trkpt lat="45.83831" lon="4.78981">
        <ele>540</ele>
        <time>2014-02-16T09:57:50Z</time>
      </trkpt>
      <trkpt lat="45.8383" lon="4.78981">
        <ele>540</ele>
        <time>2014-02-16T09:57:51Z</time>
      </trkpt>
      <trkpt lat="45.83828" lon="4.78982">
        <ele>540</ele>
        <time>2014-02-16T09:57:55Z</time>
      </trkpt>
      <trkpt lat="45.83827" lon="4.78982">
        <ele>540</ele>
        <time>2014-02-16T09:57:56Z</time>
      </trkpt>
      <trkpt lat="45.83823" lon="4.78981">
        <ele>540</ele>
        <time>2014-02-16T09:57:59Z</time>
      </trkpt>
      <trkpt lat="45.83822" lon="4.7898">
        <ele>540</ele>
        <time>2014-02-16T09:58:00Z</time>
      </trkpt>
      <trkpt lat="45.83817" lon="4.78973">
        <ele>540</ele>
        <time>2014-02-16T09:58:08Z</time>
      </trkpt>
      <trkpt lat="45.83814" lon="4.78969">
        <ele>541</ele>
        <time>2014-02-16T09:58:15Z</time>
      </trkpt>
      <trkpt lat="45.83813" lon="4.78971">
        <ele>541</ele>
        <time>2014-02-16T09:58:17Z</time>
      </trkpt>
      <trkpt lat="45.83811" lon="4.78978">
        <ele>540</ele>
        <time>2014-02-16T09:58:21Z</time>
      </trkpt>
      <trkpt lat="45.83811" lon="4.78984">
        <ele>540</ele>
        <time>2014-02-16T09:58:23Z</time>
      </trkpt>
      <trkpt lat="45.83814" lon="4.7899">
        <ele>540</ele>
        <time>2014-02-16T09:58:25Z</time>
      </trkpt>
      <trkpt lat="45.83817" lon="4.78992">
        <ele>539</ele>
        <time>2014-02-16T09:58:26Z</time>
      </trkpt>
      <trkpt lat="45.83819" lon="4.78995">
        <ele>539</ele>
        <time>2014-02-16T09:58:27Z</time>
      </trkpt>
      <trkpt lat="45.83823" lon="4.79002">
        <ele>535</ele>
        <time>2014-02-16T09:58:30Z</time>
      </trkpt>
      <trkpt lat="45.83823" lon="4.79006">
        <ele>535</ele>
        <time>2014-02-16T09:58:33Z</time>
      </trkpt>
      <trkpt lat="45.83821" lon="4.79006">
        <ele>535</ele>
        <time>2014-02-16T09:58:35Z</time>
      </trkpt>
      <trkpt lat="45.83818" lon="4.79005">
        <ele>534</ele>
        <time>2014-02-16T09:58:37Z</time>
      </trkpt>
      <trkpt lat="45.83817" lon="4.79005">
        <ele>534</ele>
        <time>2014-02-16T09:58:38Z</time>
      </trkpt>
      <trkpt lat="45.83813" lon="4.79007">
        <ele>534</ele>
        <time>2014-02-16T09:58:41Z</time>
      </trkpt>
      <trkpt lat="45.83805" lon="4.79011">
        <ele>533</ele>
        <time>2014-02-16T09:58:47Z</time>
      </trkpt>
      <trkpt lat="45.838" lon="4.79012">
        <ele>532</ele>
        <time>2014-02-16T09:58:52Z</time>
      </trkpt>
      <trkpt lat="45.8379" lon="4.79016">
        <ele>532</ele>
        <time>2014-02-16T09:59:00Z</time>
      </trkpt>
      <trkpt lat="45.83782" lon="4.79019">
        <ele>531</ele>
        <time>2014-02-16T09:59:06Z</time>
      </trkpt>
      <trkpt lat="45.83781" lon="4.7902">
        <ele>531</ele>
        <time>2014-02-16T09:59:07Z</time>
      </trkpt>
      <trkpt lat="45.83773" lon="4.79032">
        <ele>531</ele>
        <time>2014-02-16T09:59:13Z</time>
      </trkpt>
      <trkpt lat="45.8377" lon="4.79038">
        <ele>530</ele>
        <time>2014-02-16T09:59:15Z</time>
      </trkpt>
      <trkpt lat="45.83766" lon="4.79048">
        <ele>529</ele>
        <time>2014-02-16T09:59:18Z</time>
      </trkpt>
      <trkpt lat="45.83763" lon="4.7905">
        <ele>529</ele>
        <time>2014-02-16T09:59:19Z</time>
      </trkpt>
      <trkpt lat="45.83757" lon="4.79051">
        <ele>529</ele>
        <time>2014-02-16T09:59:22Z</time>
      </trkpt>
      <trkpt lat="45.83755" lon="4.7905">
        <ele>529</ele>
        <time>2014-02-16T09:59:23Z</time>
      </trkpt>
      <trkpt lat="45.83748" lon="4.79046">
        <ele>527</ele>
        <time>2014-02-16T09:59:27Z</time>
      </trkpt>
      <trkpt lat="45.83743" lon="4.79038">
        <ele>528</ele>
        <time>2014-02-16T09:59:34Z</time>
      </trkpt>
      <trkpt lat="45.83741" lon="4.79034">
        <ele>528</ele>
        <time>2014-02-16T09:59:37Z</time>
      </trkpt>
      <trkpt lat="45.83739" lon="4.79028">
        <ele>529</ele>
        <time>2014-02-16T09:59:41Z</time>
      </trkpt>
      <trkpt lat="45.83739" lon="4.79027">
        <ele>529</ele>
        <time>2014-02-16T09:59:42Z</time>
      </trkpt>
      <trkpt lat="45.83732" lon="4.79021">
        <ele>529</ele>
        <time>2014-02-16T09:59:49Z</time>
      </trkpt>
      <trkpt lat="45.83729" lon="4.79019">
        <ele>529</ele>
        <time>2014-02-16T09:59:51Z</time>
      </trkpt>
      <trkpt lat="45.83723" lon="4.79017">
        <ele>529</ele>
        <time>2014-02-16T09:59:53Z</time>
      </trkpt>
      <trkpt lat="45.83711" lon="4.79012">
        <ele>528</ele>
        <time>2014-02-16T09:59:58Z</time>
      </trkpt>
      <trkpt lat="45.83708" lon="4.79009">
        <ele>528</ele>
        <time>2014-02-16T10:00:00Z</time>
      </trkpt>
      <trkpt lat="45.83705" lon="4.79008">
        <ele>528</ele>
        <time>2014-02-16T10:00:03Z</time>
      </trkpt>
      <trkpt lat="45.83703" lon="4.79009">
        <ele>528</ele>
        <time>2014-02-16T10:00:05Z</time>
      </trkpt>
      <trkpt lat="45.83701" lon="4.79007">
        <ele>528</ele>
        <time>2014-02-16T10:00:07Z</time>
      </trkpt>
      <trkpt lat="45.83702" lon="4.79005">
        <ele>528</ele>
        <time>2014-02-16T10:00:10Z</time>
      </trkpt>
      <trkpt lat="45.83705" lon="4.78997">
        <ele>535</ele>
        <time>2014-02-16T10:00:16Z</time>
      </trkpt>
      <trkpt lat="45.83707" lon="4.78993">
        <ele>536</ele>
        <time>2014-02-16T10:00:21Z</time>
      </trkpt>
      <trkpt lat="45.83708" lon="4.78993">
        <ele>536</ele>
        <time>2014-02-16T10:00:22Z</time>
      </trkpt>
      <trkpt lat="45.83709" lon="4.78997">
        <ele>535</ele>
        <time>2014-02-16T10:00:30Z</time>
      </trkpt>
      <trkpt lat="45.8371" lon="4.78999">
        <ele>535</ele>
        <time>2014-02-16T10:00:35Z</time>
      </trkpt>
      <trkpt lat="45.83708" lon="4.79001">
        <ele>529</ele>
        <time>2014-02-16T10:00:40Z</time>
      </trkpt>
      <trkpt lat="45.83704" lon="4.79008">
        <ele>528</ele>
        <time>2014-02-16T10:00:46Z</time>
      </trkpt>
      <trkpt lat="45.83704" lon="4.7901">
        <ele>528</ele>
        <time>2014-02-16T10:00:48Z</time>
      </trkpt>
      <trkpt lat="45.83705" lon="4.79021">
        <ele>528</ele>
        <time>2014-02-16T10:00:55Z</time>
      </trkpt>
      <trkpt lat="45.83704" lon="4.79026">
        <ele>528</ele>
        <time>2014-02-16T10:01:00Z</time>
      </trkpt>
      <trkpt lat="45.83701" lon="4.79025">
        <ele>528</ele>
        <time>2014-02-16T10:01:08Z</time>
      </trkpt>
      <trkpt lat="45.837" lon="4.79024">
        <ele>528</ele>
        <time>2014-02-16T10:01:10Z</time>
      </trkpt>
      <trkpt lat="45.83698" lon="4.79023">
        <ele>528</ele>
        <time>2014-02-16T10:01:13Z</time>
      </trkpt>
      <trkpt lat="45.83694" lon="4.79019">
        <ele>528</ele>
        <time>2014-02-16T10:01:19Z</time>
      </trkpt>
      <trkpt lat="45.83691" lon="4.79021">
        <ele>528</ele>
        <time>2014-02-16T10:01:27Z</time>
      </trkpt>
      <trkpt lat="45.83688" lon="4.79019">
        <ele>528</ele>
        <time>2014-02-16T10:01:37Z</time>
      </trkpt>
      <trkpt lat="45.83686" lon="4.79022">
        <ele>528</ele>
        <time>2014-02-16T10:01:45Z</time>
      </trkpt>
      <trkpt lat="45.83685" lon="4.79025">
        <ele>527</ele>
        <time>2014-02-16T10:01:51Z</time>
      </trkpt>
      <trkpt lat="45.83685" lon="4.79027">
        <ele>527</ele>
        <time>2014-02-16T10:01:53Z</time>
      </trkpt>
      <trkpt lat="45.83682" lon="4.79031">
        <ele>527</ele>
        <time>2014-02-16T10:01:58Z</time>
      </trkpt>
      <trkpt lat="45.83681" lon="4.7903">
        <ele>527</ele>
        <time>2014-02-16T10:02:03Z</time>
      </trkpt>
      <trkpt lat="45.8368" lon="4.7903">
        <ele>527</ele>
        <time>2014-02-16T10:02:04Z</time>
      </trkpt>
      <trkpt lat="45.8368" lon="4.79029">
        <ele>527</ele>
        <time>2014-02-16T10:02:13Z</time>
      </trkpt>
      <trkpt lat="45.8368" lon="4.79025">
        <ele>527</ele>
        <time>2014-02-16T10:02:16Z</time>
      </trkpt>
      <trkpt lat="45.8368" lon="4.79021">
        <ele>528</ele>
        <time>2014-02-16T10:02:21Z</time>
      </trkpt>
      <trkpt lat="45.83682" lon="4.79018">
        <ele>528</ele>
        <time>2014-02-16T10:02:24Z</time>
      </trkpt>
      <trkpt lat="45.83681" lon="4.79016">
        <ele>528</ele>
        <time>2014-02-16T10:02:26Z</time>
      </trkpt>
      <trkpt lat="45.8368" lon="4.79016">
        <ele>528</ele>
        <time>2014-02-16T10:02:28Z</time>
      </trkpt>
      <trkpt lat="45.83678" lon="4.79014">
        <ele>528</ele>
        <time>2014-02-16T10:02:31Z</time>
      </trkpt>
      <trkpt lat="45.83676" lon="4.79012">
        <ele>528</ele>
        <time>2014-02-16T10:02:36Z</time>
      </trkpt>
      <trkpt lat="45.83675" lon="4.79017">
        <ele>528</ele>
        <time>2014-02-16T10:02:46Z</time>
      </trkpt>
      <trkpt lat="45.83672" lon="4.79023">
        <ele>528</ele>
        <time>2014-02-16T10:02:54Z</time>
      </trkpt>
      <trkpt lat="45.83668" lon="4.79026">
        <ele>527</ele>
        <time>2014-02-16T10:03:01Z</time>
      </trkpt>
      <trkpt lat="45.83669" lon="4.79026">
        <ele>527</ele>
        <time>2014-02-16T10:03:02Z</time>
      </trkpt>
      <trkpt lat="45.8367" lon="4.79032">
        <ele>527</ele>
        <time>2014-02-16T10:03:08Z</time>
      </trkpt>
      <trkpt lat="45.83671" lon="4.79036">
        <ele>527</ele>
        <time>2014-02-16T10:03:13Z</time>
      </trkpt>
      <trkpt lat="45.83671" lon="4.7904">
        <ele>526</ele>
        <time>2014-02-16T10:03:18Z</time>
      </trkpt>
      <trkpt lat="45.83672" lon="4.79046">
        <ele>526</ele>
        <time>2014-02-16T10:03:23Z</time>
      </trkpt>
      <trkpt lat="45.83672" lon="4.79049">
        <ele>525</ele>
        <time>2014-02-16T10:03:25Z</time>
      </trkpt>
      <trkpt lat="45.83671" lon="4.79052">
        <ele>525</ele>
        <time>2014-02-16T10:03:28Z</time>
      </trkpt>
      <trkpt lat="45.83672" lon="4.79054">
        <ele>525</ele>
        <time>2014-02-16T10:03:33Z</time>
      </trkpt>
      <trkpt lat="45.83673" lon="4.79053">
        <ele>525</ele>
        <time>2014-02-16T10:03:38Z</time>
      </trkpt>
      <trkpt lat="45.83674" lon="4.79053">
        <ele>525</ele>
        <time>2014-02-16T10:03:46Z</time>
      </trkpt>
      <trkpt lat="45.83676" lon="4.79055">
        <ele>525</ele>
        <time>2014-02-16T10:03:53Z</time>
      </trkpt>
      <trkpt lat="45.83674" lon="4.79054">
        <ele>525</ele>
        <time>2014-02-16T10:03:58Z</time>
      </trkpt>
      <trkpt lat="45.83674" lon="4.79048">
        <ele>526</ele>
        <time>2014-02-16T10:04:03Z</time>
      </trkpt>
      <trkpt lat="45.83675" lon="4.79046">
        <ele>526</ele>
        <time>2014-02-16T10:04:05Z</time>
      </trkpt>
      <trkpt lat="45.83676" lon="4.79044">
        <ele>526</ele>
        <time>2014-02-16T10:04:09Z</time>
      </trkpt>
      <trkpt lat="45.83678" lon="4.79041">
        <ele>526</ele>
        <time>2014-02-16T10:04:14Z</time>
      </trkpt>
      <trkpt lat="45.83679" lon="4.79037">
        <ele>527</ele>
        <time>2014-02-16T10:04:22Z</time>
      </trkpt>
      <trkpt lat="45.8368" lon="4.79032">
        <ele>527</ele>
        <time>2014-02-16T10:04:27Z</time>
      </trkpt>
      <trkpt lat="45.8368" lon="4.79023">
        <ele>528</ele>
        <time>2014-02-16T10:04:32Z</time>
      </trkpt>
      <trkpt lat="45.83678" lon="4.79021">
        <ele>528</ele>
        <time>2014-02-16T10:04:36Z</time>
      </trkpt>
      <trkpt lat="45.83678" lon="4.7902">
        <ele>528</ele>
        <time>2014-02-16T10:04:37Z</time>
      </trkpt>
      <trkpt lat="45.83674" lon="4.79021">
        <ele>528</ele>
        <time>2014-02-16T10:04:44Z</time>
      </trkpt>
      <trkpt lat="45.83671" lon="4.79021">
        <ele>528</ele>
        <time>2014-02-16T10:04:49Z</time>
      </trkpt>
      <trkpt lat="45.83666" lon="4.79026">
        <ele>526</ele>
        <time>2014-02-16T10:04:56Z</time>
      </trkpt>
      <trkpt lat="45.83664" lon="4.79026">
        <ele>526</ele>
        <time>2014-02-16T10:05:00Z</time>
      </trkpt>
      <trkpt lat="45.83662" lon="4.79027">
        <ele>526</ele>
        <time>2014-02-16T10:05:03Z</time>
      </trkpt>
      <trkpt lat="45.8366" lon="4.79028">
        <ele>525</ele>
        <time>2014-02-16T10:05:05Z</time>
      </trkpt>
      <trkpt lat="45.83658" lon="4.79023">
        <ele>526</ele>
        <time>2014-02-16T10:05:09Z</time>
      </trkpt>
      <trkpt lat="45.83658" lon="4.7902">
        <ele>526</ele>
        <time>2014-02-16T10:05:11Z</time>
      </trkpt>
      <trkpt lat="45.83657" lon="4.79018">
        <ele>526</ele>
        <time>2014-02-16T10:05:14Z</time>
      </trkpt>
      <trkpt lat="45.83654" lon="4.79018">
        <ele>526</ele>
        <time>2014-02-16T10:05:23Z</time>
      </trkpt>
      <trkpt lat="45.83652" lon="4.79022">
        <ele>526</ele>
        <time>2014-02-16T10:05:31Z</time>
      </trkpt>
      <trkpt lat="45.83654" lon="4.79019">
        <ele>526</ele>
        <time>2014-02-16T10:05:43Z</time>
      </trkpt>
      <trkpt lat="45.83655" lon="4.79017">
        <ele>526</ele>
        <time>2014-02-16T10:05:47Z</time>
      </trkpt>
      <trkpt lat="45.83658" lon="4.79017">
        <ele>526</ele>
        <time>2014-02-16T10:05:52Z</time>
      </trkpt>
      <trkpt lat="45.83661" lon="4.79011">
        <ele>527</ele>
        <time>2014-02-16T10:05:58Z</time>
      </trkpt>
      <trkpt lat="45.8366" lon="4.7901">
        <ele>528</ele>
        <time>2014-02-16T10:06:00Z</time>
      </trkpt>
      <trkpt lat="45.83657" lon="4.79005">
        <ele>528</ele>
        <time>2014-02-16T10:06:04Z</time>
      </trkpt>
      <trkpt lat="45.83657" lon="4.79002">
        <ele>528</ele>
        <time>2014-02-16T10:06:07Z</time>
      </trkpt>
      <trkpt lat="45.83656" lon="4.79001">
        <ele>528</ele>
        <time>2014-02-16T10:06:08Z</time>
      </trkpt>
      <trkpt lat="45.83655" lon="4.78999">
        <ele>531</ele>
        <time>2014-02-16T10:06:09Z</time>
      </trkpt>
      <trkpt lat="45.83658" lon="4.78993">
        <ele>532</ele>
        <time>2014-02-16T10:06:13Z</time>
      </trkpt>
      <trkpt lat="45.83658" lon="4.78992">
        <ele>532</ele>
        <time>2014-02-16T10:06:14Z</time>
      </trkpt>
      <trkpt lat="45.83658" lon="4.78985">
        <ele>532</ele>
        <time>2014-02-16T10:06:22Z</time>
      </trkpt>
      <trkpt lat="45.83658" lon="4.78978">
        <ele>533</ele>
        <time>2014-02-16T10:06:28Z</time>
      </trkpt>
      <trkpt lat="45.83658" lon="4.7897">
        <ele>534</ele>
        <time>2014-02-16T10:06:37Z</time>
      </trkpt>
      <trkpt lat="45.83658" lon="4.78966">
        <ele>534</ele>
        <time>2014-02-16T10:06:42Z</time>
      </trkpt>
      <trkpt lat="45.83656" lon="4.78964">
        <ele>534</ele>
        <time>2014-02-16T10:06:49Z</time>
      </trkpt>
      <trkpt lat="45.83653" lon="4.78961">
        <ele>534</ele>
        <time>2014-02-16T10:06:54Z</time>
      </trkpt>
      <trkpt lat="45.83654" lon="4.78957">
        <ele>535</ele>
        <time>2014-02-16T10:07:00Z</time>
      </trkpt>
      <trkpt lat="45.83654" lon="4.78954">
        <ele>535</ele>
        <time>2014-02-16T10:07:05Z</time>
      </trkpt>
      <trkpt lat="45.83652" lon="4.78952">
        <ele>535</ele>
        <time>2014-02-16T10:07:10Z</time>
      </trkpt>
      <trkpt lat="45.83652" lon="4.78952">
        <ele>535</ele>
        <time>2014-02-16T10:07:11Z</time>
      </trkpt>
      <trkpt lat="45.83648" lon="4.78947">
        <ele>536</ele>
        <time>2014-02-16T10:07:40Z</time>
      </trkpt>
      <trkpt lat="45.83647" lon="4.78948">
        <ele>535</ele>
        <time>2014-02-16T10:07:47Z</time>
      </trkpt>
      <trkpt lat="45.83646" lon="4.78953">
        <ele>535</ele>
        <time>2014-02-16T10:07:57Z</time>
      </trkpt>
      <trkpt lat="45.83646" lon="4.78949">
        <ele>535</ele>
        <time>2014-02-16T10:08:14Z</time>
      </trkpt>
      <trkpt lat="45.83648" lon="4.78945">
        <ele>536</ele>
        <time>2014-02-16T10:08:21Z</time>
      </trkpt>
      <trkpt lat="45.83652" lon="4.78942">
        <ele>536</ele>
        <time>2014-02-16T10:08:26Z</time>
      </trkpt>
      <trkpt lat="45.83653" lon="4.78939">
        <ele>536</ele>
        <time>2014-02-16T10:08:33Z</time>
      </trkpt>
      <trkpt lat="45.83653" lon="4.78935">
        <ele>537</ele>
        <time>2014-02-16T10:08:54Z</time>
      </trkpt>
      <trkpt lat="45.83651" lon="4.78935">
        <ele>537</ele>
        <time>2014-02-16T10:09:02Z</time>
      </trkpt>
      <trkpt lat="45.8365" lon="4.78937">
        <ele>537</ele>
        <time>2014-02-16T10:09:05Z</time>
      </trkpt>
      <trkpt lat="45.83647" lon="4.78938">
        <ele>536</ele>
        <time>2014-02-16T10:09:16Z</time>
      </trkpt>
      <trkpt lat="45.83645" lon="4.78937">
        <ele>536</ele>
        <time>2014-02-16T10:09:36Z</time>
      </trkpt>
      <trkpt lat="45.83648" lon="4.78932">
        <ele>537</ele>
        <time>2014-02-16T10:09:47Z</time>
      </trkpt>
      <trkpt lat="45.8365" lon="4.78929">
        <ele>537</ele>
        <time>2014-02-16T10:09:51Z</time>
      </trkpt>
      <trkpt lat="45.83648" lon="4.78922">
        <ele>538</ele>
        <time>2014-02-16T10:09:56Z</time>
      </trkpt>
      <trkpt lat="45.83647" lon="4.78914">
        <ele>543</ele>
        <time>2014-02-16T10:10:01Z</time>
      </trkpt>
      <trkpt lat="45.83648" lon="4.78912">
        <ele>543</ele>
        <time>2014-02-16T10:10:02Z</time>
      </trkpt>
      <trkpt lat="45.83649" lon="4.78909">
        <ele>543</ele>
        <time>2014-02-16T10:10:05Z</time>
      </trkpt>
      <trkpt lat="45.83649" lon="4.78908">
        <ele>543</ele>
        <time>2014-02-16T10:10:09Z</time>
      </trkpt>
      <trkpt lat="45.83651" lon="4.78902">
        <ele>544</ele>
        <time>2014-02-16T10:10:15Z</time>
      </trkpt>
      <trkpt lat="45.83656" lon="4.78896">
        <ele>544</ele>
        <time>2014-02-16T10:10:22Z</time>
      </trkpt>
      <trkpt lat="45.83657" lon="4.78894">
        <ele>544</ele>
        <time>2014-02-16T10:10:24Z</time>
      </trkpt>
      <trkpt lat="45.83661" lon="4.78891">
        <ele>545</ele>
        <time>2014-02-16T10:10:28Z</time>
      </trkpt>
      <trkpt lat="45.83663" lon="4.78889">
        <ele>545</ele>
        <time>2014-02-16T10:10:30Z</time>
      </trkpt>
      <trkpt lat="45.83665" lon="4.78887">
        <ele>545</ele>
        <time>2014-02-16T10:10:33Z</time>
      </trkpt>
      <trkpt lat="45.8367" lon="4.78881">
        <ele>548</ele>
        <time>2014-02-16T10:10:39Z</time>
      </trkpt>
      <trkpt lat="45.83675" lon="4.78874">
        <ele>548</ele>
        <time>2014-02-16T10:10:45Z</time>
      </trkpt>
      <trkpt lat="45.83677" lon="4.78872">
        <ele>549</ele>
        <time>2014-02-16T10:10:47Z</time>
      </trkpt>
      <trkpt lat="45.8368" lon="4.78863">
        <ele>550</ele>
        <time>2014-02-16T10:10:53Z</time>
      </trkpt>
      <trkpt lat="45.8368" lon="4.7886">
        <ele>550</ele>
        <time>2014-02-16T10:10:55Z</time>
      </trkpt>
      <trkpt lat="45.83679" lon="4.78856">
        <ele>550</ele>
        <time>2014-02-16T10:10:58Z</time>
      </trkpt>
      <trkpt lat="45.83678" lon="4.78854">
        <ele>550</ele>
        <time>2014-02-16T10:11:02Z</time>
      </trkpt>
      <trkpt lat="45.83677" lon="4.78856">
        <ele>550</ele>
        <time>2014-02-16T10:11:08Z</time>
      </trkpt>
      <trkpt lat="45.83675" lon="4.78856">
        <ele>550</ele>
        <time>2014-02-16T10:11:10Z</time>
      </trkpt>
      <trkpt lat="45.83674" lon="4.78855">
        <ele>550</ele>
        <time>2014-02-16T10:11:11Z</time>
      </trkpt>
      <trkpt lat="45.83673" lon="4.78852">
        <ele>551</ele>
        <time>2014-02-16T10:11:14Z</time>
      </trkpt>
      <trkpt lat="45.83673" lon="4.7885">
        <ele>551</ele>
        <time>2014-02-16T10:11:19Z</time>
      </trkpt>
      <trkpt lat="45.83674" lon="4.78848">
        <ele>551</ele>
        <time>2014-02-16T10:11:24Z</time>
      </trkpt>
      <trkpt lat="45.83679" lon="4.78846">
        <ele>551</ele>
        <time>2014-02-16T10:11:28Z</time>
      </trkpt>
      <trkpt lat="45.83681" lon="4.78844">
        <ele>551</ele>
        <time>2014-02-16T10:11:30Z</time>
      </trkpt>
      <trkpt lat="45.83689" lon="4.78839">
        <ele>551</ele>
        <time>2014-02-16T10:11:37Z</time>
      </trkpt>
      <trkpt lat="45.83696" lon="4.78836">
        <ele>551</ele>
        <time>2014-02-16T10:11:43Z</time>
      </trkpt>
      <trkpt lat="45.83698" lon="4.78835">
        <ele>551</ele>
        <time>2014-02-16T10:11:45Z</time>
      </trkpt>
      <trkpt lat="45.83702" lon="4.78833">
        <ele>559</ele>
        <time>2014-02-16T10:11:49Z</time>
      </trkpt>
      <trkpt lat="45.83712" lon="4.78831">
        <ele>559</ele>
        <time>2014-02-16T10:11:57Z</time>
      </trkpt>
      <trkpt lat="45.83714" lon="4.7883">
        <ele>559</ele>
        <time>2014-02-16T10:11:59Z</time>
      </trkpt>
      <trkpt lat="45.8372" lon="4.78827">
        <ele>559</ele>
        <time>2014-02-16T10:12:05Z</time>
      </trkpt>
      <trkpt lat="45.83729" lon="4.78824">
        <ele>559</ele>
        <time>2014-02-16T10:12:13Z</time>
      </trkpt>
      <trkpt lat="45.83732" lon="4.78823">
        <ele>559</ele>
        <time>2014-02-16T10:12:16Z</time>
      </trkpt>
      <trkpt lat="45.83738" lon="4.78822">
        <ele>559</ele>
        <time>2014-02-16T10:12:22Z</time>
      </trkpt>
      <trkpt lat="45.83747" lon="4.78819">
        <ele>559</ele>
        <time>2014-02-16T10:12:30Z</time>
      </trkpt>
      <trkpt lat="45.83751" lon="4.78817">
        <ele>561</ele>
        <time>2014-02-16T10:12:34Z</time>
      </trkpt>
      <trkpt lat="45.83754" lon="4.78816">
        <ele>561</ele>
        <time>2014-02-16T10:12:37Z</time>
      </trkpt>
      <trkpt lat="45.83763" lon="4.78812">
        <ele>562</ele>
        <time>2014-02-16T10:12:44Z</time>
      </trkpt>
      <trkpt lat="45.83767" lon="4.7881">
        <ele>563</ele>
        <time>2014-02-16T10:12:48Z</time>
      </trkpt>
      <trkpt lat="45.83768" lon="4.78809">
        <ele>563</ele>
        <time>2014-02-16T10:12:49Z</time>
      </trkpt>
      <trkpt lat="45.8377" lon="4.78805">
        <ele>563</ele>
        <time>2014-02-16T10:12:52Z</time>
      </trkpt>
      <trkpt lat="45.8377" lon="4.78804">
        <ele>563</ele>
        <time>2014-02-16T10:12:53Z</time>
      </trkpt>
      <trkpt lat="45.83772" lon="4.78802">
        <ele>564</ele>
        <time>2014-02-16T10:12:55Z</time>
      </trkpt>
      <trkpt lat="45.83774" lon="4.78795">
        <ele>564</ele>
        <time>2014-02-16T10:13:01Z</time>
      </trkpt>
      <trkpt lat="45.83775" lon="4.78794">
        <ele>565</ele>
        <time>2014-02-16T10:13:03Z</time>
      </trkpt>
      <trkpt lat="45.83775" lon="4.78792">
        <ele>565</ele>
        <time>2014-02-16T10:13:08Z</time>
      </trkpt>
      <trkpt lat="45.83778" lon="4.78787">
        <ele>565</ele>
        <time>2014-02-16T10:13:17Z</time>
      </trkpt>
      <trkpt lat="45.83784" lon="4.78784">
        <ele>565</ele>
        <time>2014-02-16T10:13:24Z</time>
      </trkpt>
      <trkpt lat="45.83787" lon="4.78784">
        <ele>566</ele>
        <time>2014-02-16T10:13:28Z</time>
      </trkpt>
      <trkpt lat="45.8379" lon="4.78784">
        <ele>565</ele>
        <time>2014-02-16T10:13:31Z</time>
      </trkpt>
      <trkpt lat="45.8379" lon="4.78784">
        <ele>565</ele>
        <time>2014-02-16T10:13:32Z</time>
      </trkpt>
      <trkpt lat="45.83795" lon="4.78785">
        <ele>566</ele>
        <time>2014-02-16T10:13:36Z</time>
      </trkpt>
      <trkpt lat="45.83796" lon="4.78785">
        <ele>566</ele>
        <time>2014-02-16T10:13:37Z</time>
      </trkpt>
      <trkpt lat="45.83797" lon="4.78785">
        <ele>566</ele>
        <time>2014-02-16T10:13:38Z</time>
      </trkpt>
      <trkpt lat="45.838" lon="4.78784">
        <ele>566</ele>
        <time>2014-02-16T10:13:41Z</time>
      </trkpt>
      <trkpt lat="45.83801" lon="4.78783">
        <ele>566</ele>
        <time>2014-02-16T10:13:42Z</time>
      </trkpt>
      <trkpt lat="45.83804" lon="4.78784">
        <ele>566</ele>
        <time>2014-02-16T10:13:44Z</time>
      </trkpt>
      <trkpt lat="45.83806" lon="4.78783">
        <ele>566</ele>
        <time>2014-02-16T10:13:46Z</time>
      </trkpt>
      <trkpt lat="45.83807" lon="4.78783">
        <ele>566</ele>
        <time>2014-02-16T10:13:51Z</time>
      </trkpt>
      <trkpt lat="45.83812" lon="4.78782">
        <ele>566</ele>
        <time>2014-02-16T10:14:00Z</time>
      </trkpt>
      <trkpt lat="45.83814" lon="4.78782">
        <ele>566</ele>
        <time>2014-02-16T10:14:02Z</time>
      </trkpt>
      <trkpt lat="45.83815" lon="4.78781">
        <ele>566</ele>
        <time>2014-02-16T10:14:07Z</time>
      </trkpt>
      <trkpt lat="45.8382" lon="4.78781">
        <ele>567</ele>
        <time>2014-02-16T10:14:14Z</time>
      </trkpt>
      <trkpt lat="45.83823" lon="4.78779">
        <ele>567</ele>
        <time>2014-02-16T10:14:18Z</time>
      </trkpt>
      <trkpt lat="45.83823" lon="4.78779">
        <ele>567</ele>
        <time>2014-02-16T10:14:20Z</time>
      </trkpt>
      <trkpt lat="45.83825" lon="4.78777">
        <ele>567</ele>
        <time>2014-02-16T10:14:26Z</time>
      </trkpt>
      <trkpt lat="45.8382" lon="4.78773">
        <ele>567</ele>
        <time>2014-02-16T10:14:37Z</time>
      </trkpt>
      <trkpt lat="45.83819" lon="4.78772">
        <ele>567</ele>
        <time>2014-02-16T10:14:38Z</time>
      </trkpt>
      <trkpt lat="45.83811" lon="4.78766">
        <ele>567</ele>
        <time>2014-02-16T10:14:45Z</time>
      </trkpt>
      <trkpt lat="45.83809" lon="4.78766">
        <ele>567</ele>
        <time>2014-02-16T10:14:47Z</time>
      </trkpt>
      <trkpt lat="45.83805" lon="4.78762">
        <ele>567</ele>
        <time>2014-02-16T10:14:51Z</time>
      </trkpt>
      <trkpt lat="45.83803" lon="4.78761">
        <ele>567</ele>
        <time>2014-02-16T10:14:53Z</time>
      </trkpt>
      <trkpt lat="45.83796" lon="4.78755">
        <ele>567</ele>
        <time>2014-02-16T10:15:00Z</time>
      </trkpt>
      <trkpt lat="45.83786" lon="4.78748">
        <ele>573</ele>
        <time>2014-02-16T10:15:07Z</time>
      </trkpt>
      <trkpt lat="45.83771" lon="4.78743">
        <ele>573</ele>
        <time>2014-02-16T10:15:13Z</time>
      </trkpt>
      <trkpt lat="45.83768" lon="4.78742">
        <ele>573</ele>
        <time>2014-02-16T10:15:14Z</time>
      </trkpt>
      <trkpt lat="45.8376" lon="4.78738">
        <ele>572</ele>
        <time>2014-02-16T10:15:17Z</time>
      </trkpt>
      <trkpt lat="45.83749" lon="4.7873">
        <ele>572</ele>
        <time>2014-02-16T10:15:21Z</time>
      </trkpt>
      <trkpt lat="45.83747" lon="4.78727">
        <ele>572</ele>
        <time>2014-02-16T10:15:22Z</time>
      </trkpt>
      <trkpt lat="45.83743" lon="4.78711">
        <ele>573</ele>
        <time>2014-02-16T10:15:27Z</time>
      </trkpt>
      <trkpt lat="45.83743" lon="4.78706">
        <ele>574</ele>
        <time>2014-02-16T10:15:29Z</time>
      </trkpt>
      <trkpt lat="45.83746" lon="4.78698">
        <ele>574</ele>
        <time>2014-02-16T10:15:32Z</time>
      </trkpt>
      <trkpt lat="45.83754" lon="4.78692">
        <ele>576</ele>
        <time>2014-02-16T10:15:36Z</time>
      </trkpt>
      <trkpt lat="45.83756" lon="4.7869">
        <ele>576</ele>
        <time>2014-02-16T10:15:37Z</time>
      </trkpt>
      <trkpt lat="45.83769" lon="4.78689">
        <ele>576</ele>
        <time>2014-02-16T10:15:42Z</time>
      </trkpt>
      <trkpt lat="45.83777" lon="4.78692">
        <ele>576</ele>
        <time>2014-02-16T10:15:45Z</time>
      </trkpt>
      <trkpt lat="45.83787" lon="4.78694">
        <ele>576</ele>
        <time>2014-02-16T10:15:49Z</time>
      </trkpt>
      <trkpt lat="45.83795" lon="4.78694">
        <ele>576</ele>
        <time>2014-02-16T10:15:52Z</time>
      </trkpt>
      <trkpt lat="45.838" lon="4.78694">
        <ele>576</ele>
        <time>2014-02-16T10:15:54Z</time>
      </trkpt>
      <trkpt lat="45.83815" lon="4.7869">
        <ele>576</ele>
        <time>2014-02-16T10:16:00Z</time>
      </trkpt>
      <trkpt lat="45.83817" lon="4.78689">
        <ele>576</ele>
        <time>2014-02-16T10:16:01Z</time>
      </trkpt>
      <trkpt lat="45.83833" lon="4.78681">
        <ele>577</ele>
        <time>2014-02-16T10:16:08Z</time>
      </trkpt>
      <trkpt lat="45.83847" lon="4.78678">
        <ele>578</ele>
        <time>2014-02-16T10:16:14Z</time>
      </trkpt>
      <trkpt lat="45.83852" lon="4.78677">
        <ele>578</ele>
        <time>2014-02-16T10:16:16Z</time>
      </trkpt>
      <trkpt lat="45.83862" lon="4.78676">
        <ele>578</ele>
        <time>2014-02-16T10:16:20Z</time>
      </trkpt>
      <trkpt lat="45.83872" lon="4.78677">
        <ele>579</ele>
        <time>2014-02-16T10:16:24Z</time>
      </trkpt>
      <trkpt lat="45.83875" lon="4.78677">
        <ele>579</ele>
        <time>2014-02-16T10:16:25Z</time>
      </trkpt>
      <trkpt lat="45.83889" lon="4.78676">
        <ele>579</ele>
        <time>2014-02-16T10:16:31Z</time>
      </trkpt>
      <trkpt lat="45.83891" lon="4.78676">
        <ele>579</ele>
        <time>2014-02-16T10:16:32Z</time>
      </trkpt>
      <trkpt lat="45.83899" lon="4.78676">
        <ele>580</ele>
        <time>2014-02-16T10:16:37Z</time>
      </trkpt>
      <trkpt lat="45.83909" lon="4.78673">
        <ele>581</ele>
        <time>2014-02-16T10:16:45Z</time>
      </trkpt>
      <trkpt lat="45.83911" lon="4.78672">
        <ele>581</ele>
        <time>2014-02-16T10:16:46Z</time>
      </trkpt>
      <trkpt lat="45.83918" lon="4.78665">
        <ele>583</ele>
        <time>2014-02-16T10:16:54Z</time>
      </trkpt>
      <trkpt lat="45.83922" lon="4.78662">
        <ele>583</ele>
        <time>2014-02-16T10:17:00Z</time>
      </trkpt>
      <trkpt lat="45.83922" lon="4.7866">
        <ele>583</ele>
        <time>2014-02-16T10:17:10Z</time>
      </trkpt>
      <trkpt lat="45.83919" lon="4.78659">
        <ele>583</ele>
        <time>2014-02-16T10:17:12Z</time>
      </trkpt>
      <trkpt lat="45.83916" lon="4.78659">
        <ele>583</ele>
        <time>2014-02-16T10:17:14Z</time>
      </trkpt>
      <trkpt lat="45.83914" lon="4.78663">
        <ele>583</ele>
        <time>2014-02-16T10:17:16Z</time>
      </trkpt>
      <trkpt lat="45.83909" lon="4.78669">
        <ele>581</ele>
        <time>2014-02-16T10:17:19Z</time>
      </trkpt>
      <trkpt lat="45.83905" lon="4.78673">
        <ele>581</ele>
        <time>2014-02-16T10:17:21Z</time>
      </trkpt>
      <trkpt lat="45.83899" lon="4.78675">
        <ele>580</ele>
        <time>2014-02-16T10:17:23Z</time>
      </trkpt>
      <trkpt lat="45.83885" lon="4.78674">
        <ele>579</ele>
        <time>2014-02-16T10:17:28Z</time>
      </trkpt>
      <trkpt lat="45.83865" lon="4.78673">
        <ele>578</ele>
        <time>2014-02-16T10:17:35Z</time>
      </trkpt>
      <trkpt lat="45.83863" lon="4.78674">
        <ele>578</ele>
        <time>2014-02-16T10:17:36Z</time>
      </trkpt>
      <trkpt lat="45.83847" lon="4.78677">
        <ele>578</ele>
        <time>2014-02-16T10:17:42Z</time>
      </trkpt>
      <trkpt lat="45.83842" lon="4.78678">
        <ele>578</ele>
        <time>2014-02-16T10:17:44Z</time>
      </trkpt>
      <trkpt lat="45.83829" lon="4.78684">
        <ele>577</ele>
        <time>2014-02-16T10:17:50Z</time>
      </trkpt>
      <trkpt lat="45.83827" lon="4.78685">
        <ele>577</ele>
        <time>2014-02-16T10:17:51Z</time>
      </trkpt>
      <trkpt lat="45.83809" lon="4.78694">
        <ele>576</ele>
        <time>2014-02-16T10:17:58Z</time>
      </trkpt>
      <trkpt lat="45.83791" lon="4.78698">
        <ele>575</ele>
        <time>2014-02-16T10:18:04Z</time>
      </trkpt>
      <trkpt lat="45.83788" lon="4.78698">
        <ele>575</ele>
        <time>2014-02-16T10:18:05Z</time>
      </trkpt>
      <trkpt lat="45.83776" lon="4.78695">
        <ele>576</ele>
        <time>2014-02-16T10:18:09Z</time>
      </trkpt>
      <trkpt lat="45.83768" lon="4.78693">
        <ele>576</ele>
        <time>2014-02-16T10:18:12Z</time>
      </trkpt>
      <trkpt lat="45.83765" lon="4.78693">
        <ele>576</ele>
        <time>2014-02-16T10:18:13Z</time>
      </trkpt>
      <trkpt lat="45.83752" lon="4.78696">
        <ele>576</ele>
        <time>2014-02-16T10:18:18Z</time>
      </trkpt>
      <trkpt lat="45.83749" lon="4.78697">
        <ele>575</ele>
        <time>2014-02-16T10:18:19Z</time>
      </trkpt>
      <trkpt lat="45.8374" lon="4.78693">
        <ele>575</ele>
        <time>2014-02-16T10:18:22Z</time>
      </trkpt>
      <trkpt lat="45.8373" lon="4.78685">
        <ele>575</ele>
        <time>2014-02-16T10:18:26Z</time>
      </trkpt>
      <trkpt lat="45.83727" lon="4.78684">
        <ele>575</ele>
        <time>2014-02-16T10:18:27Z</time>
      </trkpt>
      <trkpt lat="45.83714" lon="4.78685">
        <ele>574</ele>
        <time>2014-02-16T10:18:32Z</time>
      </trkpt>
      <trkpt lat="45.83712" lon="4.78685">
        <ele>574</ele>
        <time>2014-02-16T10:18:33Z</time>
      </trkpt>
      <trkpt lat="45.83704" lon="4.7869">
        <ele>574</ele>
        <time>2014-02-16T10:18:36Z</time>
      </trkpt>
      <trkpt lat="45.83694" lon="4.78693">
        <ele>574</ele>
        <time>2014-02-16T10:18:39Z</time>
      </trkpt>
      <trkpt lat="45.83688" lon="4.78693">
        <ele>574</ele>
        <time>2014-02-16T10:18:41Z</time>
      </trkpt>
      <trkpt lat="45.83675" lon="4.78694">
        <ele>574</ele>
        <time>2014-02-16T10:18:46Z</time>
      </trkpt>
      <trkpt lat="45.83667" lon="4.78696">
        <ele>574</ele>
        <time>2014-02-16T10:18:52Z</time>
      </trkpt>
      <trkpt lat="45.83665" lon="4.78698">
        <ele>571</ele>
        <time>2014-02-16T10:18:53Z</time>
      </trkpt>
      <trkpt lat="45.83657" lon="4.78699">
        <ele>571</ele>
        <time>2014-02-16T10:18:56Z</time>
      </trkpt>
      <trkpt lat="45.83654" lon="4.787">
        <ele>571</ele>
        <time>2014-02-16T10:18:57Z</time>
      </trkpt>
      <trkpt lat="45.83643" lon="4.787">
        <ele>571</ele>
        <time>2014-02-16T10:19:01Z</time>
      </trkpt>
      <trkpt lat="45.8364" lon="4.78699">
        <ele>570</ele>
        <time>2014-02-16T10:19:02Z</time>
      </trkpt>
      <trkpt lat="45.83638" lon="4.78699">
        <ele>570</ele>
        <time>2014-02-16T10:19:03Z</time>
      </trkpt>
      <trkpt lat="45.83626" lon="4.7869">
        <ele>570</ele>
        <time>2014-02-16T10:19:08Z</time>
      </trkpt>
      <trkpt lat="45.83623" lon="4.78683">
        <ele>571</ele>
        <time>2014-02-16T10:19:10Z</time>
      </trkpt>
      <trkpt lat="45.83623" lon="4.78676">
        <ele>571</ele>
        <time>2014-02-16T10:19:12Z</time>
      </trkpt>
      <trkpt lat="45.83628" lon="4.78666">
        <ele>574</ele>
        <time>2014-02-16T10:19:16Z</time>
      </trkpt>
      <trkpt lat="45.83633" lon="4.78661">
        <ele>574</ele>
        <time>2014-02-16T10:19:19Z</time>
      </trkpt>
      <trkpt lat="45.83636" lon="4.78659">
        <ele>574</ele>
        <time>2014-02-16T10:19:22Z</time>
      </trkpt>
      <trkpt lat="45.83644" lon="4.78653">
        <ele>575</ele>
        <time>2014-02-16T10:19:29Z</time>
      </trkpt>
      <trkpt lat="45.83649" lon="4.7865">
        <ele>575</ele>
        <time>2014-02-16T10:19:33Z</time>
      </trkpt>
      <trkpt lat="45.83653" lon="4.78647">
        <ele>575</ele>
        <time>2014-02-16T10:19:36Z</time>
      </trkpt>
      <trkpt lat="45.83664" lon="4.78641">
        <ele>575</ele>
        <time>2014-02-16T10:19:44Z</time>
      </trkpt>
      <trkpt lat="45.83665" lon="4.78641">
        <ele>575</ele>
        <time>2014-02-16T10:19:45Z</time>
      </trkpt>
      <trkpt lat="45.83675" lon="4.78637">
        <ele>578</ele>
        <time>2014-02-16T10:19:52Z</time>
      </trkpt>
      <trkpt lat="45.83682" lon="4.78635">
        <ele>578</ele>
        <time>2014-02-16T10:19:57Z</time>
      </trkpt>
      <trkpt lat="45.83684" lon="4.78634">
        <ele>578</ele>
        <time>2014-02-16T10:19:58Z</time>
      </trkpt>
      <trkpt lat="45.83693" lon="4.78623">
        <ele>578</ele>
        <time>2014-02-16T10:20:06Z</time>
      </trkpt>
      <trkpt lat="45.83696" lon="4.78619">
        <ele>578</ele>
        <time>2014-02-16T10:20:13Z</time>
      </trkpt>
      <trkpt lat="45.83694" lon="4.78616">
        <ele>578</ele>
        <time>2014-02-16T10:20:18Z</time>
      </trkpt>
      <trkpt lat="45.83694" lon="4.78615">
        <ele>578</ele>
        <time>2014-02-16T10:20:20Z</time>
      </trkpt>
      <trkpt lat="45.83693" lon="4.78613">
        <ele>578</ele>
        <time>2014-02-16T10:20:24Z</time>
      </trkpt>
      <trkpt lat="45.83691" lon="4.78609">
        <ele>578</ele>
        <time>2014-02-16T10:20:27Z</time>
      </trkpt>
      <trkpt lat="45.83689" lon="4.78607">
        <ele>578</ele>
        <time>2014-02-16T10:20:29Z</time>
      </trkpt>
      <trkpt lat="45.83688" lon="4.78602">
        <ele>578</ele>
        <time>2014-02-16T10:20:33Z</time>
      </trkpt>
      <trkpt lat="45.83687" lon="4.78599">
        <ele>578</ele>
        <time>2014-02-16T10:20:36Z</time>
      </trkpt>
      <trkpt lat="45.83687" lon="4.78595">
        <ele>578</ele>
        <time>2014-02-16T10:20:39Z</time>
      </trkpt>
      <trkpt lat="45.83686" lon="4.78594">
        <ele>578</ele>
        <time>2014-02-16T10:20:40Z</time>
      </trkpt>
      <trkpt lat="45.83684" lon="4.78589">
        <ele>577</ele>
        <time>2014-02-16T10:20:44Z</time>
      </trkpt>
      <trkpt lat="45.83684" lon="4.78588">
        <ele>577</ele>
        <time>2014-02-16T10:20:46Z</time>
      </trkpt>
      <trkpt lat="45.83682" lon="4.78582">
        <ele>576</ele>
        <time>2014-02-16T10:20:55Z</time>
      </trkpt>
      <trkpt lat="45.83683" lon="4.78581">
        <ele>576</ele>
        <time>2014-02-16T10:20:56Z</time>
      </trkpt>
      <trkpt lat="45.83683" lon="4.7858">
        <ele>576</ele>
        <time>2014-02-16T10:20:57Z</time>
      </trkpt>
      <trkpt lat="45.83684" lon="4.78579">
        <ele>576</ele>
        <time>2014-02-16T10:20:59Z</time>
      </trkpt>
      <trkpt lat="45.83686" lon="4.78579">
        <ele>576</ele>
        <time>2014-02-16T10:21:01Z</time>
      </trkpt>
      <trkpt lat="45.83687" lon="4.78574">
        <ele>576</ele>
        <time>2014-02-16T10:21:09Z</time>
      </trkpt>
      <trkpt lat="45.83688" lon="4.78573">
        <ele>576</ele>
        <time>2014-02-16T10:21:30Z</time>
      </trkpt>
      <trkpt lat="45.83687" lon="4.78575">
        <ele>576</ele>
        <time>2014-02-16T10:21:35Z</time>
      </trkpt>
      <trkpt lat="45.8369" lon="4.78573">
        <ele>576</ele>
        <time>2014-02-16T10:22:38Z</time>
      </trkpt>
      <trkpt lat="45.8369" lon="4.78573">
        <ele>576</ele>
        <time>2014-02-16T10:22:44Z</time>
      </trkpt>
      <trkpt lat="45.83694" lon="4.78574">
        <ele>576</ele>
        <time>2014-02-16T10:22:50Z</time>
      </trkpt>
      <trkpt lat="45.83696" lon="4.78573">
        <ele>576</ele>
        <time>2014-02-16T10:23:00Z</time>
      </trkpt>
      <trkpt lat="45.83697" lon="4.78573">
        <ele>576</ele>
        <time>2014-02-16T10:23:01Z</time>
      </trkpt>
      <trkpt lat="45.83699" lon="4.78573">
        <ele>577</ele>
        <time>2014-02-16T10:23:06Z</time>
      </trkpt>
      <trkpt lat="45.83701" lon="4.78573">
        <ele>577</ele>
        <time>2014-02-16T10:23:10Z</time>
      </trkpt>
      <trkpt lat="45.83705" lon="4.78574">
        <ele>577</ele>
        <time>2014-02-16T10:23:16Z</time>
      </trkpt>
      <trkpt lat="45.83709" lon="4.78573">
        <ele>577</ele>
        <time>2014-02-16T10:23:22Z</time>
      </trkpt>
      <trkpt lat="45.83711" lon="4.78573">
        <ele>577</ele>
        <time>2014-02-16T10:23:28Z</time>
      </trkpt>
      <trkpt lat="45.83714" lon="4.78574">
        <ele>577</ele>
        <time>2014-02-16T10:23:34Z</time>
      </trkpt>
      <trkpt lat="45.83714" lon="4.78574">
        <ele>577</ele>
        <time>2014-02-16T10:23:35Z</time>
      </trkpt>
      <trkpt lat="45.83716" lon="4.78574">
        <ele>577</ele>
        <time>2014-02-16T10:23:39Z</time>
      </trkpt>
      <trkpt lat="45.83718" lon="4.78575">
        <ele>578</ele>
        <time>2014-02-16T10:23:49Z</time>
      </trkpt>
      <trkpt lat="45.83714" lon="4.78575">
        <ele>577</ele>
        <time>2014-02-16T10:23:58Z</time>
      </trkpt>
      <trkpt lat="45.83717" lon="4.78576">
        <ele>578</ele>
        <time>2014-02-16T10:24:05Z</time>
      </trkpt>
      <trkpt lat="45.83721" lon="4.78577">
        <ele>578</ele>
        <time>2014-02-16T10:24:13Z</time>
      </trkpt>
      <trkpt lat="45.83723" lon="4.78576">
        <ele>578</ele>
        <time>2014-02-16T10:24:15Z</time>
      </trkpt>
      <trkpt lat="45.83725" lon="4.78573">
        <ele>578</ele>
        <time>2014-02-16T10:24:18Z</time>
      </trkpt>
      <trkpt lat="45.83726" lon="4.78571">
        <ele>578</ele>
        <time>2014-02-16T10:24:20Z</time>
      </trkpt>
      <trkpt lat="45.83728" lon="4.7857">
        <ele>578</ele>
        <time>2014-02-16T10:24:23Z</time>
      </trkpt>
      <trkpt lat="45.83728" lon="4.7857">
        <ele>578</ele>
        <time>2014-02-16T10:24:24Z</time>
      </trkpt>
      <trkpt lat="45.83733" lon="4.78566">
        <ele>578</ele>
        <time>2014-02-16T10:24:39Z</time>
      </trkpt>
      <trkpt lat="45.83735" lon="4.78561">
        <ele>578</ele>
        <time>2014-02-16T10:24:44Z</time>
      </trkpt>
      <trkpt lat="45.83735" lon="4.7856">
        <ele>578</ele>
        <time>2014-02-16T10:24:45Z</time>
      </trkpt>
      <trkpt lat="45.8374" lon="4.78554">
        <ele>578</ele>
        <time>2014-02-16T10:24:50Z</time>
      </trkpt>
      <trkpt lat="45.83741" lon="4.78554">
        <ele>578</ele>
        <time>2014-02-16T10:24:51Z</time>
      </trkpt>
      <trkpt lat="45.83744" lon="4.78554">
        <ele>578</ele>
        <time>2014-02-16T10:24:53Z</time>
      </trkpt>
      <trkpt lat="45.83749" lon="4.78558">
        <ele>578</ele>
        <time>2014-02-16T10:24:58Z</time>
      </trkpt>
      <trkpt lat="45.83752" lon="4.78558">
        <ele>581</ele>
        <time>2014-02-16T10:25:00Z</time>
      </trkpt>
      <trkpt lat="45.83756" lon="4.78556">
        <ele>580</ele>
        <time>2014-02-16T10:25:03Z</time>
      </trkpt>
      <trkpt lat="45.83762" lon="4.78554">
        <ele>580</ele>
        <time>2014-02-16T10:25:09Z</time>
      </trkpt>
      <trkpt lat="45.8376" lon="4.78556">
        <ele>580</ele>
        <time>2014-02-16T10:25:17Z</time>
      </trkpt>
      <trkpt lat="45.83759" lon="4.78556">
        <ele>580</ele>
        <time>2014-02-16T10:25:18Z</time>
      </trkpt>
      <trkpt lat="45.83758" lon="4.78557">
        <ele>580</ele>
        <time>2014-02-16T10:25:19Z</time>
      </trkpt>
      <trkpt lat="45.83752" lon="4.78558">
        <ele>580</ele>
        <time>2014-02-16T10:25:24Z</time>
      </trkpt>
      <trkpt lat="45.83749" lon="4.78558">
        <ele>578</ele>
        <time>2014-02-16T10:25:27Z</time>
      </trkpt>
      <trkpt lat="45.83746" lon="4.78554">
        <ele>578</ele>
        <time>2014-02-16T10:25:31Z</time>
      </trkpt>
      <trkpt lat="45.83742" lon="4.78548">
        <ele>578</ele>
        <time>2014-02-16T10:25:34Z</time>
      </trkpt>
      <trkpt lat="45.83739" lon="4.78541">
        <ele>577</ele>
        <time>2014-02-16T10:25:37Z</time>
      </trkpt>
      <trkpt lat="45.83738" lon="4.78538">
        <ele>577</ele>
        <time>2014-02-16T10:25:39Z</time>
      </trkpt>
      <trkpt lat="45.8374" lon="4.78536">
        <ele>577</ele>
        <time>2014-02-16T10:25:41Z</time>
      </trkpt>
      <trkpt lat="45.83744" lon="4.78537">
        <ele>577</ele>
        <time>2014-02-16T10:25:45Z</time>
      </trkpt>
      <trkpt lat="45.83745" lon="4.78537">
        <ele>577</ele>
        <time>2014-02-16T10:25:46Z</time>
      </trkpt>
      <trkpt lat="45.83746" lon="4.78537">
        <ele>577</ele>
        <time>2014-02-16T10:25:54Z</time>
      </trkpt>
      <trkpt lat="45.83749" lon="4.78536">
        <ele>577</ele>
        <time>2014-02-16T10:26:03Z</time>
      </trkpt>
      <trkpt lat="45.83752" lon="4.78535">
        <ele>579</ele>
        <time>2014-02-16T10:26:05Z</time>
      </trkpt>
      <trkpt lat="45.83762" lon="4.78534">
        <ele>580</ele>
        <time>2014-02-16T10:26:10Z</time>
      </trkpt>
      <trkpt lat="45.83764" lon="4.78535">
        <ele>580</ele>
        <time>2014-02-16T10:26:11Z</time>
      </trkpt>
      <trkpt lat="45.83767" lon="4.78535">
        <ele>580</ele>
        <time>2014-02-16T10:26:14Z</time>
      </trkpt>
      <trkpt lat="45.83773" lon="4.78536">
        <ele>580</ele>
        <time>2014-02-16T10:26:18Z</time>
      </trkpt>
      <trkpt lat="45.83773" lon="4.78536">
        <ele>580</ele>
        <time>2014-02-16T10:26:19Z</time>
      </trkpt>
      <trkpt lat="45.83776" lon="4.78534">
        <ele>580</ele>
        <time>2014-02-16T10:26:22Z</time>
      </trkpt>
      <trkpt lat="45.83783" lon="4.78534">
        <ele>580</ele>
        <time>2014-02-16T10:26:27Z</time>
      </trkpt>
      <trkpt lat="45.83785" lon="4.78534">
        <ele>580</ele>
        <time>2014-02-16T10:26:29Z</time>
      </trkpt>
      <trkpt lat="45.83789" lon="4.78534">
        <ele>580</ele>
        <time>2014-02-16T10:26:33Z</time>
      </trkpt>
      <trkpt lat="45.83794" lon="4.78534">
        <ele>580</ele>
        <time>2014-02-16T10:26:38Z</time>
      </trkpt>
      <trkpt lat="45.83796" lon="4.78535">
        <ele>580</ele>
        <time>2014-02-16T10:26:40Z</time>
      </trkpt>
      <trkpt lat="45.83798" lon="4.78535">
        <ele>580</ele>
        <time>2014-02-16T10:26:43Z</time>
      </trkpt>
      <trkpt lat="45.83801" lon="4.78535">
        <ele>580</ele>
        <time>2014-02-16T10:26:46Z</time>
      </trkpt>
      <trkpt lat="45.83803" lon="4.78535">
        <ele>580</ele>
        <time>2014-02-16T10:26:48Z</time>
      </trkpt>
      <trkpt lat="45.83809" lon="4.78536">
        <ele>580</ele>
        <time>2014-02-16T10:26:52Z</time>
      </trkpt>
      <trkpt lat="45.8381" lon="4.78536">
        <ele>580</ele>
        <time>2014-02-16T10:26:53Z</time>
      </trkpt>
      <trkpt lat="45.83814" lon="4.78536">
        <ele>580</ele>
        <time>2014-02-16T10:26:56Z</time>
      </trkpt>
      <trkpt lat="45.83815" lon="4.78536">
        <ele>580</ele>
        <time>2014-02-16T10:26:59Z</time>
      </trkpt>
      <trkpt lat="45.83821" lon="4.78535">
        <ele>580</ele>
        <time>2014-02-16T10:27:03Z</time>
      </trkpt>
      <trkpt lat="45.83823" lon="4.78534">
        <ele>580</ele>
        <time>2014-02-16T10:27:05Z</time>
      </trkpt>
      <trkpt lat="45.83826" lon="4.78532">
        <ele>580</ele>
        <time>2014-02-16T10:27:12Z</time>
      </trkpt>
      <trkpt lat="45.83832" lon="4.78532">
        <ele>580</ele>
        <time>2014-02-16T10:27:17Z</time>
      </trkpt>
      <trkpt lat="45.83839" lon="4.78534">
        <ele>581</ele>
        <time>2014-02-16T10:27:23Z</time>
      </trkpt>
      <trkpt lat="45.8384" lon="4.78534">
        <ele>581</ele>
        <time>2014-02-16T10:27:24Z</time>
      </trkpt>
      <trkpt lat="45.83844" lon="4.78534">
        <ele>581</ele>
        <time>2014-02-16T10:27:29Z</time>
      </trkpt>
      <trkpt lat="45.83846" lon="4.78534">
        <ele>581</ele>
        <time>2014-02-16T10:27:31Z</time>
      </trkpt>
      <trkpt lat="45.8385" lon="4.78534">
        <ele>581</ele>
        <time>2014-02-16T10:27:35Z</time>
      </trkpt>
      <trkpt lat="45.83855" lon="4.78533">
        <ele>581</ele>
        <time>2014-02-16T10:27:39Z</time>
      </trkpt>
      <trkpt lat="45.83857" lon="4.78531">
        <ele>581</ele>
        <time>2014-02-16T10:27:41Z</time>
      </trkpt>
      <trkpt lat="45.8386" lon="4.7853">
        <ele>581</ele>
        <time>2014-02-16T10:27:43Z</time>
      </trkpt>
      <trkpt lat="45.83861" lon="4.7853">
        <ele>581</ele>
        <time>2014-02-16T10:27:44Z</time>
      </trkpt>
      <trkpt lat="45.83867" lon="4.78528">
        <ele>581</ele>
        <time>2014-02-16T10:27:49Z</time>
      </trkpt>
      <trkpt lat="45.83871" lon="4.78526">
        <ele>581</ele>
        <time>2014-02-16T10:27:52Z</time>
      </trkpt>
      <trkpt lat="45.83875" lon="4.78525">
        <ele>581</ele>
        <time>2014-02-16T10:27:55Z</time>
      </trkpt>
      <trkpt lat="45.83881" lon="4.7852">
        <ele>581</ele>
        <time>2014-02-16T10:28:00Z</time>
      </trkpt>
      <trkpt lat="45.83883" lon="4.78519">
        <ele>581</ele>
        <time>2014-02-16T10:28:02Z</time>
      </trkpt>
      <trkpt lat="45.83884" lon="4.78517">
        <ele>581</ele>
        <time>2014-02-16T10:28:04Z</time>
      </trkpt>
      <trkpt lat="45.83887" lon="4.78513">
        <ele>581</ele>
        <time>2014-02-16T10:28:06Z</time>
      </trkpt>
      <trkpt lat="45.83888" lon="4.78511">
        <ele>581</ele>
        <time>2014-02-16T10:28:08Z</time>
      </trkpt>
      <trkpt lat="45.8389" lon="4.78508">
        <ele>581</ele>
        <time>2014-02-16T10:28:10Z</time>
      </trkpt>
      <trkpt lat="45.83894" lon="4.78502">
        <ele>581</ele>
        <time>2014-02-16T10:28:13Z</time>
      </trkpt>
      <trkpt lat="45.83897" lon="4.78499">
        <ele>577</ele>
        <time>2014-02-16T10:28:16Z</time>
      </trkpt>
      <trkpt lat="45.83898" lon="4.78499">
        <ele>577</ele>
        <time>2014-02-16T10:28:18Z</time>
      </trkpt>
      <trkpt lat="45.83897" lon="4.78494">
        <ele>577</ele>
        <time>2014-02-16T10:28:25Z</time>
      </trkpt>
      <trkpt lat="45.83897" lon="4.78491">
        <ele>577</ele>
        <time>2014-02-16T10:28:32Z</time>
      </trkpt>
      <trkpt lat="45.83899" lon="4.78492">
        <ele>577</ele>
        <time>2014-02-16T10:28:35Z</time>
      </trkpt>
      <trkpt lat="45.83901" lon="4.78493">
        <ele>577</ele>
        <time>2014-02-16T10:28:37Z</time>
      </trkpt>
      <trkpt lat="45.83902" lon="4.78491">
        <ele>577</ele>
        <time>2014-02-16T10:29:17Z</time>
      </trkpt>
      <trkpt lat="45.839" lon="4.78489">
        <ele>577</ele>
        <time>2014-02-16T10:29:20Z</time>
      </trkpt>
      <trkpt lat="45.83905" lon="4.78486">
        <ele>577</ele>
        <time>2014-02-16T10:29:51Z</time>
      </trkpt>
      <trkpt lat="45.83905" lon="4.78485">
        <ele>577</ele>
        <time>2014-02-16T10:29:56Z</time>
      </trkpt>
      <trkpt lat="45.83904" lon="4.78485">
        <ele>577</ele>
        <time>2014-02-16T10:29:57Z</time>
      </trkpt>
      <trkpt lat="45.83902" lon="4.78484">
        <ele>576</ele>
        <time>2014-02-16T10:29:59Z</time>
      </trkpt>
      <trkpt lat="45.839" lon="4.78478">
        <ele>576</ele>
        <time>2014-02-16T10:30:03Z</time>
      </trkpt>
      <trkpt lat="45.839" lon="4.78477">
        <ele>576</ele>
        <time>2014-02-16T10:30:04Z</time>
      </trkpt>
      <trkpt lat="45.839" lon="4.78477">
        <ele>576</ele>
        <time>2014-02-16T10:30:05Z</time>
      </trkpt>
      <trkpt lat="45.83899" lon="4.78481">
        <ele>576</ele>
        <time>2014-02-16T10:30:29Z</time>
      </trkpt>
      <trkpt lat="45.83899" lon="4.78482">
        <ele>576</ele>
        <time>2014-02-16T10:30:46Z</time>
      </trkpt>
      <trkpt lat="45.83901" lon="4.78484">
        <ele>576</ele>
        <time>2014-02-16T10:30:48Z</time>
      </trkpt>
      <trkpt lat="45.83901" lon="4.78484">
        <ele>576</ele>
        <time>2014-02-16T10:30:49Z</time>
      </trkpt>
      <trkpt lat="45.83903" lon="4.78486">
        <ele>577</ele>
        <time>2014-02-16T10:30:51Z</time>
      </trkpt>
      <trkpt lat="45.83905" lon="4.78489">
        <ele>577</ele>
        <time>2014-02-16T10:30:55Z</time>
      </trkpt>
      <trkpt lat="45.83909" lon="4.78486">
        <ele>577</ele>
        <time>2014-02-16T10:31:01Z</time>
      </trkpt>
      <trkpt lat="45.83911" lon="4.78485">
        <ele>577</ele>
        <time>2014-02-16T10:31:05Z</time>
      </trkpt>
      <trkpt lat="45.83918" lon="4.78487">
        <ele>578</ele>
        <time>2014-02-16T10:31:12Z</time>
      </trkpt>
      <trkpt lat="45.8392" lon="4.78488">
        <ele>578</ele>
        <time>2014-02-16T10:31:14Z</time>
      </trkpt>
      <trkpt lat="45.8392" lon="4.78487">
        <ele>578</ele>
        <time>2014-02-16T10:31:15Z</time>
      </trkpt>
      <trkpt lat="45.83923" lon="4.78484">
        <ele>577</ele>
        <time>2014-02-16T10:31:18Z</time>
      </trkpt>
      <trkpt lat="45.83928" lon="4.78484">
        <ele>577</ele>
        <time>2014-02-16T10:31:21Z</time>
      </trkpt>
      <trkpt lat="45.83931" lon="4.78485">
        <ele>577</ele>
        <time>2014-02-16T10:31:23Z</time>
      </trkpt>
      <trkpt lat="45.83933" lon="4.78486">
        <ele>577</ele>
        <time>2014-02-16T10:31:24Z</time>
      </trkpt>
      <trkpt lat="45.83938" lon="4.78489">
        <ele>577</ele>
        <time>2014-02-16T10:31:27Z</time>
      </trkpt>
      <trkpt lat="45.83945" lon="4.78488">
        <ele>577</ele>
        <time>2014-02-16T10:31:33Z</time>
      </trkpt>
      <trkpt lat="45.83946" lon="4.78488">
        <ele>577</ele>
        <time>2014-02-16T10:31:34Z</time>
      </trkpt>
      <trkpt lat="45.83953" lon="4.7849">
        <ele>577</ele>
        <time>2014-02-16T10:31:38Z</time>
      </trkpt>
      <trkpt lat="45.83955" lon="4.7849">
        <ele>577</ele>
        <time>2014-02-16T10:31:39Z</time>
      </trkpt>
      <trkpt lat="45.83958" lon="4.7849">
        <ele>577</ele>
        <time>2014-02-16T10:31:40Z</time>
      </trkpt>
      <trkpt lat="45.83965" lon="4.78488">
        <ele>577</ele>
        <time>2014-02-16T10:31:43Z</time>
      </trkpt>
      <trkpt lat="45.83978" lon="4.78488">
        <ele>578</ele>
        <time>2014-02-16T10:31:48Z</time>
      </trkpt>
      <trkpt lat="45.83985" lon="4.78489">
        <ele>578</ele>
        <time>2014-02-16T10:31:52Z</time>
      </trkpt>
      <trkpt lat="45.83986" lon="4.78489">
        <ele>578</ele>
        <time>2014-02-16T10:31:53Z</time>
      </trkpt>
      <trkpt lat="45.83996" lon="4.78488">
        <ele>579</ele>
        <time>2014-02-16T10:31:58Z</time>
      </trkpt>
      <trkpt lat="45.84003" lon="4.7849">
        <ele>579</ele>
        <time>2014-02-16T10:32:01Z</time>
      </trkpt>
      <trkpt lat="45.84005" lon="4.78491">
        <ele>579</ele>
        <time>2014-02-16T10:32:02Z</time>
      </trkpt>
      <trkpt lat="45.84013" lon="4.78489">
        <ele>578</ele>
        <time>2014-02-16T10:32:06Z</time>
      </trkpt>
      <trkpt lat="45.84015" lon="4.78488">
        <ele>578</ele>
        <time>2014-02-16T10:32:07Z</time>
      </trkpt>
      <trkpt lat="45.84022" lon="4.78489">
        <ele>577</ele>
        <time>2014-02-16T10:32:10Z</time>
      </trkpt>
      <trkpt lat="45.84023" lon="4.78489">
        <ele>577</ele>
        <time>2014-02-16T10:32:11Z</time>
      </trkpt>
      <trkpt lat="45.84024" lon="4.78488">
        <ele>577</ele>
        <time>2014-02-16T10:32:12Z</time>
      </trkpt>
      <trkpt lat="45.84029" lon="4.78489">
        <ele>576</ele>
        <time>2014-02-16T10:32:16Z</time>
      </trkpt>
      <trkpt lat="45.84029" lon="4.78489">
        <ele>576</ele>
        <time>2014-02-16T10:32:17Z</time>
      </trkpt>
      <trkpt lat="45.84029" lon="4.7849">
        <ele>576</ele>
        <time>2014-02-16T10:32:53Z</time>
      </trkpt>
      <trkpt lat="45.8403" lon="4.7849">
        <ele>576</ele>
        <time>2014-02-16T10:32:57Z</time>
      </trkpt>
      <trkpt lat="45.84031" lon="4.78491">
        <ele>576</ele>
        <time>2014-02-16T10:32:58Z</time>
      </trkpt>
      <trkpt lat="45.84033" lon="4.78494">
        <ele>576</ele>
        <time>2014-02-16T10:33:00Z</time>
      </trkpt>
      <trkpt lat="45.84035" lon="4.78498">
        <ele>576</ele>
        <time>2014-02-16T10:33:02Z</time>
      </trkpt>
      <trkpt lat="45.84038" lon="4.78509">
        <ele>581</ele>
        <time>2014-02-16T10:33:07Z</time>
      </trkpt>
      <trkpt lat="45.84038" lon="4.78519">
        <ele>581</ele>
        <time>2014-02-16T10:33:11Z</time>
      </trkpt>
      <trkpt lat="45.84039" lon="4.78521">
        <ele>581</ele>
        <time>2014-02-16T10:33:12Z</time>
      </trkpt>
      <trkpt lat="45.8404" lon="4.78522">
        <ele>581</ele>
        <time>2014-02-16T10:33:13Z</time>
      </trkpt>
      <trkpt lat="45.84041" lon="4.78523">
        <ele>581</ele>
        <time>2014-02-16T10:33:14Z</time>
      </trkpt>
      <trkpt lat="45.84043" lon="4.7853">
        <ele>581</ele>
        <time>2014-02-16T10:33:18Z</time>
      </trkpt>
      <trkpt lat="45.8404" lon="4.78536">
        <ele>581</ele>
        <time>2014-02-16T10:33:22Z</time>
      </trkpt>
      <trkpt lat="45.8404" lon="4.78539">
        <ele>582</ele>
        <time>2014-02-16T10:33:23Z</time>
      </trkpt>
      <trkpt lat="45.8404" lon="4.78546">
        <ele>582</ele>
        <time>2014-02-16T10:33:28Z</time>
      </trkpt>
      <trkpt lat="45.8404" lon="4.78548">
        <ele>582</ele>
        <time>2014-02-16T10:33:30Z</time>
      </trkpt>
      <trkpt lat="45.84041" lon="4.78554">
        <ele>582</ele>
        <time>2014-02-16T10:33:42Z</time>
      </trkpt>
      <trkpt lat="45.84042" lon="4.78559">
        <ele>582</ele>
        <time>2014-02-16T10:33:46Z</time>
      </trkpt>
      <trkpt lat="45.84042" lon="4.78564">
        <ele>582</ele>
        <time>2014-02-16T10:33:51Z</time>
      </trkpt>
      <trkpt lat="45.84043" lon="4.78567">
        <ele>582</ele>
        <time>2014-02-16T10:33:54Z</time>
      </trkpt>
      <trkpt lat="45.84043" lon="4.7857">
        <ele>582</ele>
        <time>2014-02-16T10:33:56Z</time>
      </trkpt>
      <trkpt lat="45.84042" lon="4.78572">
        <ele>582</ele>
        <time>2014-02-16T10:33:59Z</time>
      </trkpt>
      <trkpt lat="45.84042" lon="4.78572">
        <ele>582</ele>
        <time>2014-02-16T10:34:00Z</time>
      </trkpt>
      <trkpt lat="45.84042" lon="4.78579">
        <ele>582</ele>
        <time>2014-02-16T10:34:05Z</time>
      </trkpt>
      <trkpt lat="45.84042" lon="4.78583">
        <ele>582</ele>
        <time>2014-02-16T10:34:08Z</time>
      </trkpt>
      <trkpt lat="45.84041" lon="4.78589">
        <ele>582</ele>
        <time>2014-02-16T10:34:12Z</time>
      </trkpt>
      <trkpt lat="45.84041" lon="4.7859">
        <ele>582</ele>
        <time>2014-02-16T10:34:13Z</time>
      </trkpt>
      <trkpt lat="45.84041" lon="4.7859">
        <ele>582</ele>
        <time>2014-02-16T10:34:14Z</time>
      </trkpt>
      <trkpt lat="45.84041" lon="4.78593">
        <ele>582</ele>
        <time>2014-02-16T10:34:17Z</time>
      </trkpt>
      <trkpt lat="45.84042" lon="4.78594">
        <ele>582</ele>
        <time>2014-02-16T10:34:18Z</time>
      </trkpt>
      <trkpt lat="45.84042" lon="4.78597">
        <ele>582</ele>
        <time>2014-02-16T10:34:20Z</time>
      </trkpt>
      <trkpt lat="45.84043" lon="4.78599">
        <ele>582</ele>
        <time>2014-02-16T10:34:21Z</time>
      </trkpt>
      <trkpt lat="45.84042" lon="4.786">
        <ele>582</ele>
        <time>2014-02-16T10:34:22Z</time>
      </trkpt>
      <trkpt lat="45.84041" lon="4.78606">
        <ele>582</ele>
        <time>2014-02-16T10:34:26Z</time>
      </trkpt>
      <trkpt lat="45.8404" lon="4.78607">
        <ele>582</ele>
        <time>2014-02-16T10:34:28Z</time>
      </trkpt>
      <trkpt lat="45.84038" lon="4.78609">
        <ele>582</ele>
        <time>2014-02-16T10:34:34Z</time>
      </trkpt>
      <trkpt lat="45.84037" lon="4.78611">
        <ele>582</ele>
        <time>2014-02-16T10:34:38Z</time>
      </trkpt>
      <trkpt lat="45.84035" lon="4.7861">
        <ele>582</ele>
        <time>2014-02-16T10:34:40Z</time>
      </trkpt>
      <trkpt lat="45.84033" lon="4.78611">
        <ele>582</ele>
        <time>2014-02-16T10:34:45Z</time>
      </trkpt>
      <trkpt lat="45.84033" lon="4.78614">
        <ele>582</ele>
        <time>2014-02-16T10:34:51Z</time>
      </trkpt>
      <trkpt lat="45.84034" lon="4.78615">
        <ele>582</ele>
        <time>2014-02-16T10:34:55Z</time>
      </trkpt>
      <trkpt lat="45.84034" lon="4.78616">
        <ele>582</ele>
        <time>2014-02-16T10:34:56Z</time>
      </trkpt>
      <trkpt lat="45.84033" lon="4.78618">
        <ele>582</ele>
        <time>2014-02-16T10:34:58Z</time>
      </trkpt>
      <trkpt lat="45.84032" lon="4.78621">
        <ele>582</ele>
        <time>2014-02-16T10:35:27Z</time>
      </trkpt>
      <trkpt lat="45.84034" lon="4.78622">
        <ele>582</ele>
        <time>2014-02-16T10:35:34Z</time>
      </trkpt>
      <trkpt lat="45.84033" lon="4.78625">
        <ele>582</ele>
        <time>2014-02-16T10:35:48Z</time>
      </trkpt>
      <trkpt lat="45.84035" lon="4.78628">
        <ele>582</ele>
        <time>2014-02-16T10:36:00Z</time>
      </trkpt>
      <trkpt lat="45.84036" lon="4.78634">
        <ele>582</ele>
        <time>2014-02-16T10:36:16Z</time>
      </trkpt>
      <trkpt lat="45.84035" lon="4.78638">
        <ele>582</ele>
        <time>2014-02-16T10:36:19Z</time>
      </trkpt>
      <trkpt lat="45.84034" lon="4.78643">
        <ele>582</ele>
        <time>2014-02-16T10:36:22Z</time>
      </trkpt>
      <trkpt lat="45.84036" lon="4.78656">
        <ele>582</ele>
        <time>2014-02-16T10:36:28Z</time>
      </trkpt>
      <trkpt lat="45.84035" lon="4.78666">
        <ele>582</ele>
        <time>2014-02-16T10:36:31Z</time>
      </trkpt>
      <trkpt lat="45.84033" lon="4.78673">
        <ele>579</ele>
        <time>2014-02-16T10:36:33Z</time>
      </trkpt>
      <trkpt lat="45.8403" lon="4.78693">
        <ele>578</ele>
        <time>2014-02-16T10:36:39Z</time>
      </trkpt>
      <trkpt lat="45.84026" lon="4.78715">
        <ele>578</ele>
        <time>2014-02-16T10:36:45Z</time>
      </trkpt>
      <trkpt lat="45.84025" lon="4.78719">
        <ele>577</ele>
        <time>2014-02-16T10:36:46Z</time>
      </trkpt>
      <trkpt lat="45.84024" lon="4.78732">
        <ele>577</ele>
        <time>2014-02-16T10:36:50Z</time>
      </trkpt>
      <trkpt lat="45.84022" lon="4.78745">
        <ele>577</ele>
        <time>2014-02-16T10:36:54Z</time>
      </trkpt>
      <trkpt lat="45.8402" lon="4.78751">
        <ele>573</ele>
        <time>2014-02-16T10:36:56Z</time>
      </trkpt>
      <trkpt lat="45.8402" lon="4.78754">
        <ele>573</ele>
        <time>2014-02-16T10:36:57Z</time>
      </trkpt>
      <trkpt lat="45.84017" lon="4.7876">
        <ele>573</ele>
        <time>2014-02-16T10:37:00Z</time>
      </trkpt>
      <trkpt lat="45.84016" lon="4.78761">
        <ele>573</ele>
        <time>2014-02-16T10:37:01Z</time>
      </trkpt>
      <trkpt lat="45.84013" lon="4.78764">
        <ele>573</ele>
        <time>2014-02-16T10:37:04Z</time>
      </trkpt>
      <trkpt lat="45.84012" lon="4.78764">
        <ele>573</ele>
        <time>2014-02-16T10:37:05Z</time>
      </trkpt>
      <trkpt lat="45.84011" lon="4.78764">
        <ele>573</ele>
        <time>2014-02-16T10:37:11Z</time>
      </trkpt>
      <trkpt lat="45.84011" lon="4.78763">
        <ele>573</ele>
        <time>2014-02-16T10:37:12Z</time>
      </trkpt>
      <trkpt lat="45.84011" lon="4.78763">
        <ele>573</ele>
        <time>2014-02-16T10:37:19Z</time>
      </trkpt>
      <trkpt lat="45.84015" lon="4.78758">
        <ele>573</ele>
        <time>2014-02-16T10:37:26Z</time>
      </trkpt>
      <trkpt lat="45.84018" lon="4.78757">
        <ele>573</ele>
        <time>2014-02-16T10:37:29Z</time>
      </trkpt>
      <trkpt lat="45.8402" lon="4.78756">
        <ele>573</ele>
        <time>2014-02-16T10:37:32Z</time>
      </trkpt>
      <trkpt lat="45.84019" lon="4.78757">
        <ele>573</ele>
        <time>2014-02-16T10:37:39Z</time>
      </trkpt>
      <trkpt lat="45.84017" lon="4.78758">
        <ele>573</ele>
        <time>2014-02-16T10:37:41Z</time>
      </trkpt>
      <trkpt lat="45.84014" lon="4.78761">
        <ele>573</ele>
        <time>2014-02-16T10:37:45Z</time>
      </trkpt>
      <trkpt lat="45.84009" lon="4.78765">
        <ele>573</ele>
        <time>2014-02-16T10:37:50Z</time>
      </trkpt>
      <trkpt lat="45.84" lon="4.78765">
        <ele>574</ele>
        <time>2014-02-16T10:37:56Z</time>
      </trkpt>
      <trkpt lat="45.83994" lon="4.78764">
        <ele>574</ele>
        <time>2014-02-16T10:38:00Z</time>
      </trkpt>
      <trkpt lat="45.83985" lon="4.78765">
        <ele>573</ele>
        <time>2014-02-16T10:38:07Z</time>
      </trkpt>
      <trkpt lat="45.83983" lon="4.78766">
        <ele>573</ele>
        <time>2014-02-16T10:38:09Z</time>
      </trkpt>
      <trkpt lat="45.83981" lon="4.78766">
        <ele>573</ele>
        <time>2014-02-16T10:38:10Z</time>
      </trkpt>
      <trkpt lat="45.83976" lon="4.78766">
        <ele>573</ele>
        <time>2014-02-16T10:38:14Z</time>
      </trkpt>
      <trkpt lat="45.83969" lon="4.78767">
        <ele>572</ele>
        <time>2014-02-16T10:38:20Z</time>
      </trkpt>
      <trkpt lat="45.83962" lon="4.78765">
        <ele>572</ele>
        <time>2014-02-16T10:38:24Z</time>
      </trkpt>
      <trkpt lat="45.83959" lon="4.78764">
        <ele>572</ele>
        <time>2014-02-16T10:38:26Z</time>
      </trkpt>
      <trkpt lat="45.8395" lon="4.78761">
        <ele>573</ele>
        <time>2014-02-16T10:38:31Z</time>
      </trkpt>
      <trkpt lat="45.83945" lon="4.78759">
        <ele>573</ele>
        <time>2014-02-16T10:38:33Z</time>
      </trkpt>
      <trkpt lat="45.83944" lon="4.78758">
        <ele>573</ele>
        <time>2014-02-16T10:38:34Z</time>
      </trkpt>
      <trkpt lat="45.83941" lon="4.78757">
        <ele>573</ele>
        <time>2014-02-16T10:38:36Z</time>
      </trkpt>
      <trkpt lat="45.83931" lon="4.78754">
        <ele>574</ele>
        <time>2014-02-16T10:38:41Z</time>
      </trkpt>
      <trkpt lat="45.83924" lon="4.7875">
        <ele>575</ele>
        <time>2014-02-16T10:38:45Z</time>
      </trkpt>
      <trkpt lat="45.83923" lon="4.78749">
        <ele>577</ele>
        <time>2014-02-16T10:38:46Z</time>
      </trkpt>
      <trkpt lat="45.83914" lon="4.78747">
        <ele>576</ele>
        <time>2014-02-16T10:38:51Z</time>
      </trkpt>
      <trkpt lat="45.83907" lon="4.78744">
        <ele>577</ele>
        <time>2014-02-16T10:38:56Z</time>
      </trkpt>
      <trkpt lat="45.83906" lon="4.78743">
        <ele>577</ele>
        <time>2014-02-16T10:38:58Z</time>
      </trkpt>
      <trkpt lat="45.83905" lon="4.78739">
        <ele>577</ele>
        <time>2014-02-16T10:39:03Z</time>
      </trkpt>
      <trkpt lat="45.83905" lon="4.78732">
        <ele>577</ele>
        <time>2014-02-16T10:39:09Z</time>
      </trkpt>
      <trkpt lat="45.83906" lon="4.78727">
        <ele>577</ele>
        <time>2014-02-16T10:39:14Z</time>
      </trkpt>
      <trkpt lat="45.83905" lon="4.78727">
        <ele>577</ele>
        <time>2014-02-16T10:39:22Z</time>
      </trkpt>
      <trkpt lat="45.83905" lon="4.78726">
        <ele>577</ele>
        <time>2014-02-16T10:39:24Z</time>
      </trkpt>
      <trkpt lat="45.83906" lon="4.78725">
        <ele>577</ele>
        <time>2014-02-16T10:39:28Z</time>
      </trkpt>
      <trkpt lat="45.83903" lon="4.78731">
        <ele>577</ele>
        <time>2014-02-16T10:39:38Z</time>
      </trkpt>
      <trkpt lat="45.83902" lon="4.78737">
        <ele>577</ele>
        <time>2014-02-16T10:39:43Z</time>
      </trkpt>
      <trkpt lat="45.83903" lon="4.78739">
        <ele>577</ele>
        <time>2014-02-16T10:39:44Z</time>
      </trkpt>
      <trkpt lat="45.83907" lon="4.78742">
        <ele>577</ele>
        <time>2014-02-16T10:39:48Z</time>
      </trkpt>
      <trkpt lat="45.83909" lon="4.78744">
        <ele>576</ele>
        <time>2014-02-16T10:39:50Z</time>
      </trkpt>
      <trkpt lat="45.83913" lon="4.78745">
        <ele>576</ele>
        <time>2014-02-16T10:39:53Z</time>
      </trkpt>
      <trkpt lat="45.83921" lon="4.7875">
        <ele>577</ele>
        <time>2014-02-16T10:40:01Z</time>
      </trkpt>
      <trkpt lat="45.83926" lon="4.78753">
        <ele>574</ele>
        <time>2014-02-16T10:40:07Z</time>
      </trkpt>
      <trkpt lat="45.83929" lon="4.78755">
        <ele>574</ele>
        <time>2014-02-16T10:40:09Z</time>
      </trkpt>
      <trkpt lat="45.83933" lon="4.78758">
        <ele>573</ele>
        <time>2014-02-16T10:40:14Z</time>
      </trkpt>
      <trkpt lat="45.83941" lon="4.78759">
        <ele>573</ele>
        <time>2014-02-16T10:40:18Z</time>
      </trkpt>
      <trkpt lat="45.83945" lon="4.78761">
        <ele>573</ele>
        <time>2014-02-16T10:40:21Z</time>
      </trkpt>
      <trkpt lat="45.83949" lon="4.78762">
        <ele>573</ele>
        <time>2014-02-16T10:40:23Z</time>
      </trkpt>
      <trkpt lat="45.83955" lon="4.78765">
        <ele>572</ele>
        <time>2014-02-16T10:40:26Z</time>
      </trkpt>
      <trkpt lat="45.83957" lon="4.78765">
        <ele>572</ele>
        <time>2014-02-16T10:40:27Z</time>
      </trkpt>
      <trkpt lat="45.83959" lon="4.78766">
        <ele>572</ele>
        <time>2014-02-16T10:40:28Z</time>
      </trkpt>
      <trkpt lat="45.83962" lon="4.78766">
        <ele>572</ele>
        <time>2014-02-16T10:40:29Z</time>
      </trkpt>
      <trkpt lat="45.83969" lon="4.78768">
        <ele>572</ele>
        <time>2014-02-16T10:40:32Z</time>
      </trkpt>
      <trkpt lat="45.83974" lon="4.78767">
        <ele>572</ele>
        <time>2014-02-16T10:40:34Z</time>
      </trkpt>
      <trkpt lat="45.83976" lon="4.78767">
        <ele>572</ele>
        <time>2014-02-16T10:40:35Z</time>
      </trkpt>
      <trkpt lat="45.83982" lon="4.78765">
        <ele>573</ele>
        <time>2014-02-16T10:40:38Z</time>
      </trkpt>
      <trkpt lat="45.83984" lon="4.78765">
        <ele>573</ele>
        <time>2014-02-16T10:40:39Z</time>
      </trkpt>
      <trkpt lat="45.83995" lon="4.78765">
        <ele>573</ele>
        <time>2014-02-16T10:40:44Z</time>
      </trkpt>
      <trkpt lat="45.83997" lon="4.78764">
        <ele>574</ele>
        <time>2014-02-16T10:40:45Z</time>
      </trkpt>
      <trkpt lat="45.84" lon="4.78764">
        <ele>574</ele>
        <time>2014-02-16T10:40:46Z</time>
      </trkpt>
      <trkpt lat="45.84007" lon="4.78761">
        <ele>574</ele>
        <time>2014-02-16T10:40:50Z</time>
      </trkpt>
      <trkpt lat="45.84015" lon="4.78755">
        <ele>573</ele>
        <time>2014-02-16T10:40:57Z</time>
      </trkpt>
      <trkpt lat="45.84018" lon="4.78752">
        <ele>573</ele>
        <time>2014-02-16T10:40:59Z</time>
      </trkpt>
      <trkpt lat="45.8402" lon="4.78747">
        <ele>577</ele>
        <time>2014-02-16T10:41:03Z</time>
      </trkpt>
      <trkpt lat="45.84024" lon="4.78733">
        <ele>577</ele>
        <time>2014-02-16T10:41:11Z</time>
      </trkpt>
      <trkpt lat="45.84025" lon="4.78729">
        <ele>577</ele>
        <time>2014-02-16T10:41:13Z</time>
      </trkpt>
      <trkpt lat="45.84025" lon="4.7872">
        <ele>577</ele>
        <time>2014-02-16T10:41:18Z</time>
      </trkpt>
      <trkpt lat="45.8403" lon="4.78706">
        <ele>578</ele>
        <time>2014-02-16T10:41:26Z</time>
      </trkpt>
      <trkpt lat="45.8403" lon="4.78704">
        <ele>578</ele>
        <time>2014-02-16T10:41:27Z</time>
      </trkpt>
      <trkpt lat="45.84033" lon="4.78698">
        <ele>578</ele>
        <time>2014-02-16T10:41:31Z</time>
      </trkpt>
      <trkpt lat="45.84033" lon="4.78694">
        <ele>578</ele>
        <time>2014-02-16T10:41:33Z</time>
      </trkpt>
      <trkpt lat="45.84035" lon="4.78685">
        <ele>578</ele>
        <time>2014-02-16T10:41:38Z</time>
      </trkpt>
      <trkpt lat="45.84038" lon="4.78682">
        <ele>578</ele>
        <time>2014-02-16T10:41:40Z</time>
      </trkpt>
      <trkpt lat="45.8405" lon="4.78676">
        <ele>578</ele>
        <time>2014-02-16T10:41:45Z</time>
      </trkpt>
      <trkpt lat="45.84056" lon="4.78676">
        <ele>577</ele>
        <time>2014-02-16T10:41:47Z</time>
      </trkpt>
      <trkpt lat="45.84069" lon="4.78678">
        <ele>576</ele>
        <time>2014-02-16T10:41:52Z</time>
      </trkpt>
      <trkpt lat="45.84075" lon="4.78681">
        <ele>576</ele>
        <time>2014-02-16T10:41:54Z</time>
      </trkpt>
      <trkpt lat="45.84087" lon="4.78686">
        <ele>573</ele>
        <time>2014-02-16T10:41:58Z</time>
      </trkpt>
      <trkpt lat="45.84095" lon="4.7869">
        <ele>572</ele>
        <time>2014-02-16T10:42:01Z</time>
      </trkpt>
      <trkpt lat="45.84103" lon="4.78693">
        <ele>572</ele>
        <time>2014-02-16T10:42:04Z</time>
      </trkpt>
      <trkpt lat="45.84114" lon="4.78697">
        <ele>571</ele>
        <time>2014-02-16T10:42:08Z</time>
      </trkpt>
      <trkpt lat="45.8412" lon="4.78698">
        <ele>571</ele>
        <time>2014-02-16T10:42:10Z</time>
      </trkpt>
      <trkpt lat="45.84131" lon="4.78703">
        <ele>570</ele>
        <time>2014-02-16T10:42:14Z</time>
      </trkpt>
      <trkpt lat="45.84133" lon="4.78705">
        <ele>570</ele>
        <time>2014-02-16T10:42:15Z</time>
      </trkpt>
      <trkpt lat="45.84144" lon="4.78711">
        <ele>569</ele>
        <time>2014-02-16T10:42:19Z</time>
      </trkpt>
      <trkpt lat="45.8415" lon="4.78714">
        <ele>569</ele>
        <time>2014-02-16T10:42:23Z</time>
      </trkpt>
      <trkpt lat="45.84158" lon="4.78713">
        <ele>569</ele>
        <time>2014-02-16T10:42:27Z</time>
      </trkpt>
      <trkpt lat="45.84167" lon="4.78716">
        <ele>564</ele>
        <time>2014-02-16T10:42:31Z</time>
      </trkpt>
      <trkpt lat="45.8417" lon="4.78717">
        <ele>564</ele>
        <time>2014-02-16T10:42:32Z</time>
      </trkpt>
      <trkpt lat="45.84181" lon="4.78722">
        <ele>564</ele>
        <time>2014-02-16T10:42:36Z</time>
      </trkpt>
      <trkpt lat="45.84183" lon="4.78723">
        <ele>563</ele>
        <time>2014-02-16T10:42:37Z</time>
      </trkpt>
      <trkpt lat="45.84186" lon="4.78724">
        <ele>563</ele>
        <time>2014-02-16T10:42:38Z</time>
      </trkpt>
      <trkpt lat="45.84193" lon="4.78725">
        <ele>563</ele>
        <time>2014-02-16T10:42:41Z</time>
      </trkpt>
      <trkpt lat="45.84204" lon="4.7873">
        <ele>562</ele>
        <time>2014-02-16T10:42:46Z</time>
      </trkpt>
      <trkpt lat="45.84207" lon="4.78732">
        <ele>562</ele>
        <time>2014-02-16T10:42:48Z</time>
      </trkpt>
      <trkpt lat="45.84208" lon="4.78733">
        <ele>562</ele>
        <time>2014-02-16T10:42:50Z</time>
      </trkpt>
      <trkpt lat="45.84212" lon="4.78737">
        <ele>562</ele>
        <time>2014-02-16T10:42:54Z</time>
      </trkpt>
      <trkpt lat="45.84214" lon="4.78737">
        <ele>562</ele>
        <time>2014-02-16T10:42:55Z</time>
      </trkpt>
      <trkpt lat="45.84216" lon="4.78739">
        <ele>561</ele>
        <time>2014-02-16T10:42:58Z</time>
      </trkpt>
      <trkpt lat="45.84216" lon="4.7874">
        <ele>561</ele>
        <time>2014-02-16T10:43:03Z</time>
      </trkpt>
      <trkpt lat="45.84217" lon="4.78747">
        <ele>561</ele>
        <time>2014-02-16T10:43:09Z</time>
      </trkpt>
      <trkpt lat="45.84215" lon="4.7876">
        <ele>560</ele>
        <time>2014-02-16T10:43:13Z</time>
      </trkpt>
      <trkpt lat="45.84215" lon="4.78773">
        <ele>560</ele>
        <time>2014-02-16T10:43:16Z</time>
      </trkpt>
      <trkpt lat="45.84212" lon="4.7879">
        <ele>561</ele>
        <time>2014-02-16T10:43:20Z</time>
      </trkpt>
      <trkpt lat="45.84211" lon="4.78802">
        <ele>561</ele>
        <time>2014-02-16T10:43:23Z</time>
      </trkpt>
      <trkpt lat="45.84211" lon="4.78809">
        <ele>561</ele>
        <time>2014-02-16T10:43:25Z</time>
      </trkpt>
      <trkpt lat="45.84211" lon="4.78823">
        <ele>560</ele>
        <time>2014-02-16T10:43:29Z</time>
      </trkpt>
      <trkpt lat="45.84213" lon="4.78824">
        <ele>560</ele>
        <time>2014-02-16T10:43:30Z</time>
      </trkpt>
      <trkpt lat="45.84215" lon="4.78825">
        <ele>560</ele>
        <time>2014-02-16T10:43:31Z</time>
      </trkpt>
      <trkpt lat="45.84221" lon="4.78818">
        <ele>560</ele>
        <time>2014-02-16T10:43:34Z</time>
      </trkpt>
      <trkpt lat="45.84223" lon="4.78802">
        <ele>560</ele>
        <time>2014-02-16T10:43:38Z</time>
      </trkpt>
      <trkpt lat="45.84223" lon="4.78799">
        <ele>560</ele>
        <time>2014-02-16T10:43:39Z</time>
      </trkpt>
      <trkpt lat="45.84226" lon="4.7878">
        <ele>560</ele>
        <time>2014-02-16T10:43:44Z</time>
      </trkpt>
      <trkpt lat="45.84226" lon="4.78776">
        <ele>560</ele>
        <time>2014-02-16T10:43:45Z</time>
      </trkpt>
      <trkpt lat="45.84229" lon="4.78759">
        <ele>559</ele>
        <time>2014-02-16T10:43:50Z</time>
      </trkpt>
      <trkpt lat="45.84231" lon="4.78749">
        <ele>560</ele>
        <time>2014-02-16T10:43:53Z</time>
      </trkpt>
      <trkpt lat="45.84237" lon="4.78731">
        <ele>560</ele>
        <time>2014-02-16T10:43:58Z</time>
      </trkpt>
      <trkpt lat="45.84239" lon="4.78723">
        <ele>561</ele>
        <time>2014-02-16T10:44:00Z</time>
      </trkpt>
      <trkpt lat="45.84241" lon="4.78711">
        <ele>561</ele>
        <time>2014-02-16T10:44:03Z</time>
      </trkpt>
      <trkpt lat="45.84245" lon="4.78696">
        <ele>561</ele>
        <time>2014-02-16T10:44:07Z</time>
      </trkpt>
      <trkpt lat="45.84251" lon="4.7868">
        <ele>556</ele>
        <time>2014-02-16T10:44:12Z</time>
      </trkpt>
      <trkpt lat="45.84255" lon="4.78672">
        <ele>557</ele>
        <time>2014-02-16T10:44:15Z</time>
      </trkpt>
      <trkpt lat="45.84256" lon="4.78666">
        <ele>558</ele>
        <time>2014-02-16T10:44:17Z</time>
      </trkpt>
      <trkpt lat="45.84264" lon="4.78651">
        <ele>556</ele>
        <time>2014-02-16T10:44:22Z</time>
      </trkpt>
      <trkpt lat="45.84266" lon="4.78648">
        <ele>556</ele>
        <time>2014-02-16T10:44:23Z</time>
      </trkpt>
      <trkpt lat="45.84272" lon="4.78634">
        <ele>555</ele>
        <time>2014-02-16T10:44:28Z</time>
      </trkpt>
      <trkpt lat="45.84275" lon="4.78625">
        <ele>554</ele>
        <time>2014-02-16T10:44:31Z</time>
      </trkpt>
      <trkpt lat="45.84277" lon="4.78617">
        <ele>554</ele>
        <time>2014-02-16T10:44:34Z</time>
      </trkpt>
      <trkpt lat="45.84283" lon="4.78616">
        <ele>554</ele>
        <time>2014-02-16T10:44:39Z</time>
      </trkpt>
      <trkpt lat="45.84285" lon="4.78618">
        <ele>554</ele>
        <time>2014-02-16T10:44:43Z</time>
      </trkpt>
      <trkpt lat="45.84288" lon="4.78618">
        <ele>553</ele>
        <time>2014-02-16T10:44:45Z</time>
      </trkpt>
      <trkpt lat="45.8429" lon="4.78619">
        <ele>553</ele>
        <time>2014-02-16T10:44:47Z</time>
      </trkpt>
      <trkpt lat="45.84294" lon="4.78618">
        <ele>553</ele>
        <time>2014-02-16T10:44:50Z</time>
      </trkpt>
      <trkpt lat="45.84297" lon="4.78616">
        <ele>552</ele>
        <time>2014-02-16T10:44:52Z</time>
      </trkpt>
      <trkpt lat="45.84301" lon="4.78615">
        <ele>552</ele>
        <time>2014-02-16T10:44:55Z</time>
      </trkpt>
      <trkpt lat="45.84306" lon="4.78611">
        <ele>551</ele>
        <time>2014-02-16T10:44:59Z</time>
      </trkpt>
      <trkpt lat="45.84311" lon="4.7861">
        <ele>551</ele>
        <time>2014-02-16T10:45:01Z</time>
      </trkpt>
      <trkpt lat="45.84312" lon="4.78609">
        <ele>550</ele>
        <time>2014-02-16T10:45:02Z</time>
      </trkpt>
      <trkpt lat="45.84317" lon="4.78608">
        <ele>550</ele>
        <time>2014-02-16T10:45:06Z</time>
      </trkpt>
      <trkpt lat="45.84319" lon="4.78605">
        <ele>550</ele>
        <time>2014-02-16T10:45:09Z</time>
      </trkpt>
      <trkpt lat="45.84319" lon="4.78603">
        <ele>549</ele>
        <time>2014-02-16T10:45:11Z</time>
      </trkpt>
      <trkpt lat="45.84321" lon="4.78602">
        <ele>549</ele>
        <time>2014-02-16T10:45:13Z</time>
      </trkpt>
      <trkpt lat="45.84323" lon="4.78601">
        <ele>549</ele>
        <time>2014-02-16T10:45:15Z</time>
      </trkpt>
      <trkpt lat="45.84324" lon="4.78599">
        <ele>548</ele>
        <time>2014-02-16T10:45:16Z</time>
      </trkpt>
      <trkpt lat="45.84327" lon="4.78596">
        <ele>548</ele>
        <time>2014-02-16T10:45:18Z</time>
      </trkpt>
      <trkpt lat="45.8433" lon="4.78591">
        <ele>546</ele>
        <time>2014-02-16T10:45:21Z</time>
      </trkpt>
      <trkpt lat="45.84332" lon="4.78587">
        <ele>545</ele>
        <time>2014-02-16T10:45:24Z</time>
      </trkpt>
      <trkpt lat="45.84334" lon="4.78585">
        <ele>543</ele>
        <time>2014-02-16T10:45:27Z</time>
      </trkpt>
      <trkpt lat="45.84337" lon="4.78583">
        <ele>542</ele>
        <time>2014-02-16T10:45:30Z</time>
      </trkpt>
      <trkpt lat="45.84338" lon="4.78585">
        <ele>542</ele>
        <time>2014-02-16T10:45:33Z</time>
      </trkpt>
      <trkpt lat="45.84338" lon="4.78582">
        <ele>542</ele>
        <time>2014-02-16T10:45:35Z</time>
      </trkpt>
      <trkpt lat="45.84341" lon="4.78579">
        <ele>540</ele>
        <time>2014-02-16T10:45:37Z</time>
      </trkpt>
      <trkpt lat="45.84343" lon="4.78577">
        <ele>539</ele>
        <time>2014-02-16T10:45:38Z</time>
      </trkpt>
      <trkpt lat="45.84344" lon="4.78575">
        <ele>538</ele>
        <time>2014-02-16T10:45:42Z</time>
      </trkpt>
      <trkpt lat="45.84346" lon="4.78581">
        <ele>539</ele>
        <time>2014-02-16T10:45:46Z</time>
      </trkpt>
      <trkpt lat="45.84346" lon="4.78584">
        <ele>538</ele>
        <time>2014-02-16T10:45:48Z</time>
      </trkpt>
      <trkpt lat="45.84347" lon="4.78585">
        <ele>538</ele>
        <time>2014-02-16T10:45:49Z</time>
      </trkpt>
      <trkpt lat="45.84346" lon="4.78587">
        <ele>538</ele>
        <time>2014-02-16T10:45:52Z</time>
      </trkpt>
      <trkpt lat="45.84346" lon="4.78591">
        <ele>538</ele>
        <time>2014-02-16T10:45:55Z</time>
      </trkpt>
      <trkpt lat="45.84347" lon="4.78594">
        <ele>537</ele>
        <time>2014-02-16T10:45:58Z</time>
      </trkpt>
      <trkpt lat="45.84349" lon="4.78594">
        <ele>537</ele>
        <time>2014-02-16T10:46:01Z</time>
      </trkpt>
      <trkpt lat="45.84351" lon="4.78594">
        <ele>536</ele>
        <time>2014-02-16T10:46:04Z</time>
      </trkpt>
      <trkpt lat="45.84352" lon="4.78597">
        <ele>535</ele>
        <time>2014-02-16T10:46:06Z</time>
      </trkpt>
      <trkpt lat="45.84357" lon="4.78602">
        <ele>534</ele>
        <time>2014-02-16T10:46:09Z</time>
      </trkpt>
      <trkpt lat="45.84357" lon="4.78604">
        <ele>534</ele>
        <time>2014-02-16T10:46:10Z</time>
      </trkpt>
      <trkpt lat="45.84358" lon="4.78608">
        <ele>533</ele>
        <time>2014-02-16T10:46:14Z</time>
      </trkpt>
      <trkpt lat="45.84358" lon="4.78609">
        <ele>533</ele>
        <time>2014-02-16T10:46:15Z</time>
      </trkpt>
      <trkpt lat="45.84362" lon="4.78606">
        <ele>533</ele>
        <time>2014-02-16T10:46:19Z</time>
      </trkpt>
      <trkpt lat="45.84364" lon="4.78604">
        <ele>533</ele>
        <time>2014-02-16T10:46:22Z</time>
      </trkpt>
      <trkpt lat="45.84365" lon="4.78604">
        <ele>532</ele>
        <time>2014-02-16T10:46:23Z</time>
      </trkpt>
      <trkpt lat="45.84364" lon="4.78604">
        <ele>533</ele>
        <time>2014-02-16T10:46:24Z</time>
      </trkpt>
      <trkpt lat="45.84363" lon="4.78603">
        <ele>533</ele>
        <time>2014-02-16T10:46:26Z</time>
      </trkpt>
      <trkpt lat="45.84362" lon="4.78601">
        <ele>533</ele>
        <time>2014-02-16T10:46:28Z</time>
      </trkpt>
      <trkpt lat="45.84362" lon="4.78599">
        <ele>533</ele>
        <time>2014-02-16T10:46:30Z</time>
      </trkpt>
      <trkpt lat="45.84363" lon="4.78597">
        <ele>533</ele>
        <time>2014-02-16T10:46:35Z</time>
      </trkpt>
      <trkpt lat="45.84365" lon="4.78596">
        <ele>533</ele>
        <time>2014-02-16T10:46:39Z</time>
      </trkpt>
      <trkpt lat="45.84368" lon="4.78589">
        <ele>532</ele>
        <time>2014-02-16T10:46:46Z</time>
      </trkpt>
      <trkpt lat="45.84371" lon="4.78587">
        <ele>532</ele>
        <time>2014-02-16T10:46:49Z</time>
      </trkpt>
      <trkpt lat="45.84371" lon="4.78585">
        <ele>531</ele>
        <time>2014-02-16T10:46:50Z</time>
      </trkpt>
      <trkpt lat="45.84372" lon="4.78579">
        <ele>532</ele>
        <time>2014-02-16T10:46:53Z</time>
      </trkpt>
      <trkpt lat="45.84372" lon="4.78574">
        <ele>532</ele>
        <time>2014-02-16T10:46:55Z</time>
      </trkpt>
      <trkpt lat="45.84372" lon="4.78571">
        <ele>532</ele>
        <time>2014-02-16T10:46:57Z</time>
      </trkpt>
      <trkpt lat="45.84372" lon="4.78567">
        <ele>532</ele>
        <time>2014-02-16T10:47:00Z</time>
      </trkpt>
      <trkpt lat="45.84373" lon="4.78572">
        <ele>532</ele>
        <time>2014-02-16T10:47:04Z</time>
      </trkpt>
      <trkpt lat="45.84373" lon="4.78575">
        <ele>532</ele>
        <time>2014-02-16T10:47:06Z</time>
      </trkpt>
      <trkpt lat="45.84376" lon="4.78581">
        <ele>531</ele>
        <time>2014-02-16T10:47:10Z</time>
      </trkpt>
      <trkpt lat="45.84377" lon="4.7858">
        <ele>531</ele>
        <time>2014-02-16T10:47:12Z</time>
      </trkpt>
      <trkpt lat="45.84378" lon="4.78575">
        <ele>530</ele>
        <time>2014-02-16T10:47:17Z</time>
      </trkpt>
      <trkpt lat="45.84379" lon="4.78573">
        <ele>530</ele>
        <time>2014-02-16T10:47:20Z</time>
      </trkpt>
      <trkpt lat="45.8438" lon="4.78571">
        <ele>530</ele>
        <time>2014-02-16T10:47:22Z</time>
      </trkpt>
      <trkpt lat="45.8438" lon="4.7857">
        <ele>530</ele>
        <time>2014-02-16T10:47:23Z</time>
      </trkpt>
      <trkpt lat="45.84381" lon="4.78568">
        <ele>530</ele>
        <time>2014-02-16T10:47:25Z</time>
      </trkpt>
      <trkpt lat="45.84382" lon="4.78566">
        <ele>530</ele>
        <time>2014-02-16T10:47:27Z</time>
      </trkpt>
      <trkpt lat="45.84382" lon="4.78564">
        <ele>530</ele>
        <time>2014-02-16T10:47:28Z</time>
      </trkpt>
      <trkpt lat="45.84384" lon="4.78561">
        <ele>530</ele>
        <time>2014-02-16T10:47:32Z</time>
      </trkpt>
      <trkpt lat="45.84388" lon="4.78559">
        <ele>529</ele>
        <time>2014-02-16T10:47:38Z</time>
      </trkpt>
      <trkpt lat="45.84391" lon="4.78562">
        <ele>529</ele>
        <time>2014-02-16T10:47:40Z</time>
      </trkpt>
      <trkpt lat="45.84392" lon="4.78564">
        <ele>528</ele>
        <time>2014-02-16T10:47:41Z</time>
      </trkpt>
      <trkpt lat="45.84393" lon="4.78567">
        <ele>528</ele>
        <time>2014-02-16T10:47:44Z</time>
      </trkpt>
      <trkpt lat="45.84393" lon="4.78568">
        <ele>528</ele>
        <time>2014-02-16T10:47:45Z</time>
      </trkpt>
      <trkpt lat="45.84395" lon="4.78567">
        <ele>527</ele>
        <time>2014-02-16T10:47:49Z</time>
      </trkpt>
      <trkpt lat="45.84397" lon="4.78565">
        <ele>527</ele>
        <time>2014-02-16T10:47:51Z</time>
      </trkpt>
      <trkpt lat="45.84398" lon="4.78562">
        <ele>527</ele>
        <time>2014-02-16T10:47:54Z</time>
      </trkpt>
      <trkpt lat="45.84399" lon="4.7856">
        <ele>527</ele>
        <time>2014-02-16T10:47:55Z</time>
      </trkpt>
      <trkpt lat="45.84404" lon="4.78562">
        <ele>527</ele>
        <time>2014-02-16T10:47:58Z</time>
      </trkpt>
      <trkpt lat="45.84405" lon="4.78563">
        <ele>526</ele>
        <time>2014-02-16T10:47:59Z</time>
      </trkpt>
      <trkpt lat="45.84407" lon="4.78563">
        <ele>526</ele>
        <time>2014-02-16T10:48:00Z</time>
      </trkpt>
      <trkpt lat="45.84409" lon="4.78568">
        <ele>525</ele>
        <time>2014-02-16T10:48:03Z</time>
      </trkpt>
      <trkpt lat="45.84409" lon="4.78569">
        <ele>524</ele>
        <time>2014-02-16T10:48:04Z</time>
      </trkpt>
      <trkpt lat="45.84409" lon="4.78566">
        <ele>525</ele>
        <time>2014-02-16T10:48:08Z</time>
      </trkpt>
      <trkpt lat="45.84411" lon="4.78563">
        <ele>525</ele>
        <time>2014-02-16T10:48:11Z</time>
      </trkpt>
      <trkpt lat="45.84412" lon="4.78562">
        <ele>526</ele>
        <time>2014-02-16T10:48:13Z</time>
      </trkpt>
      <trkpt lat="45.84414" lon="4.78557">
        <ele>526</ele>
        <time>2014-02-16T10:48:17Z</time>
      </trkpt>
      <trkpt lat="45.84417" lon="4.78555">
        <ele>526</ele>
        <time>2014-02-16T10:48:19Z</time>
      </trkpt>
      <trkpt lat="45.84417" lon="4.78555">
        <ele>520</ele>
        <time>2014-02-16T10:48:20Z</time>
      </trkpt>
      <trkpt lat="45.8442" lon="4.78556">
        <ele>520</ele>
        <time>2014-02-16T10:48:27Z</time>
      </trkpt>
      <trkpt lat="45.84426" lon="4.78557">
        <ele>520</ele>
        <time>2014-02-16T10:49:01Z</time>
      </trkpt>
      <trkpt lat="45.84426" lon="4.78552">
        <ele>520</ele>
        <time>2014-02-16T10:49:14Z</time>
      </trkpt>
      <trkpt lat="45.84429" lon="4.78553">
        <ele>520</ele>
        <time>2014-02-16T10:49:18Z</time>
      </trkpt>
      <trkpt lat="45.84433" lon="4.78557">
        <ele>520</ele>
        <time>2014-02-16T10:49:23Z</time>
      </trkpt>
      <trkpt lat="45.84435" lon="4.78557">
        <ele>520</ele>
        <time>2014-02-16T10:49:25Z</time>
      </trkpt>
      <trkpt lat="45.84436" lon="4.78556">
        <ele>520</ele>
        <time>2014-02-16T10:49:27Z</time>
      </trkpt>
      <trkpt lat="45.84437" lon="4.78555">
        <ele>520</ele>
        <time>2014-02-16T10:49:28Z</time>
      </trkpt>
      <trkpt lat="45.84437" lon="4.78555">
        <ele>520</ele>
        <time>2014-02-16T10:49:29Z</time>
      </trkpt>
      <trkpt lat="45.8444" lon="4.78554">
        <ele>520</ele>
        <time>2014-02-16T10:49:33Z</time>
      </trkpt>
      <trkpt lat="45.84441" lon="4.78554">
        <ele>520</ele>
        <time>2014-02-16T10:49:34Z</time>
      </trkpt>
      <trkpt lat="45.84447" lon="4.78552">
        <ele>520</ele>
        <time>2014-02-16T10:49:37Z</time>
      </trkpt>
      <trkpt lat="45.84454" lon="4.78558">
        <ele>520</ele>
        <time>2014-02-16T10:49:40Z</time>
      </trkpt>
      <trkpt lat="45.84457" lon="4.78562">
        <ele>519</ele>
        <time>2014-02-16T10:49:42Z</time>
      </trkpt>
      <trkpt lat="45.8446" lon="4.78564">
        <ele>519</ele>
        <time>2014-02-16T10:49:44Z</time>
      </trkpt>
      <trkpt lat="45.84461" lon="4.78566">
        <ele>519</ele>
        <time>2014-02-16T10:49:46Z</time>
      </trkpt>
      <trkpt lat="45.84462" lon="4.78573">
        <ele>519</ele>
        <time>2014-02-16T10:49:51Z</time>
      </trkpt>
      <trkpt lat="45.84465" lon="4.78581">
        <ele>518</ele>
        <time>2014-02-16T10:49:56Z</time>
      </trkpt>
      <trkpt lat="45.84465" lon="4.78585">
        <ele>511</ele>
        <time>2014-02-16T10:49:58Z</time>
      </trkpt>
      <trkpt lat="45.84466" lon="4.78585">
        <ele>511</ele>
        <time>2014-02-16T10:49:59Z</time>
      </trkpt>
      <trkpt lat="45.84468" lon="4.78584">
        <ele>511</ele>
        <time>2014-02-16T10:50:00Z</time>
      </trkpt>
      <trkpt lat="45.84473" lon="4.78582">
        <ele>517</ele>
        <time>2014-02-16T10:50:04Z</time>
      </trkpt>
      <trkpt lat="45.84474" lon="4.78582">
        <ele>517</ele>
        <time>2014-02-16T10:50:05Z</time>
      </trkpt>
      <trkpt lat="45.84481" lon="4.78582">
        <ele>516</ele>
        <time>2014-02-16T10:50:11Z</time>
      </trkpt>
      <trkpt lat="45.84484" lon="4.78581">
        <ele>516</ele>
        <time>2014-02-16T10:50:13Z</time>
      </trkpt>
      <trkpt lat="45.84488" lon="4.78585">
        <ele>510</ele>
        <time>2014-02-16T10:50:18Z</time>
      </trkpt>
      <trkpt lat="45.84493" lon="4.78586">
        <ele>511</ele>
        <time>2014-02-16T10:50:23Z</time>
      </trkpt>
      <trkpt lat="45.84495" lon="4.78587">
        <ele>511</ele>
        <time>2014-02-16T10:50:24Z</time>
      </trkpt>
      <trkpt lat="45.84498" lon="4.78585">
        <ele>511</ele>
        <time>2014-02-16T10:50:27Z</time>
      </trkpt>
      <trkpt lat="45.84501" lon="4.78582">
        <ele>512</ele>
        <time>2014-02-16T10:50:30Z</time>
      </trkpt>
      <trkpt lat="45.84502" lon="4.78581">
        <ele>512</ele>
        <time>2014-02-16T10:50:31Z</time>
      </trkpt>
      <trkpt lat="45.84499" lon="4.78572">
        <ele>515</ele>
        <time>2014-02-16T10:50:38Z</time>
      </trkpt>
      <trkpt lat="45.84499" lon="4.78565">
        <ele>516</ele>
        <time>2014-02-16T10:51:14Z</time>
      </trkpt>
      <trkpt lat="45.84502" lon="4.78571">
        <ele>517</ele>
        <time>2014-02-16T10:51:18Z</time>
      </trkpt>
      <trkpt lat="45.84503" lon="4.78573">
        <ele>516</ele>
        <time>2014-02-16T10:51:19Z</time>
      </trkpt>
      <trkpt lat="45.84505" lon="4.78586">
        <ele>510</ele>
        <time>2014-02-16T10:51:23Z</time>
      </trkpt>
      <trkpt lat="45.84511" lon="4.78598">
        <ele>509</ele>
        <time>2014-02-16T10:51:26Z</time>
      </trkpt>
      <trkpt lat="45.84513" lon="4.78601">
        <ele>509</ele>
        <time>2014-02-16T10:51:27Z</time>
      </trkpt>
      <trkpt lat="45.84522" lon="4.7862">
        <ele>507</ele>
        <time>2014-02-16T10:51:33Z</time>
      </trkpt>
      <trkpt lat="45.84523" lon="4.78622">
        <ele>507</ele>
        <time>2014-02-16T10:51:34Z</time>
      </trkpt>
      <trkpt lat="45.84529" lon="4.7863">
        <ele>507</ele>
        <time>2014-02-16T10:51:37Z</time>
      </trkpt>
      <trkpt lat="45.84535" lon="4.7864">
        <ele>506</ele>
        <time>2014-02-16T10:51:40Z</time>
      </trkpt>
      <trkpt lat="45.84538" lon="4.78643">
        <ele>506</ele>
        <time>2014-02-16T10:51:41Z</time>
      </trkpt>
      <trkpt lat="45.8454" lon="4.78646">
        <ele>506</ele>
        <time>2014-02-16T10:51:42Z</time>
      </trkpt>
      <trkpt lat="45.84551" lon="4.78659">
        <ele>506</ele>
        <time>2014-02-16T10:51:46Z</time>
      </trkpt>
      <trkpt lat="45.84554" lon="4.78662">
        <ele>506</ele>
        <time>2014-02-16T10:51:47Z</time>
      </trkpt>
      <trkpt lat="45.84566" lon="4.78672">
        <ele>497</ele>
        <time>2014-02-16T10:51:51Z</time>
      </trkpt>
      <trkpt lat="45.84572" lon="4.78679">
        <ele>497</ele>
        <time>2014-02-16T10:51:54Z</time>
      </trkpt>
      <trkpt lat="45.84574" lon="4.78682">
        <ele>497</ele>
        <time>2014-02-16T10:51:55Z</time>
      </trkpt>
      <trkpt lat="45.84576" lon="4.78685">
        <ele>496</ele>
        <time>2014-02-16T10:51:57Z</time>
      </trkpt>
      <trkpt lat="45.84579" lon="4.78689">
        <ele>495</ele>
        <time>2014-02-16T10:51:59Z</time>
      </trkpt>
      <trkpt lat="45.84585" lon="4.787">
        <ele>497</ele>
        <time>2014-02-16T10:52:03Z</time>
      </trkpt>
      <trkpt lat="45.84587" lon="4.78701">
        <ele>497</ele>
        <time>2014-02-16T10:52:04Z</time>
      </trkpt>
      <trkpt lat="45.846" lon="4.78712">
        <ele>495</ele>
        <time>2014-02-16T10:52:09Z</time>
      </trkpt>
      <trkpt lat="45.84604" lon="4.78713">
        <ele>495</ele>
        <time>2014-02-16T10:52:10Z</time>
      </trkpt>
      <trkpt lat="45.84616" lon="4.78719">
        <ele>495</ele>
        <time>2014-02-16T10:52:13Z</time>
      </trkpt>
      <trkpt lat="45.84623" lon="4.78725">
        <ele>495</ele>
        <time>2014-02-16T10:52:15Z</time>
      </trkpt>
      <trkpt lat="45.84625" lon="4.78735">
        <ele>494</ele>
        <time>2014-02-16T10:52:17Z</time>
      </trkpt>
      <trkpt lat="45.84624" lon="4.78744">
        <ele>493</ele>
        <time>2014-02-16T10:52:19Z</time>
      </trkpt>
      <trkpt lat="45.84624" lon="4.78768">
        <ele>482</ele>
        <time>2014-02-16T10:52:23Z</time>
      </trkpt>
      <trkpt lat="45.84623" lon="4.78775">
        <ele>481</ele>
        <time>2014-02-16T10:52:24Z</time>
      </trkpt>
      <trkpt lat="45.84626" lon="4.78787">
        <ele>480</ele>
        <time>2014-02-16T10:52:27Z</time>
      </trkpt>
      <trkpt lat="45.8463" lon="4.78799">
        <ele>480</ele>
        <time>2014-02-16T10:52:31Z</time>
      </trkpt>
      <trkpt lat="45.84631" lon="4.78803">
        <ele>479</ele>
        <time>2014-02-16T10:52:32Z</time>
      </trkpt>
      <trkpt lat="45.84638" lon="4.78814">
        <ele>479</ele>
        <time>2014-02-16T10:52:35Z</time>
      </trkpt>
      <trkpt lat="45.84644" lon="4.7882">
        <ele>478</ele>
        <time>2014-02-16T10:52:37Z</time>
      </trkpt>
      <trkpt lat="45.84654" lon="4.78829">
        <ele>478</ele>
        <time>2014-02-16T10:52:40Z</time>
      </trkpt>
      <trkpt lat="45.84661" lon="4.78838">
        <ele>475</ele>
        <time>2014-02-16T10:52:43Z</time>
      </trkpt>
      <trkpt lat="45.84663" lon="4.7884">
        <ele>475</ele>
        <time>2014-02-16T10:52:44Z</time>
      </trkpt>
      <trkpt lat="45.8467" lon="4.78854">
        <ele>475</ele>
        <time>2014-02-16T10:52:48Z</time>
      </trkpt>
      <trkpt lat="45.84675" lon="4.7886">
        <ele>474</ele>
        <time>2014-02-16T10:52:50Z</time>
      </trkpt>
      <trkpt lat="45.84681" lon="4.78864">
        <ele>474</ele>
        <time>2014-02-16T10:52:52Z</time>
      </trkpt>
      <trkpt lat="45.8469" lon="4.78871">
        <ele>474</ele>
        <time>2014-02-16T10:52:56Z</time>
      </trkpt>
      <trkpt lat="45.84694" lon="4.78872">
        <ele>474</ele>
        <time>2014-02-16T10:52:57Z</time>
      </trkpt>
      <trkpt lat="45.847" lon="4.78878">
        <ele>473</ele>
        <time>2014-02-16T10:53:01Z</time>
      </trkpt>
      <trkpt lat="45.84693" lon="4.78879">
        <ele>473</ele>
        <time>2014-02-16T10:53:06Z</time>
      </trkpt>
      <trkpt lat="45.84691" lon="4.78881">
        <ele>473</ele>
        <time>2014-02-16T10:53:07Z</time>
      </trkpt>
      <trkpt lat="45.8469" lon="4.78884">
        <ele>473</ele>
        <time>2014-02-16T10:53:09Z</time>
      </trkpt>
      <trkpt lat="45.84691" lon="4.78884">
        <ele>473</ele>
        <time>2014-02-16T10:53:10Z</time>
      </trkpt>
      <trkpt lat="45.84691" lon="4.78885">
        <ele>473</ele>
        <time>2014-02-16T10:53:13Z</time>
      </trkpt>
      <trkpt lat="45.84685" lon="4.78892">
        <ele>472</ele>
        <time>2014-02-16T10:53:16Z</time>
      </trkpt>
      <trkpt lat="45.84679" lon="4.78898">
        <ele>472</ele>
        <time>2014-02-16T10:53:21Z</time>
      </trkpt>
      <trkpt lat="45.8468" lon="4.789">
        <ele>471</ele>
        <time>2014-02-16T10:53:26Z</time>
      </trkpt>
      <trkpt lat="45.8468" lon="4.78901">
        <ele>471</ele>
        <time>2014-02-16T10:53:27Z</time>
      </trkpt>
      <trkpt lat="45.84681" lon="4.78901">
        <ele>471</ele>
        <time>2014-02-16T10:53:28Z</time>
      </trkpt>
      <trkpt lat="45.84682" lon="4.78902">
        <ele>471</ele>
        <time>2014-02-16T10:53:29Z</time>
      </trkpt>
      <trkpt lat="45.84682" lon="4.789">
        <ele>471</ele>
        <time>2014-02-16T10:53:37Z</time>
      </trkpt>
      <trkpt lat="45.84679" lon="4.789">
        <ele>471</ele>
        <time>2014-02-16T10:53:39Z</time>
      </trkpt>
      <trkpt lat="45.84675" lon="4.78899">
        <ele>471</ele>
        <time>2014-02-16T10:53:41Z</time>
      </trkpt>
      <trkpt lat="45.84669" lon="4.78899">
        <ele>471</ele>
        <time>2014-02-16T10:53:43Z</time>
      </trkpt>
      <trkpt lat="45.8466" lon="4.78894">
        <ele>472</ele>
        <time>2014-02-16T10:53:46Z</time>
      </trkpt>
      <trkpt lat="45.84652" lon="4.78892">
        <ele>473</ele>
        <time>2014-02-16T10:53:49Z</time>
      </trkpt>
      <trkpt lat="45.8465" lon="4.78893">
        <ele>473</ele>
        <time>2014-02-16T10:53:50Z</time>
      </trkpt>
      <trkpt lat="45.84648" lon="4.78895">
        <ele>473</ele>
        <time>2014-02-16T10:53:51Z</time>
      </trkpt>
      <trkpt lat="45.84645" lon="4.789">
        <ele>473</ele>
        <time>2014-02-16T10:53:55Z</time>
      </trkpt>
      <trkpt lat="45.84643" lon="4.78902">
        <ele>473</ele>
        <time>2014-02-16T10:53:57Z</time>
      </trkpt>
      <trkpt lat="45.84644" lon="4.78904">
        <ele>473</ele>
        <time>2014-02-16T10:53:59Z</time>
      </trkpt>
      <trkpt lat="45.84645" lon="4.78905">
        <ele>473</ele>
        <time>2014-02-16T10:54:00Z</time>
      </trkpt>
      <trkpt lat="45.84643" lon="4.78911">
        <ele>473</ele>
        <time>2014-02-16T10:54:05Z</time>
      </trkpt>
      <trkpt lat="45.84641" lon="4.78913">
        <ele>473</ele>
        <time>2014-02-16T10:54:07Z</time>
      </trkpt>
      <trkpt lat="45.8464" lon="4.78918">
        <ele>476</ele>
        <time>2014-02-16T10:54:10Z</time>
      </trkpt>
      <trkpt lat="45.8464" lon="4.78927">
        <ele>477</ele>
        <time>2014-02-16T10:54:15Z</time>
      </trkpt>
      <trkpt lat="45.8464" lon="4.78928">
        <ele>477</ele>
        <time>2014-02-16T10:54:16Z</time>
      </trkpt>
      <trkpt lat="45.84641" lon="4.78928">
        <ele>477</ele>
        <time>2014-02-16T10:54:17Z</time>
      </trkpt>
      <trkpt lat="45.84645" lon="4.78929">
        <ele>476</ele>
        <time>2014-02-16T10:54:20Z</time>
      </trkpt>
      <trkpt lat="45.84646" lon="4.78929">
        <ele>476</ele>
        <time>2014-02-16T10:54:21Z</time>
      </trkpt>
      <trkpt lat="45.84647" lon="4.78927">
        <ele>476</ele>
        <time>2014-02-16T10:54:24Z</time>
      </trkpt>
      <trkpt lat="45.84648" lon="4.78926">
        <ele>475</ele>
        <time>2014-02-16T10:54:26Z</time>
      </trkpt>
      <trkpt lat="45.8465" lon="4.78926">
        <ele>475</ele>
        <time>2014-02-16T10:54:28Z</time>
      </trkpt>
      <trkpt lat="45.84651" lon="4.78926">
        <ele>475</ele>
        <time>2014-02-16T10:54:29Z</time>
      </trkpt>
      <trkpt lat="45.84651" lon="4.78927">
        <ele>475</ele>
        <time>2014-02-16T10:54:30Z</time>
      </trkpt>
      <trkpt lat="45.8465" lon="4.78929">
        <ele>475</ele>
        <time>2014-02-16T10:54:34Z</time>
      </trkpt>
      <trkpt lat="45.8465" lon="4.78926">
        <ele>475</ele>
        <time>2014-02-16T10:55:03Z</time>
      </trkpt>
      <trkpt lat="45.84654" lon="4.78929">
        <ele>475</ele>
        <time>2014-02-16T10:55:06Z</time>
      </trkpt>
      <trkpt lat="45.84657" lon="4.7893">
        <ele>474</ele>
        <time>2014-02-16T10:55:08Z</time>
      </trkpt>
      <trkpt lat="45.84663" lon="4.78936">
        <ele>475</ele>
        <time>2014-02-16T10:55:14Z</time>
      </trkpt>
      <trkpt lat="45.84666" lon="4.78945">
        <ele>477</ele>
        <time>2014-02-16T10:55:20Z</time>
      </trkpt>
      <trkpt lat="45.84668" lon="4.78948">
        <ele>471</ele>
        <time>2014-02-16T10:55:22Z</time>
      </trkpt>
      <trkpt lat="45.84668" lon="4.78949">
        <ele>471</ele>
        <time>2014-02-16T10:55:23Z</time>
      </trkpt>
      <trkpt lat="45.84669" lon="4.78948">
        <ele>471</ele>
        <time>2014-02-16T10:55:25Z</time>
      </trkpt>
      <trkpt lat="45.84673" lon="4.78949">
        <ele>471</ele>
        <time>2014-02-16T10:55:37Z</time>
      </trkpt>
      <trkpt lat="45.84675" lon="4.78949">
        <ele>471</ele>
        <time>2014-02-16T10:55:42Z</time>
      </trkpt>
      <trkpt lat="45.84679" lon="4.78948">
        <ele>471</ele>
        <time>2014-02-16T10:55:48Z</time>
      </trkpt>
      <trkpt lat="45.84681" lon="4.78947">
        <ele>471</ele>
        <time>2014-02-16T10:55:52Z</time>
      </trkpt>
      <trkpt lat="45.84681" lon="4.78945">
        <ele>471</ele>
        <time>2014-02-16T10:55:55Z</time>
      </trkpt>
      <trkpt lat="45.8468" lon="4.78941">
        <ele>470</ele>
        <time>2014-02-16T10:55:59Z</time>
      </trkpt>
      <trkpt lat="45.8468" lon="4.78941">
        <ele>470</ele>
        <time>2014-02-16T10:56:00Z</time>
      </trkpt>
      <trkpt lat="45.84679" lon="4.78937">
        <ele>470</ele>
        <time>2014-02-16T10:56:05Z</time>
      </trkpt>
      <trkpt lat="45.84681" lon="4.78937">
        <ele>470</ele>
        <time>2014-02-16T10:56:12Z</time>
      </trkpt>
      <trkpt lat="45.84677" lon="4.78931">
        <ele>470</ele>
        <time>2014-02-16T10:56:20Z</time>
      </trkpt>
      <trkpt lat="45.84676" lon="4.7893">
        <ele>470</ele>
        <time>2014-02-16T10:56:24Z</time>
      </trkpt>
      <trkpt lat="45.84674" lon="4.7893">
        <ele>470</ele>
        <time>2014-02-16T10:56:32Z</time>
      </trkpt>
      <trkpt lat="45.84674" lon="4.78928">
        <ele>470</ele>
        <time>2014-02-16T10:56:37Z</time>
      </trkpt>
      <trkpt lat="45.84676" lon="4.78929">
        <ele>470</ele>
        <time>2014-02-16T10:56:54Z</time>
      </trkpt>
      <trkpt lat="45.84678" lon="4.78931">
        <ele>470</ele>
        <time>2014-02-16T10:56:58Z</time>
      </trkpt>
      <trkpt lat="45.84682" lon="4.7893">
        <ele>470</ele>
        <time>2014-02-16T10:57:04Z</time>
      </trkpt>
      <trkpt lat="45.84685" lon="4.78928">
        <ele>470</ele>
        <time>2014-02-16T10:57:10Z</time>
      </trkpt>
      <trkpt lat="45.84686" lon="4.78926">
        <ele>470</ele>
        <time>2014-02-16T10:57:11Z</time>
      </trkpt>
      <trkpt lat="45.84687" lon="4.78924">
        <ele>470</ele>
        <time>2014-02-16T10:57:16Z</time>
      </trkpt>
      <trkpt lat="45.84687" lon="4.7892">
        <ele>470</ele>
        <time>2014-02-16T10:57:20Z</time>
      </trkpt>
      <trkpt lat="45.84688" lon="4.78922">
        <ele>470</ele>
        <time>2014-02-16T10:57:23Z</time>
      </trkpt>
      <trkpt lat="45.84688" lon="4.78918">
        <ele>469</ele>
        <time>2014-02-16T10:57:31Z</time>
      </trkpt>
      <trkpt lat="45.84689" lon="4.7891">
        <ele>471</ele>
        <time>2014-02-16T10:57:36Z</time>
      </trkpt>
      <trkpt lat="45.84691" lon="4.78908">
        <ele>471</ele>
        <time>2014-02-16T10:57:37Z</time>
      </trkpt>
      <trkpt lat="45.84695" lon="4.78908">
        <ele>471</ele>
        <time>2014-02-16T10:57:39Z</time>
      </trkpt>
      <trkpt lat="45.84696" lon="4.78909">
        <ele>471</ele>
        <time>2014-02-16T10:57:41Z</time>
      </trkpt>
      <trkpt lat="45.84696" lon="4.7891">
        <ele>471</ele>
        <time>2014-02-16T10:57:44Z</time>
      </trkpt>
      <trkpt lat="45.84702" lon="4.78912">
        <ele>471</ele>
        <time>2014-02-16T10:57:49Z</time>
      </trkpt>
      <trkpt lat="45.84712" lon="4.78916">
        <ele>471</ele>
        <time>2014-02-16T10:57:56Z</time>
      </trkpt>
      <trkpt lat="45.84714" lon="4.78917">
        <ele>468</ele>
        <time>2014-02-16T10:57:57Z</time>
      </trkpt>
      <trkpt lat="45.8472" lon="4.78922">
        <ele>468</ele>
        <time>2014-02-16T10:58:02Z</time>
      </trkpt>
      <trkpt lat="45.8473" lon="4.78929">
        <ele>468</ele>
        <time>2014-02-16T10:58:10Z</time>
      </trkpt>
      <trkpt lat="45.84733" lon="4.78932">
        <ele>468</ele>
        <time>2014-02-16T10:58:12Z</time>
      </trkpt>
      <trkpt lat="45.84739" lon="4.78935">
        <ele>467</ele>
        <time>2014-02-16T10:58:16Z</time>
      </trkpt>
      <trkpt lat="45.84741" lon="4.78935">
        <ele>467</ele>
        <time>2014-02-16T10:58:17Z</time>
      </trkpt>
      <trkpt lat="45.84747" lon="4.78931">
        <ele>467</ele>
        <time>2014-02-16T10:58:21Z</time>
      </trkpt>
      <trkpt lat="45.84748" lon="4.7893">
        <ele>466</ele>
        <time>2014-02-16T10:58:22Z</time>
      </trkpt>
      <trkpt lat="45.8475" lon="4.78932">
        <ele>467</ele>
        <time>2014-02-16T10:58:25Z</time>
      </trkpt>
      <trkpt lat="45.84746" lon="4.78937">
        <ele>467</ele>
        <time>2014-02-16T10:58:29Z</time>
      </trkpt>
      <trkpt lat="45.8474" lon="4.78946">
        <ele>468</ele>
        <time>2014-02-16T10:58:34Z</time>
      </trkpt>
      <trkpt lat="45.84739" lon="4.7895">
        <ele>468</ele>
        <time>2014-02-16T10:58:36Z</time>
      </trkpt>
      <trkpt lat="45.84738" lon="4.78952">
        <ele>469</ele>
        <time>2014-02-16T10:58:37Z</time>
      </trkpt>
      <trkpt lat="45.84735" lon="4.78957">
        <ele>469</ele>
        <time>2014-02-16T10:58:40Z</time>
      </trkpt>
      <trkpt lat="45.84733" lon="4.78964">
        <ele>469</ele>
        <time>2014-02-16T10:58:44Z</time>
      </trkpt>
      <trkpt lat="45.84735" lon="4.78969">
        <ele>469</ele>
        <time>2014-02-16T10:58:47Z</time>
      </trkpt>
      <trkpt lat="45.84736" lon="4.78972">
        <ele>469</ele>
        <time>2014-02-16T10:58:50Z</time>
      </trkpt>
      <trkpt lat="45.84739" lon="4.78978">
        <ele>469</ele>
        <time>2014-02-16T10:58:54Z</time>
      </trkpt>
      <trkpt lat="45.84739" lon="4.78987">
        <ele>469</ele>
        <time>2014-02-16T10:58:59Z</time>
      </trkpt>
      <trkpt lat="45.84739" lon="4.78988">
        <ele>469</ele>
        <time>2014-02-16T10:59:00Z</time>
      </trkpt>
      <trkpt lat="45.8474" lon="4.78996">
        <ele>468</ele>
        <time>2014-02-16T10:59:03Z</time>
      </trkpt>
      <trkpt lat="45.8474" lon="4.78998">
        <ele>468</ele>
        <time>2014-02-16T10:59:04Z</time>
      </trkpt>
      <trkpt lat="45.8474" lon="4.79">
        <ele>468</ele>
        <time>2014-02-16T10:59:05Z</time>
      </trkpt>
      <trkpt lat="45.84741" lon="4.79003">
        <ele>471</ele>
        <time>2014-02-16T10:59:07Z</time>
      </trkpt>
      <trkpt lat="45.84742" lon="4.79007">
        <ele>471</ele>
        <time>2014-02-16T10:59:09Z</time>
      </trkpt>
      <trkpt lat="45.84743" lon="4.7901">
        <ele>472</ele>
        <time>2014-02-16T10:59:11Z</time>
      </trkpt>
      <trkpt lat="45.84743" lon="4.79016">
        <ele>473</ele>
        <time>2014-02-16T10:59:15Z</time>
      </trkpt>
      <trkpt lat="45.84744" lon="4.79026">
        <ele>474</ele>
        <time>2014-02-16T10:59:21Z</time>
      </trkpt>
      <trkpt lat="45.84748" lon="4.79029">
        <ele>475</ele>
        <time>2014-02-16T10:59:26Z</time>
      </trkpt>
      <trkpt lat="45.84754" lon="4.79033">
        <ele>465</ele>
        <time>2014-02-16T10:59:37Z</time>
      </trkpt>
      <trkpt lat="45.84756" lon="4.79036">
        <ele>465</ele>
        <time>2014-02-16T10:59:43Z</time>
      </trkpt>
      <trkpt lat="45.84758" lon="4.79043">
        <ele>465</ele>
        <time>2014-02-16T10:59:49Z</time>
      </trkpt>
      <trkpt lat="45.84762" lon="4.79046">
        <ele>465</ele>
        <time>2014-02-16T10:59:55Z</time>
      </trkpt>
      <trkpt lat="45.84765" lon="4.79044">
        <ele>465</ele>
        <time>2014-02-16T11:00:03Z</time>
      </trkpt>
      <trkpt lat="45.84766" lon="4.79045">
        <ele>465</ele>
        <time>2014-02-16T11:00:04Z</time>
      </trkpt>
      <trkpt lat="45.84769" lon="4.79043">
        <ele>464</ele>
        <time>2014-02-16T11:00:09Z</time>
      </trkpt>
      <trkpt lat="45.8477" lon="4.79042">
        <ele>464</ele>
        <time>2014-02-16T11:00:10Z</time>
      </trkpt>
      <trkpt lat="45.84774" lon="4.79038">
        <ele>464</ele>
        <time>2014-02-16T11:00:14Z</time>
      </trkpt>
      <trkpt lat="45.84776" lon="4.79037">
        <ele>463</ele>
        <time>2014-02-16T11:00:18Z</time>
      </trkpt>
      <trkpt lat="45.84776" lon="4.79035">
        <ele>463</ele>
        <time>2014-02-16T11:00:22Z</time>
      </trkpt>
      <trkpt lat="45.84778" lon="4.79033">
        <ele>463</ele>
        <time>2014-02-16T11:00:23Z</time>
      </trkpt>
      <trkpt lat="45.84782" lon="4.7903">
        <ele>463</ele>
        <time>2014-02-16T11:00:27Z</time>
      </trkpt>
      <trkpt lat="45.84784" lon="4.7903">
        <ele>463</ele>
        <time>2014-02-16T11:00:29Z</time>
      </trkpt>
      <trkpt lat="45.84785" lon="4.79032">
        <ele>462</ele>
        <time>2014-02-16T11:00:34Z</time>
      </trkpt>
      <trkpt lat="45.84789" lon="4.7903">
        <ele>462</ele>
        <time>2014-02-16T11:00:40Z</time>
      </trkpt>
      <trkpt lat="45.8479" lon="4.7903">
        <ele>462</ele>
        <time>2014-02-16T11:00:42Z</time>
      </trkpt>
      <trkpt lat="45.84791" lon="4.79028">
        <ele>462</ele>
        <time>2014-02-16T11:00:44Z</time>
      </trkpt>
      <trkpt lat="45.84794" lon="4.79023">
        <ele>461</ele>
        <time>2014-02-16T11:00:49Z</time>
      </trkpt>
      <trkpt lat="45.84797" lon="4.79019">
        <ele>461</ele>
        <time>2014-02-16T11:00:51Z</time>
      </trkpt>
      <trkpt lat="45.84799" lon="4.79017">
        <ele>461</ele>
        <time>2014-02-16T11:00:53Z</time>
      </trkpt>
      <trkpt lat="45.84802" lon="4.79013">
        <ele>460</ele>
        <time>2014-02-16T11:00:56Z</time>
      </trkpt>
      <trkpt lat="45.84802" lon="4.7901">
        <ele>460</ele>
        <time>2014-02-16T11:00:58Z</time>
      </trkpt>
      <trkpt lat="45.84805" lon="4.79007">
        <ele>460</ele>
        <time>2014-02-16T11:01:02Z</time>
      </trkpt>
      <trkpt lat="45.84807" lon="4.79">
        <ele>461</ele>
        <time>2014-02-16T11:01:06Z</time>
      </trkpt>
      <trkpt lat="45.84808" lon="4.78997">
        <ele>461</ele>
        <time>2014-02-16T11:01:08Z</time>
      </trkpt>
      <trkpt lat="45.8481" lon="4.78997">
        <ele>460</ele>
        <time>2014-02-16T11:01:13Z</time>
      </trkpt>
      <trkpt lat="45.8481" lon="4.78998">
        <ele>460</ele>
        <time>2014-02-16T11:01:14Z</time>
      </trkpt>
      <trkpt lat="45.84809" lon="4.79003">
        <ele>459</ele>
        <time>2014-02-16T11:01:16Z</time>
      </trkpt>
      <trkpt lat="45.8481" lon="4.79006">
        <ele>459</ele>
        <time>2014-02-16T11:01:18Z</time>
      </trkpt>
      <trkpt lat="45.8481" lon="4.79008">
        <ele>459</ele>
        <time>2014-02-16T11:01:19Z</time>
      </trkpt>
      <trkpt lat="45.8481" lon="4.79013">
        <ele>459</ele>
        <time>2014-02-16T11:01:22Z</time>
      </trkpt>
      <trkpt lat="45.84809" lon="4.79012">
        <ele>459</ele>
        <time>2014-02-16T11:01:25Z</time>
      </trkpt>
      <trkpt lat="45.84808" lon="4.79011">
        <ele>459</ele>
        <time>2014-02-16T11:01:27Z</time>
      </trkpt>
      <trkpt lat="45.84806" lon="4.79006">
        <ele>460</ele>
        <time>2014-02-16T11:01:30Z</time>
      </trkpt>
      <trkpt lat="45.84805" lon="4.79">
        <ele>461</ele>
        <time>2014-02-16T11:01:32Z</time>
      </trkpt>
      <trkpt lat="45.84804" lon="4.78996">
        <ele>461</ele>
        <time>2014-02-16T11:01:33Z</time>
      </trkpt>
      <trkpt lat="45.84801" lon="4.7899">
        <ele>462</ele>
        <time>2014-02-16T11:01:35Z</time>
      </trkpt>
      <trkpt lat="45.84793" lon="4.78975">
        <ele>463</ele>
        <time>2014-02-16T11:01:39Z</time>
      </trkpt>
      <trkpt lat="45.84791" lon="4.78972">
        <ele>464</ele>
        <time>2014-02-16T11:01:40Z</time>
      </trkpt>
      <trkpt lat="45.84782" lon="4.78964">
        <ele>464</ele>
        <time>2014-02-16T11:01:45Z</time>
      </trkpt>
      <trkpt lat="45.84778" lon="4.78956">
        <ele>464</ele>
        <time>2014-02-16T11:01:50Z</time>
      </trkpt>
      <trkpt lat="45.84777" lon="4.78952">
        <ele>465</ele>
        <time>2014-02-16T11:01:52Z</time>
      </trkpt>
      <trkpt lat="45.84777" lon="4.78939">
        <ele>465</ele>
        <time>2014-02-16T11:01:56Z</time>
      </trkpt>
      <trkpt lat="45.84782" lon="4.7894">
        <ele>465</ele>
        <time>2014-02-16T11:01:58Z</time>
      </trkpt>
      <trkpt lat="45.84785" lon="4.78942">
        <ele>465</ele>
        <time>2014-02-16T11:01:59Z</time>
      </trkpt>
      <trkpt lat="45.84787" lon="4.78945">
        <ele>465</ele>
        <time>2014-02-16T11:02:00Z</time>
      </trkpt>
      <trkpt lat="45.8479" lon="4.78948">
        <ele>465</ele>
        <time>2014-02-16T11:02:02Z</time>
      </trkpt>
      <trkpt lat="45.84794" lon="4.78951">
        <ele>465</ele>
        <time>2014-02-16T11:02:04Z</time>
      </trkpt>
      <trkpt lat="45.84795" lon="4.78954">
        <ele>464</ele>
        <time>2014-02-16T11:02:06Z</time>
      </trkpt>
      <trkpt lat="45.84793" lon="4.78954">
        <ele>464</ele>
        <time>2014-02-16T11:02:08Z</time>
      </trkpt>
      <trkpt lat="45.8479" lon="4.78952">
        <ele>465</ele>
        <time>2014-02-16T11:02:10Z</time>
      </trkpt>
      <trkpt lat="45.84782" lon="4.78945">
        <ele>465</ele>
        <time>2014-02-16T11:02:16Z</time>
      </trkpt>
      <trkpt lat="45.84781" lon="4.78944">
        <ele>465</ele>
        <time>2014-02-16T11:02:17Z</time>
      </trkpt>
      <trkpt lat="45.84776" lon="4.78937">
        <ele>465</ele>
        <time>2014-02-16T11:02:25Z</time>
      </trkpt>
      <trkpt lat="45.84775" lon="4.78937">
        <ele>465</ele>
        <time>2014-02-16T11:02:31Z</time>
      </trkpt>
      <trkpt lat="45.84774" lon="4.78935">
        <ele>465</ele>
        <time>2014-02-16T11:02:33Z</time>
      </trkpt>
      <trkpt lat="45.84776" lon="4.78932">
        <ele>465</ele>
        <time>2014-02-16T11:02:35Z</time>
      </trkpt>
      <trkpt lat="45.84782" lon="4.78933">
        <ele>465</ele>
        <time>2014-02-16T11:02:40Z</time>
      </trkpt>
      <trkpt lat="45.84789" lon="4.78935">
        <ele>465</ele>
        <time>2014-02-16T11:02:45Z</time>
      </trkpt>
      <trkpt lat="45.8479" lon="4.78937">
        <ele>465</ele>
        <time>2014-02-16T11:02:46Z</time>
      </trkpt>
      <trkpt lat="45.84793" lon="4.78938">
        <ele>465</ele>
        <time>2014-02-16T11:02:49Z</time>
      </trkpt>
      <trkpt lat="45.84794" lon="4.78937">
        <ele>465</ele>
        <time>2014-02-16T11:02:50Z</time>
      </trkpt>
      <trkpt lat="45.84798" lon="4.78937">
        <ele>465</ele>
        <time>2014-02-16T11:02:53Z</time>
      </trkpt>
      <trkpt lat="45.848" lon="4.78937">
        <ele>465</ele>
        <time>2014-02-16T11:02:54Z</time>
      </trkpt>
      <trkpt lat="45.84807" lon="4.78937">
        <ele>466</ele>
        <time>2014-02-16T11:02:58Z</time>
      </trkpt>
      <trkpt lat="45.84813" lon="4.78938">
        <ele>466</ele>
        <time>2014-02-16T11:03:02Z</time>
      </trkpt>
      <trkpt lat="45.84819" lon="4.7894">
        <ele>466</ele>
        <time>2014-02-16T11:03:08Z</time>
      </trkpt>
      <trkpt lat="45.84824" lon="4.78942">
        <ele>466</ele>
        <time>2014-02-16T11:03:13Z</time>
      </trkpt>
      <trkpt lat="45.84825" lon="4.78943">
        <ele>466</ele>
        <time>2014-02-16T11:03:14Z</time>
      </trkpt>
      <trkpt lat="45.84826" lon="4.78943">
        <ele>466</ele>
        <time>2014-02-16T11:03:15Z</time>
      </trkpt>
      <trkpt lat="45.84827" lon="4.78944">
        <ele>466</ele>
        <time>2014-02-16T11:03:19Z</time>
      </trkpt>
      <trkpt lat="45.84831" lon="4.78947">
        <ele>465</ele>
        <time>2014-02-16T11:03:27Z</time>
      </trkpt>
      <trkpt lat="45.84835" lon="4.78952">
        <ele>467</ele>
        <time>2014-02-16T11:03:32Z</time>
      </trkpt>
      <trkpt lat="45.84839" lon="4.78957">
        <ele>467</ele>
        <time>2014-02-16T11:03:37Z</time>
      </trkpt>
      <trkpt lat="45.84839" lon="4.7896">
        <ele>466</ele>
        <time>2014-02-16T11:03:39Z</time>
      </trkpt>
      <trkpt lat="45.84841" lon="4.78963">
        <ele>466</ele>
        <time>2014-02-16T11:03:41Z</time>
      </trkpt>
      <trkpt lat="45.84842" lon="4.78964">
        <ele>466</ele>
        <time>2014-02-16T11:03:42Z</time>
      </trkpt>
      <trkpt lat="45.84844" lon="4.78965">
        <ele>465</ele>
        <time>2014-02-16T11:03:43Z</time>
      </trkpt>
      <trkpt lat="45.84847" lon="4.78971">
        <ele>465</ele>
        <time>2014-02-16T11:03:48Z</time>
      </trkpt>
      <trkpt lat="45.84847" lon="4.78974">
        <ele>464</ele>
        <time>2014-02-16T11:03:52Z</time>
      </trkpt>
      <trkpt lat="45.84847" lon="4.78976">
        <ele>464</ele>
        <time>2014-02-16T11:03:54Z</time>
      </trkpt>
      <trkpt lat="45.84848" lon="4.78979">
        <ele>463</ele>
        <time>2014-02-16T11:03:56Z</time>
      </trkpt>
      <trkpt lat="45.84852" lon="4.78983">
        <ele>463</ele>
        <time>2014-02-16T11:03:58Z</time>
      </trkpt>
      <trkpt lat="45.84861" lon="4.7899">
        <ele>464</ele>
        <time>2014-02-16T11:04:03Z</time>
      </trkpt>
      <trkpt lat="45.84862" lon="4.78994">
        <ele>464</ele>
        <time>2014-02-16T11:04:05Z</time>
      </trkpt>
      <trkpt lat="45.84861" lon="4.79">
        <ele>463</ele>
        <time>2014-02-16T11:04:08Z</time>
      </trkpt>
      <trkpt lat="45.8486" lon="4.79002">
        <ele>457</ele>
        <time>2014-02-16T11:04:09Z</time>
      </trkpt>
      <trkpt lat="45.84862" lon="4.79003">
        <ele>457</ele>
        <time>2014-02-16T11:04:10Z</time>
      </trkpt>
      <trkpt lat="45.84863" lon="4.79012">
        <ele>457</ele>
        <time>2014-02-16T11:04:13Z</time>
      </trkpt>
      <trkpt lat="45.84864" lon="4.79019">
        <ele>457</ele>
        <time>2014-02-16T11:04:15Z</time>
      </trkpt>
      <trkpt lat="45.84866" lon="4.79029">
        <ele>457</ele>
        <time>2014-02-16T11:04:18Z</time>
      </trkpt>
      <trkpt lat="45.84871" lon="4.79038">
        <ele>457</ele>
        <time>2014-02-16T11:04:22Z</time>
      </trkpt>
      <trkpt lat="45.84872" lon="4.79039">
        <ele>457</ele>
        <time>2014-02-16T11:04:23Z</time>
      </trkpt>
      <trkpt lat="45.84874" lon="4.79043">
        <ele>457</ele>
        <time>2014-02-16T11:04:25Z</time>
      </trkpt>
      <trkpt lat="45.84875" lon="4.79045">
        <ele>457</ele>
        <time>2014-02-16T11:04:26Z</time>
      </trkpt>
      <trkpt lat="45.84877" lon="4.79048">
        <ele>457</ele>
        <time>2014-02-16T11:04:28Z</time>
      </trkpt>
      <trkpt lat="45.8488" lon="4.79054">
        <ele>457</ele>
        <time>2014-02-16T11:04:32Z</time>
      </trkpt>
      <trkpt lat="45.84881" lon="4.79058">
        <ele>457</ele>
        <time>2014-02-16T11:04:34Z</time>
      </trkpt>
      <trkpt lat="45.84883" lon="4.79061">
        <ele>457</ele>
        <time>2014-02-16T11:04:36Z</time>
      </trkpt>
      <trkpt lat="45.84884" lon="4.79064">
        <ele>457</ele>
        <time>2014-02-16T11:04:38Z</time>
      </trkpt>
      <trkpt lat="45.84886" lon="4.79067">
        <ele>457</ele>
        <time>2014-02-16T11:04:40Z</time>
      </trkpt>
      <trkpt lat="45.84889" lon="4.79073">
        <ele>457</ele>
        <time>2014-02-16T11:04:43Z</time>
      </trkpt>
      <trkpt lat="45.84891" lon="4.79079">
        <ele>457</ele>
        <time>2014-02-16T11:04:46Z</time>
      </trkpt>
      <trkpt lat="45.84892" lon="4.79086">
        <ele>454</ele>
        <time>2014-02-16T11:04:50Z</time>
      </trkpt>
      <trkpt lat="45.84892" lon="4.79088">
        <ele>454</ele>
        <time>2014-02-16T11:04:51Z</time>
      </trkpt>
      <trkpt lat="45.84891" lon="4.791">
        <ele>454</ele>
        <time>2014-02-16T11:04:55Z</time>
      </trkpt>
      <trkpt lat="45.84888" lon="4.79113">
        <ele>453</ele>
        <time>2014-02-16T11:05:00Z</time>
      </trkpt>
      <trkpt lat="45.84888" lon="4.79116">
        <ele>453</ele>
        <time>2014-02-16T11:05:01Z</time>
      </trkpt>
      <trkpt lat="45.84888" lon="4.79125">
        <ele>453</ele>
        <time>2014-02-16T11:05:04Z</time>
      </trkpt>
      <trkpt lat="45.84888" lon="4.79127">
        <ele>453</ele>
        <time>2014-02-16T11:05:05Z</time>
      </trkpt>
      <trkpt lat="45.8489" lon="4.79136">
        <ele>453</ele>
        <time>2014-02-16T11:05:09Z</time>
      </trkpt>
      <trkpt lat="45.84892" lon="4.79139">
        <ele>452</ele>
        <time>2014-02-16T11:05:15Z</time>
      </trkpt>
      <trkpt lat="45.84891" lon="4.79137">
        <ele>452</ele>
        <time>2014-02-16T11:05:16Z</time>
      </trkpt>
      <trkpt lat="45.84889" lon="4.79132">
        <ele>453</ele>
        <time>2014-02-16T11:05:19Z</time>
      </trkpt>
      <trkpt lat="45.84886" lon="4.79124">
        <ele>453</ele>
        <time>2014-02-16T11:05:26Z</time>
      </trkpt>
      <trkpt lat="45.84886" lon="4.79123">
        <ele>453</ele>
        <time>2014-02-16T11:05:27Z</time>
      </trkpt>
      <trkpt lat="45.84884" lon="4.79122">
        <ele>453</ele>
        <time>2014-02-16T11:05:35Z</time>
      </trkpt>
      <trkpt lat="45.84883" lon="4.79123">
        <ele>453</ele>
        <time>2014-02-16T11:05:39Z</time>
      </trkpt>
      <trkpt lat="45.84882" lon="4.79128">
        <ele>453</ele>
        <time>2014-02-16T11:05:42Z</time>
      </trkpt>
      <trkpt lat="45.84882" lon="4.79129">
        <ele>453</ele>
        <time>2014-02-16T11:05:43Z</time>
      </trkpt>
      <trkpt lat="45.84883" lon="4.79139">
        <ele>453</ele>
        <time>2014-02-16T11:05:49Z</time>
      </trkpt>
      <trkpt lat="45.84884" lon="4.79145">
        <ele>452</ele>
        <time>2014-02-16T11:05:52Z</time>
      </trkpt>
      <trkpt lat="45.84885" lon="4.79154">
        <ele>452</ele>
        <time>2014-02-16T11:05:56Z</time>
      </trkpt>
      <trkpt lat="45.84886" lon="4.79158">
        <ele>452</ele>
        <time>2014-02-16T11:05:57Z</time>
      </trkpt>
      <trkpt lat="45.84887" lon="4.79178">
        <ele>450</ele>
        <time>2014-02-16T11:06:03Z</time>
      </trkpt>
      <trkpt lat="45.84887" lon="4.79181">
        <ele>450</ele>
        <time>2014-02-16T11:06:04Z</time>
      </trkpt>
      <trkpt lat="45.84887" lon="4.79192">
        <ele>450</ele>
        <time>2014-02-16T11:06:08Z</time>
      </trkpt>
      <trkpt lat="45.84887" lon="4.79207">
        <ele>450</ele>
        <time>2014-02-16T11:06:13Z</time>
      </trkpt>
      <trkpt lat="45.84888" lon="4.79223">
        <ele>450</ele>
        <time>2014-02-16T11:06:18Z</time>
      </trkpt>
      <trkpt lat="45.8489" lon="4.79234">
        <ele>450</ele>
        <time>2014-02-16T11:06:22Z</time>
      </trkpt>
      <trkpt lat="45.84891" lon="4.79239">
        <ele>450</ele>
        <time>2014-02-16T11:06:24Z</time>
      </trkpt>
      <trkpt lat="45.84893" lon="4.79242">
        <ele>451</ele>
        <time>2014-02-16T11:06:27Z</time>
      </trkpt>
      <trkpt lat="45.84894" lon="4.79242">
        <ele>451</ele>
        <time>2014-02-16T11:06:29Z</time>
      </trkpt>
      <trkpt lat="45.84893" lon="4.79243">
        <ele>451</ele>
        <time>2014-02-16T11:06:37Z</time>
      </trkpt>
      <trkpt lat="45.84891" lon="4.79243">
        <ele>450</ele>
        <time>2014-02-16T11:06:41Z</time>
      </trkpt>
      <trkpt lat="45.84889" lon="4.79243">
        <ele>450</ele>
        <time>2014-02-16T11:07:00Z</time>
      </trkpt>
      <trkpt lat="45.8489" lon="4.79247">
        <ele>450</ele>
        <time>2014-02-16T11:07:02Z</time>
      </trkpt>
      <trkpt lat="45.84891" lon="4.79248">
        <ele>450</ele>
        <time>2014-02-16T11:07:03Z</time>
      </trkpt>
      <trkpt lat="45.84893" lon="4.79252">
        <ele>448</ele>
        <time>2014-02-16T11:07:05Z</time>
      </trkpt>
      <trkpt lat="45.84898" lon="4.79261">
        <ele>448</ele>
        <time>2014-02-16T11:07:10Z</time>
      </trkpt>
      <trkpt lat="45.84899" lon="4.79262">
        <ele>448</ele>
        <time>2014-02-16T11:07:11Z</time>
      </trkpt>
      <trkpt lat="45.84903" lon="4.79267">
        <ele>448</ele>
        <time>2014-02-16T11:07:15Z</time>
      </trkpt>
      <trkpt lat="45.84904" lon="4.79269">
        <ele>448</ele>
        <time>2014-02-16T11:07:16Z</time>
      </trkpt>
      <trkpt lat="45.84906" lon="4.79273">
        <ele>448</ele>
        <time>2014-02-16T11:07:20Z</time>
      </trkpt>
      <trkpt lat="45.84909" lon="4.79276">
        <ele>447</ele>
        <time>2014-02-16T11:07:23Z</time>
      </trkpt>
      <trkpt lat="45.84911" lon="4.79279">
        <ele>447</ele>
        <time>2014-02-16T11:07:25Z</time>
      </trkpt>
      <trkpt lat="45.84914" lon="4.79284">
        <ele>447</ele>
        <time>2014-02-16T11:07:29Z</time>
      </trkpt>
      <trkpt lat="45.84916" lon="4.79285">
        <ele>447</ele>
        <time>2014-02-16T11:07:30Z</time>
      </trkpt>
      <trkpt lat="45.84918" lon="4.79288">
        <ele>452</ele>
        <time>2014-02-16T11:07:34Z</time>
      </trkpt>
      <trkpt lat="45.84918" lon="4.79289">
        <ele>452</ele>
        <time>2014-02-16T11:07:35Z</time>
      </trkpt>
      <trkpt lat="45.8492" lon="4.79291">
        <ele>452</ele>
        <time>2014-02-16T11:07:41Z</time>
      </trkpt>
      <trkpt lat="45.84921" lon="4.79292">
        <ele>452</ele>
        <time>2014-02-16T11:07:42Z</time>
      </trkpt>
      <trkpt lat="45.84929" lon="4.79296">
        <ele>452</ele>
        <time>2014-02-16T11:07:47Z</time>
      </trkpt>
      <trkpt lat="45.84931" lon="4.79297">
        <ele>452</ele>
        <time>2014-02-16T11:07:49Z</time>
      </trkpt>
      <trkpt lat="45.84935" lon="4.79299">
        <ele>452</ele>
        <time>2014-02-16T11:07:53Z</time>
      </trkpt>
      <trkpt lat="45.84944" lon="4.793">
        <ele>453</ele>
        <time>2014-02-16T11:08:00Z</time>
      </trkpt>
      <trkpt lat="45.84947" lon="4.793">
        <ele>453</ele>
        <time>2014-02-16T11:08:03Z</time>
      </trkpt>
      <trkpt lat="45.84949" lon="4.79301">
        <ele>453</ele>
        <time>2014-02-16T11:08:04Z</time>
      </trkpt>
      <trkpt lat="45.84951" lon="4.79302">
        <ele>454</ele>
        <time>2014-02-16T11:08:06Z</time>
      </trkpt>
      <trkpt lat="45.84952" lon="4.79303">
        <ele>454</ele>
        <time>2014-02-16T11:08:08Z</time>
      </trkpt>
      <trkpt lat="45.84953" lon="4.79303">
        <ele>454</ele>
        <time>2014-02-16T11:08:09Z</time>
      </trkpt>
      <trkpt lat="45.84957" lon="4.79304">
        <ele>454</ele>
        <time>2014-02-16T11:08:11Z</time>
      </trkpt>
      <trkpt lat="45.84961" lon="4.79307">
        <ele>454</ele>
        <time>2014-02-16T11:08:16Z</time>
      </trkpt>
      <trkpt lat="45.84967" lon="4.79308">
        <ele>455</ele>
        <time>2014-02-16T11:08:33Z</time>
      </trkpt>
      <trkpt lat="45.84968" lon="4.7931">
        <ele>455</ele>
        <time>2014-02-16T11:08:35Z</time>
      </trkpt>
      <trkpt lat="45.84969" lon="4.79315">
        <ele>455</ele>
        <time>2014-02-16T11:08:38Z</time>
      </trkpt>
      <trkpt lat="45.8497" lon="4.79317">
        <ele>455</ele>
        <time>2014-02-16T11:08:39Z</time>
      </trkpt>
      <trkpt lat="45.84974" lon="4.7932">
        <ele>455</ele>
        <time>2014-02-16T11:08:43Z</time>
      </trkpt>
      <trkpt lat="45.84975" lon="4.79323">
        <ele>456</ele>
        <time>2014-02-16T11:08:49Z</time>
      </trkpt>
      <trkpt lat="45.84977" lon="4.79327">
        <ele>456</ele>
        <time>2014-02-16T11:08:53Z</time>
      </trkpt>
      <trkpt lat="45.84978" lon="4.79327">
        <ele>456</ele>
        <time>2014-02-16T11:08:55Z</time>
      </trkpt>
      <trkpt lat="45.84983" lon="4.79331">
        <ele>456</ele>
        <time>2014-02-16T11:09:02Z</time>
      </trkpt>
      <trkpt lat="45.84984" lon="4.79332">
        <ele>457</ele>
        <time>2014-02-16T11:09:06Z</time>
      </trkpt>
      <trkpt lat="45.84986" lon="4.79331">
        <ele>457</ele>
        <time>2014-02-16T11:09:08Z</time>
      </trkpt>
      <trkpt lat="45.84993" lon="4.79332">
        <ele>458</ele>
        <time>2014-02-16T11:09:12Z</time>
      </trkpt>
      <trkpt lat="45.84996" lon="4.79333">
        <ele>458</ele>
        <time>2014-02-16T11:09:16Z</time>
      </trkpt>
      <trkpt lat="45.84999" lon="4.79331">
        <ele>459</ele>
        <time>2014-02-16T11:09:20Z</time>
      </trkpt>
      <trkpt lat="45.84999" lon="4.79331">
        <ele>459</ele>
        <time>2014-02-16T11:09:22Z</time>
      </trkpt>
      <trkpt lat="45.85003" lon="4.7933">
        <ele>461</ele>
        <time>2014-02-16T11:09:31Z</time>
      </trkpt>
      <trkpt lat="45.8501" lon="4.79335">
        <ele>456</ele>
        <time>2014-02-16T11:09:47Z</time>
      </trkpt>
      <trkpt lat="45.85012" lon="4.79334">
        <ele>456</ele>
        <time>2014-02-16T11:09:51Z</time>
      </trkpt>
      <trkpt lat="45.85015" lon="4.79338">
        <ele>455</ele>
        <time>2014-02-16T11:10:01Z</time>
      </trkpt>
      <trkpt lat="45.85019" lon="4.7934">
        <ele>454</ele>
        <time>2014-02-16T11:10:04Z</time>
      </trkpt>
      <trkpt lat="45.85022" lon="4.79341">
        <ele>454</ele>
        <time>2014-02-16T11:10:06Z</time>
      </trkpt>
      <trkpt lat="45.85028" lon="4.79342">
        <ele>454</ele>
        <time>2014-02-16T11:10:10Z</time>
      </trkpt>
      <trkpt lat="45.85028" lon="4.79343">
        <ele>454</ele>
        <time>2014-02-16T11:10:11Z</time>
      </trkpt>
      <trkpt lat="45.85033" lon="4.79344">
        <ele>454</ele>
        <time>2014-02-16T11:10:14Z</time>
      </trkpt>
      <trkpt lat="45.85031" lon="4.79344">
        <ele>454</ele>
        <time>2014-02-16T11:10:19Z</time>
      </trkpt>
      <trkpt lat="45.85028" lon="4.79341">
        <ele>454</ele>
        <time>2014-02-16T11:10:22Z</time>
      </trkpt>
      <trkpt lat="45.85027" lon="4.79338">
        <ele>454</ele>
        <time>2014-02-16T11:10:24Z</time>
      </trkpt>
      <trkpt lat="45.8503" lon="4.79334">
        <ele>454</ele>
        <time>2014-02-16T11:10:28Z</time>
      </trkpt>
      <trkpt lat="45.85031" lon="4.79335">
        <ele>454</ele>
        <time>2014-02-16T11:10:29Z</time>
      </trkpt>
      <trkpt lat="45.85032" lon="4.79335">
        <ele>454</ele>
        <time>2014-02-16T11:10:30Z</time>
      </trkpt>
      <trkpt lat="45.85035" lon="4.79332">
        <ele>466</ele>
        <time>2014-02-16T11:10:34Z</time>
      </trkpt>
      <trkpt lat="45.85036" lon="4.79332">
        <ele>466</ele>
        <time>2014-02-16T11:10:35Z</time>
      </trkpt>
      <trkpt lat="45.85039" lon="4.79328">
        <ele>467</ele>
        <time>2014-02-16T11:10:43Z</time>
      </trkpt>
      <trkpt lat="45.85039" lon="4.7933">
        <ele>467</ele>
        <time>2014-02-16T11:10:51Z</time>
      </trkpt>
      <trkpt lat="45.85041" lon="4.79335">
        <ele>455</ele>
        <time>2014-02-16T11:10:59Z</time>
      </trkpt>
      <trkpt lat="45.85044" lon="4.79334">
        <ele>455</ele>
        <time>2014-02-16T11:11:05Z</time>
      </trkpt>
      <trkpt lat="45.85049" lon="4.79329">
        <ele>467</ele>
        <time>2014-02-16T11:11:11Z</time>
      </trkpt>
      <trkpt lat="45.85055" lon="4.79326">
        <ele>468</ele>
        <time>2014-02-16T11:11:16Z</time>
      </trkpt>
      <trkpt lat="45.85057" lon="4.79326">
        <ele>468</ele>
        <time>2014-02-16T11:11:17Z</time>
      </trkpt>
      <trkpt lat="45.85059" lon="4.79324">
        <ele>468</ele>
        <time>2014-02-16T11:11:21Z</time>
      </trkpt>
      <trkpt lat="45.8506" lon="4.79323">
        <ele>468</ele>
        <time>2014-02-16T11:11:22Z</time>
      </trkpt>
      <trkpt lat="45.85061" lon="4.79323">
        <ele>468</ele>
        <time>2014-02-16T11:11:23Z</time>
      </trkpt>
      <trkpt lat="45.85063" lon="4.7932">
        <ele>468</ele>
        <time>2014-02-16T11:11:26Z</time>
      </trkpt>
      <trkpt lat="45.85064" lon="4.79318">
        <ele>468</ele>
        <time>2014-02-16T11:11:28Z</time>
      </trkpt>
      <trkpt lat="45.85064" lon="4.79316">
        <ele>468</ele>
        <time>2014-02-16T11:11:29Z</time>
      </trkpt>
      <trkpt lat="45.85065" lon="4.79315">
        <ele>469</ele>
        <time>2014-02-16T11:11:31Z</time>
      </trkpt>
      <trkpt lat="45.85064" lon="4.79308">
        <ele>469</ele>
        <time>2014-02-16T11:11:39Z</time>
      </trkpt>
      <trkpt lat="45.85064" lon="4.79305">
        <ele>469</ele>
        <time>2014-02-16T11:11:41Z</time>
      </trkpt>
      <trkpt lat="45.85064" lon="4.793">
        <ele>469</ele>
        <time>2014-02-16T11:11:44Z</time>
      </trkpt>
      <trkpt lat="45.85065" lon="4.79298">
        <ele>470</ele>
        <time>2014-02-16T11:11:45Z</time>
      </trkpt>
      <trkpt lat="45.85067" lon="4.79294">
        <ele>470</ele>
        <time>2014-02-16T11:11:48Z</time>
      </trkpt>
      <trkpt lat="45.85066" lon="4.79293">
        <ele>470</ele>
        <time>2014-02-16T11:11:49Z</time>
      </trkpt>
      <trkpt lat="45.85065" lon="4.79291">
        <ele>470</ele>
        <time>2014-02-16T11:11:52Z</time>
      </trkpt>
      <trkpt lat="45.85066" lon="4.79288">
        <ele>470</ele>
        <time>2014-02-16T11:11:54Z</time>
      </trkpt>
      <trkpt lat="45.85067" lon="4.79286">
        <ele>471</ele>
        <time>2014-02-16T11:11:56Z</time>
      </trkpt>
      <trkpt lat="45.85069" lon="4.79285">
        <ele>471</ele>
        <time>2014-02-16T11:11:59Z</time>
      </trkpt>
      <trkpt lat="45.8507" lon="4.79284">
        <ele>471</ele>
        <time>2014-02-16T11:12:00Z</time>
      </trkpt>
      <trkpt lat="45.85072" lon="4.79284">
        <ele>471</ele>
        <time>2014-02-16T11:12:03Z</time>
      </trkpt>
      <trkpt lat="45.85073" lon="4.79284">
        <ele>471</ele>
        <time>2014-02-16T11:12:04Z</time>
      </trkpt>
      <trkpt lat="45.85075" lon="4.79284">
        <ele>471</ele>
        <time>2014-02-16T11:12:06Z</time>
      </trkpt>
      <trkpt lat="45.85079" lon="4.79284">
        <ele>471</ele>
        <time>2014-02-16T11:12:10Z</time>
      </trkpt>
      <trkpt lat="45.85081" lon="4.79281">
        <ele>472</ele>
        <time>2014-02-16T11:12:14Z</time>
      </trkpt>
      <trkpt lat="45.85082" lon="4.7928">
        <ele>472</ele>
        <time>2014-02-16T11:12:18Z</time>
      </trkpt>
      <trkpt lat="45.85083" lon="4.7928">
        <ele>476</ele>
        <time>2014-02-16T11:12:19Z</time>
      </trkpt>
      <trkpt lat="45.85084" lon="4.79277">
        <ele>476</ele>
        <time>2014-02-16T11:12:22Z</time>
      </trkpt>
      <trkpt lat="45.85085" lon="4.79276">
        <ele>476</ele>
        <time>2014-02-16T11:12:24Z</time>
      </trkpt>
      <trkpt lat="45.85086" lon="4.79274">
        <ele>476</ele>
        <time>2014-02-16T11:12:25Z</time>
      </trkpt>
      <trkpt lat="45.8509" lon="4.79271">
        <ele>476</ele>
        <time>2014-02-16T11:12:30Z</time>
      </trkpt>
      <trkpt lat="45.85092" lon="4.79271">
        <ele>476</ele>
        <time>2014-02-16T11:12:31Z</time>
      </trkpt>
      <trkpt lat="45.85098" lon="4.79272">
        <ele>476</ele>
        <time>2014-02-16T11:12:36Z</time>
      </trkpt>
      <trkpt lat="45.85099" lon="4.79269">
        <ele>476</ele>
        <time>2014-02-16T11:12:38Z</time>
      </trkpt>
      <trkpt lat="45.85099" lon="4.79269">
        <ele>476</ele>
        <time>2014-02-16T11:12:49Z</time>
      </trkpt>
      <trkpt lat="45.85102" lon="4.79274">
        <ele>476</ele>
        <time>2014-02-16T11:13:11Z</time>
      </trkpt>
      <trkpt lat="45.85102" lon="4.79275">
        <ele>476</ele>
        <time>2014-02-16T11:13:16Z</time>
      </trkpt>
      <trkpt lat="45.851" lon="4.79272">
        <ele>476</ele>
        <time>2014-02-16T11:13:24Z</time>
      </trkpt>
      <trkpt lat="45.851" lon="4.79276">
        <ele>476</ele>
        <time>2014-02-16T11:13:38Z</time>
      </trkpt>
      <trkpt lat="45.85099" lon="4.79275">
        <ele>476</ele>
        <time>2014-02-16T11:13:43Z</time>
      </trkpt>
      <trkpt lat="45.851" lon="4.79272">
        <ele>476</ele>
        <time>2014-02-16T11:13:51Z</time>
      </trkpt>
      <trkpt lat="45.85104" lon="4.79276">
        <ele>476</ele>
        <time>2014-02-16T11:13:55Z</time>
      </trkpt>
      <trkpt lat="45.85112" lon="4.79278">
        <ele>476</ele>
        <time>2014-02-16T11:14:01Z</time>
      </trkpt>
      <trkpt lat="45.85112" lon="4.79278">
        <ele>476</ele>
        <time>2014-02-16T11:14:02Z</time>
      </trkpt>
      <trkpt lat="45.85114" lon="4.79277">
        <ele>476</ele>
        <time>2014-02-16T11:14:03Z</time>
      </trkpt>
      <trkpt lat="45.85116" lon="4.79274">
        <ele>476</ele>
        <time>2014-02-16T11:14:09Z</time>
      </trkpt>
      <trkpt lat="45.85119" lon="4.79273">
        <ele>476</ele>
        <time>2014-02-16T11:14:12Z</time>
      </trkpt>
      <trkpt lat="45.85123" lon="4.79274">
        <ele>476</ele>
        <time>2014-02-16T11:14:15Z</time>
      </trkpt>
      <trkpt lat="45.85126" lon="4.79274">
        <ele>476</ele>
        <time>2014-02-16T11:14:18Z</time>
      </trkpt>
      <trkpt lat="45.8513" lon="4.79272">
        <ele>476</ele>
        <time>2014-02-16T11:14:22Z</time>
      </trkpt>
      <trkpt lat="45.85132" lon="4.79272">
        <ele>477</ele>
        <time>2014-02-16T11:14:24Z</time>
      </trkpt>
      <trkpt lat="45.85133" lon="4.79273">
        <ele>477</ele>
        <time>2014-02-16T11:14:25Z</time>
      </trkpt>
      <trkpt lat="45.85138" lon="4.79272">
        <ele>477</ele>
        <time>2014-02-16T11:14:30Z</time>
      </trkpt>
      <trkpt lat="45.85142" lon="4.79272">
        <ele>477</ele>
        <time>2014-02-16T11:14:33Z</time>
      </trkpt>
      <trkpt lat="45.85147" lon="4.79273">
        <ele>477</ele>
        <time>2014-02-16T11:14:36Z</time>
      </trkpt>
      <trkpt lat="45.85148" lon="4.79273">
        <ele>477</ele>
        <time>2014-02-16T11:14:37Z</time>
      </trkpt>
      <trkpt lat="45.85152" lon="4.79273">
        <ele>477</ele>
        <time>2014-02-16T11:14:43Z</time>
      </trkpt>
      <trkpt lat="45.85152" lon="4.79273">
        <ele>477</ele>
        <time>2014-02-16T11:14:44Z</time>
      </trkpt>
      <trkpt lat="45.85156" lon="4.79274">
        <ele>478</ele>
        <time>2014-02-16T11:14:50Z</time>
      </trkpt>
      <trkpt lat="45.85154" lon="4.79273">
        <ele>478</ele>
        <time>2014-02-16T11:14:56Z</time>
      </trkpt>
      <trkpt lat="45.85156" lon="4.79274">
        <ele>478</ele>
        <time>2014-02-16T11:15:02Z</time>
      </trkpt>
      <trkpt lat="45.85159" lon="4.79277">
        <ele>477</ele>
        <time>2014-02-16T11:15:39Z</time>
      </trkpt>
      <trkpt lat="45.85162" lon="4.79275">
        <ele>478</ele>
        <time>2014-02-16T11:15:43Z</time>
      </trkpt>
      <trkpt lat="45.85162" lon="4.79271">
        <ele>478</ele>
        <time>2014-02-16T11:15:47Z</time>
      </trkpt>
      <trkpt lat="45.85162" lon="4.7927">
        <ele>478</ele>
        <time>2014-02-16T11:15:48Z</time>
      </trkpt>
      <trkpt lat="45.8516" lon="4.79263">
        <ele>479</ele>
        <time>2014-02-16T11:15:52Z</time>
      </trkpt>
      <trkpt lat="45.85159" lon="4.79254">
        <ele>481</ele>
        <time>2014-02-16T11:15:59Z</time>
      </trkpt>
      <trkpt lat="45.85159" lon="4.79252">
        <ele>481</ele>
        <time>2014-02-16T11:16:00Z</time>
      </trkpt>
      <trkpt lat="45.85158" lon="4.79248">
        <ele>483</ele>
        <time>2014-02-16T11:16:03Z</time>
      </trkpt>
      <trkpt lat="45.8516" lon="4.79244">
        <ele>483</ele>
        <time>2014-02-16T11:16:08Z</time>
      </trkpt>
      <trkpt lat="45.8516" lon="4.79245">
        <ele>483</ele>
        <time>2014-02-16T11:16:18Z</time>
      </trkpt>
      <trkpt lat="45.85161" lon="4.79242">
        <ele>483</ele>
        <time>2014-02-16T11:16:27Z</time>
      </trkpt>
      <trkpt lat="45.85165" lon="4.79239">
        <ele>483</ele>
        <time>2014-02-16T11:16:41Z</time>
      </trkpt>
      <trkpt lat="45.85168" lon="4.79237">
        <ele>485</ele>
        <time>2014-02-16T11:16:44Z</time>
      </trkpt>
      <trkpt lat="45.85173" lon="4.79233">
        <ele>486</ele>
        <time>2014-02-16T11:16:49Z</time>
      </trkpt>
      <trkpt lat="45.85176" lon="4.7923">
        <ele>486</ele>
        <time>2014-02-16T11:16:54Z</time>
      </trkpt>
      <trkpt lat="45.85181" lon="4.79227">
        <ele>486</ele>
        <time>2014-02-16T11:17:00Z</time>
      </trkpt>
      <trkpt lat="45.85184" lon="4.79225">
        <ele>487</ele>
        <time>2014-02-16T11:17:03Z</time>
      </trkpt>
      <trkpt lat="45.85187" lon="4.79221">
        <ele>487</ele>
        <time>2014-02-16T11:17:07Z</time>
      </trkpt>
      <trkpt lat="45.85188" lon="4.79219">
        <ele>487</ele>
        <time>2014-02-16T11:17:12Z</time>
      </trkpt>
      <trkpt lat="45.85192" lon="4.79215">
        <ele>487</ele>
        <time>2014-02-16T11:17:18Z</time>
      </trkpt>
      <trkpt lat="45.85194" lon="4.79213">
        <ele>487</ele>
        <time>2014-02-16T11:17:24Z</time>
      </trkpt>
      <trkpt lat="45.85196" lon="4.7921">
        <ele>488</ele>
        <time>2014-02-16T11:17:39Z</time>
      </trkpt>
      <trkpt lat="45.85197" lon="4.79209">
        <ele>488</ele>
        <time>2014-02-16T11:17:40Z</time>
      </trkpt>
      <trkpt lat="45.85202" lon="4.79202">
        <ele>488</ele>
        <time>2014-02-16T11:17:46Z</time>
      </trkpt>
      <trkpt lat="45.85202" lon="4.79198">
        <ele>488</ele>
        <time>2014-02-16T11:17:48Z</time>
      </trkpt>
      <trkpt lat="45.85201" lon="4.79197">
        <ele>488</ele>
        <time>2014-02-16T11:17:51Z</time>
      </trkpt>
      <trkpt lat="45.85194" lon="4.79196">
        <ele>488</ele>
        <time>2014-02-16T11:18:21Z</time>
      </trkpt>
      <trkpt lat="45.85184" lon="4.79185">
        <ele>489</ele>
        <time>2014-02-16T11:18:29Z</time>
      </trkpt>
      <trkpt lat="45.85179" lon="4.7918">
        <ele>489</ele>
        <time>2014-02-16T11:18:34Z</time>
      </trkpt>
      <trkpt lat="45.85177" lon="4.79179">
        <ele>489</ele>
        <time>2014-02-16T11:18:36Z</time>
      </trkpt>
      <trkpt lat="45.85176" lon="4.79178">
        <ele>490</ele>
        <time>2014-02-16T11:18:42Z</time>
      </trkpt>
      <trkpt lat="45.85172" lon="4.79178">
        <ele>490</ele>
        <time>2014-02-16T11:18:55Z</time>
      </trkpt>
      <trkpt lat="45.85166" lon="4.79182">
        <ele>488</ele>
        <time>2014-02-16T11:19:00Z</time>
      </trkpt>
      <trkpt lat="45.85162" lon="4.79184">
        <ele>487</ele>
        <time>2014-02-16T11:19:03Z</time>
      </trkpt>
      <trkpt lat="45.85152" lon="4.79192">
        <ele>486</ele>
        <time>2014-02-16T11:19:10Z</time>
      </trkpt>
      <trkpt lat="45.85145" lon="4.79196">
        <ele>485</ele>
        <time>2014-02-16T11:19:15Z</time>
      </trkpt>
      <trkpt lat="45.85139" lon="4.79199">
        <ele>485</ele>
        <time>2014-02-16T11:19:18Z</time>
      </trkpt>
      <trkpt lat="45.85127" lon="4.79206">
        <ele>484</ele>
        <time>2014-02-16T11:19:26Z</time>
      </trkpt>
      <trkpt lat="45.85123" lon="4.79206">
        <ele>484</ele>
        <time>2014-02-16T11:19:33Z</time>
      </trkpt>
      <trkpt lat="45.85125" lon="4.79195">
        <ele>484</ele>
        <time>2014-02-16T11:20:29Z</time>
      </trkpt>
      <trkpt lat="45.85127" lon="4.79198">
        <ele>484</ele>
        <time>2014-02-16T11:20:36Z</time>
      </trkpt>
      <trkpt lat="45.85128" lon="4.79199">
        <ele>484</ele>
        <time>2014-02-16T11:20:37Z</time>
      </trkpt>
      <trkpt lat="45.8513" lon="4.79204">
        <ele>484</ele>
        <time>2014-02-16T11:20:43Z</time>
      </trkpt>
      <trkpt lat="45.85129" lon="4.79204">
        <ele>484</ele>
        <time>2014-02-16T11:20:50Z</time>
      </trkpt>
      <trkpt lat="45.85127" lon="4.79203">
        <ele>484</ele>
        <time>2014-02-16T11:20:51Z</time>
      </trkpt>
      <trkpt lat="45.85125" lon="4.79203">
        <ele>484</ele>
        <time>2014-02-16T11:20:52Z</time>
      </trkpt>
      <trkpt lat="45.85125" lon="4.79203">
        <ele>484</ele>
        <time>2014-02-16T11:20:54Z</time>
      </trkpt>
      <trkpt lat="45.85126" lon="4.79203">
        <ele>484</ele>
        <time>2014-02-16T11:20:55Z</time>
      </trkpt>
      <trkpt lat="45.85127" lon="4.79205">
        <ele>484</ele>
        <time>2014-02-16T11:20:59Z</time>
      </trkpt>
      <trkpt lat="45.85126" lon="4.79204">
        <ele>484</ele>
        <time>2014-02-16T11:21:12Z</time>
      </trkpt>
      <trkpt lat="45.85126" lon="4.79207">
        <ele>484</ele>
        <time>2014-02-16T11:21:18Z</time>
      </trkpt>
      <trkpt lat="45.85123" lon="4.79207">
        <ele>484</ele>
        <time>2014-02-16T11:21:54Z</time>
      </trkpt>
      <trkpt lat="45.8512" lon="4.79206">
        <ele>484</ele>
        <time>2014-02-16T11:21:58Z</time>
      </trkpt>
      <trkpt lat="45.8512" lon="4.79208">
        <ele>484</ele>
        <time>2014-02-16T11:22:02Z</time>
      </trkpt>
      <trkpt lat="45.85124" lon="4.79211">
        <ele>484</ele>
        <time>2014-02-16T11:22:16Z</time>
      </trkpt>
      <trkpt lat="45.85129" lon="4.79203">
        <ele>484</ele>
        <time>2014-02-16T11:22:35Z</time>
      </trkpt>
      <trkpt lat="45.85129" lon="4.79203">
        <ele>484</ele>
        <time>2014-02-16T11:22:36Z</time>
      </trkpt>
      <trkpt lat="45.85132" lon="4.79201">
        <ele>485</ele>
        <time>2014-02-16T11:22:39Z</time>
      </trkpt>
      <trkpt lat="45.85133" lon="4.79203">
        <ele>485</ele>
        <time>2014-02-16T11:22:40Z</time>
      </trkpt>
      <trkpt lat="45.85136" lon="4.7921">
        <ele>484</ele>
        <time>2014-02-16T11:22:42Z</time>
      </trkpt>
      <trkpt lat="45.85135" lon="4.79214">
        <ele>484</ele>
        <time>2014-02-16T11:22:44Z</time>
      </trkpt>
      <trkpt lat="45.85131" lon="4.79212">
        <ele>484</ele>
        <time>2014-02-16T11:22:48Z</time>
      </trkpt>
      <trkpt lat="45.8513" lon="4.79211">
        <ele>484</ele>
        <time>2014-02-16T11:22:49Z</time>
      </trkpt>
      <trkpt lat="45.85129" lon="4.7921">
        <ele>484</ele>
        <time>2014-02-16T11:22:55Z</time>
      </trkpt>
      <trkpt lat="45.8513" lon="4.7921">
        <ele>484</ele>
        <time>2014-02-16T11:22:56Z</time>
      </trkpt>
      <trkpt lat="45.85131" lon="4.792">
        <ele>485</ele>
        <time>2014-02-16T11:23:01Z</time>
      </trkpt>
      <trkpt lat="45.85128" lon="4.7919">
        <ele>485</ele>
        <time>2014-02-16T11:23:06Z</time>
      </trkpt>
      <trkpt lat="45.85128" lon="4.79188">
        <ele>485</ele>
        <time>2014-02-16T11:23:07Z</time>
      </trkpt>
      <trkpt lat="45.85125" lon="4.79181">
        <ele>485</ele>
        <time>2014-02-16T11:23:13Z</time>
      </trkpt>
      <trkpt lat="45.85123" lon="4.7918">
        <ele>485</ele>
        <time>2014-02-16T11:23:16Z</time>
      </trkpt>
      <trkpt lat="45.85121" lon="4.79179">
        <ele>485</ele>
        <time>2014-02-16T11:23:19Z</time>
      </trkpt>
      <trkpt lat="45.8512" lon="4.79178">
        <ele>485</ele>
        <time>2014-02-16T11:23:20Z</time>
      </trkpt>
      <trkpt lat="45.8512" lon="4.79175">
        <ele>485</ele>
        <time>2014-02-16T11:23:23Z</time>
      </trkpt>
      <trkpt lat="45.8512" lon="4.79172">
        <ele>485</ele>
        <time>2014-02-16T11:23:26Z</time>
      </trkpt>
      <trkpt lat="45.8512" lon="4.79171">
        <ele>485</ele>
        <time>2014-02-16T11:23:27Z</time>
      </trkpt>
      <trkpt lat="45.85118" lon="4.7917">
        <ele>485</ele>
        <time>2014-02-16T11:23:30Z</time>
      </trkpt>
      <trkpt lat="45.85118" lon="4.7917">
        <ele>485</ele>
        <time>2014-02-16T11:23:31Z</time>
      </trkpt>
      <trkpt lat="45.85118" lon="4.79175">
        <ele>485</ele>
        <time>2014-02-16T11:23:36Z</time>
      </trkpt>
      <trkpt lat="45.85119" lon="4.7918">
        <ele>485</ele>
        <time>2014-02-16T11:23:40Z</time>
      </trkpt>
      <trkpt lat="45.85116" lon="4.79183">
        <ele>484</ele>
        <time>2014-02-16T11:23:42Z</time>
      </trkpt>
      <trkpt lat="45.85112" lon="4.79188">
        <ele>484</ele>
        <time>2014-02-16T11:23:46Z</time>
      </trkpt>
      <trkpt lat="45.85111" lon="4.79188">
        <ele>484</ele>
        <time>2014-02-16T11:23:47Z</time>
      </trkpt>
      <trkpt lat="45.85109" lon="4.79189">
        <ele>484</ele>
        <time>2014-02-16T11:23:49Z</time>
      </trkpt>
      <trkpt lat="45.85108" lon="4.79188">
        <ele>484</ele>
        <time>2014-02-16T11:23:50Z</time>
      </trkpt>
      <trkpt lat="45.85107" lon="4.79184">
        <ele>484</ele>
        <time>2014-02-16T11:23:53Z</time>
      </trkpt>
      <trkpt lat="45.85107" lon="4.79179">
        <ele>484</ele>
        <time>2014-02-16T11:23:55Z</time>
      </trkpt>
      <trkpt lat="45.85106" lon="4.79174">
        <ele>484</ele>
        <time>2014-02-16T11:23:57Z</time>
      </trkpt>
      <trkpt lat="45.85106" lon="4.79172">
        <ele>484</ele>
        <time>2014-02-16T11:23:58Z</time>
      </trkpt>
      <trkpt lat="45.85105" lon="4.79165">
        <ele>488</ele>
        <time>2014-02-16T11:24:03Z</time>
      </trkpt>
      <trkpt lat="45.85104" lon="4.79161">
        <ele>489</ele>
        <time>2014-02-16T11:24:05Z</time>
      </trkpt>
      <trkpt lat="45.85104" lon="4.7916">
        <ele>488</ele>
        <time>2014-02-16T11:24:06Z</time>
      </trkpt>
      <trkpt lat="45.85102" lon="4.79158">
        <ele>488</ele>
        <time>2014-02-16T11:24:08Z</time>
      </trkpt>
      <trkpt lat="45.85097" lon="4.79146">
        <ele>489</ele>
        <time>2014-02-16T11:24:12Z</time>
      </trkpt>
      <trkpt lat="45.85095" lon="4.79142">
        <ele>490</ele>
        <time>2014-02-16T11:24:13Z</time>
      </trkpt>
      <trkpt lat="45.85094" lon="4.79139">
        <ele>490</ele>
        <time>2014-02-16T11:24:14Z</time>
      </trkpt>
      <trkpt lat="45.8509" lon="4.79131">
        <ele>491</ele>
        <time>2014-02-16T11:24:17Z</time>
      </trkpt>
      <trkpt lat="45.85089" lon="4.79129">
        <ele>491</ele>
        <time>2014-02-16T11:24:18Z</time>
      </trkpt>
      <trkpt lat="45.85082" lon="4.79121">
        <ele>484</ele>
        <time>2014-02-16T11:24:23Z</time>
      </trkpt>
      <trkpt lat="45.85081" lon="4.79119">
        <ele>484</ele>
        <time>2014-02-16T11:24:24Z</time>
      </trkpt>
      <trkpt lat="45.85079" lon="4.79117">
        <ele>484</ele>
        <time>2014-02-16T11:24:26Z</time>
      </trkpt>
      <trkpt lat="45.85076" lon="4.79111">
        <ele>485</ele>
        <time>2014-02-16T11:24:30Z</time>
      </trkpt>
      <trkpt lat="45.85075" lon="4.79109">
        <ele>485</ele>
        <time>2014-02-16T11:24:31Z</time>
      </trkpt>
      <trkpt lat="45.85073" lon="4.79107">
        <ele>485</ele>
        <time>2014-02-16T11:24:33Z</time>
      </trkpt>
      <trkpt lat="45.85071" lon="4.79103">
        <ele>486</ele>
        <time>2014-02-16T11:24:36Z</time>
      </trkpt>
      <trkpt lat="45.8507" lon="4.791">
        <ele>486</ele>
        <time>2014-02-16T11:24:38Z</time>
      </trkpt>
      <trkpt lat="45.85069" lon="4.79099">
        <ele>486</ele>
        <time>2014-02-16T11:24:39Z</time>
      </trkpt>
      <trkpt lat="45.85068" lon="4.79097">
        <ele>487</ele>
        <time>2014-02-16T11:24:40Z</time>
      </trkpt>
      <trkpt lat="45.85067" lon="4.79096">
        <ele>487</ele>
        <time>2014-02-16T11:24:41Z</time>
      </trkpt>
      <trkpt lat="45.85065" lon="4.79089">
        <ele>487</ele>
        <time>2014-02-16T11:24:49Z</time>
      </trkpt>
      <trkpt lat="45.85066" lon="4.79086">
        <ele>488</ele>
        <time>2014-02-16T11:25:10Z</time>
      </trkpt>
      <trkpt lat="45.85066" lon="4.79085">
        <ele>488</ele>
        <time>2014-02-16T11:25:15Z</time>
      </trkpt>
      <trkpt lat="45.85067" lon="4.79088">
        <ele>488</ele>
        <time>2014-02-16T11:25:19Z</time>
      </trkpt>
      <trkpt lat="45.85071" lon="4.79087">
        <ele>489</ele>
        <time>2014-02-16T11:25:27Z</time>
      </trkpt>
      <trkpt lat="45.85073" lon="4.79087">
        <ele>490</ele>
        <time>2014-02-16T11:25:29Z</time>
      </trkpt>
      <trkpt lat="45.85075" lon="4.79087">
        <ele>491</ele>
        <time>2014-02-16T11:25:39Z</time>
      </trkpt>
      <trkpt lat="45.85073" lon="4.79086">
        <ele>490</ele>
        <time>2014-02-16T11:25:41Z</time>
      </trkpt>
      <trkpt lat="45.85067" lon="4.79083">
        <ele>494</ele>
        <time>2014-02-16T11:25:44Z</time>
      </trkpt>
      <trkpt lat="45.85062" lon="4.7908">
        <ele>493</ele>
        <time>2014-02-16T11:25:47Z</time>
      </trkpt>
      <trkpt lat="45.8506" lon="4.79078">
        <ele>493</ele>
        <time>2014-02-16T11:25:48Z</time>
      </trkpt>
      <trkpt lat="45.85059" lon="4.79076">
        <ele>493</ele>
        <time>2014-02-16T11:25:49Z</time>
      </trkpt>
      <trkpt lat="45.85056" lon="4.79072">
        <ele>492</ele>
        <time>2014-02-16T11:25:51Z</time>
      </trkpt>
      <trkpt lat="45.85052" lon="4.79068">
        <ele>492</ele>
        <time>2014-02-16T11:25:53Z</time>
      </trkpt>
      <trkpt lat="45.85043" lon="4.79058">
        <ele>491</ele>
        <time>2014-02-16T11:25:57Z</time>
      </trkpt>
      <trkpt lat="45.8504" lon="4.79054">
        <ele>491</ele>
        <time>2014-02-16T11:25:59Z</time>
      </trkpt>
      <trkpt lat="45.8504" lon="4.79051">
        <ele>491</ele>
        <time>2014-02-16T11:26:01Z</time>
      </trkpt>
      <trkpt lat="45.85036" lon="4.79045">
        <ele>491</ele>
        <time>2014-02-16T11:26:04Z</time>
      </trkpt>
      <trkpt lat="45.85032" lon="4.7904">
        <ele>491</ele>
        <time>2014-02-16T11:26:06Z</time>
      </trkpt>
      <trkpt lat="45.8503" lon="4.79038">
        <ele>491</ele>
        <time>2014-02-16T11:26:07Z</time>
      </trkpt>
      <trkpt lat="45.85027" lon="4.79033">
        <ele>491</ele>
        <time>2014-02-16T11:26:10Z</time>
      </trkpt>
      <trkpt lat="45.85025" lon="4.79025">
        <ele>492</ele>
        <time>2014-02-16T11:26:16Z</time>
      </trkpt>
      <trkpt lat="45.85027" lon="4.79022">
        <ele>492</ele>
        <time>2014-02-16T11:26:19Z</time>
      </trkpt>
      <trkpt lat="45.85027" lon="4.7902">
        <ele>492</ele>
        <time>2014-02-16T11:26:20Z</time>
      </trkpt>
      <trkpt lat="45.85028" lon="4.79014">
        <ele>492</ele>
        <time>2014-02-16T11:26:24Z</time>
      </trkpt>
      <trkpt lat="45.85028" lon="4.79013">
        <ele>492</ele>
        <time>2014-02-16T11:26:25Z</time>
      </trkpt>
      <trkpt lat="45.85025" lon="4.7901">
        <ele>492</ele>
        <time>2014-02-16T11:26:29Z</time>
      </trkpt>
      <trkpt lat="45.85023" lon="4.79009">
        <ele>492</ele>
        <time>2014-02-16T11:26:36Z</time>
      </trkpt>
      <trkpt lat="45.8502" lon="4.79006">
        <ele>491</ele>
        <time>2014-02-16T11:26:43Z</time>
      </trkpt>
      <trkpt lat="45.85015" lon="4.78998">
        <ele>495</ele>
        <time>2014-02-16T11:26:53Z</time>
      </trkpt>
      <trkpt lat="45.85012" lon="4.78995">
        <ele>495</ele>
        <time>2014-02-16T11:26:59Z</time>
      </trkpt>
      <trkpt lat="45.8501" lon="4.78984">
        <ele>496</ele>
        <time>2014-02-16T11:27:05Z</time>
      </trkpt>
      <trkpt lat="45.8501" lon="4.78983">
        <ele>496</ele>
        <time>2014-02-16T11:27:06Z</time>
      </trkpt>
      <trkpt lat="45.85012" lon="4.78982">
        <ele>497</ele>
        <time>2014-02-16T11:27:09Z</time>
      </trkpt>
      <trkpt lat="45.85014" lon="4.78981">
        <ele>497</ele>
        <time>2014-02-16T11:27:12Z</time>
      </trkpt>
      <trkpt lat="45.85014" lon="4.78978">
        <ele>497</ele>
        <time>2014-02-16T11:27:14Z</time>
      </trkpt>
      <trkpt lat="45.85014" lon="4.78972">
        <ele>498</ele>
        <time>2014-02-16T11:27:19Z</time>
      </trkpt>
      <trkpt lat="45.85013" lon="4.78971">
        <ele>498</ele>
        <time>2014-02-16T11:27:20Z</time>
      </trkpt>
      <trkpt lat="45.85012" lon="4.78965">
        <ele>499</ele>
        <time>2014-02-16T11:27:26Z</time>
      </trkpt>
      <trkpt lat="45.85012" lon="4.78963">
        <ele>499</ele>
        <time>2014-02-16T11:27:28Z</time>
      </trkpt>
      <trkpt lat="45.85007" lon="4.78956">
        <ele>499</ele>
        <time>2014-02-16T11:27:39Z</time>
      </trkpt>
      <trkpt lat="45.85006" lon="4.7895">
        <ele>499</ele>
        <time>2014-02-16T11:27:43Z</time>
      </trkpt>
      <trkpt lat="45.85006" lon="4.78948">
        <ele>499</ele>
        <time>2014-02-16T11:27:44Z</time>
      </trkpt>
      <trkpt lat="45.85006" lon="4.78943">
        <ele>499</ele>
        <time>2014-02-16T11:27:47Z</time>
      </trkpt>
      <trkpt lat="45.85007" lon="4.78941">
        <ele>499</ele>
        <time>2014-02-16T11:27:50Z</time>
      </trkpt>
      <trkpt lat="45.85007" lon="4.78939">
        <ele>499</ele>
        <time>2014-02-16T11:27:51Z</time>
      </trkpt>
      <trkpt lat="45.85006" lon="4.78933">
        <ele>499</ele>
        <time>2014-02-16T11:27:56Z</time>
      </trkpt>
      <trkpt lat="45.85005" lon="4.78932">
        <ele>499</ele>
        <time>2014-02-16T11:27:57Z</time>
      </trkpt>
      <trkpt lat="45.85006" lon="4.78927">
        <ele>499</ele>
        <time>2014-02-16T11:28:01Z</time>
      </trkpt>
      <trkpt lat="45.85006" lon="4.78926">
        <ele>499</ele>
        <time>2014-02-16T11:28:02Z</time>
      </trkpt>
      <trkpt lat="45.85006" lon="4.78919">
        <ele>498</ele>
        <time>2014-02-16T11:28:06Z</time>
      </trkpt>
      <trkpt lat="45.85006" lon="4.78917">
        <ele>498</ele>
        <time>2014-02-16T11:28:07Z</time>
      </trkpt>
      <trkpt lat="45.85005" lon="4.78913">
        <ele>499</ele>
        <time>2014-02-16T11:28:09Z</time>
      </trkpt>
      <trkpt lat="45.85005" lon="4.7891">
        <ele>499</ele>
        <time>2014-02-16T11:28:11Z</time>
      </trkpt>
      <trkpt lat="45.85004" lon="4.78906">
        <ele>500</ele>
        <time>2014-02-16T11:28:14Z</time>
      </trkpt>
      <trkpt lat="45.85004" lon="4.78902">
        <ele>501</ele>
        <time>2014-02-16T11:28:21Z</time>
      </trkpt>
      <trkpt lat="45.85009" lon="4.78899">
        <ele>501</ele>
        <time>2014-02-16T11:28:26Z</time>
      </trkpt>
      <trkpt lat="45.8501" lon="4.78896">
        <ele>502</ele>
        <time>2014-02-16T11:28:32Z</time>
      </trkpt>
      <trkpt lat="45.8501" lon="4.78895">
        <ele>502</ele>
        <time>2014-02-16T11:28:33Z</time>
      </trkpt>
      <trkpt lat="45.8501" lon="4.78893">
        <ele>502</ele>
        <time>2014-02-16T11:28:34Z</time>
      </trkpt>
      <trkpt lat="45.8501" lon="4.78892">
        <ele>502</ele>
        <time>2014-02-16T11:28:35Z</time>
      </trkpt>
      <trkpt lat="45.85008" lon="4.78889">
        <ele>502</ele>
        <time>2014-02-16T11:28:38Z</time>
      </trkpt>
      <trkpt lat="45.85006" lon="4.78888">
        <ele>502</ele>
        <time>2014-02-16T11:28:40Z</time>
      </trkpt>
      <trkpt lat="45.85006" lon="4.78886">
        <ele>502</ele>
        <time>2014-02-16T11:28:43Z</time>
      </trkpt>
      <trkpt lat="45.85004" lon="4.78885">
        <ele>502</ele>
        <time>2014-02-16T11:28:46Z</time>
      </trkpt>
      <trkpt lat="45.85002" lon="4.7888">
        <ele>502</ele>
        <time>2014-02-16T11:28:49Z</time>
      </trkpt>
      <trkpt lat="45.85001" lon="4.78876">
        <ele>503</ele>
        <time>2014-02-16T11:28:52Z</time>
      </trkpt>
      <trkpt lat="45.85001" lon="4.78872">
        <ele>503</ele>
        <time>2014-02-16T11:28:55Z</time>
      </trkpt>
      <trkpt lat="45.85001" lon="4.78871">
        <ele>503</ele>
        <time>2014-02-16T11:28:57Z</time>
      </trkpt>
      <trkpt lat="45.85002" lon="4.78869">
        <ele>503</ele>
        <time>2014-02-16T11:29:05Z</time>
      </trkpt>
      <trkpt lat="45.85003" lon="4.78875">
        <ele>503</ele>
        <time>2014-02-16T11:29:10Z</time>
      </trkpt>
      <trkpt lat="45.85004" lon="4.78877">
        <ele>503</ele>
        <time>2014-02-16T11:29:11Z</time>
      </trkpt>
      <trkpt lat="45.85006" lon="4.7888">
        <ele>503</ele>
        <time>2014-02-16T11:29:15Z</time>
      </trkpt>
      <trkpt lat="45.85008" lon="4.78884">
        <ele>502</ele>
        <time>2014-02-16T11:29:18Z</time>
      </trkpt>
      <trkpt lat="45.85008" lon="4.78885">
        <ele>502</ele>
        <time>2014-02-16T11:29:19Z</time>
      </trkpt>
      <trkpt lat="45.85009" lon="4.78887">
        <ele>502</ele>
        <time>2014-02-16T11:29:21Z</time>
      </trkpt>
      <trkpt lat="45.8501" lon="4.7889">
        <ele>502</ele>
        <time>2014-02-16T11:29:23Z</time>
      </trkpt>
      <trkpt lat="45.8501" lon="4.78898">
        <ele>501</ele>
        <time>2014-02-16T11:29:30Z</time>
      </trkpt>
      <trkpt lat="45.8501" lon="4.78906">
        <ele>501</ele>
        <time>2014-02-16T11:29:36Z</time>
      </trkpt>
      <trkpt lat="45.85011" lon="4.78908">
        <ele>501</ele>
        <time>2014-02-16T11:29:37Z</time>
      </trkpt>
      <trkpt lat="45.85011" lon="4.78908">
        <ele>500</ele>
        <time>2014-02-16T11:29:38Z</time>
      </trkpt>
      <trkpt lat="45.85012" lon="4.78912">
        <ele>500</ele>
        <time>2014-02-16T11:29:41Z</time>
      </trkpt>
      <trkpt lat="45.85012" lon="4.78913">
        <ele>500</ele>
        <time>2014-02-16T11:29:42Z</time>
      </trkpt>
      <trkpt lat="45.85014" lon="4.78916">
        <ele>500</ele>
        <time>2014-02-16T11:29:45Z</time>
      </trkpt>
      <trkpt lat="45.85014" lon="4.78917">
        <ele>499</ele>
        <time>2014-02-16T11:29:46Z</time>
      </trkpt>
      <trkpt lat="45.85016" lon="4.78926">
        <ele>500</ele>
        <time>2014-02-16T11:29:57Z</time>
      </trkpt>
      <trkpt lat="45.85015" lon="4.78928">
        <ele>500</ele>
        <time>2014-02-16T11:30:03Z</time>
      </trkpt>
      <trkpt lat="45.85014" lon="4.78928">
        <ele>500</ele>
        <time>2014-02-16T11:30:04Z</time>
      </trkpt>
      <trkpt lat="45.85013" lon="4.7893">
        <ele>499</ele>
        <time>2014-02-16T11:30:08Z</time>
      </trkpt>
      <trkpt lat="45.85012" lon="4.78935">
        <ele>500</ele>
        <time>2014-02-16T11:30:12Z</time>
      </trkpt>
      <trkpt lat="45.85011" lon="4.78936">
        <ele>500</ele>
        <time>2014-02-16T11:30:13Z</time>
      </trkpt>
      <trkpt lat="45.8501" lon="4.7894">
        <ele>500</ele>
        <time>2014-02-16T11:30:17Z</time>
      </trkpt>
      <trkpt lat="45.85011" lon="4.78942">
        <ele>500</ele>
        <time>2014-02-16T11:30:21Z</time>
      </trkpt>
      <trkpt lat="45.85011" lon="4.78944">
        <ele>500</ele>
        <time>2014-02-16T11:30:23Z</time>
      </trkpt>
      <trkpt lat="45.85007" lon="4.78947">
        <ele>499</ele>
        <time>2014-02-16T11:30:29Z</time>
      </trkpt>
      <trkpt lat="45.85007" lon="4.78952">
        <ele>499</ele>
        <time>2014-02-16T11:30:33Z</time>
      </trkpt>
      <trkpt lat="45.85007" lon="4.78953">
        <ele>499</ele>
        <time>2014-02-16T11:30:34Z</time>
      </trkpt>
      <trkpt lat="45.85009" lon="4.78958">
        <ele>499</ele>
        <time>2014-02-16T11:30:38Z</time>
      </trkpt>
      <trkpt lat="45.8501" lon="4.78958">
        <ele>499</ele>
        <time>2014-02-16T11:30:39Z</time>
      </trkpt>
      <trkpt lat="45.85011" lon="4.78958">
        <ele>499</ele>
        <time>2014-02-16T11:30:41Z</time>
      </trkpt>
      <trkpt lat="45.85015" lon="4.78959">
        <ele>499</ele>
        <time>2014-02-16T11:30:45Z</time>
      </trkpt>
      <trkpt lat="45.85017" lon="4.78962">
        <ele>499</ele>
        <time>2014-02-16T11:30:47Z</time>
      </trkpt>
      <trkpt lat="45.85017" lon="4.78965">
        <ele>499</ele>
        <time>2014-02-16T11:30:49Z</time>
      </trkpt>
      <trkpt lat="45.85018" lon="4.78967">
        <ele>499</ele>
        <time>2014-02-16T11:30:52Z</time>
      </trkpt>
      <trkpt lat="45.8502" lon="4.78973">
        <ele>499</ele>
        <time>2014-02-16T11:30:57Z</time>
      </trkpt>
      <trkpt lat="45.8502" lon="4.78977">
        <ele>498</ele>
        <time>2014-02-16T11:31:00Z</time>
      </trkpt>
      <trkpt lat="45.85021" lon="4.78978">
        <ele>498</ele>
        <time>2014-02-16T11:31:01Z</time>
      </trkpt>
      <trkpt lat="45.85022" lon="4.78983">
        <ele>498</ele>
        <time>2014-02-16T11:31:05Z</time>
      </trkpt>
      <trkpt lat="45.85025" lon="4.78988">
        <ele>498</ele>
        <time>2014-02-16T11:31:09Z</time>
      </trkpt>
      <trkpt lat="45.85026" lon="4.78991">
        <ele>498</ele>
        <time>2014-02-16T11:31:12Z</time>
      </trkpt>
      <trkpt lat="45.85025" lon="4.78992">
        <ele>498</ele>
        <time>2014-02-16T11:31:13Z</time>
      </trkpt>
      <trkpt lat="45.85025" lon="4.78994">
        <ele>498</ele>
        <time>2014-02-16T11:31:15Z</time>
      </trkpt>
      <trkpt lat="45.85025" lon="4.78997">
        <ele>498</ele>
        <time>2014-02-16T11:31:17Z</time>
      </trkpt>
      <trkpt lat="45.8503" lon="4.79004">
        <ele>493</ele>
        <time>2014-02-16T11:31:29Z</time>
      </trkpt>
      <trkpt lat="45.85031" lon="4.79007">
        <ele>493</ele>
        <time>2014-02-16T11:31:32Z</time>
      </trkpt>
      <trkpt lat="45.85029" lon="4.7901">
        <ele>493</ele>
        <time>2014-02-16T11:31:35Z</time>
      </trkpt>
      <trkpt lat="45.85031" lon="4.79013">
        <ele>493</ele>
        <time>2014-02-16T11:31:38Z</time>
      </trkpt>
      <trkpt lat="45.85032" lon="4.79016">
        <ele>493</ele>
        <time>2014-02-16T11:31:41Z</time>
      </trkpt>
      <trkpt lat="45.85032" lon="4.79018">
        <ele>493</ele>
        <time>2014-02-16T11:31:43Z</time>
      </trkpt>
      <trkpt lat="45.85032" lon="4.79019">
        <ele>493</ele>
        <time>2014-02-16T11:31:44Z</time>
      </trkpt>
      <trkpt lat="45.8503" lon="4.79023">
        <ele>492</ele>
        <time>2014-02-16T11:31:47Z</time>
      </trkpt>
      <trkpt lat="45.8503" lon="4.79025">
        <ele>492</ele>
        <time>2014-02-16T11:31:48Z</time>
      </trkpt>
      <trkpt lat="45.85031" lon="4.79028">
        <ele>492</ele>
        <time>2014-02-16T11:31:50Z</time>
      </trkpt>
      <trkpt lat="45.85033" lon="4.79032">
        <ele>492</ele>
        <time>2014-02-16T11:31:53Z</time>
      </trkpt>
      <trkpt lat="45.85035" lon="4.79035">
        <ele>492</ele>
        <time>2014-02-16T11:31:56Z</time>
      </trkpt>
      <trkpt lat="45.85035" lon="4.79038">
        <ele>492</ele>
        <time>2014-02-16T11:32:00Z</time>
      </trkpt>
      <trkpt lat="45.85032" lon="4.79047">
        <ele>490</ele>
        <time>2014-02-16T11:32:21Z</time>
      </trkpt>
      <trkpt lat="45.85033" lon="4.79051">
        <ele>490</ele>
        <time>2014-02-16T11:32:24Z</time>
      </trkpt>
      <trkpt lat="45.85036" lon="4.79053">
        <ele>490</ele>
        <time>2014-02-16T11:32:26Z</time>
      </trkpt>
      <trkpt lat="45.85039" lon="4.79054">
        <ele>491</ele>
        <time>2014-02-16T11:32:28Z</time>
      </trkpt>
      <trkpt lat="45.85042" lon="4.79057">
        <ele>491</ele>
        <time>2014-02-16T11:32:30Z</time>
      </trkpt>
      <trkpt lat="45.85048" lon="4.7906">
        <ele>492</ele>
        <time>2014-02-16T11:32:35Z</time>
      </trkpt>
      <trkpt lat="45.8505" lon="4.79061">
        <ele>492</ele>
        <time>2014-02-16T11:32:36Z</time>
      </trkpt>
      <trkpt lat="45.85052" lon="4.79065">
        <ele>492</ele>
        <time>2014-02-16T11:32:40Z</time>
      </trkpt>
      <trkpt lat="45.85054" lon="4.79068">
        <ele>492</ele>
        <time>2014-02-16T11:32:42Z</time>
      </trkpt>
      <trkpt lat="45.85056" lon="4.79069">
        <ele>492</ele>
        <time>2014-02-16T11:32:43Z</time>
      </trkpt>
      <trkpt lat="45.85059" lon="4.79071">
        <ele>493</ele>
        <time>2014-02-16T11:32:45Z</time>
      </trkpt>
      <trkpt lat="45.85063" lon="4.79079">
        <ele>493</ele>
        <time>2014-02-16T11:32:51Z</time>
      </trkpt>
      <trkpt lat="45.85071" lon="4.79083">
        <ele>494</ele>
        <time>2014-02-16T11:32:57Z</time>
      </trkpt>
      <trkpt lat="45.85072" lon="4.79083">
        <ele>494</ele>
        <time>2014-02-16T11:32:58Z</time>
      </trkpt>
      <trkpt lat="45.85072" lon="4.7908">
        <ele>494</ele>
        <time>2014-02-16T11:33:06Z</time>
      </trkpt>
      <trkpt lat="45.85073" lon="4.79076">
        <ele>494</ele>
        <time>2014-02-16T11:33:11Z</time>
      </trkpt>
      <trkpt lat="45.85075" lon="4.79071">
        <ele>494</ele>
        <time>2014-02-16T11:33:17Z</time>
      </trkpt>
      <trkpt lat="45.85076" lon="4.79066">
        <ele>494</ele>
        <time>2014-02-16T11:33:22Z</time>
      </trkpt>
      <trkpt lat="45.85081" lon="4.79063">
        <ele>495</ele>
        <time>2014-02-16T11:33:28Z</time>
      </trkpt>
      <trkpt lat="45.85081" lon="4.79062">
        <ele>495</ele>
        <time>2014-02-16T11:33:29Z</time>
      </trkpt>
      <trkpt lat="45.85084" lon="4.79059">
        <ele>502</ele>
        <time>2014-02-16T11:33:34Z</time>
      </trkpt>
      <trkpt lat="45.85086" lon="4.79059">
        <ele>502</ele>
        <time>2014-02-16T11:33:36Z</time>
      </trkpt>
      <trkpt lat="45.85089" lon="4.79059">
        <ele>502</ele>
        <time>2014-02-16T11:33:38Z</time>
      </trkpt>
      <trkpt lat="45.8509" lon="4.79058">
        <ele>502</ele>
        <time>2014-02-16T11:33:40Z</time>
      </trkpt>
      <trkpt lat="45.85091" lon="4.79057">
        <ele>502</ele>
        <time>2014-02-16T11:33:42Z</time>
      </trkpt>
      <trkpt lat="45.85095" lon="4.79053">
        <ele>503</ele>
        <time>2014-02-16T11:33:46Z</time>
      </trkpt>
      <trkpt lat="45.85096" lon="4.79053">
        <ele>503</ele>
        <time>2014-02-16T11:33:47Z</time>
      </trkpt>
      <trkpt lat="45.85097" lon="4.79053">
        <ele>503</ele>
        <time>2014-02-16T11:33:48Z</time>
      </trkpt>
      <trkpt lat="45.85098" lon="4.79049">
        <ele>504</ele>
        <time>2014-02-16T11:33:51Z</time>
      </trkpt>
      <trkpt lat="45.85098" lon="4.79047">
        <ele>504</ele>
        <time>2014-02-16T11:33:52Z</time>
      </trkpt>
      <trkpt lat="45.85098" lon="4.79047">
        <ele>504</ele>
        <time>2014-02-16T11:33:53Z</time>
      </trkpt>
      <trkpt lat="45.85099" lon="4.79041">
        <ele>504</ele>
        <time>2014-02-16T11:34:10Z</time>
      </trkpt>
      <trkpt lat="45.85097" lon="4.7904">
        <ele>505</ele>
        <time>2014-02-16T11:34:25Z</time>
      </trkpt>
      <trkpt lat="45.85101" lon="4.79047">
        <ele>504</ele>
        <time>2014-02-16T11:34:48Z</time>
      </trkpt>
      <trkpt lat="45.85106" lon="4.79051">
        <ele>504</ele>
        <time>2014-02-16T11:34:52Z</time>
      </trkpt>
      <trkpt lat="45.85107" lon="4.79052">
        <ele>504</ele>
        <time>2014-02-16T11:34:53Z</time>
      </trkpt>
      <trkpt lat="45.85114" lon="4.7906">
        <ele>503</ele>
        <time>2014-02-16T11:35:00Z</time>
      </trkpt>
      <trkpt lat="45.85117" lon="4.79068">
        <ele>503</ele>
        <time>2014-02-16T11:35:05Z</time>
      </trkpt>
      <trkpt lat="45.85118" lon="4.79069">
        <ele>503</ele>
        <time>2014-02-16T11:35:06Z</time>
      </trkpt>
      <trkpt lat="45.85119" lon="4.79069">
        <ele>503</ele>
        <time>2014-02-16T11:35:07Z</time>
      </trkpt>
      <trkpt lat="45.85121" lon="4.79069">
        <ele>503</ele>
        <time>2014-02-16T11:35:08Z</time>
      </trkpt>
      <trkpt lat="45.85123" lon="4.79071">
        <ele>503</ele>
        <time>2014-02-16T11:35:11Z</time>
      </trkpt>
      <trkpt lat="45.85125" lon="4.79072">
        <ele>503</ele>
        <time>2014-02-16T11:35:12Z</time>
      </trkpt>
      <trkpt lat="45.85125" lon="4.79072">
        <ele>503</ele>
        <time>2014-02-16T11:35:13Z</time>
      </trkpt>
      <trkpt lat="45.85127" lon="4.79074">
        <ele>503</ele>
        <time>2014-02-16T11:35:16Z</time>
      </trkpt>
      <trkpt lat="45.85129" lon="4.79076">
        <ele>503</ele>
        <time>2014-02-16T11:35:21Z</time>
      </trkpt>
      <trkpt lat="45.85133" lon="4.79081">
        <ele>503</ele>
        <time>2014-02-16T11:35:26Z</time>
      </trkpt>
      <trkpt lat="45.85136" lon="4.79085">
        <ele>496</ele>
        <time>2014-02-16T11:35:30Z</time>
      </trkpt>
      <trkpt lat="45.85139" lon="4.79086">
        <ele>496</ele>
        <time>2014-02-16T11:35:32Z</time>
      </trkpt>
      <trkpt lat="45.85139" lon="4.79087">
        <ele>496</ele>
        <time>2014-02-16T11:35:33Z</time>
      </trkpt>
      <trkpt lat="45.85141" lon="4.79085">
        <ele>496</ele>
        <time>2014-02-16T11:35:38Z</time>
      </trkpt>
      <trkpt lat="45.85142" lon="4.79085">
        <ele>496</ele>
        <time>2014-02-16T11:35:39Z</time>
      </trkpt>
      <trkpt lat="45.85145" lon="4.79082">
        <ele>503</ele>
        <time>2014-02-16T11:35:44Z</time>
      </trkpt>
      <trkpt lat="45.85149" lon="4.79084">
        <ele>497</ele>
        <time>2014-02-16T11:35:48Z</time>
      </trkpt>
      <trkpt lat="45.85149" lon="4.79085">
        <ele>497</ele>
        <time>2014-02-16T11:35:49Z</time>
      </trkpt>
      <trkpt lat="45.85152" lon="4.79089">
        <ele>497</ele>
        <time>2014-02-16T11:35:52Z</time>
      </trkpt>
      <trkpt lat="45.85154" lon="4.79091">
        <ele>497</ele>
        <time>2014-02-16T11:35:54Z</time>
      </trkpt>
      <trkpt lat="45.85154" lon="4.79092">
        <ele>497</ele>
        <time>2014-02-16T11:35:55Z</time>
      </trkpt>
      <trkpt lat="45.85154" lon="4.79099">
        <ele>497</ele>
        <time>2014-02-16T11:36:00Z</time>
      </trkpt>
      <trkpt lat="45.85155" lon="4.79101">
        <ele>496</ele>
        <time>2014-02-16T11:36:01Z</time>
      </trkpt>
      <trkpt lat="45.85155" lon="4.79102">
        <ele>496</ele>
        <time>2014-02-16T11:36:02Z</time>
      </trkpt>
      <trkpt lat="45.85159" lon="4.79106">
        <ele>496</ele>
        <time>2014-02-16T11:36:07Z</time>
      </trkpt>
      <trkpt lat="45.8516" lon="4.7911">
        <ele>495</ele>
        <time>2014-02-16T11:36:16Z</time>
      </trkpt>
      <trkpt lat="45.8516" lon="4.79112">
        <ele>495</ele>
        <time>2014-02-16T11:36:18Z</time>
      </trkpt>
      <trkpt lat="45.85164" lon="4.79112">
        <ele>495</ele>
        <time>2014-02-16T11:36:39Z</time>
      </trkpt>
      <trkpt lat="45.85164" lon="4.79113">
        <ele>495</ele>
        <time>2014-02-16T11:36:54Z</time>
      </trkpt>
      <trkpt lat="45.85164" lon="4.79113">
        <ele>495</ele>
        <time>2014-02-16T11:37:02Z</time>
      </trkpt>
      <trkpt lat="45.85163" lon="4.79111">
        <ele>495</ele>
        <time>2014-02-16T11:37:05Z</time>
      </trkpt>
      <trkpt lat="45.85163" lon="4.79108">
        <ele>496</ele>
        <time>2014-02-16T11:37:09Z</time>
      </trkpt>
      <trkpt lat="45.85165" lon="4.79107">
        <ele>496</ele>
        <time>2014-02-16T11:37:13Z</time>
      </trkpt>
      <trkpt lat="45.85167" lon="4.79106">
        <ele>497</ele>
        <time>2014-02-16T11:37:17Z</time>
      </trkpt>
      <trkpt lat="45.85172" lon="4.79103">
        <ele>498</ele>
        <time>2014-02-16T11:37:21Z</time>
      </trkpt>
      <trkpt lat="45.85172" lon="4.79101">
        <ele>498</ele>
        <time>2014-02-16T11:37:24Z</time>
      </trkpt>
      <trkpt lat="45.85172" lon="4.79099">
        <ele>498</ele>
        <time>2014-02-16T11:37:25Z</time>
      </trkpt>
      <trkpt lat="45.85171" lon="4.79096">
        <ele>498</ele>
        <time>2014-02-16T11:37:28Z</time>
      </trkpt>
      <trkpt lat="45.85173" lon="4.79093">
        <ele>499</ele>
        <time>2014-02-16T11:37:31Z</time>
      </trkpt>
      <trkpt lat="45.85174" lon="4.79088">
        <ele>499</ele>
        <time>2014-02-16T11:37:35Z</time>
      </trkpt>
      <trkpt lat="45.85171" lon="4.79084">
        <ele>500</ele>
        <time>2014-02-16T11:37:38Z</time>
      </trkpt>
      <trkpt lat="45.85171" lon="4.79083">
        <ele>500</ele>
        <time>2014-02-16T11:37:39Z</time>
      </trkpt>
      <trkpt lat="45.85169" lon="4.79083">
        <ele>500</ele>
        <time>2014-02-16T11:37:41Z</time>
      </trkpt>
      <trkpt lat="45.85168" lon="4.79083">
        <ele>501</ele>
        <time>2014-02-16T11:37:42Z</time>
      </trkpt>
      <trkpt lat="45.85169" lon="4.7908">
        <ele>501</ele>
        <time>2014-02-16T11:37:49Z</time>
      </trkpt>
      <trkpt lat="45.85171" lon="4.79081">
        <ele>501</ele>
        <time>2014-02-16T11:38:15Z</time>
      </trkpt>
      <trkpt lat="45.85176" lon="4.79082">
        <ele>502</ele>
        <time>2014-02-16T11:38:19Z</time>
      </trkpt>
      <trkpt lat="45.8518" lon="4.79082">
        <ele>502</ele>
        <time>2014-02-16T11:38:21Z</time>
      </trkpt>
      <trkpt lat="45.85183" lon="4.79081">
        <ele>502</ele>
        <time>2014-02-16T11:38:24Z</time>
      </trkpt>
      <trkpt lat="45.85187" lon="4.79079">
        <ele>502</ele>
        <time>2014-02-16T11:38:29Z</time>
      </trkpt>
      <trkpt lat="45.85191" lon="4.79081">
        <ele>502</ele>
        <time>2014-02-16T11:38:32Z</time>
      </trkpt>
      <trkpt lat="45.85196" lon="4.79084">
        <ele>497</ele>
        <time>2014-02-16T11:38:36Z</time>
      </trkpt>
      <trkpt lat="45.85199" lon="4.79084">
        <ele>497</ele>
        <time>2014-02-16T11:38:39Z</time>
      </trkpt>
      <trkpt lat="45.85199" lon="4.79085">
        <ele>497</ele>
        <time>2014-02-16T11:38:40Z</time>
      </trkpt>
      <trkpt lat="45.85202" lon="4.79087">
        <ele>497</ele>
        <time>2014-02-16T11:38:46Z</time>
      </trkpt>
      <trkpt lat="45.85203" lon="4.79088">
        <ele>497</ele>
        <time>2014-02-16T11:38:47Z</time>
      </trkpt>
      <trkpt lat="45.85204" lon="4.79088">
        <ele>497</ele>
        <time>2014-02-16T11:38:48Z</time>
      </trkpt>
      <trkpt lat="45.85204" lon="4.79089">
        <ele>497</ele>
        <time>2014-02-16T11:38:49Z</time>
      </trkpt>
      <trkpt lat="45.85204" lon="4.79092">
        <ele>497</ele>
        <time>2014-02-16T11:38:53Z</time>
      </trkpt>
      <trkpt lat="45.85202" lon="4.7909">
        <ele>497</ele>
        <time>2014-02-16T11:39:04Z</time>
      </trkpt>
      <trkpt lat="45.85202" lon="4.79091">
        <ele>497</ele>
        <time>2014-02-16T11:39:28Z</time>
      </trkpt>
      <trkpt lat="45.85206" lon="4.79086">
        <ele>497</ele>
        <time>2014-02-16T11:39:33Z</time>
      </trkpt>
      <trkpt lat="45.85206" lon="4.79084">
        <ele>497</ele>
        <time>2014-02-16T11:39:34Z</time>
      </trkpt>
      <trkpt lat="45.85209" lon="4.79081">
        <ele>502</ele>
        <time>2014-02-16T11:39:36Z</time>
      </trkpt>
      <trkpt lat="45.8521" lon="4.7908">
        <ele>502</ele>
        <time>2014-02-16T11:39:37Z</time>
      </trkpt>
      <trkpt lat="45.85211" lon="4.79079">
        <ele>502</ele>
        <time>2014-02-16T11:39:38Z</time>
      </trkpt>
      <trkpt lat="45.85213" lon="4.79079">
        <ele>502</ele>
        <time>2014-02-16T11:39:39Z</time>
      </trkpt>
      <trkpt lat="45.85219" lon="4.79079">
        <ele>501</ele>
        <time>2014-02-16T11:39:44Z</time>
      </trkpt>
      <trkpt lat="45.85222" lon="4.79078">
        <ele>501</ele>
        <time>2014-02-16T11:39:46Z</time>
      </trkpt>
      <trkpt lat="45.85227" lon="4.79076">
        <ele>501</ele>
        <time>2014-02-16T11:39:50Z</time>
      </trkpt>
      <trkpt lat="45.85232" lon="4.79075">
        <ele>500</ele>
        <time>2014-02-16T11:39:55Z</time>
      </trkpt>
      <trkpt lat="45.85234" lon="4.79073">
        <ele>500</ele>
        <time>2014-02-16T11:39:58Z</time>
      </trkpt>
      <trkpt lat="45.85235" lon="4.79071">
        <ele>500</ele>
        <time>2014-02-16T11:40:01Z</time>
      </trkpt>
      <trkpt lat="45.85236" lon="4.79068">
        <ele>500</ele>
        <time>2014-02-16T11:40:03Z</time>
      </trkpt>
      <trkpt lat="45.85242" lon="4.79067">
        <ele>500</ele>
        <time>2014-02-16T11:40:07Z</time>
      </trkpt>
      <trkpt lat="45.85244" lon="4.79066">
        <ele>500</ele>
        <time>2014-02-16T11:40:08Z</time>
      </trkpt>
      <trkpt lat="45.85244" lon="4.79067">
        <ele>500</ele>
        <time>2014-02-16T11:40:09Z</time>
      </trkpt>
      <trkpt lat="45.85246" lon="4.79069">
        <ele>500</ele>
        <time>2014-02-16T11:40:11Z</time>
      </trkpt>
      <trkpt lat="45.8525" lon="4.79066">
        <ele>495</ele>
        <time>2014-02-16T11:40:15Z</time>
      </trkpt>
      <trkpt lat="45.85255" lon="4.79062">
        <ele>494</ele>
        <time>2014-02-16T11:40:19Z</time>
      </trkpt>
      <trkpt lat="45.85257" lon="4.79061">
        <ele>494</ele>
        <time>2014-02-16T11:40:21Z</time>
      </trkpt>
      <trkpt lat="45.8526" lon="4.79062">
        <ele>494</ele>
        <time>2014-02-16T11:40:33Z</time>
      </trkpt>
      <trkpt lat="45.8526" lon="4.79063">
        <ele>494</ele>
        <time>2014-02-16T11:40:54Z</time>
      </trkpt>
      <trkpt lat="45.85264" lon="4.79056">
        <ele>493</ele>
        <time>2014-02-16T11:40:58Z</time>
      </trkpt>
      <trkpt lat="45.85267" lon="4.79051">
        <ele>493</ele>
        <time>2014-02-16T11:41:00Z</time>
      </trkpt>
      <trkpt lat="45.85269" lon="4.79048">
        <ele>493</ele>
        <time>2014-02-16T11:41:02Z</time>
      </trkpt>
      <trkpt lat="45.8527" lon="4.79047">
        <ele>493</ele>
        <time>2014-02-16T11:41:03Z</time>
      </trkpt>
      <trkpt lat="45.85271" lon="4.79046">
        <ele>493</ele>
        <time>2014-02-16T11:41:04Z</time>
      </trkpt>
      <trkpt lat="45.85276" lon="4.79039">
        <ele>493</ele>
        <time>2014-02-16T11:41:10Z</time>
      </trkpt>
      <trkpt lat="45.8528" lon="4.79035">
        <ele>493</ele>
        <time>2014-02-16T11:41:17Z</time>
      </trkpt>
      <trkpt lat="45.8528" lon="4.79031">
        <ele>493</ele>
        <time>2014-02-16T11:41:24Z</time>
      </trkpt>
      <trkpt lat="45.85282" lon="4.79031">
        <ele>493</ele>
        <time>2014-02-16T11:41:30Z</time>
      </trkpt>
      <trkpt lat="45.85281" lon="4.79032">
        <ele>493</ele>
        <time>2014-02-16T11:41:33Z</time>
      </trkpt>
      <trkpt lat="45.8528" lon="4.79032">
        <ele>493</ele>
        <time>2014-02-16T11:41:36Z</time>
      </trkpt>
      <trkpt lat="45.85285" lon="4.79033">
        <ele>492</ele>
        <time>2014-02-16T11:41:44Z</time>
      </trkpt>
      <trkpt lat="45.85289" lon="4.79031">
        <ele>492</ele>
        <time>2014-02-16T11:41:46Z</time>
      </trkpt>
      <trkpt lat="45.85294" lon="4.7903">
        <ele>492</ele>
        <time>2014-02-16T11:41:48Z</time>
      </trkpt>
      <trkpt lat="45.85297" lon="4.79027">
        <ele>491</ele>
        <time>2014-02-16T11:41:50Z</time>
      </trkpt>
      <trkpt lat="45.85298" lon="4.79023">
        <ele>491</ele>
        <time>2014-02-16T11:41:53Z</time>
      </trkpt>
      <trkpt lat="45.85297" lon="4.7902">
        <ele>492</ele>
        <time>2014-02-16T11:41:55Z</time>
      </trkpt>
      <trkpt lat="45.85298" lon="4.79015">
        <ele>492</ele>
        <time>2014-02-16T11:42:00Z</time>
      </trkpt>
      <trkpt lat="45.85298" lon="4.79012">
        <ele>492</ele>
        <time>2014-02-16T11:42:04Z</time>
      </trkpt>
      <trkpt lat="45.85298" lon="4.79011">
        <ele>492</ele>
        <time>2014-02-16T11:42:05Z</time>
      </trkpt>
      <trkpt lat="45.85299" lon="4.79008">
        <ele>492</ele>
        <time>2014-02-16T11:42:14Z</time>
      </trkpt>
      <trkpt lat="45.85298" lon="4.79007">
        <ele>492</ele>
        <time>2014-02-16T11:42:35Z</time>
      </trkpt>
      <trkpt lat="45.853" lon="4.79006">
        <ele>492</ele>
        <time>2014-02-16T11:42:36Z</time>
      </trkpt>
      <trkpt lat="45.85306" lon="4.79009">
        <ele>491</ele>
        <time>2014-02-16T11:42:40Z</time>
      </trkpt>
      <trkpt lat="45.85312" lon="4.7901">
        <ele>490</ele>
        <time>2014-02-16T11:42:45Z</time>
      </trkpt>
      <trkpt lat="45.85312" lon="4.7901">
        <ele>490</ele>
        <time>2014-02-16T11:42:46Z</time>
      </trkpt>
      <trkpt lat="45.85315" lon="4.7901">
        <ele>490</ele>
        <time>2014-02-16T11:42:54Z</time>
      </trkpt>
      <trkpt lat="45.85314" lon="4.79012">
        <ele>490</ele>
        <time>2014-02-16T11:42:57Z</time>
      </trkpt>
      <trkpt lat="45.85314" lon="4.79012">
        <ele>490</ele>
        <time>2014-02-16T11:42:58Z</time>
      </trkpt>
      <trkpt lat="45.85315" lon="4.7901">
        <ele>490</ele>
        <time>2014-02-16T11:43:01Z</time>
      </trkpt>
      <trkpt lat="45.85315" lon="4.79008">
        <ele>490</ele>
        <time>2014-02-16T11:43:06Z</time>
      </trkpt>
      <trkpt lat="45.85316" lon="4.79011">
        <ele>490</ele>
        <time>2014-02-16T11:43:08Z</time>
      </trkpt>
      <trkpt lat="45.85315" lon="4.79014">
        <ele>490</ele>
        <time>2014-02-16T11:43:10Z</time>
      </trkpt>
      <trkpt lat="45.85315" lon="4.79016">
        <ele>490</ele>
        <time>2014-02-16T11:43:11Z</time>
      </trkpt>
      <trkpt lat="45.85318" lon="4.79022">
        <ele>490</ele>
        <time>2014-02-16T11:43:14Z</time>
      </trkpt>
      <trkpt lat="45.85322" lon="4.79028">
        <ele>489</ele>
        <time>2014-02-16T11:43:17Z</time>
      </trkpt>
      <trkpt lat="45.85324" lon="4.79031">
        <ele>489</ele>
        <time>2014-02-16T11:43:19Z</time>
      </trkpt>
      <trkpt lat="45.85327" lon="4.79036">
        <ele>489</ele>
        <time>2014-02-16T11:43:23Z</time>
      </trkpt>
      <trkpt lat="45.85332" lon="4.79031">
        <ele>489</ele>
        <time>2014-02-16T11:43:27Z</time>
      </trkpt>
      <trkpt lat="45.85331" lon="4.79031">
        <ele>489</ele>
        <time>2014-02-16T11:43:31Z</time>
      </trkpt>
      <trkpt lat="45.8533" lon="4.79031">
        <ele>489</ele>
        <time>2014-02-16T11:43:33Z</time>
      </trkpt>
      <trkpt lat="45.85328" lon="4.79031">
        <ele>489</ele>
        <time>2014-02-16T11:43:35Z</time>
      </trkpt>
      <trkpt lat="45.85328" lon="4.7903">
        <ele>489</ele>
        <time>2014-02-16T11:43:37Z</time>
      </trkpt>
      <trkpt lat="45.85328" lon="4.79029">
        <ele>489</ele>
        <time>2014-02-16T11:43:40Z</time>
      </trkpt>
      <trkpt lat="45.85332" lon="4.79032">
        <ele>489</ele>
        <time>2014-02-16T11:44:05Z</time>
      </trkpt>
      <trkpt lat="45.85333" lon="4.79032">
        <ele>489</ele>
        <time>2014-02-16T11:44:06Z</time>
      </trkpt>
      <trkpt lat="45.85333" lon="4.79029">
        <ele>489</ele>
        <time>2014-02-16T11:44:08Z</time>
      </trkpt>
      <trkpt lat="45.85333" lon="4.79028">
        <ele>489</ele>
        <time>2014-02-16T11:44:09Z</time>
      </trkpt>
      <trkpt lat="45.85338" lon="4.79028">
        <ele>483</ele>
        <time>2014-02-16T11:44:13Z</time>
      </trkpt>
      <trkpt lat="45.8534" lon="4.79026">
        <ele>483</ele>
        <time>2014-02-16T11:44:16Z</time>
      </trkpt>
      <trkpt lat="45.8534" lon="4.79026">
        <ele>483</ele>
        <time>2014-02-16T11:44:17Z</time>
      </trkpt>
      <trkpt lat="45.85347" lon="4.79022">
        <ele>483</ele>
        <time>2014-02-16T11:44:33Z</time>
      </trkpt>
      <trkpt lat="45.8535" lon="4.7902">
        <ele>483</ele>
        <time>2014-02-16T11:44:41Z</time>
      </trkpt>
      <trkpt lat="45.85352" lon="4.79017">
        <ele>483</ele>
        <time>2014-02-16T11:44:46Z</time>
      </trkpt>
      <trkpt lat="45.85356" lon="4.79014">
        <ele>483</ele>
        <time>2014-02-16T11:44:52Z</time>
      </trkpt>
      <trkpt lat="45.85357" lon="4.79012">
        <ele>483</ele>
        <time>2014-02-16T11:44:54Z</time>
      </trkpt>
      <trkpt lat="45.85359" lon="4.79011">
        <ele>483</ele>
        <time>2014-02-16T11:44:57Z</time>
      </trkpt>
      <trkpt lat="45.8536" lon="4.79013">
        <ele>483</ele>
        <time>2014-02-16T11:45:02Z</time>
      </trkpt>
      <trkpt lat="45.85362" lon="4.79014">
        <ele>483</ele>
        <time>2014-02-16T11:45:09Z</time>
      </trkpt>
      <trkpt lat="45.85363" lon="4.79007">
        <ele>483</ele>
        <time>2014-02-16T11:45:17Z</time>
      </trkpt>
      <trkpt lat="45.85363" lon="4.79002">
        <ele>483</ele>
        <time>2014-02-16T11:45:25Z</time>
      </trkpt>
      <trkpt lat="45.85364" lon="4.78998">
        <ele>490</ele>
        <time>2014-02-16T11:45:30Z</time>
      </trkpt>
      <trkpt lat="45.85365" lon="4.78997">
        <ele>490</ele>
        <time>2014-02-16T11:45:35Z</time>
      </trkpt>
      <trkpt lat="45.85366" lon="4.78995">
        <ele>490</ele>
        <time>2014-02-16T11:45:39Z</time>
      </trkpt>
      <trkpt lat="45.85366" lon="4.7899">
        <ele>490</ele>
        <time>2014-02-16T11:45:50Z</time>
      </trkpt>
      <trkpt lat="45.85367" lon="4.78989">
        <ele>490</ele>
        <time>2014-02-16T11:45:55Z</time>
      </trkpt>
      <trkpt lat="45.8537" lon="4.78986">
        <ele>490</ele>
        <time>2014-02-16T11:46:02Z</time>
      </trkpt>
      <trkpt lat="45.85378" lon="4.78983">
        <ele>490</ele>
        <time>2014-02-16T11:46:07Z</time>
      </trkpt>
      <trkpt lat="45.8538" lon="4.78981">
        <ele>490</ele>
        <time>2014-02-16T11:46:08Z</time>
      </trkpt>
      <trkpt lat="45.8539" lon="4.78979">
        <ele>490</ele>
        <time>2014-02-16T11:46:12Z</time>
      </trkpt>
      <trkpt lat="45.85399" lon="4.78978">
        <ele>489</ele>
        <time>2014-02-16T11:46:16Z</time>
      </trkpt>
      <trkpt lat="45.85404" lon="4.78978">
        <ele>489</ele>
        <time>2014-02-16T11:46:18Z</time>
      </trkpt>
      <trkpt lat="45.85406" lon="4.78978">
        <ele>489</ele>
        <time>2014-02-16T11:46:19Z</time>
      </trkpt>
      <trkpt lat="45.85414" lon="4.7898">
        <ele>488</ele>
        <time>2014-02-16T11:46:22Z</time>
      </trkpt>
      <trkpt lat="45.85419" lon="4.78979">
        <ele>488</ele>
        <time>2014-02-16T11:46:24Z</time>
      </trkpt>
      <trkpt lat="45.85426" lon="4.78978">
        <ele>489</ele>
        <time>2014-02-16T11:46:27Z</time>
      </trkpt>
      <trkpt lat="45.85438" lon="4.78977">
        <ele>490</ele>
        <time>2014-02-16T11:46:32Z</time>
      </trkpt>
      <trkpt lat="45.85439" lon="4.78977">
        <ele>490</ele>
        <time>2014-02-16T11:46:33Z</time>
      </trkpt>
      <trkpt lat="45.85443" lon="4.78977">
        <ele>490</ele>
        <time>2014-02-16T11:46:36Z</time>
      </trkpt>
      <trkpt lat="45.85448" lon="4.78977">
        <ele>490</ele>
        <time>2014-02-16T11:46:40Z</time>
      </trkpt>
      <trkpt lat="45.85457" lon="4.78977">
        <ele>491</ele>
        <time>2014-02-16T11:46:46Z</time>
      </trkpt>
      <trkpt lat="45.85458" lon="4.78977">
        <ele>491</ele>
        <time>2014-02-16T11:46:47Z</time>
      </trkpt>
      <trkpt lat="45.85467" lon="4.78976">
        <ele>491</ele>
        <time>2014-02-16T11:46:54Z</time>
      </trkpt>
      <trkpt lat="45.8547" lon="4.78977">
        <ele>491</ele>
        <time>2014-02-16T11:46:58Z</time>
      </trkpt>
      <trkpt lat="45.85472" lon="4.78978">
        <ele>491</ele>
        <time>2014-02-16T11:47:00Z</time>
      </trkpt>
      <trkpt lat="45.85473" lon="4.78978">
        <ele>491</ele>
        <time>2014-02-16T11:47:07Z</time>
      </trkpt>
      <trkpt lat="45.85473" lon="4.78979">
        <ele>491</ele>
        <time>2014-02-16T11:47:08Z</time>
      </trkpt>
      <trkpt lat="45.85474" lon="4.78981">
        <ele>491</ele>
        <time>2014-02-16T11:47:10Z</time>
      </trkpt>
      <trkpt lat="45.85476" lon="4.78985">
        <ele>491</ele>
        <time>2014-02-16T11:47:13Z</time>
      </trkpt>
      <trkpt lat="45.85481" lon="4.78995">
        <ele>491</ele>
        <time>2014-02-16T11:47:20Z</time>
      </trkpt>
      <trkpt lat="45.85483" lon="4.78998">
        <ele>491</ele>
        <time>2014-02-16T11:47:22Z</time>
      </trkpt>
      <trkpt lat="45.85484" lon="4.78999">
        <ele>491</ele>
        <time>2014-02-16T11:47:23Z</time>
      </trkpt>
      <trkpt lat="45.85488" lon="4.79004">
        <ele>486</ele>
        <time>2014-02-16T11:47:26Z</time>
      </trkpt>
      <trkpt lat="45.85498" lon="4.79016">
        <ele>485</ele>
        <time>2014-02-16T11:47:35Z</time>
      </trkpt>
      <trkpt lat="45.85505" lon="4.79024">
        <ele>487</ele>
        <time>2014-02-16T11:47:41Z</time>
      </trkpt>
      <trkpt lat="45.85513" lon="4.79031">
        <ele>486</ele>
        <time>2014-02-16T11:47:48Z</time>
      </trkpt>
      <trkpt lat="45.85518" lon="4.79037">
        <ele>486</ele>
        <time>2014-02-16T11:47:53Z</time>
      </trkpt>
      <trkpt lat="45.85521" lon="4.7904">
        <ele>485</ele>
        <time>2014-02-16T11:47:56Z</time>
      </trkpt>
      <trkpt lat="45.85524" lon="4.79042">
        <ele>485</ele>
        <time>2014-02-16T11:47:58Z</time>
      </trkpt>
      <trkpt lat="45.85526" lon="4.79044">
        <ele>485</ele>
        <time>2014-02-16T11:48:00Z</time>
      </trkpt>
      <trkpt lat="45.85529" lon="4.79045">
        <ele>485</ele>
        <time>2014-02-16T11:48:02Z</time>
      </trkpt>
      <trkpt lat="45.85531" lon="4.79047">
        <ele>485</ele>
        <time>2014-02-16T11:48:04Z</time>
      </trkpt>
      <trkpt lat="45.85533" lon="4.79048">
        <ele>485</ele>
        <time>2014-02-16T11:48:05Z</time>
      </trkpt>
      <trkpt lat="45.8554" lon="4.79053">
        <ele>485</ele>
        <time>2014-02-16T11:48:12Z</time>
      </trkpt>
      <trkpt lat="45.85545" lon="4.79056">
        <ele>485</ele>
        <time>2014-02-16T11:48:17Z</time>
      </trkpt>
      <trkpt lat="45.85548" lon="4.79058">
        <ele>485</ele>
        <time>2014-02-16T11:48:20Z</time>
      </trkpt>
      <trkpt lat="45.85554" lon="4.79063">
        <ele>485</ele>
        <time>2014-02-16T11:48:24Z</time>
      </trkpt>
      <trkpt lat="45.85557" lon="4.79064">
        <ele>485</ele>
        <time>2014-02-16T11:48:25Z</time>
      </trkpt>
      <trkpt lat="45.85561" lon="4.79069">
        <ele>485</ele>
        <time>2014-02-16T11:48:27Z</time>
      </trkpt>
      <trkpt lat="45.85572" lon="4.79076">
        <ele>485</ele>
        <time>2014-02-16T11:48:31Z</time>
      </trkpt>
      <trkpt lat="45.85577" lon="4.79081">
        <ele>484</ele>
        <time>2014-02-16T11:48:33Z</time>
      </trkpt>
      <trkpt lat="45.85587" lon="4.79092">
        <ele>484</ele>
        <time>2014-02-16T11:48:37Z</time>
      </trkpt>
      <trkpt lat="45.85592" lon="4.79099">
        <ele>484</ele>
        <time>2014-02-16T11:48:39Z</time>
      </trkpt>
      <trkpt lat="45.85596" lon="4.79112">
        <ele>483</ele>
        <time>2014-02-16T11:48:42Z</time>
      </trkpt>
      <trkpt lat="45.85598" lon="4.79124">
        <ele>483</ele>
        <time>2014-02-16T11:48:45Z</time>
      </trkpt>
      <trkpt lat="45.85598" lon="4.79128">
        <ele>482</ele>
        <time>2014-02-16T11:48:46Z</time>
      </trkpt>
      <trkpt lat="45.85599" lon="4.79133">
        <ele>482</ele>
        <time>2014-02-16T11:48:47Z</time>
      </trkpt>
      <trkpt lat="45.856" lon="4.79151">
        <ele>480</ele>
        <time>2014-02-16T11:48:51Z</time>
      </trkpt>
      <trkpt lat="45.85601" lon="4.7916">
        <ele>479</ele>
        <time>2014-02-16T11:48:53Z</time>
      </trkpt>
      <trkpt lat="45.856" lon="4.79178">
        <ele>475</ele>
        <time>2014-02-16T11:48:57Z</time>
      </trkpt>
      <trkpt lat="45.856" lon="4.79182">
        <ele>475</ele>
        <time>2014-02-16T11:48:58Z</time>
      </trkpt>
      <trkpt lat="45.85602" lon="4.79206">
        <ele>475</ele>
        <time>2014-02-16T11:49:03Z</time>
      </trkpt>
      <trkpt lat="45.85602" lon="4.79229">
        <ele>473</ele>
        <time>2014-02-16T11:49:08Z</time>
      </trkpt>
      <trkpt lat="45.85602" lon="4.79234">
        <ele>473</ele>
        <time>2014-02-16T11:49:09Z</time>
      </trkpt>
      <trkpt lat="45.85602" lon="4.79248">
        <ele>472</ele>
        <time>2014-02-16T11:49:12Z</time>
      </trkpt>
      <trkpt lat="45.85603" lon="4.79261">
        <ele>470</ele>
        <time>2014-02-16T11:49:15Z</time>
      </trkpt>
      <trkpt lat="45.85605" lon="4.7927">
        <ele>470</ele>
        <time>2014-02-16T11:49:17Z</time>
      </trkpt>
      <trkpt lat="45.85609" lon="4.79288">
        <ele>470</ele>
        <time>2014-02-16T11:49:21Z</time>
      </trkpt>
      <trkpt lat="45.85611" lon="4.79297">
        <ele>470</ele>
        <time>2014-02-16T11:49:23Z</time>
      </trkpt>
      <trkpt lat="45.85616" lon="4.79314">
        <ele>469</ele>
        <time>2014-02-16T11:49:27Z</time>
      </trkpt>
      <trkpt lat="45.85618" lon="4.79322">
        <ele>469</ele>
        <time>2014-02-16T11:49:29Z</time>
      </trkpt>
      <trkpt lat="45.85621" lon="4.79339">
        <ele>466</ele>
        <time>2014-02-16T11:49:33Z</time>
      </trkpt>
      <trkpt lat="45.85624" lon="4.79348">
        <ele>466</ele>
        <time>2014-02-16T11:49:35Z</time>
      </trkpt>
      <trkpt lat="45.85628" lon="4.79366">
        <ele>466</ele>
        <time>2014-02-16T11:49:39Z</time>
      </trkpt>
      <trkpt lat="45.85629" lon="4.7937">
        <ele>466</ele>
        <time>2014-02-16T11:49:40Z</time>
      </trkpt>
      <trkpt lat="45.85634" lon="4.79387">
        <ele>466</ele>
        <time>2014-02-16T11:49:45Z</time>
      </trkpt>
      <trkpt lat="45.85635" lon="4.7939">
        <ele>466</ele>
        <time>2014-02-16T11:49:46Z</time>
      </trkpt>
      <trkpt lat="45.85637" lon="4.79399">
        <ele>466</ele>
        <time>2014-02-16T11:49:49Z</time>
      </trkpt>
      <trkpt lat="45.85639" lon="4.79416">
        <ele>467</ele>
        <time>2014-02-16T11:49:53Z</time>
      </trkpt>
      <trkpt lat="45.8564" lon="4.79421">
        <ele>461</ele>
        <time>2014-02-16T11:49:54Z</time>
      </trkpt>
      <trkpt lat="45.85645" lon="4.7944">
        <ele>460</ele>
        <time>2014-02-16T11:49:59Z</time>
      </trkpt>
      <trkpt lat="45.85646" lon="4.79444">
        <ele>459</ele>
        <time>2014-02-16T11:50:00Z</time>
      </trkpt>
      <trkpt lat="45.85653" lon="4.79462">
        <ele>457</ele>
        <time>2014-02-16T11:50:05Z</time>
      </trkpt>
      <trkpt lat="45.85658" lon="4.79469">
        <ele>457</ele>
        <time>2014-02-16T11:50:07Z</time>
      </trkpt>
      <trkpt lat="45.85662" lon="4.79473">
        <ele>457</ele>
        <time>2014-02-16T11:50:09Z</time>
      </trkpt>
      <trkpt lat="45.85665" lon="4.79476">
        <ele>457</ele>
        <time>2014-02-16T11:50:12Z</time>
      </trkpt>
      <trkpt lat="45.85665" lon="4.79475">
        <ele>457</ele>
        <time>2014-02-16T11:50:13Z</time>
      </trkpt>
      <trkpt lat="45.85666" lon="4.79477">
        <ele>457</ele>
        <time>2014-02-16T11:50:16Z</time>
      </trkpt>
      <trkpt lat="45.85667" lon="4.7948">
        <ele>456</ele>
        <time>2014-02-16T11:50:18Z</time>
      </trkpt>
      <trkpt lat="45.85671" lon="4.79485">
        <ele>461</ele>
        <time>2014-02-16T11:50:23Z</time>
      </trkpt>
      <trkpt lat="45.85672" lon="4.79486">
        <ele>460</ele>
        <time>2014-02-16T11:50:24Z</time>
      </trkpt>
      <trkpt lat="45.85681" lon="4.79494">
        <ele>460</ele>
        <time>2014-02-16T11:50:31Z</time>
      </trkpt>
      <trkpt lat="45.85687" lon="4.79498">
        <ele>461</ele>
        <time>2014-02-16T11:50:36Z</time>
      </trkpt>
      <trkpt lat="45.85688" lon="4.79499">
        <ele>461</ele>
        <time>2014-02-16T11:50:37Z</time>
      </trkpt>
      <trkpt lat="45.85697" lon="4.79501">
        <ele>450</ele>
        <time>2014-02-16T11:50:44Z</time>
      </trkpt>
      <trkpt lat="45.85697" lon="4.79501">
        <ele>450</ele>
        <time>2014-02-16T11:50:46Z</time>
      </trkpt>
      <trkpt lat="45.85696" lon="4.79501">
        <ele>451</ele>
        <time>2014-02-16T11:50:47Z</time>
      </trkpt>
      <trkpt lat="45.85693" lon="4.79497">
        <ele>462</ele>
        <time>2014-02-16T11:50:50Z</time>
      </trkpt>
      <trkpt lat="45.85693" lon="4.79495">
        <ele>462</ele>
        <time>2014-02-16T11:50:52Z</time>
      </trkpt>
      <trkpt lat="45.85697" lon="4.79493">
        <ele>462</ele>
        <time>2014-02-16T11:50:55Z</time>
      </trkpt>
      <trkpt lat="45.857" lon="4.79491">
        <ele>463</ele>
        <time>2014-02-16T11:50:57Z</time>
      </trkpt>
      <trkpt lat="45.857" lon="4.7949">
        <ele>463</ele>
        <time>2014-02-16T11:50:58Z</time>
      </trkpt>
      <trkpt lat="45.85703" lon="4.79478">
        <ele>464</ele>
        <time>2014-02-16T11:51:04Z</time>
      </trkpt>
      <trkpt lat="45.85705" lon="4.79476">
        <ele>464</ele>
        <time>2014-02-16T11:51:05Z</time>
      </trkpt>
      <trkpt lat="45.85707" lon="4.79471">
        <ele>464</ele>
        <time>2014-02-16T11:51:08Z</time>
      </trkpt>
      <trkpt lat="45.85707" lon="4.79466">
        <ele>465</ele>
        <time>2014-02-16T11:51:11Z</time>
      </trkpt>
      <trkpt lat="45.85708" lon="4.79465">
        <ele>465</ele>
        <time>2014-02-16T11:51:12Z</time>
      </trkpt>
      <trkpt lat="45.85709" lon="4.79462">
        <ele>465</ele>
        <time>2014-02-16T11:51:14Z</time>
      </trkpt>
      <trkpt lat="45.85711" lon="4.79458">
        <ele>466</ele>
        <time>2014-02-16T11:51:17Z</time>
      </trkpt>
      <trkpt lat="45.85711" lon="4.79452">
        <ele>466</ele>
        <time>2014-02-16T11:51:21Z</time>
      </trkpt>
      <trkpt lat="45.85711" lon="4.79442">
        <ele>467</ele>
        <time>2014-02-16T11:51:26Z</time>
      </trkpt>
      <trkpt lat="45.85711" lon="4.79435">
        <ele>468</ele>
        <time>2014-02-16T11:51:30Z</time>
      </trkpt>
      <trkpt lat="45.8571" lon="4.79432">
        <ele>468</ele>
        <time>2014-02-16T11:51:32Z</time>
      </trkpt>
      <trkpt lat="45.8571" lon="4.79428">
        <ele>469</ele>
        <time>2014-02-16T11:51:40Z</time>
      </trkpt>
      <trkpt lat="45.85714" lon="4.79427">
        <ele>469</ele>
        <time>2014-02-16T11:52:10Z</time>
      </trkpt>
      <trkpt lat="45.85712" lon="4.79426">
        <ele>469</ele>
        <time>2014-02-16T11:52:23Z</time>
      </trkpt>
      <trkpt lat="45.85716" lon="4.79423">
        <ele>469</ele>
        <time>2014-02-16T11:53:56Z</time>
      </trkpt>
      <trkpt lat="45.85716" lon="4.79422">
        <ele>469</ele>
        <time>2014-02-16T11:53:57Z</time>
      </trkpt>
      <trkpt lat="45.85717" lon="4.79419">
        <ele>470</ele>
        <time>2014-02-16T11:53:59Z</time>
      </trkpt>
      <trkpt lat="45.85719" lon="4.79416">
        <ele>476</ele>
        <time>2014-02-16T11:54:02Z</time>
      </trkpt>
      <trkpt lat="45.85718" lon="4.79412">
        <ele>476</ele>
        <time>2014-02-16T11:54:07Z</time>
      </trkpt>
      <trkpt lat="45.85717" lon="4.7941">
        <ele>476</ele>
        <time>2014-02-16T11:54:08Z</time>
      </trkpt>
      <trkpt lat="45.8571" lon="4.79409">
        <ele>476</ele>
        <time>2014-02-16T11:54:13Z</time>
      </trkpt>
      <trkpt lat="45.8571" lon="4.79409">
        <ele>476</ele>
        <time>2014-02-16T11:54:14Z</time>
      </trkpt>
      <trkpt lat="45.8571" lon="4.79406">
        <ele>476</ele>
        <time>2014-02-16T11:54:28Z</time>
      </trkpt>
      <trkpt lat="45.8571" lon="4.79406">
        <ele>476</ele>
        <time>2014-02-16T11:54:34Z</time>
      </trkpt>
      <trkpt lat="45.85714" lon="4.79409">
        <ele>476</ele>
        <time>2014-02-16T11:54:50Z</time>
      </trkpt>
      <trkpt lat="45.85723" lon="4.79403">
        <ele>477</ele>
        <time>2014-02-16T11:54:58Z</time>
      </trkpt>
      <trkpt lat="45.85725" lon="4.79401">
        <ele>477</ele>
        <time>2014-02-16T11:55:01Z</time>
      </trkpt>
      <trkpt lat="45.85726" lon="4.794">
        <ele>477</ele>
        <time>2014-02-16T11:55:02Z</time>
      </trkpt>
      <trkpt lat="45.85727" lon="4.79398">
        <ele>477</ele>
        <time>2014-02-16T11:55:04Z</time>
      </trkpt>
      <trkpt lat="45.85728" lon="4.79397">
        <ele>477</ele>
        <time>2014-02-16T11:55:05Z</time>
      </trkpt>
      <trkpt lat="45.85736" lon="4.79397">
        <ele>477</ele>
        <time>2014-02-16T11:55:11Z</time>
      </trkpt>
      <trkpt lat="45.85741" lon="4.79397">
        <ele>477</ele>
        <time>2014-02-16T11:55:16Z</time>
      </trkpt>
      <trkpt lat="45.85742" lon="4.79396">
        <ele>477</ele>
        <time>2014-02-16T11:55:17Z</time>
      </trkpt>
      <trkpt lat="45.85743" lon="4.79394">
        <ele>477</ele>
        <time>2014-02-16T11:55:19Z</time>
      </trkpt>
      <trkpt lat="45.85746" lon="4.7939">
        <ele>477</ele>
        <time>2014-02-16T11:55:23Z</time>
      </trkpt>
      <trkpt lat="45.85752" lon="4.79384">
        <ele>485</ele>
        <time>2014-02-16T11:55:30Z</time>
      </trkpt>
      <trkpt lat="45.85755" lon="4.7938">
        <ele>485</ele>
        <time>2014-02-16T11:55:36Z</time>
      </trkpt>
      <trkpt lat="45.85756" lon="4.79382">
        <ele>485</ele>
        <time>2014-02-16T11:56:04Z</time>
      </trkpt>
      <trkpt lat="45.85757" lon="4.79386">
        <ele>485</ele>
        <time>2014-02-16T11:56:06Z</time>
      </trkpt>
      <trkpt lat="45.85758" lon="4.79388">
        <ele>484</ele>
        <time>2014-02-16T11:56:08Z</time>
      </trkpt>
      <trkpt lat="45.85761" lon="4.7939">
        <ele>484</ele>
        <time>2014-02-16T11:56:11Z</time>
      </trkpt>
      <trkpt lat="45.85766" lon="4.7939">
        <ele>485</ele>
        <time>2014-02-16T11:56:14Z</time>
      </trkpt>
      <trkpt lat="45.85766" lon="4.79392">
        <ele>485</ele>
        <time>2014-02-16T11:56:16Z</time>
      </trkpt>
      <trkpt lat="45.85767" lon="4.79398">
        <ele>484</ele>
        <time>2014-02-16T11:56:20Z</time>
      </trkpt>
      <trkpt lat="45.85768" lon="4.794">
        <ele>484</ele>
        <time>2014-02-16T11:56:21Z</time>
      </trkpt>
      <trkpt lat="45.85768" lon="4.79404">
        <ele>483</ele>
        <time>2014-02-16T11:56:25Z</time>
      </trkpt>
      <trkpt lat="45.85767" lon="4.79405">
        <ele>483</ele>
        <time>2014-02-16T11:56:26Z</time>
      </trkpt>
      <trkpt lat="45.85764" lon="4.79409">
        <ele>482</ele>
        <time>2014-02-16T11:56:35Z</time>
      </trkpt>
      <trkpt lat="45.85764" lon="4.79415">
        <ele>482</ele>
        <time>2014-02-16T11:56:41Z</time>
      </trkpt>
      <trkpt lat="45.85767" lon="4.79417">
        <ele>482</ele>
        <time>2014-02-16T11:56:47Z</time>
      </trkpt>
      <trkpt lat="45.85766" lon="4.79419">
        <ele>476</ele>
        <time>2014-02-16T11:56:56Z</time>
      </trkpt>
      <trkpt lat="45.85766" lon="4.79419">
        <ele>476</ele>
        <time>2014-02-16T11:56:57Z</time>
      </trkpt>
      <trkpt lat="45.85762" lon="4.79419">
        <ele>476</ele>
        <time>2014-02-16T11:57:01Z</time>
      </trkpt>
      <trkpt lat="45.8576" lon="4.79421">
        <ele>476</ele>
        <time>2014-02-16T11:57:04Z</time>
      </trkpt>
      <trkpt lat="45.8576" lon="4.79424">
        <ele>476</ele>
        <time>2014-02-16T11:57:06Z</time>
      </trkpt>
      <trkpt lat="45.85765" lon="4.79433">
        <ele>475</ele>
        <time>2014-02-16T11:57:10Z</time>
      </trkpt>
      <trkpt lat="45.85766" lon="4.79436">
        <ele>475</ele>
        <time>2014-02-16T11:57:11Z</time>
      </trkpt>
      <trkpt lat="45.85769" lon="4.79441">
        <ele>474</ele>
        <time>2014-02-16T11:57:14Z</time>
      </trkpt>
      <trkpt lat="45.8577" lon="4.79443">
        <ele>474</ele>
        <time>2014-02-16T11:57:15Z</time>
      </trkpt>
      <trkpt lat="45.8577" lon="4.79448">
        <ele>473</ele>
        <time>2014-02-16T11:57:17Z</time>
      </trkpt>
      <trkpt lat="45.85772" lon="4.7945">
        <ele>473</ele>
        <time>2014-02-16T11:57:19Z</time>
      </trkpt>
      <trkpt lat="45.85774" lon="4.79454">
        <ele>473</ele>
        <time>2014-02-16T11:57:24Z</time>
      </trkpt>
      <trkpt lat="45.85776" lon="4.79454">
        <ele>473</ele>
        <time>2014-02-16T11:57:26Z</time>
      </trkpt>
      <trkpt lat="45.85777" lon="4.79455">
        <ele>473</ele>
        <time>2014-02-16T11:57:27Z</time>
      </trkpt>
      <trkpt lat="45.85779" lon="4.79455">
        <ele>473</ele>
        <time>2014-02-16T11:57:29Z</time>
      </trkpt>
      <trkpt lat="45.85781" lon="4.79454">
        <ele>473</ele>
        <time>2014-02-16T11:57:34Z</time>
      </trkpt>
      <trkpt lat="45.85781" lon="4.79455">
        <ele>473</ele>
        <time>2014-02-16T11:57:42Z</time>
      </trkpt>
      <trkpt lat="45.85782" lon="4.79459">
        <ele>473</ele>
        <time>2014-02-16T11:57:48Z</time>
      </trkpt>
      <trkpt lat="45.85784" lon="4.79463">
        <ele>472</ele>
        <time>2014-02-16T11:57:54Z</time>
      </trkpt>
      <trkpt lat="45.85785" lon="4.79464">
        <ele>472</ele>
        <time>2014-02-16T11:58:02Z</time>
      </trkpt>
      <trkpt lat="45.85782" lon="4.79466">
        <ele>472</ele>
        <time>2014-02-16T11:58:09Z</time>
      </trkpt>
      <trkpt lat="45.85782" lon="4.79467">
        <ele>471</ele>
        <time>2014-02-16T11:58:16Z</time>
      </trkpt>
      <trkpt lat="45.85782" lon="4.79467">
        <ele>471</ele>
        <time>2014-02-16T11:58:17Z</time>
      </trkpt>
      <trkpt lat="45.85782" lon="4.79466">
        <ele>472</ele>
        <time>2014-02-16T11:58:23Z</time>
      </trkpt>
      <trkpt lat="45.8578" lon="4.79473">
        <ele>471</ele>
        <time>2014-02-16T11:58:29Z</time>
      </trkpt>
      <trkpt lat="45.85779" lon="4.79474">
        <ele>470</ele>
        <time>2014-02-16T11:58:35Z</time>
      </trkpt>
      <trkpt lat="45.85777" lon="4.79474">
        <ele>470</ele>
        <time>2014-02-16T11:58:40Z</time>
      </trkpt>
      <trkpt lat="45.85772" lon="4.79475">
        <ele>469</ele>
        <time>2014-02-16T11:58:48Z</time>
      </trkpt>
      <trkpt lat="45.85769" lon="4.79477">
        <ele>469</ele>
        <time>2014-02-16T11:58:52Z</time>
      </trkpt>
      <trkpt lat="45.85767" lon="4.79476">
        <ele>469</ele>
        <time>2014-02-16T11:58:54Z</time>
      </trkpt>
      <trkpt lat="45.85765" lon="4.79473">
        <ele>469</ele>
        <time>2014-02-16T11:58:57Z</time>
      </trkpt>
      <trkpt lat="45.85767" lon="4.7947">
        <ele>470</ele>
        <time>2014-02-16T11:59:00Z</time>
      </trkpt>
      <trkpt lat="45.85765" lon="4.79465">
        <ele>470</ele>
        <time>2014-02-16T11:59:03Z</time>
      </trkpt>
      <trkpt lat="45.85765" lon="4.79464">
        <ele>471</ele>
        <time>2014-02-16T11:59:04Z</time>
      </trkpt>
      <trkpt lat="45.85766" lon="4.79461">
        <ele>471</ele>
        <time>2014-02-16T11:59:10Z</time>
      </trkpt>
      <trkpt lat="45.85767" lon="4.79459">
        <ele>472</ele>
        <time>2014-02-16T11:59:12Z</time>
      </trkpt>
      <trkpt lat="45.85769" lon="4.7946">
        <ele>472</ele>
        <time>2014-02-16T11:59:16Z</time>
      </trkpt>
      <trkpt lat="45.85769" lon="4.79459">
        <ele>472</ele>
        <time>2014-02-16T11:59:23Z</time>
      </trkpt>
      <trkpt lat="45.85768" lon="4.79466">
        <ele>470</ele>
        <time>2014-02-16T11:59:41Z</time>
      </trkpt>
      <trkpt lat="45.85766" lon="4.79467">
        <ele>470</ele>
        <time>2014-02-16T11:59:46Z</time>
      </trkpt>
      <trkpt lat="45.85766" lon="4.79463">
        <ele>471</ele>
        <time>2014-02-16T12:00:14Z</time>
      </trkpt>
      <trkpt lat="45.85766" lon="4.79462">
        <ele>471</ele>
        <time>2014-02-16T12:00:17Z</time>
      </trkpt>
      <trkpt lat="45.85766" lon="4.79461">
        <ele>471</ele>
        <time>2014-02-16T12:00:22Z</time>
      </trkpt>
      <trkpt lat="45.85765" lon="4.79463">
        <ele>471</ele>
        <time>2014-02-16T12:00:27Z</time>
      </trkpt>
      <trkpt lat="45.85764" lon="4.79465">
        <ele>470</ele>
        <time>2014-02-16T12:00:32Z</time>
      </trkpt>
      <trkpt lat="45.85763" lon="4.79468">
        <ele>470</ele>
        <time>2014-02-16T12:00:36Z</time>
      </trkpt>
      <trkpt lat="45.85762" lon="4.79467">
        <ele>470</ele>
        <time>2014-02-16T12:00:37Z</time>
      </trkpt>
      <trkpt lat="45.85757" lon="4.79463">
        <ele>470</ele>
        <time>2014-02-16T12:00:41Z</time>
      </trkpt>
      <trkpt lat="45.85756" lon="4.79462">
        <ele>471</ele>
        <time>2014-02-16T12:00:42Z</time>
      </trkpt>
      <trkpt lat="45.85752" lon="4.79459">
        <ele>471</ele>
        <time>2014-02-16T12:00:45Z</time>
      </trkpt>
      <trkpt lat="45.85752" lon="4.79451">
        <ele>472</ele>
        <time>2014-02-16T12:00:50Z</time>
      </trkpt>
      <trkpt lat="45.85752" lon="4.7945">
        <ele>472</ele>
        <time>2014-02-16T12:00:51Z</time>
      </trkpt>
      <trkpt lat="45.85752" lon="4.7945">
        <ele>472</ele>
        <time>2014-02-16T12:00:55Z</time>
      </trkpt>
      <trkpt lat="45.85753" lon="4.79448">
        <ele>473</ele>
        <time>2014-02-16T12:00:58Z</time>
      </trkpt>
      <trkpt lat="45.85753" lon="4.79447">
        <ele>473</ele>
        <time>2014-02-16T12:01:06Z</time>
      </trkpt>
      <trkpt lat="45.85752" lon="4.79452">
        <ele>472</ele>
        <time>2014-02-16T12:01:38Z</time>
      </trkpt>
      <trkpt lat="45.85751" lon="4.79451">
        <ele>472</ele>
        <time>2014-02-16T12:01:51Z</time>
      </trkpt>
      <trkpt lat="45.85751" lon="4.79454">
        <ele>472</ele>
        <time>2014-02-16T12:01:57Z</time>
      </trkpt>
      <trkpt lat="45.8575" lon="4.79456">
        <ele>472</ele>
        <time>2014-02-16T12:01:58Z</time>
      </trkpt>
      <trkpt lat="45.85747" lon="4.79454">
        <ele>467</ele>
        <time>2014-02-16T12:02:01Z</time>
      </trkpt>
      <trkpt lat="45.85746" lon="4.79453">
        <ele>467</ele>
        <time>2014-02-16T12:02:03Z</time>
      </trkpt>
      <trkpt lat="45.85744" lon="4.79452">
        <ele>467</ele>
        <time>2014-02-16T12:02:07Z</time>
      </trkpt>
      <trkpt lat="45.85743" lon="4.7945">
        <ele>468</ele>
        <time>2014-02-16T12:02:10Z</time>
      </trkpt>
      <trkpt lat="45.85745" lon="4.79449">
        <ele>468</ele>
        <time>2014-02-16T12:02:12Z</time>
      </trkpt>
      <trkpt lat="45.85746" lon="4.79448">
        <ele>468</ele>
        <time>2014-02-16T12:02:17Z</time>
      </trkpt>
      <trkpt lat="45.85748" lon="4.79452">
        <ele>468</ele>
        <time>2014-02-16T12:02:21Z</time>
      </trkpt>
      <trkpt lat="45.85749" lon="4.79453">
        <ele>467</ele>
        <time>2014-02-16T12:02:23Z</time>
      </trkpt>
      <trkpt lat="45.8575" lon="4.79459">
        <ele>471</ele>
        <time>2014-02-16T12:02:28Z</time>
      </trkpt>
      <trkpt lat="45.85749" lon="4.79464">
        <ele>465</ele>
        <time>2014-02-16T12:02:32Z</time>
      </trkpt>
      <trkpt lat="45.85748" lon="4.79465">
        <ele>465</ele>
        <time>2014-02-16T12:02:33Z</time>
      </trkpt>
      <trkpt lat="45.85743" lon="4.79468">
        <ele>465</ele>
        <time>2014-02-16T12:02:38Z</time>
      </trkpt>
      <trkpt lat="45.85745" lon="4.79465">
        <ele>465</ele>
        <time>2014-02-16T12:02:44Z</time>
      </trkpt>
      <trkpt lat="45.8575" lon="4.79459">
        <ele>471</ele>
        <time>2014-02-16T12:02:49Z</time>
      </trkpt>
      <trkpt lat="45.85752" lon="4.79456">
        <ele>472</ele>
        <time>2014-02-16T12:02:51Z</time>
      </trkpt>
      <trkpt lat="45.85752" lon="4.79455">
        <ele>472</ele>
        <time>2014-02-16T12:02:52Z</time>
      </trkpt>
      <trkpt lat="45.85754" lon="4.79456">
        <ele>472</ele>
        <time>2014-02-16T12:02:54Z</time>
      </trkpt>
      <trkpt lat="45.85756" lon="4.79459">
        <ele>471</ele>
        <time>2014-02-16T12:02:57Z</time>
      </trkpt>
      <trkpt lat="45.85759" lon="4.79461">
        <ele>471</ele>
        <time>2014-02-16T12:03:00Z</time>
      </trkpt>
      <trkpt lat="45.85761" lon="4.79462">
        <ele>471</ele>
        <time>2014-02-16T12:03:02Z</time>
      </trkpt>
      <trkpt lat="45.85764" lon="4.79464">
        <ele>471</ele>
        <time>2014-02-16T12:03:07Z</time>
      </trkpt>
      <trkpt lat="45.85768" lon="4.79464">
        <ele>471</ele>
        <time>2014-02-16T12:03:13Z</time>
      </trkpt>
      <trkpt lat="45.8577" lon="4.79465">
        <ele>471</ele>
        <time>2014-02-16T12:03:15Z</time>
      </trkpt>
      <trkpt lat="45.85773" lon="4.79464">
        <ele>471</ele>
        <time>2014-02-16T12:03:20Z</time>
      </trkpt>
      <trkpt lat="45.85778" lon="4.79463">
        <ele>472</ele>
        <time>2014-02-16T12:03:26Z</time>
      </trkpt>
      <trkpt lat="45.8578" lon="4.79462">
        <ele>472</ele>
        <time>2014-02-16T12:03:34Z</time>
      </trkpt>
      <trkpt lat="45.85778" lon="4.79457">
        <ele>472</ele>
        <time>2014-02-16T12:03:43Z</time>
      </trkpt>
      <trkpt lat="45.85777" lon="4.79455">
        <ele>473</ele>
        <time>2014-02-16T12:03:47Z</time>
      </trkpt>
      <trkpt lat="45.85776" lon="4.79455">
        <ele>473</ele>
        <time>2014-02-16T12:03:48Z</time>
      </trkpt>
      <trkpt lat="45.85775" lon="4.79451">
        <ele>473</ele>
        <time>2014-02-16T12:03:55Z</time>
      </trkpt>
      <trkpt lat="45.85774" lon="4.79447">
        <ele>474</ele>
        <time>2014-02-16T12:04:01Z</time>
      </trkpt>
      <trkpt lat="45.85767" lon="4.79443">
        <ele>474</ele>
        <time>2014-02-16T12:04:06Z</time>
      </trkpt>
      <trkpt lat="45.85765" lon="4.79441">
        <ele>474</ele>
        <time>2014-02-16T12:04:08Z</time>
      </trkpt>
      <trkpt lat="45.85764" lon="4.7944">
        <ele>474</ele>
        <time>2014-02-16T12:04:09Z</time>
      </trkpt>
      <trkpt lat="45.8576" lon="4.79438">
        <ele>474</ele>
        <time>2014-02-16T12:04:12Z</time>
      </trkpt>
      <trkpt lat="45.85758" lon="4.79437">
        <ele>474</ele>
        <time>2014-02-16T12:04:14Z</time>
      </trkpt>
      <trkpt lat="45.85755" lon="4.79434">
        <ele>475</ele>
        <time>2014-02-16T12:04:17Z</time>
      </trkpt>
      <trkpt lat="45.85753" lon="4.79434">
        <ele>475</ele>
        <time>2014-02-16T12:04:19Z</time>
      </trkpt>
      <trkpt lat="45.8575" lon="4.79433">
        <ele>475</ele>
        <time>2014-02-16T12:04:21Z</time>
      </trkpt>
      <trkpt lat="45.85748" lon="4.79429">
        <ele>473</ele>
        <time>2014-02-16T12:04:25Z</time>
      </trkpt>
      <trkpt lat="45.85747" lon="4.79428">
        <ele>473</ele>
        <time>2014-02-16T12:04:26Z</time>
      </trkpt>
      <trkpt lat="45.85744" lon="4.79427">
        <ele>473</ele>
        <time>2014-02-16T12:04:28Z</time>
      </trkpt>
      <trkpt lat="45.85741" lon="4.79426">
        <ele>472</ele>
        <time>2014-02-16T12:04:31Z</time>
      </trkpt>
      <trkpt lat="45.85741" lon="4.79425">
        <ele>472</ele>
        <time>2014-02-16T12:04:32Z</time>
      </trkpt>
      <trkpt lat="45.85738" lon="4.79425">
        <ele>472</ele>
        <time>2014-02-16T12:04:35Z</time>
      </trkpt>
      <trkpt lat="45.85737" lon="4.79425">
        <ele>472</ele>
        <time>2014-02-16T12:04:37Z</time>
      </trkpt>
      <trkpt lat="45.85736" lon="4.79424">
        <ele>472</ele>
        <time>2014-02-16T12:04:38Z</time>
      </trkpt>
      <trkpt lat="45.85735" lon="4.79424">
        <ele>472</ele>
        <time>2014-02-16T12:04:40Z</time>
      </trkpt>
      <trkpt lat="45.85734" lon="4.79423">
        <ele>472</ele>
        <time>2014-02-16T12:04:41Z</time>
      </trkpt>
      <trkpt lat="45.85733" lon="4.79421">
        <ele>471</ele>
        <time>2014-02-16T12:04:46Z</time>
      </trkpt>
      <trkpt lat="45.85731" lon="4.79419">
        <ele>471</ele>
        <time>2014-02-16T12:04:49Z</time>
      </trkpt>
      <trkpt lat="45.85729" lon="4.79419">
        <ele>471</ele>
        <time>2014-02-16T12:04:51Z</time>
      </trkpt>
      <trkpt lat="45.85728" lon="4.79419">
        <ele>471</ele>
        <time>2014-02-16T12:04:52Z</time>
      </trkpt>
      <trkpt lat="45.85724" lon="4.79421">
        <ele>470</ele>
        <time>2014-02-16T12:04:56Z</time>
      </trkpt>
      <trkpt lat="45.85721" lon="4.79425">
        <ele>470</ele>
        <time>2014-02-16T12:05:01Z</time>
      </trkpt>
      <trkpt lat="45.85722" lon="4.79427">
        <ele>470</ele>
        <time>2014-02-16T12:05:02Z</time>
      </trkpt>
      <trkpt lat="45.85721" lon="4.79435">
        <ele>469</ele>
        <time>2014-02-16T12:05:06Z</time>
      </trkpt>
      <trkpt lat="45.85721" lon="4.79437">
        <ele>468</ele>
        <time>2014-02-16T12:05:08Z</time>
      </trkpt>
      <trkpt lat="45.85721" lon="4.79438">
        <ele>468</ele>
        <time>2014-02-16T12:05:09Z</time>
      </trkpt>
      <trkpt lat="45.8572" lon="4.79444">
        <ele>468</ele>
        <time>2014-02-16T12:05:13Z</time>
      </trkpt>
      <trkpt lat="45.85723" lon="4.79446">
        <ele>468</ele>
        <time>2014-02-16T12:05:17Z</time>
      </trkpt>
      <trkpt lat="45.85723" lon="4.79447">
        <ele>467</ele>
        <time>2014-02-16T12:05:19Z</time>
      </trkpt>
      <trkpt lat="45.85722" lon="4.79454">
        <ele>467</ele>
        <time>2014-02-16T12:05:25Z</time>
      </trkpt>
      <trkpt lat="45.85721" lon="4.79457">
        <ele>466</ele>
        <time>2014-02-16T12:05:27Z</time>
      </trkpt>
      <trkpt lat="45.85718" lon="4.79463">
        <ele>465</ele>
        <time>2014-02-16T12:05:30Z</time>
      </trkpt>
      <trkpt lat="45.85716" lon="4.79467">
        <ele>465</ele>
        <time>2014-02-16T12:05:33Z</time>
      </trkpt>
      <trkpt lat="45.85716" lon="4.79469">
        <ele>465</ele>
        <time>2014-02-16T12:05:35Z</time>
      </trkpt>
      <trkpt lat="45.85717" lon="4.79478">
        <ele>464</ele>
        <time>2014-02-16T12:05:40Z</time>
      </trkpt>
      <trkpt lat="45.85718" lon="4.7948">
        <ele>464</ele>
        <time>2014-02-16T12:05:41Z</time>
      </trkpt>
      <trkpt lat="45.85717" lon="4.79486">
        <ele>463</ele>
        <time>2014-02-16T12:05:44Z</time>
      </trkpt>
      <trkpt lat="45.85717" lon="4.79491">
        <ele>463</ele>
        <time>2014-02-16T12:05:47Z</time>
      </trkpt>
      <trkpt lat="45.85715" lon="4.79494">
        <ele>463</ele>
        <time>2014-02-16T12:05:50Z</time>
      </trkpt>
      <trkpt lat="45.85713" lon="4.79495">
        <ele>463</ele>
        <time>2014-02-16T12:05:52Z</time>
      </trkpt>
      <trkpt lat="45.85707" lon="4.79497">
        <ele>462</ele>
        <time>2014-02-16T12:05:57Z</time>
      </trkpt>
      <trkpt lat="45.85707" lon="4.79499">
        <ele>462</ele>
        <time>2014-02-16T12:05:58Z</time>
      </trkpt>
      <trkpt lat="45.85701" lon="4.79502">
        <ele>450</ele>
        <time>2014-02-16T12:06:04Z</time>
      </trkpt>
      <trkpt lat="45.85698" lon="4.79503">
        <ele>450</ele>
        <time>2014-02-16T12:06:07Z</time>
      </trkpt>
      <trkpt lat="45.85697" lon="4.79503">
        <ele>450</ele>
        <time>2014-02-16T12:06:08Z</time>
      </trkpt>
      <trkpt lat="45.85695" lon="4.79503">
        <ele>450</ele>
        <time>2014-02-16T12:06:10Z</time>
      </trkpt>
      <trkpt lat="45.85692" lon="4.79503">
        <ele>451</ele>
        <time>2014-02-16T12:06:12Z</time>
      </trkpt>
      <trkpt lat="45.8569" lon="4.79502">
        <ele>451</ele>
        <time>2014-02-16T12:06:13Z</time>
      </trkpt>
      <trkpt lat="45.85686" lon="4.79499">
        <ele>461</ele>
        <time>2014-02-16T12:06:17Z</time>
      </trkpt>
      <trkpt lat="45.85678" lon="4.79497">
        <ele>459</ele>
        <time>2014-02-16T12:06:24Z</time>
      </trkpt>
      <trkpt lat="45.85673" lon="4.79496">
        <ele>458</ele>
        <time>2014-02-16T12:06:28Z</time>
      </trkpt>
      <trkpt lat="45.85668" lon="4.79493">
        <ele>458</ele>
        <time>2014-02-16T12:06:31Z</time>
      </trkpt>
      <trkpt lat="45.85666" lon="4.79494">
        <ele>456</ele>
        <time>2014-02-16T12:06:32Z</time>
      </trkpt>
      <trkpt lat="45.8566" lon="4.79494">
        <ele>456</ele>
        <time>2014-02-16T12:06:36Z</time>
      </trkpt>
      <trkpt lat="45.85657" lon="4.79492">
        <ele>456</ele>
        <time>2014-02-16T12:06:41Z</time>
      </trkpt>
      <trkpt lat="45.85654" lon="4.79494">
        <ele>456</ele>
        <time>2014-02-16T12:06:45Z</time>
      </trkpt>
      <trkpt lat="45.85653" lon="4.79494">
        <ele>455</ele>
        <time>2014-02-16T12:06:46Z</time>
      </trkpt>
      <trkpt lat="45.85651" lon="4.79495">
        <ele>455</ele>
        <time>2014-02-16T12:06:54Z</time>
      </trkpt>
      <trkpt lat="45.85649" lon="4.79494">
        <ele>455</ele>
        <time>2014-02-16T12:07:00Z</time>
      </trkpt>
      <trkpt lat="45.85654" lon="4.79495">
        <ele>455</ele>
        <time>2014-02-16T12:07:05Z</time>
      </trkpt>
      <trkpt lat="45.85654" lon="4.79496">
        <ele>455</ele>
        <time>2014-02-16T12:07:06Z</time>
      </trkpt>
      <trkpt lat="45.85655" lon="4.795">
        <ele>455</ele>
        <time>2014-02-16T12:07:10Z</time>
      </trkpt>
      <trkpt lat="45.85654" lon="4.79499">
        <ele>455</ele>
        <time>2014-02-16T12:07:17Z</time>
      </trkpt>
      <trkpt lat="45.8565" lon="4.79499">
        <ele>455</ele>
        <time>2014-02-16T12:07:24Z</time>
      </trkpt>
      <trkpt lat="45.85649" lon="4.79499">
        <ele>455</ele>
        <time>2014-02-16T12:07:25Z</time>
      </trkpt>
      <trkpt lat="45.85644" lon="4.79499">
        <ele>455</ele>
        <time>2014-02-16T12:07:29Z</time>
      </trkpt>
      <trkpt lat="45.85641" lon="4.79498">
        <ele>454</ele>
        <time>2014-02-16T12:07:31Z</time>
      </trkpt>
      <trkpt lat="45.85636" lon="4.79495">
        <ele>454</ele>
        <time>2014-02-16T12:07:36Z</time>
      </trkpt>
      <trkpt lat="45.85633" lon="4.79494">
        <ele>454</ele>
        <time>2014-02-16T12:07:38Z</time>
      </trkpt>
      <trkpt lat="45.8563" lon="4.79493">
        <ele>453</ele>
        <time>2014-02-16T12:07:39Z</time>
      </trkpt>
      <trkpt lat="45.85628" lon="4.79492">
        <ele>453</ele>
        <time>2014-02-16T12:07:40Z</time>
      </trkpt>
      <trkpt lat="45.85622" lon="4.79487">
        <ele>452</ele>
        <time>2014-02-16T12:07:45Z</time>
      </trkpt>
      <trkpt lat="45.85621" lon="4.79486">
        <ele>452</ele>
        <time>2014-02-16T12:07:46Z</time>
      </trkpt>
      <trkpt lat="45.85618" lon="4.7948">
        <ele>452</ele>
        <time>2014-02-16T12:07:49Z</time>
      </trkpt>
      <trkpt lat="45.85615" lon="4.79478">
        <ele>452</ele>
        <time>2014-02-16T12:07:51Z</time>
      </trkpt>
      <trkpt lat="45.85613" lon="4.79476">
        <ele>452</ele>
        <time>2014-02-16T12:07:53Z</time>
      </trkpt>
      <trkpt lat="45.85612" lon="4.79476">
        <ele>452</ele>
        <time>2014-02-16T12:07:54Z</time>
      </trkpt>
      <trkpt lat="45.85611" lon="4.79476">
        <ele>452</ele>
        <time>2014-02-16T12:07:57Z</time>
      </trkpt>
      <trkpt lat="45.85612" lon="4.79474">
        <ele>452</ele>
        <time>2014-02-16T12:07:59Z</time>
      </trkpt>
      <trkpt lat="45.85615" lon="4.79474">
        <ele>453</ele>
        <time>2014-02-16T12:08:02Z</time>
      </trkpt>
      <trkpt lat="45.85619" lon="4.79475">
        <ele>453</ele>
        <time>2014-02-16T12:08:05Z</time>
      </trkpt>
      <trkpt lat="45.85622" lon="4.79474">
        <ele>453</ele>
        <time>2014-02-16T12:08:08Z</time>
      </trkpt>
      <trkpt lat="45.85624" lon="4.79474">
        <ele>454</ele>
        <time>2014-02-16T12:08:10Z</time>
      </trkpt>
      <trkpt lat="45.85626" lon="4.79473">
        <ele>454</ele>
        <time>2014-02-16T12:08:11Z</time>
      </trkpt>
      <trkpt lat="45.85627" lon="4.79472">
        <ele>454</ele>
        <time>2014-02-16T12:08:12Z</time>
      </trkpt>
      <trkpt lat="45.85628" lon="4.79472">
        <ele>454</ele>
        <time>2014-02-16T12:08:13Z</time>
      </trkpt>
      <trkpt lat="45.8563" lon="4.79474">
        <ele>454</ele>
        <time>2014-02-16T12:08:16Z</time>
      </trkpt>
      <trkpt lat="45.85631" lon="4.79473">
        <ele>455</ele>
        <time>2014-02-16T12:08:17Z</time>
      </trkpt>
      <trkpt lat="45.85635" lon="4.79466">
        <ele>456</ele>
        <time>2014-02-16T12:08:22Z</time>
      </trkpt>
      <trkpt lat="45.85636" lon="4.79464">
        <ele>456</ele>
        <time>2014-02-16T12:08:25Z</time>
      </trkpt>
      <trkpt lat="45.85637" lon="4.79464">
        <ele>456</ele>
        <time>2014-02-16T12:08:26Z</time>
      </trkpt>
      <trkpt lat="45.85638" lon="4.79461">
        <ele>456</ele>
        <time>2014-02-16T12:08:33Z</time>
      </trkpt>
      <trkpt lat="45.85637" lon="4.79458">
        <ele>456</ele>
        <time>2014-02-16T12:08:35Z</time>
      </trkpt>
      <trkpt lat="45.85635" lon="4.79452">
        <ele>457</ele>
        <time>2014-02-16T12:08:39Z</time>
      </trkpt>
      <trkpt lat="45.85635" lon="4.79448">
        <ele>457</ele>
        <time>2014-02-16T12:08:43Z</time>
      </trkpt>
      <trkpt lat="45.85635" lon="4.79447">
        <ele>458</ele>
        <time>2014-02-16T12:08:45Z</time>
      </trkpt>
      <trkpt lat="45.85635" lon="4.79446">
        <ele>458</ele>
        <time>2014-02-16T12:08:46Z</time>
      </trkpt>
      <trkpt lat="45.85635" lon="4.79445">
        <ele>458</ele>
        <time>2014-02-16T12:08:47Z</time>
      </trkpt>
      <trkpt lat="45.85636" lon="4.79443">
        <ele>458</ele>
        <time>2014-02-16T12:08:52Z</time>
      </trkpt>
      <trkpt lat="45.85635" lon="4.7944">
        <ele>458</ele>
        <time>2014-02-16T12:09:00Z</time>
      </trkpt>
      <trkpt lat="45.85634" lon="4.79437">
        <ele>458</ele>
        <time>2014-02-16T12:09:06Z</time>
      </trkpt>
      <trkpt lat="45.85633" lon="4.79436">
        <ele>458</ele>
        <time>2014-02-16T12:09:09Z</time>
      </trkpt>
      <trkpt lat="45.85633" lon="4.79435">
        <ele>459</ele>
        <time>2014-02-16T12:09:11Z</time>
      </trkpt>
      <trkpt lat="45.85634" lon="4.79433">
        <ele>459</ele>
        <time>2014-02-16T12:09:12Z</time>
      </trkpt>
      <trkpt lat="45.85635" lon="4.7943">
        <ele>459</ele>
        <time>2014-02-16T12:09:16Z</time>
      </trkpt>
      <trkpt lat="45.85637" lon="4.79427">
        <ele>460</ele>
        <time>2014-02-16T12:09:21Z</time>
      </trkpt>
      <trkpt lat="45.85639" lon="4.79425">
        <ele>460</ele>
        <time>2014-02-16T12:09:25Z</time>
      </trkpt>
      <trkpt lat="45.85638" lon="4.79414">
        <ele>467</ele>
        <time>2014-02-16T12:09:31Z</time>
      </trkpt>
      <trkpt lat="45.85638" lon="4.79412">
        <ele>467</ele>
        <time>2014-02-16T12:09:32Z</time>
      </trkpt>
      <trkpt lat="45.85636" lon="4.79404">
        <ele>466</ele>
        <time>2014-02-16T12:09:36Z</time>
      </trkpt>
      <trkpt lat="45.85633" lon="4.79392">
        <ele>466</ele>
        <time>2014-02-16T12:09:43Z</time>
      </trkpt>
      <trkpt lat="45.85631" lon="4.79386">
        <ele>466</ele>
        <time>2014-02-16T12:09:46Z</time>
      </trkpt>
      <trkpt lat="45.85629" lon="4.79377">
        <ele>466</ele>
        <time>2014-02-16T12:09:51Z</time>
      </trkpt>
      <trkpt lat="45.85625" lon="4.79359">
        <ele>466</ele>
        <time>2014-02-16T12:09:58Z</time>
      </trkpt>
      <trkpt lat="45.85615" lon="4.79344">
        <ele>466</ele>
        <time>2014-02-16T12:10:04Z</time>
      </trkpt>
      <trkpt lat="45.85612" lon="4.79338">
        <ele>465</ele>
        <time>2014-02-16T12:10:06Z</time>
      </trkpt>
      <trkpt lat="45.85607" lon="4.79329">
        <ele>468</ele>
        <time>2014-02-16T12:10:10Z</time>
      </trkpt>
      <trkpt lat="45.85606" lon="4.79325">
        <ele>468</ele>
        <time>2014-02-16T12:10:17Z</time>
      </trkpt>
      <trkpt lat="45.85601" lon="4.79318">
        <ele>468</ele>
        <time>2014-02-16T12:10:20Z</time>
      </trkpt>
      <trkpt lat="45.85597" lon="4.79312">
        <ele>468</ele>
        <time>2014-02-16T12:10:22Z</time>
      </trkpt>
      <trkpt lat="45.85587" lon="4.79299">
        <ele>468</ele>
        <time>2014-02-16T12:10:27Z</time>
      </trkpt>
      <trkpt lat="45.85585" lon="4.79296">
        <ele>469</ele>
        <time>2014-02-16T12:10:28Z</time>
      </trkpt>
      <trkpt lat="45.85577" lon="4.79286">
        <ele>463</ele>
        <time>2014-02-16T12:10:33Z</time>
      </trkpt>
      <trkpt lat="45.85576" lon="4.79286">
        <ele>463</ele>
        <time>2014-02-16T12:10:34Z</time>
      </trkpt>
      <trkpt lat="45.85579" lon="4.7929">
        <ele>463</ele>
        <time>2014-02-16T12:10:37Z</time>
      </trkpt>
      <trkpt lat="45.85581" lon="4.79295">
        <ele>462</ele>
        <time>2014-02-16T12:10:40Z</time>
      </trkpt>
      <trkpt lat="45.85584" lon="4.79306">
        <ele>468</ele>
        <time>2014-02-16T12:10:45Z</time>
      </trkpt>
      <trkpt lat="45.85591" lon="4.79307">
        <ele>468</ele>
        <time>2014-02-16T12:10:52Z</time>
      </trkpt>
      <trkpt lat="45.85596" lon="4.7931">
        <ele>468</ele>
        <time>2014-02-16T12:10:54Z</time>
      </trkpt>
      <trkpt lat="45.85601" lon="4.7931">
        <ele>468</ele>
        <time>2014-02-16T12:10:56Z</time>
      </trkpt>
      <trkpt lat="45.85604" lon="4.79309">
        <ele>469</ele>
        <time>2014-02-16T12:10:58Z</time>
      </trkpt>
      <trkpt lat="45.85606" lon="4.79309">
        <ele>469</ele>
        <time>2014-02-16T12:11:00Z</time>
      </trkpt>
      <trkpt lat="45.85602" lon="4.79309">
        <ele>468</ele>
        <time>2014-02-16T12:11:06Z</time>
      </trkpt>
      <trkpt lat="45.85601" lon="4.79309">
        <ele>468</ele>
        <time>2014-02-16T12:11:07Z</time>
      </trkpt>
      <trkpt lat="45.85591" lon="4.79305">
        <ele>468</ele>
        <time>2014-02-16T12:11:12Z</time>
      </trkpt>
      <trkpt lat="45.85584" lon="4.79299">
        <ele>468</ele>
        <time>2014-02-16T12:11:15Z</time>
      </trkpt>
      <trkpt lat="45.85578" lon="4.79292">
        <ele>462</ele>
        <time>2014-02-16T12:11:18Z</time>
      </trkpt>
      <trkpt lat="45.8557" lon="4.79282">
        <ele>463</ele>
        <time>2014-02-16T12:11:22Z</time>
      </trkpt>
      <trkpt lat="45.85568" lon="4.79276">
        <ele>463</ele>
        <time>2014-02-16T12:11:24Z</time>
      </trkpt>
      <trkpt lat="45.85567" lon="4.7927">
        <ele>463</ele>
        <time>2014-02-16T12:11:26Z</time>
      </trkpt>
      <trkpt lat="45.85567" lon="4.79268">
        <ele>464</ele>
        <time>2014-02-16T12:11:28Z</time>
      </trkpt>
      <trkpt lat="45.85566" lon="4.79268">
        <ele>464</ele>
        <time>2014-02-16T12:11:36Z</time>
      </trkpt>
      <trkpt lat="45.85567" lon="4.79271">
        <ele>463</ele>
        <time>2014-02-16T12:11:39Z</time>
      </trkpt>
      <trkpt lat="45.85564" lon="4.79273">
        <ele>463</ele>
        <time>2014-02-16T12:11:41Z</time>
      </trkpt>
      <trkpt lat="45.85563" lon="4.79273">
        <ele>463</ele>
        <time>2014-02-16T12:11:42Z</time>
      </trkpt>
      <trkpt lat="45.85561" lon="4.79271">
        <ele>463</ele>
        <time>2014-02-16T12:11:45Z</time>
      </trkpt>
      <trkpt lat="45.85561" lon="4.79271">
        <ele>463</ele>
        <time>2014-02-16T12:11:46Z</time>
      </trkpt>
      <trkpt lat="45.85562" lon="4.79271">
        <ele>463</ele>
        <time>2014-02-16T12:11:51Z</time>
      </trkpt>
      <trkpt lat="45.85559" lon="4.79272">
        <ele>463</ele>
        <time>2014-02-16T12:11:54Z</time>
      </trkpt>
      <trkpt lat="45.85558" lon="4.79272">
        <ele>463</ele>
        <time>2014-02-16T12:11:55Z</time>
      </trkpt>
      <trkpt lat="45.85547" lon="4.7927">
        <ele>462</ele>
        <time>2014-02-16T12:12:01Z</time>
      </trkpt>
      <trkpt lat="45.85544" lon="4.7927">
        <ele>461</ele>
        <time>2014-02-16T12:12:02Z</time>
      </trkpt>
      <trkpt lat="45.85527" lon="4.79272">
        <ele>460</ele>
        <time>2014-02-16T12:12:08Z</time>
      </trkpt>
      <trkpt lat="45.85524" lon="4.79273">
        <ele>460</ele>
        <time>2014-02-16T12:12:09Z</time>
      </trkpt>
      <trkpt lat="45.85507" lon="4.79275">
        <ele>459</ele>
        <time>2014-02-16T12:12:15Z</time>
      </trkpt>
      <trkpt lat="45.85491" lon="4.79278">
        <ele>454</ele>
        <time>2014-02-16T12:12:21Z</time>
      </trkpt>
      <trkpt lat="45.85488" lon="4.79278">
        <ele>454</ele>
        <time>2014-02-16T12:12:22Z</time>
      </trkpt>
      <trkpt lat="45.85477" lon="4.7928">
        <ele>454</ele>
        <time>2014-02-16T12:12:26Z</time>
      </trkpt>
      <trkpt lat="45.85471" lon="4.79288">
        <ele>453</ele>
        <time>2014-02-16T12:12:29Z</time>
      </trkpt>
      <trkpt lat="45.8547" lon="4.79292">
        <ele>453</ele>
        <time>2014-02-16T12:12:30Z</time>
      </trkpt>
      <trkpt lat="45.85462" lon="4.79304">
        <ele>453</ele>
        <time>2014-02-16T12:12:34Z</time>
      </trkpt>
      <trkpt lat="45.85459" lon="4.79306">
        <ele>452</ele>
        <time>2014-02-16T12:12:35Z</time>
      </trkpt>
      <trkpt lat="45.85449" lon="4.79314">
        <ele>452</ele>
        <time>2014-02-16T12:12:39Z</time>
      </trkpt>
      <trkpt lat="45.8544" lon="4.79319">
        <ele>451</ele>
        <time>2014-02-16T12:12:42Z</time>
      </trkpt>
      <trkpt lat="45.85435" lon="4.79325">
        <ele>451</ele>
        <time>2014-02-16T12:12:44Z</time>
      </trkpt>
      <trkpt lat="45.85424" lon="4.79333">
        <ele>448</ele>
        <time>2014-02-16T12:12:48Z</time>
      </trkpt>
      <trkpt lat="45.8542" lon="4.79338">
        <ele>448</ele>
        <time>2014-02-16T12:12:50Z</time>
      </trkpt>
      <trkpt lat="45.85408" lon="4.7935">
        <ele>447</ele>
        <time>2014-02-16T12:12:55Z</time>
      </trkpt>
      <trkpt lat="45.85405" lon="4.79352">
        <ele>447</ele>
        <time>2014-02-16T12:12:56Z</time>
      </trkpt>
      <trkpt lat="45.85393" lon="4.79362">
        <ele>447</ele>
        <time>2014-02-16T12:13:01Z</time>
      </trkpt>
      <trkpt lat="45.85391" lon="4.79365">
        <ele>446</ele>
        <time>2014-02-16T12:13:02Z</time>
      </trkpt>
      <trkpt lat="45.85381" lon="4.79376">
        <ele>446</ele>
        <time>2014-02-16T12:13:07Z</time>
      </trkpt>
      <trkpt lat="45.85374" lon="4.79377">
        <ele>446</ele>
        <time>2014-02-16T12:13:10Z</time>
      </trkpt>
      <trkpt lat="45.85372" lon="4.79375">
        <ele>446</ele>
        <time>2014-02-16T12:13:11Z</time>
      </trkpt>
      <trkpt lat="45.85362" lon="4.79366">
        <ele>447</ele>
        <time>2014-02-16T12:13:16Z</time>
      </trkpt>
      <trkpt lat="45.85357" lon="4.79363">
        <ele>447</ele>
        <time>2014-02-16T12:13:18Z</time>
      </trkpt>
      <trkpt lat="45.8535" lon="4.79359">
        <ele>447</ele>
        <time>2014-02-16T12:13:21Z</time>
      </trkpt>
      <trkpt lat="45.85339" lon="4.79352">
        <ele>448</ele>
        <time>2014-02-16T12:13:26Z</time>
      </trkpt>
      <trkpt lat="45.85328" lon="4.79346">
        <ele>450</ele>
        <time>2014-02-16T12:13:31Z</time>
      </trkpt>
      <trkpt lat="45.85326" lon="4.79345">
        <ele>450</ele>
        <time>2014-02-16T12:13:32Z</time>
      </trkpt>
      <trkpt lat="45.85322" lon="4.79342">
        <ele>450</ele>
        <time>2014-02-16T12:13:34Z</time>
      </trkpt>
      <trkpt lat="45.85315" lon="4.79339">
        <ele>450</ele>
        <time>2014-02-16T12:13:39Z</time>
      </trkpt>
      <trkpt lat="45.85313" lon="4.79338">
        <ele>450</ele>
        <time>2014-02-16T12:13:42Z</time>
      </trkpt>
      <trkpt lat="45.8531" lon="4.79338">
        <ele>450</ele>
        <time>2014-02-16T12:13:45Z</time>
      </trkpt>
      <trkpt lat="45.85305" lon="4.79334">
        <ele>450</ele>
        <time>2014-02-16T12:13:50Z</time>
      </trkpt>
      <trkpt lat="45.85303" lon="4.79334">
        <ele>450</ele>
        <time>2014-02-16T12:13:51Z</time>
      </trkpt>
      <trkpt lat="45.85296" lon="4.79335">
        <ele>450</ele>
        <time>2014-02-16T12:13:57Z</time>
      </trkpt>
      <trkpt lat="45.85295" lon="4.79335">
        <ele>451</ele>
        <time>2014-02-16T12:13:58Z</time>
      </trkpt>
      <trkpt lat="45.85291" lon="4.79336">
        <ele>451</ele>
        <time>2014-02-16T12:14:02Z</time>
      </trkpt>
      <trkpt lat="45.85289" lon="4.79336">
        <ele>451</ele>
        <time>2014-02-16T12:14:03Z</time>
      </trkpt>
      <trkpt lat="45.85288" lon="4.79336">
        <ele>451</ele>
        <time>2014-02-16T12:14:04Z</time>
      </trkpt>
      <trkpt lat="45.85284" lon="4.79339">
        <ele>451</ele>
        <time>2014-02-16T12:14:07Z</time>
      </trkpt>
      <trkpt lat="45.85283" lon="4.79338">
        <ele>451</ele>
        <time>2014-02-16T12:14:08Z</time>
      </trkpt>
      <trkpt lat="45.85282" lon="4.79338">
        <ele>452</ele>
        <time>2014-02-16T12:14:10Z</time>
      </trkpt>
      <trkpt lat="45.85272" lon="4.7934">
        <ele>453</ele>
        <time>2014-02-16T12:14:18Z</time>
      </trkpt>
      <trkpt lat="45.85266" lon="4.7934">
        <ele>455</ele>
        <time>2014-02-16T12:14:23Z</time>
      </trkpt>
      <trkpt lat="45.85265" lon="4.79339">
        <ele>455</ele>
        <time>2014-02-16T12:14:24Z</time>
      </trkpt>
      <trkpt lat="45.85258" lon="4.79337">
        <ele>458</ele>
        <time>2014-02-16T12:14:31Z</time>
      </trkpt>
      <trkpt lat="45.8525" lon="4.79336">
        <ele>462</ele>
        <time>2014-02-16T12:14:38Z</time>
      </trkpt>
      <trkpt lat="45.85246" lon="4.79334">
        <ele>461</ele>
        <time>2014-02-16T12:14:43Z</time>
      </trkpt>
      <trkpt lat="45.85243" lon="4.79334">
        <ele>460</ele>
        <time>2014-02-16T12:14:45Z</time>
      </trkpt>
      <trkpt lat="45.8524" lon="4.79332">
        <ele>467</ele>
        <time>2014-02-16T12:14:49Z</time>
      </trkpt>
      <trkpt lat="45.85239" lon="4.79331">
        <ele>467</ele>
        <time>2014-02-16T12:14:50Z</time>
      </trkpt>
      <trkpt lat="45.85238" lon="4.7933">
        <ele>468</ele>
        <time>2014-02-16T12:14:51Z</time>
      </trkpt>
      <trkpt lat="45.85234" lon="4.79326">
        <ele>469</ele>
        <time>2014-02-16T12:14:55Z</time>
      </trkpt>
      <trkpt lat="45.85233" lon="4.79326">
        <ele>469</ele>
        <time>2014-02-16T12:14:56Z</time>
      </trkpt>
      <trkpt lat="45.85232" lon="4.79325">
        <ele>470</ele>
        <time>2014-02-16T12:14:58Z</time>
      </trkpt>
      <trkpt lat="45.8523" lon="4.79324">
        <ele>470</ele>
        <time>2014-02-16T12:15:00Z</time>
      </trkpt>
      <trkpt lat="45.85228" lon="4.79322">
        <ele>471</ele>
        <time>2014-02-16T12:15:02Z</time>
      </trkpt>
      <trkpt lat="45.85226" lon="4.79322">
        <ele>471</ele>
        <time>2014-02-16T12:15:04Z</time>
      </trkpt>
      <trkpt lat="45.85223" lon="4.79318">
        <ele>472</ele>
        <time>2014-02-16T12:15:08Z</time>
      </trkpt>
      <trkpt lat="45.85222" lon="4.79317">
        <ele>472</ele>
        <time>2014-02-16T12:15:09Z</time>
      </trkpt>
      <trkpt lat="45.85217" lon="4.79315">
        <ele>472</ele>
        <time>2014-02-16T12:15:13Z</time>
      </trkpt>
      <trkpt lat="45.85215" lon="4.79313">
        <ele>473</ele>
        <time>2014-02-16T12:15:16Z</time>
      </trkpt>
      <trkpt lat="45.85211" lon="4.79309">
        <ele>473</ele>
        <time>2014-02-16T12:15:20Z</time>
      </trkpt>
      <trkpt lat="45.8521" lon="4.79308">
        <ele>474</ele>
        <time>2014-02-16T12:15:21Z</time>
      </trkpt>
      <trkpt lat="45.85208" lon="4.79307">
        <ele>474</ele>
        <time>2014-02-16T12:15:22Z</time>
      </trkpt>
      <trkpt lat="45.85205" lon="4.79303">
        <ele>474</ele>
        <time>2014-02-16T12:15:25Z</time>
      </trkpt>
      <trkpt lat="45.85202" lon="4.793">
        <ele>474</ele>
        <time>2014-02-16T12:15:29Z</time>
      </trkpt>
      <trkpt lat="45.852" lon="4.79302">
        <ele>474</ele>
        <time>2014-02-16T12:15:33Z</time>
      </trkpt>
      <trkpt lat="45.85199" lon="4.79304">
        <ele>474</ele>
        <time>2014-02-16T12:15:35Z</time>
      </trkpt>
      <trkpt lat="45.85195" lon="4.79307">
        <ele>474</ele>
        <time>2014-02-16T12:15:55Z</time>
      </trkpt>
      <trkpt lat="45.85196" lon="4.79304">
        <ele>474</ele>
        <time>2014-02-16T12:15:59Z</time>
      </trkpt>
      <trkpt lat="45.85197" lon="4.79303">
        <ele>474</ele>
        <time>2014-02-16T12:16:01Z</time>
      </trkpt>
      <trkpt lat="45.85197" lon="4.79299">
        <ele>475</ele>
        <time>2014-02-16T12:16:07Z</time>
      </trkpt>
      <trkpt lat="45.85196" lon="4.79295">
        <ele>475</ele>
        <time>2014-02-16T12:16:12Z</time>
      </trkpt>
      <trkpt lat="45.85193" lon="4.79292">
        <ele>475</ele>
        <time>2014-02-16T12:16:16Z</time>
      </trkpt>
      <trkpt lat="45.8519" lon="4.79292">
        <ele>476</ele>
        <time>2014-02-16T12:16:18Z</time>
      </trkpt>
      <trkpt lat="45.85187" lon="4.79288">
        <ele>476</ele>
        <time>2014-02-16T12:16:20Z</time>
      </trkpt>
      <trkpt lat="45.85183" lon="4.79283">
        <ele>477</ele>
        <time>2014-02-16T12:16:25Z</time>
      </trkpt>
      <trkpt lat="45.8518" lon="4.79282">
        <ele>477</ele>
        <time>2014-02-16T12:16:27Z</time>
      </trkpt>
      <trkpt lat="45.85177" lon="4.7928">
        <ele>477</ele>
        <time>2014-02-16T12:16:29Z</time>
      </trkpt>
      <trkpt lat="45.85174" lon="4.79278">
        <ele>477</ele>
        <time>2014-02-16T12:16:31Z</time>
      </trkpt>
      <trkpt lat="45.85171" lon="4.79277">
        <ele>478</ele>
        <time>2014-02-16T12:16:34Z</time>
      </trkpt>
      <trkpt lat="45.8517" lon="4.79276">
        <ele>478</ele>
        <time>2014-02-16T12:16:35Z</time>
      </trkpt>
      <trkpt lat="45.85168" lon="4.79275">
        <ele>478</ele>
        <time>2014-02-16T12:16:36Z</time>
      </trkpt>
      <trkpt lat="45.85167" lon="4.79275">
        <ele>478</ele>
        <time>2014-02-16T12:16:37Z</time>
      </trkpt>
      <trkpt lat="45.8516" lon="4.79279">
        <ele>477</ele>
        <time>2014-02-16T12:16:42Z</time>
      </trkpt>
      <trkpt lat="45.85153" lon="4.7928">
        <ele>477</ele>
        <time>2014-02-16T12:16:45Z</time>
      </trkpt>
      <trkpt lat="45.85151" lon="4.79279">
        <ele>477</ele>
        <time>2014-02-16T12:16:46Z</time>
      </trkpt>
      <trkpt lat="45.85148" lon="4.79279">
        <ele>477</ele>
        <time>2014-02-16T12:16:47Z</time>
      </trkpt>
      <trkpt lat="45.85137" lon="4.79279">
        <ele>476</ele>
        <time>2014-02-16T12:16:51Z</time>
      </trkpt>
      <trkpt lat="45.85135" lon="4.79278">
        <ele>476</ele>
        <time>2014-02-16T12:16:52Z</time>
      </trkpt>
      <trkpt lat="45.85127" lon="4.79274">
        <ele>476</ele>
        <time>2014-02-16T12:16:55Z</time>
      </trkpt>
      <trkpt lat="45.85124" lon="4.79271">
        <ele>476</ele>
        <time>2014-02-16T12:16:57Z</time>
      </trkpt>
      <trkpt lat="45.85119" lon="4.79272">
        <ele>476</ele>
        <time>2014-02-16T12:17:00Z</time>
      </trkpt>
      <trkpt lat="45.85117" lon="4.79274">
        <ele>476</ele>
        <time>2014-02-16T12:17:02Z</time>
      </trkpt>
      <trkpt lat="45.85111" lon="4.79271">
        <ele>476</ele>
        <time>2014-02-16T12:17:07Z</time>
      </trkpt>
      <trkpt lat="45.85109" lon="4.79271">
        <ele>476</ele>
        <time>2014-02-16T12:17:08Z</time>
      </trkpt>
      <trkpt lat="45.85102" lon="4.7927">
        <ele>476</ele>
        <time>2014-02-16T12:17:12Z</time>
      </trkpt>
      <trkpt lat="45.851" lon="4.79269">
        <ele>476</ele>
        <time>2014-02-16T12:17:13Z</time>
      </trkpt>
      <trkpt lat="45.85095" lon="4.79271">
        <ele>476</ele>
        <time>2014-02-16T12:17:16Z</time>
      </trkpt>
      <trkpt lat="45.85093" lon="4.79272">
        <ele>476</ele>
        <time>2014-02-16T12:17:17Z</time>
      </trkpt>
      <trkpt lat="45.8509" lon="4.79278">
        <ele>476</ele>
        <time>2014-02-16T12:17:21Z</time>
      </trkpt>
      <trkpt lat="45.85084" lon="4.79281">
        <ele>475</ele>
        <time>2014-02-16T12:17:26Z</time>
      </trkpt>
      <trkpt lat="45.85079" lon="4.79276">
        <ele>472</ele>
        <time>2014-02-16T12:17:30Z</time>
      </trkpt>
      <trkpt lat="45.85075" lon="4.79271">
        <ele>473</ele>
        <time>2014-02-16T12:17:32Z</time>
      </trkpt>
      <trkpt lat="45.85069" lon="4.79262">
        <ele>474</ele>
        <time>2014-02-16T12:17:36Z</time>
      </trkpt>
      <trkpt lat="45.85067" lon="4.79258">
        <ele>474</ele>
        <time>2014-02-16T12:17:38Z</time>
      </trkpt>
      <trkpt lat="45.85066" lon="4.79257">
        <ele>474</ele>
        <time>2014-02-16T12:17:39Z</time>
      </trkpt>
      <trkpt lat="45.8506" lon="4.79255">
        <ele>473</ele>
        <time>2014-02-16T12:17:42Z</time>
      </trkpt>
      <trkpt lat="45.85055" lon="4.79256">
        <ele>472</ele>
        <time>2014-02-16T12:17:44Z</time>
      </trkpt>
      <trkpt lat="45.85052" lon="4.79256">
        <ele>472</ele>
        <time>2014-02-16T12:17:45Z</time>
      </trkpt>
      <trkpt lat="45.85046" lon="4.79255">
        <ele>471</ele>
        <time>2014-02-16T12:17:47Z</time>
      </trkpt>
      <trkpt lat="45.85043" lon="4.79254">
        <ele>471</ele>
        <time>2014-02-16T12:17:48Z</time>
      </trkpt>
      <trkpt lat="45.85035" lon="4.7925">
        <ele>470</ele>
        <time>2014-02-16T12:17:51Z</time>
      </trkpt>
      <trkpt lat="45.8503" lon="4.79249">
        <ele>473</ele>
        <time>2014-02-16T12:17:53Z</time>
      </trkpt>
      <trkpt lat="45.8502" lon="4.7925">
        <ele>472</ele>
        <time>2014-02-16T12:17:57Z</time>
      </trkpt>
      <trkpt lat="45.85018" lon="4.7925">
        <ele>471</ele>
        <time>2014-02-16T12:17:58Z</time>
      </trkpt>
      <trkpt lat="45.85015" lon="4.79251">
        <ele>469</ele>
        <time>2014-02-16T12:17:59Z</time>
      </trkpt>
      <trkpt lat="45.85008" lon="4.79253">
        <ele>469</ele>
        <time>2014-02-16T12:18:02Z</time>
      </trkpt>
      <trkpt lat="45.85001" lon="4.79252">
        <ele>469</ele>
        <time>2014-02-16T12:18:05Z</time>
      </trkpt>
      <trkpt lat="45.84996" lon="4.79251">
        <ele>467</ele>
        <time>2014-02-16T12:18:07Z</time>
      </trkpt>
      <trkpt lat="45.84992" lon="4.7925">
        <ele>466</ele>
        <time>2014-02-16T12:18:09Z</time>
      </trkpt>
      <trkpt lat="45.84986" lon="4.79247">
        <ele>464</ele>
        <time>2014-02-16T12:18:12Z</time>
      </trkpt>
      <trkpt lat="45.84979" lon="4.79247">
        <ele>463</ele>
        <time>2014-02-16T12:18:15Z</time>
      </trkpt>
      <trkpt lat="45.84968" lon="4.79246">
        <ele>461</ele>
        <time>2014-02-16T12:18:20Z</time>
      </trkpt>
      <trkpt lat="45.8496" lon="4.79246">
        <ele>460</ele>
        <time>2014-02-16T12:18:23Z</time>
      </trkpt>
      <trkpt lat="45.84958" lon="4.79246">
        <ele>459</ele>
        <time>2014-02-16T12:18:24Z</time>
      </trkpt>
      <trkpt lat="45.84955" lon="4.79247">
        <ele>459</ele>
        <time>2014-02-16T12:18:25Z</time>
      </trkpt>
      <trkpt lat="45.84947" lon="4.79256">
        <ele>455</ele>
        <time>2014-02-16T12:18:30Z</time>
      </trkpt>
      <trkpt lat="45.84946" lon="4.79259">
        <ele>455</ele>
        <time>2014-02-16T12:18:31Z</time>
      </trkpt>
      <trkpt lat="45.84946" lon="4.79261">
        <ele>455</ele>
        <time>2014-02-16T12:18:32Z</time>
      </trkpt>
      <trkpt lat="45.8495" lon="4.79269">
        <ele>455</ele>
        <time>2014-02-16T12:18:35Z</time>
      </trkpt>
      <trkpt lat="45.84951" lon="4.79272">
        <ele>455</ele>
        <time>2014-02-16T12:18:36Z</time>
      </trkpt>
      <trkpt lat="45.84956" lon="4.79283">
        <ele>455</ele>
        <time>2014-02-16T12:18:40Z</time>
      </trkpt>
      <trkpt lat="45.84963" lon="4.79297">
        <ele>455</ele>
        <time>2014-02-16T12:18:45Z</time>
      </trkpt>
      <trkpt lat="45.84964" lon="4.793">
        <ele>455</ele>
        <time>2014-02-16T12:18:46Z</time>
      </trkpt>
      <trkpt lat="45.84964" lon="4.79306">
        <ele>455</ele>
        <time>2014-02-16T12:18:47Z</time>
      </trkpt>
      <trkpt lat="45.84962" lon="4.79313">
        <ele>454</ele>
        <time>2014-02-16T12:18:49Z</time>
      </trkpt>
      <trkpt lat="45.84955" lon="4.7931">
        <ele>453</ele>
        <time>2014-02-16T12:18:52Z</time>
      </trkpt>
      <trkpt lat="45.84951" lon="4.79307">
        <ele>453</ele>
        <time>2014-02-16T12:18:54Z</time>
      </trkpt>
      <trkpt lat="45.84943" lon="4.79305">
        <ele>452</ele>
        <time>2014-02-16T12:18:57Z</time>
      </trkpt>
      <trkpt lat="45.84933" lon="4.793">
        <ele>452</ele>
        <time>2014-02-16T12:19:01Z</time>
      </trkpt>
      <trkpt lat="45.8493" lon="4.79299">
        <ele>451</ele>
        <time>2014-02-16T12:19:02Z</time>
      </trkpt>
      <trkpt lat="45.84922" lon="4.79293">
        <ele>452</ele>
        <time>2014-02-16T12:19:06Z</time>
      </trkpt>
      <trkpt lat="45.84917" lon="4.79291">
        <ele>452</ele>
        <time>2014-02-16T12:19:10Z</time>
      </trkpt>
      <trkpt lat="45.84915" lon="4.79289">
        <ele>446</ele>
        <time>2014-02-16T12:19:11Z</time>
      </trkpt>
      <trkpt lat="45.8491" lon="4.79281">
        <ele>447</ele>
        <time>2014-02-16T12:19:14Z</time>
      </trkpt>
      <trkpt lat="45.84903" lon="4.7927">
        <ele>448</ele>
        <time>2014-02-16T12:19:18Z</time>
      </trkpt>
      <trkpt lat="45.84902" lon="4.79267">
        <ele>448</ele>
        <time>2014-02-16T12:19:19Z</time>
      </trkpt>
      <trkpt lat="45.84901" lon="4.79263">
        <ele>448</ele>
        <time>2014-02-16T12:19:20Z</time>
      </trkpt>
      <trkpt lat="45.84897" lon="4.79249">
        <ele>451</ele>
        <time>2014-02-16T12:19:24Z</time>
      </trkpt>
      <trkpt lat="45.84896" lon="4.79242">
        <ele>451</ele>
        <time>2014-02-16T12:19:26Z</time>
      </trkpt>
      <trkpt lat="45.84894" lon="4.79232">
        <ele>450</ele>
        <time>2014-02-16T12:19:29Z</time>
      </trkpt>
      <trkpt lat="45.84893" lon="4.79215">
        <ele>450</ele>
        <time>2014-02-16T12:19:34Z</time>
      </trkpt>
      <trkpt lat="45.84893" lon="4.79212">
        <ele>450</ele>
        <time>2014-02-16T12:19:35Z</time>
      </trkpt>
      <trkpt lat="45.84894" lon="4.79196">
        <ele>450</ele>
        <time>2014-02-16T12:19:39Z</time>
      </trkpt>
      <trkpt lat="45.84893" lon="4.79188">
        <ele>450</ele>
        <time>2014-02-16T12:19:41Z</time>
      </trkpt>
      <trkpt lat="45.84892" lon="4.79176">
        <ele>450</ele>
        <time>2014-02-16T12:19:44Z</time>
      </trkpt>
      <trkpt lat="45.84892" lon="4.79161">
        <ele>452</ele>
        <time>2014-02-16T12:19:48Z</time>
      </trkpt>
      <trkpt lat="45.84892" lon="4.79156">
        <ele>452</ele>
        <time>2014-02-16T12:19:49Z</time>
      </trkpt>
      <trkpt lat="45.8489" lon="4.79141">
        <ele>452</ele>
        <time>2014-02-16T12:19:53Z</time>
      </trkpt>
      <trkpt lat="45.8489" lon="4.79133">
        <ele>453</ele>
        <time>2014-02-16T12:19:55Z</time>
      </trkpt>
      <trkpt lat="45.8489" lon="4.7912">
        <ele>453</ele>
        <time>2014-02-16T12:19:59Z</time>
      </trkpt>
      <trkpt lat="45.84888" lon="4.79105">
        <ele>454</ele>
        <time>2014-02-16T12:20:03Z</time>
      </trkpt>
      <trkpt lat="45.84886" lon="4.79095">
        <ele>454</ele>
        <time>2014-02-16T12:20:06Z</time>
      </trkpt>
      <trkpt lat="45.84883" lon="4.79082">
        <ele>457</ele>
        <time>2014-02-16T12:20:10Z</time>
      </trkpt>
      <trkpt lat="45.84881" lon="4.79079">
        <ele>457</ele>
        <time>2014-02-16T12:20:11Z</time>
      </trkpt>
      <trkpt lat="45.84879" lon="4.79077">
        <ele>457</ele>
        <time>2014-02-16T12:20:12Z</time>
      </trkpt>
      <trkpt lat="45.84867" lon="4.79064">
        <ele>456</ele>
        <time>2014-02-16T12:20:18Z</time>
      </trkpt>
      <trkpt lat="45.84865" lon="4.79064">
        <ele>456</ele>
        <time>2014-02-16T12:20:19Z</time>
      </trkpt>
      <trkpt lat="45.84856" lon="4.79065">
        <ele>456</ele>
        <time>2014-02-16T12:20:23Z</time>
      </trkpt>
      <trkpt lat="45.84849" lon="4.79074">
        <ele>455</ele>
        <time>2014-02-16T12:20:27Z</time>
      </trkpt>
      <trkpt lat="45.84846" lon="4.79079">
        <ele>455</ele>
        <time>2014-02-16T12:20:29Z</time>
      </trkpt>
      <trkpt lat="45.84838" lon="4.79096">
        <ele>453</ele>
        <time>2014-02-16T12:20:35Z</time>
      </trkpt>
      <trkpt lat="45.84837" lon="4.79099">
        <ele>453</ele>
        <time>2014-02-16T12:20:36Z</time>
      </trkpt>
      <trkpt lat="45.84831" lon="4.79122">
        <ele>461</ele>
        <time>2014-02-16T12:20:43Z</time>
      </trkpt>
      <trkpt lat="45.84826" lon="4.79139">
        <ele>461</ele>
        <time>2014-02-16T12:20:49Z</time>
      </trkpt>
      <trkpt lat="45.84824" lon="4.79148">
        <ele>460</ele>
        <time>2014-02-16T12:20:52Z</time>
      </trkpt>
      <trkpt lat="45.84823" lon="4.79155">
        <ele>459</ele>
        <time>2014-02-16T12:20:55Z</time>
      </trkpt>
      <trkpt lat="45.84821" lon="4.79173">
        <ele>458</ele>
        <time>2014-02-16T12:21:01Z</time>
      </trkpt>
      <trkpt lat="45.84821" lon="4.79177">
        <ele>459</ele>
        <time>2014-02-16T12:21:02Z</time>
      </trkpt>
      <trkpt lat="45.84816" lon="4.79199">
        <ele>460</ele>
        <time>2014-02-16T12:21:09Z</time>
      </trkpt>
      <trkpt lat="45.84807" lon="4.79216">
        <ele>461</ele>
        <time>2014-02-16T12:21:15Z</time>
      </trkpt>
      <trkpt lat="45.84804" lon="4.79221">
        <ele>461</ele>
        <time>2014-02-16T12:21:17Z</time>
      </trkpt>
      <trkpt lat="45.848" lon="4.79228">
        <ele>461</ele>
        <time>2014-02-16T12:21:20Z</time>
      </trkpt>
      <trkpt lat="45.84789" lon="4.79238">
        <ele>464</ele>
        <time>2014-02-16T12:21:26Z</time>
      </trkpt>
      <trkpt lat="45.84787" lon="4.79239">
        <ele>464</ele>
        <time>2014-02-16T12:21:27Z</time>
      </trkpt>
      <trkpt lat="45.84778" lon="4.79246">
        <ele>466</ele>
        <time>2014-02-16T12:21:32Z</time>
      </trkpt>
      <trkpt lat="45.84774" lon="4.79253">
        <ele>466</ele>
        <time>2014-02-16T12:21:36Z</time>
      </trkpt>
      <trkpt lat="45.84771" lon="4.79255">
        <ele>467</ele>
        <time>2014-02-16T12:21:39Z</time>
      </trkpt>
      <trkpt lat="45.84771" lon="4.79258">
        <ele>466</ele>
        <time>2014-02-16T12:21:41Z</time>
      </trkpt>
      <trkpt lat="45.84767" lon="4.79269">
        <ele>466</ele>
        <time>2014-02-16T12:21:48Z</time>
      </trkpt>
      <trkpt lat="45.84767" lon="4.79271">
        <ele>466</ele>
        <time>2014-02-16T12:21:50Z</time>
      </trkpt>
      <trkpt lat="45.84765" lon="4.79277">
        <ele>466</ele>
        <time>2014-02-16T12:21:52Z</time>
      </trkpt>
      <trkpt lat="45.84764" lon="4.79282">
        <ele>466</ele>
        <time>2014-02-16T12:21:55Z</time>
      </trkpt>
      <trkpt lat="45.84765" lon="4.79291">
        <ele>465</ele>
        <time>2014-02-16T12:22:01Z</time>
      </trkpt>
      <trkpt lat="45.84769" lon="4.79293">
        <ele>465</ele>
        <time>2014-02-16T12:22:06Z</time>
      </trkpt>
      <trkpt lat="45.84769" lon="4.79294">
        <ele>465</ele>
        <time>2014-02-16T12:22:07Z</time>
      </trkpt>
      <trkpt lat="45.8477" lon="4.79303">
        <ele>465</ele>
        <time>2014-02-16T12:22:11Z</time>
      </trkpt>
      <trkpt lat="45.8477" lon="4.79306">
        <ele>465</ele>
        <time>2014-02-16T12:22:12Z</time>
      </trkpt>
      <trkpt lat="45.84771" lon="4.79309">
        <ele>465</ele>
        <time>2014-02-16T12:22:13Z</time>
      </trkpt>
      <trkpt lat="45.84772" lon="4.7932">
        <ele>466</ele>
        <time>2014-02-16T12:22:17Z</time>
      </trkpt>
      <trkpt lat="45.84773" lon="4.79322">
        <ele>466</ele>
        <time>2014-02-16T12:22:18Z</time>
      </trkpt>
      <trkpt lat="45.84773" lon="4.79331">
        <ele>466</ele>
        <time>2014-02-16T12:22:21Z</time>
      </trkpt>
      <trkpt lat="45.84775" lon="4.7934">
        <ele>468</ele>
        <time>2014-02-16T12:22:24Z</time>
      </trkpt>
      <trkpt lat="45.84776" lon="4.79357">
        <ele>467</ele>
        <time>2014-02-16T12:22:29Z</time>
      </trkpt>
      <trkpt lat="45.84778" lon="4.79372">
        <ele>467</ele>
        <time>2014-02-16T12:22:34Z</time>
      </trkpt>
      <trkpt lat="45.84778" lon="4.79385">
        <ele>468</ele>
        <time>2014-02-16T12:22:38Z</time>
      </trkpt>
      <trkpt lat="45.84778" lon="4.79388">
        <ele>468</ele>
        <time>2014-02-16T12:22:39Z</time>
      </trkpt>
      <trkpt lat="45.84777" lon="4.79405">
        <ele>470</ele>
        <time>2014-02-16T12:22:45Z</time>
      </trkpt>
      <trkpt lat="45.84777" lon="4.79412">
        <ele>470</ele>
        <time>2014-02-16T12:22:47Z</time>
      </trkpt>
      <trkpt lat="45.84777" lon="4.79421">
        <ele>473</ele>
        <time>2014-02-16T12:22:50Z</time>
      </trkpt>
      <trkpt lat="45.84775" lon="4.79438">
        <ele>473</ele>
        <time>2014-02-16T12:22:55Z</time>
      </trkpt>
      <trkpt lat="45.84774" lon="4.79454">
        <ele>473</ele>
        <time>2014-02-16T12:23:00Z</time>
      </trkpt>
      <trkpt lat="45.84773" lon="4.79464">
        <ele>473</ele>
        <time>2014-02-16T12:23:03Z</time>
      </trkpt>
      <trkpt lat="45.84772" lon="4.79476">
        <ele>474</ele>
        <time>2014-02-16T12:23:07Z</time>
      </trkpt>
      <trkpt lat="45.84771" lon="4.79492">
        <ele>475</ele>
        <time>2014-02-16T12:23:12Z</time>
      </trkpt>
      <trkpt lat="45.84771" lon="4.79495">
        <ele>476</ele>
        <time>2014-02-16T12:23:13Z</time>
      </trkpt>
      <trkpt lat="45.84771" lon="4.79509">
        <ele>476</ele>
        <time>2014-02-16T12:23:18Z</time>
      </trkpt>
      <trkpt lat="45.84772" lon="4.79519">
        <ele>474</ele>
        <time>2014-02-16T12:23:22Z</time>
      </trkpt>
      <trkpt lat="45.84772" lon="4.79521">
        <ele>474</ele>
        <time>2014-02-16T12:23:23Z</time>
      </trkpt>
      <trkpt lat="45.84773" lon="4.79531">
        <ele>473</ele>
        <time>2014-02-16T12:23:30Z</time>
      </trkpt>
      <trkpt lat="45.84775" lon="4.79533">
        <ele>473</ele>
        <time>2014-02-16T12:23:34Z</time>
      </trkpt>
      <trkpt lat="45.84775" lon="4.79537">
        <ele>473</ele>
        <time>2014-02-16T12:23:36Z</time>
      </trkpt>
      <trkpt lat="45.84774" lon="4.79543">
        <ele>473</ele>
        <time>2014-02-16T12:23:41Z</time>
      </trkpt>
      <trkpt lat="45.84774" lon="4.79547">
        <ele>473</ele>
        <time>2014-02-16T12:23:43Z</time>
      </trkpt>
      <trkpt lat="45.84773" lon="4.79555">
        <ele>473</ele>
        <time>2014-02-16T12:23:47Z</time>
      </trkpt>
      <trkpt lat="45.84772" lon="4.79568">
        <ele>474</ele>
        <time>2014-02-16T12:23:54Z</time>
      </trkpt>
      <trkpt lat="45.84771" lon="4.79573">
        <ele>474</ele>
        <time>2014-02-16T12:23:56Z</time>
      </trkpt>
      <trkpt lat="45.84767" lon="4.79588">
        <ele>474</ele>
        <time>2014-02-16T12:24:01Z</time>
      </trkpt>
      <trkpt lat="45.84765" lon="4.79598">
        <ele>473</ele>
        <time>2014-02-16T12:24:04Z</time>
      </trkpt>
      <trkpt lat="45.84762" lon="4.79606">
        <ele>473</ele>
        <time>2014-02-16T12:24:07Z</time>
      </trkpt>
      <trkpt lat="45.84752" lon="4.79617">
        <ele>472</ele>
        <time>2014-02-16T12:24:12Z</time>
      </trkpt>
      <trkpt lat="45.8475" lon="4.79619">
        <ele>472</ele>
        <time>2014-02-16T12:24:13Z</time>
      </trkpt>
      <trkpt lat="45.84737" lon="4.79622">
        <ele>479</ele>
        <time>2014-02-16T12:24:19Z</time>
      </trkpt>
      <trkpt lat="45.84733" lon="4.79621">
        <ele>479</ele>
        <time>2014-02-16T12:24:21Z</time>
      </trkpt>
      <trkpt lat="45.84727" lon="4.79619">
        <ele>479</ele>
        <time>2014-02-16T12:24:24Z</time>
      </trkpt>
      <trkpt lat="45.84717" lon="4.79612">
        <ele>479</ele>
        <time>2014-02-16T12:24:33Z</time>
      </trkpt>
      <trkpt lat="45.84716" lon="4.79611">
        <ele>479</ele>
        <time>2014-02-16T12:24:34Z</time>
      </trkpt>
      <trkpt lat="45.8471" lon="4.79605">
        <ele>480</ele>
        <time>2014-02-16T12:24:40Z</time>
      </trkpt>
      <trkpt lat="45.84702" lon="4.79593">
        <ele>481</ele>
        <time>2014-02-16T12:24:49Z</time>
      </trkpt>
      <trkpt lat="45.84694" lon="4.79587">
        <ele>481</ele>
        <time>2014-02-16T12:24:57Z</time>
      </trkpt>
      <trkpt lat="45.84693" lon="4.79586">
        <ele>481</ele>
        <time>2014-02-16T12:25:03Z</time>
      </trkpt>
      <trkpt lat="45.8469" lon="4.79585">
        <ele>482</ele>
        <time>2014-02-16T12:25:13Z</time>
      </trkpt>
      <trkpt lat="45.84688" lon="4.79585">
        <ele>482</ele>
        <time>2014-02-16T12:25:27Z</time>
      </trkpt>
      <trkpt lat="45.84687" lon="4.79581">
        <ele>485</ele>
        <time>2014-02-16T12:25:29Z</time>
      </trkpt>
      <trkpt lat="45.84686" lon="4.79578">
        <ele>485</ele>
        <time>2014-02-16T12:25:30Z</time>
      </trkpt>
      <trkpt lat="45.84681" lon="4.7957">
        <ele>485</ele>
        <time>2014-02-16T12:25:33Z</time>
      </trkpt>
      <trkpt lat="45.84679" lon="4.79568">
        <ele>486</ele>
        <time>2014-02-16T12:25:34Z</time>
      </trkpt>
      <trkpt lat="45.84673" lon="4.79561">
        <ele>486</ele>
        <time>2014-02-16T12:25:37Z</time>
      </trkpt>
      <trkpt lat="45.84664" lon="4.79552">
        <ele>489</ele>
        <time>2014-02-16T12:25:42Z</time>
      </trkpt>
      <trkpt lat="45.84658" lon="4.79547">
        <ele>490</ele>
        <time>2014-02-16T12:25:45Z</time>
      </trkpt>
      <trkpt lat="45.84649" lon="4.79542">
        <ele>491</ele>
        <time>2014-02-16T12:25:49Z</time>
      </trkpt>
      <trkpt lat="45.84641" lon="4.79538">
        <ele>491</ele>
        <time>2014-02-16T12:25:53Z</time>
      </trkpt>
      <trkpt lat="45.84639" lon="4.79537">
        <ele>491</ele>
        <time>2014-02-16T12:25:54Z</time>
      </trkpt>
      <trkpt lat="45.84631" lon="4.79533">
        <ele>491</ele>
        <time>2014-02-16T12:26:01Z</time>
      </trkpt>
      <trkpt lat="45.84629" lon="4.79533">
        <ele>491</ele>
        <time>2014-02-16T12:26:06Z</time>
      </trkpt>
      <trkpt lat="45.84625" lon="4.79532">
        <ele>492</ele>
        <time>2014-02-16T12:26:12Z</time>
      </trkpt>
      <trkpt lat="45.84623" lon="4.79531">
        <ele>492</ele>
        <time>2014-02-16T12:26:13Z</time>
      </trkpt>
      <trkpt lat="45.84611" lon="4.79527">
        <ele>492</ele>
        <time>2014-02-16T12:26:22Z</time>
      </trkpt>
      <trkpt lat="45.84606" lon="4.79525">
        <ele>493</ele>
        <time>2014-02-16T12:26:26Z</time>
      </trkpt>
      <trkpt lat="45.84603" lon="4.79524">
        <ele>493</ele>
        <time>2014-02-16T12:26:28Z</time>
      </trkpt>
      <trkpt lat="45.84594" lon="4.79522">
        <ele>494</ele>
        <time>2014-02-16T12:26:34Z</time>
      </trkpt>
      <trkpt lat="45.84587" lon="4.79521">
        <ele>494</ele>
        <time>2014-02-16T12:26:39Z</time>
      </trkpt>
      <trkpt lat="45.84579" lon="4.7952">
        <ele>497</ele>
        <time>2014-02-16T12:26:44Z</time>
      </trkpt>
      <trkpt lat="45.84568" lon="4.79518">
        <ele>497</ele>
        <time>2014-02-16T12:26:52Z</time>
      </trkpt>
      <trkpt lat="45.84553" lon="4.79514">
        <ele>497</ele>
        <time>2014-02-16T12:27:02Z</time>
      </trkpt>
      <trkpt lat="45.8455" lon="4.79513">
        <ele>497</ele>
        <time>2014-02-16T12:27:04Z</time>
      </trkpt>
      <trkpt lat="45.84537" lon="4.79507">
        <ele>498</ele>
        <time>2014-02-16T12:27:13Z</time>
      </trkpt>
      <trkpt lat="45.84535" lon="4.79506">
        <ele>498</ele>
        <time>2014-02-16T12:27:14Z</time>
      </trkpt>
      <trkpt lat="45.84532" lon="4.79503">
        <ele>498</ele>
        <time>2014-02-16T12:27:16Z</time>
      </trkpt>
      <trkpt lat="45.84528" lon="4.795">
        <ele>499</ele>
        <time>2014-02-16T12:27:18Z</time>
      </trkpt>
      <trkpt lat="45.84526" lon="4.79499">
        <ele>503</ele>
        <time>2014-02-16T12:27:19Z</time>
      </trkpt>
      <trkpt lat="45.84516" lon="4.79487">
        <ele>503</ele>
        <time>2014-02-16T12:27:24Z</time>
      </trkpt>
      <trkpt lat="45.84508" lon="4.79472">
        <ele>504</ele>
        <time>2014-02-16T12:27:30Z</time>
      </trkpt>
      <trkpt lat="45.84505" lon="4.79464">
        <ele>504</ele>
        <time>2014-02-16T12:27:33Z</time>
      </trkpt>
      <trkpt lat="45.845" lon="4.79452">
        <ele>505</ele>
        <time>2014-02-16T12:27:37Z</time>
      </trkpt>
      <trkpt lat="45.845" lon="4.79443">
        <ele>510</ele>
        <time>2014-02-16T12:27:40Z</time>
      </trkpt>
      <trkpt lat="45.845" lon="4.7944">
        <ele>506</ele>
        <time>2014-02-16T12:27:41Z</time>
      </trkpt>
      <trkpt lat="45.84498" lon="4.7943">
        <ele>510</ele>
        <time>2014-02-16T12:27:44Z</time>
      </trkpt>
      <trkpt lat="45.84496" lon="4.79424">
        <ele>510</ele>
        <time>2014-02-16T12:27:46Z</time>
      </trkpt>
      <trkpt lat="45.84493" lon="4.79414">
        <ele>512</ele>
        <time>2014-02-16T12:27:49Z</time>
      </trkpt>
      <trkpt lat="45.84489" lon="4.79406">
        <ele>513</ele>
        <time>2014-02-16T12:27:53Z</time>
      </trkpt>
      <trkpt lat="45.84482" lon="4.79395">
        <ele>514</ele>
        <time>2014-02-16T12:28:00Z</time>
      </trkpt>
      <trkpt lat="45.84481" lon="4.79394">
        <ele>514</ele>
        <time>2014-02-16T12:28:01Z</time>
      </trkpt>
      <trkpt lat="45.84474" lon="4.79387">
        <ele>515</ele>
        <time>2014-02-16T12:28:07Z</time>
      </trkpt>
      <trkpt lat="45.84466" lon="4.79379">
        <ele>515</ele>
        <time>2014-02-16T12:28:14Z</time>
      </trkpt>
      <trkpt lat="45.84465" lon="4.79378">
        <ele>515</ele>
        <time>2014-02-16T12:28:15Z</time>
      </trkpt>
      <trkpt lat="45.84454" lon="4.79371">
        <ele>516</ele>
        <time>2014-02-16T12:28:23Z</time>
      </trkpt>
      <trkpt lat="45.8445" lon="4.79367">
        <ele>516</ele>
        <time>2014-02-16T12:28:26Z</time>
      </trkpt>
      <trkpt lat="45.84441" lon="4.79359">
        <ele>517</ele>
        <time>2014-02-16T12:28:33Z</time>
      </trkpt>
      <trkpt lat="45.84435" lon="4.79353">
        <ele>517</ele>
        <time>2014-02-16T12:28:38Z</time>
      </trkpt>
      <trkpt lat="45.84433" lon="4.79352">
        <ele>517</ele>
        <time>2014-02-16T12:28:39Z</time>
      </trkpt>
      <trkpt lat="45.84423" lon="4.79344">
        <ele>518</ele>
        <time>2014-02-16T12:28:47Z</time>
      </trkpt>
      <trkpt lat="45.84419" lon="4.79341">
        <ele>518</ele>
        <time>2014-02-16T12:28:50Z</time>
      </trkpt>
      <trkpt lat="45.8441" lon="4.79335">
        <ele>520</ele>
        <time>2014-02-16T12:28:54Z</time>
      </trkpt>
      <trkpt lat="45.84402" lon="4.79329">
        <ele>521</ele>
        <time>2014-02-16T12:28:58Z</time>
      </trkpt>
      <trkpt lat="45.84397" lon="4.79326">
        <ele>522</ele>
        <time>2014-02-16T12:29:00Z</time>
      </trkpt>
      <trkpt lat="45.84384" lon="4.79318">
        <ele>523</ele>
        <time>2014-02-16T12:29:06Z</time>
      </trkpt>
      <trkpt lat="45.8437" lon="4.79312">
        <ele>523</ele>
        <time>2014-02-16T12:29:12Z</time>
      </trkpt>
      <trkpt lat="45.84366" lon="4.79311">
        <ele>524</ele>
        <time>2014-02-16T12:29:14Z</time>
      </trkpt>
      <trkpt lat="45.84353" lon="4.79312">
        <ele>524</ele>
        <time>2014-02-16T12:29:19Z</time>
      </trkpt>
      <trkpt lat="45.84346" lon="4.79314">
        <ele>524</ele>
        <time>2014-02-16T12:29:22Z</time>
      </trkpt>
      <trkpt lat="45.84342" lon="4.79315">
        <ele>524</ele>
        <time>2014-02-16T12:29:24Z</time>
      </trkpt>
      <trkpt lat="45.8433" lon="4.79318">
        <ele>525</ele>
        <time>2014-02-16T12:29:29Z</time>
      </trkpt>
      <trkpt lat="45.84328" lon="4.79318">
        <ele>525</ele>
        <time>2014-02-16T12:29:30Z</time>
      </trkpt>
      <trkpt lat="45.84316" lon="4.79322">
        <ele>525</ele>
        <time>2014-02-16T12:29:36Z</time>
      </trkpt>
      <trkpt lat="45.8431" lon="4.79323">
        <ele>525</ele>
        <time>2014-02-16T12:29:39Z</time>
      </trkpt>
      <trkpt lat="45.84305" lon="4.79324">
        <ele>525</ele>
        <time>2014-02-16T12:29:41Z</time>
      </trkpt>
      <trkpt lat="45.84292" lon="4.7933">
        <ele>526</ele>
        <time>2014-02-16T12:29:48Z</time>
      </trkpt>
      <trkpt lat="45.84282" lon="4.79339">
        <ele>526</ele>
        <time>2014-02-16T12:29:54Z</time>
      </trkpt>
      <trkpt lat="45.84275" lon="4.79341">
        <ele>527</ele>
        <time>2014-02-16T12:29:57Z</time>
      </trkpt>
      <trkpt lat="45.84267" lon="4.79342">
        <ele>527</ele>
        <time>2014-02-16T12:30:01Z</time>
      </trkpt>
      <trkpt lat="45.84256" lon="4.79344">
        <ele>527</ele>
        <time>2014-02-16T12:30:06Z</time>
      </trkpt>
      <trkpt lat="45.84244" lon="4.79345">
        <ele>528</ele>
        <time>2014-02-16T12:30:11Z</time>
      </trkpt>
      <trkpt lat="45.84237" lon="4.79345">
        <ele>528</ele>
        <time>2014-02-16T12:30:14Z</time>
      </trkpt>
      <trkpt lat="45.84231" lon="4.79344">
        <ele>528</ele>
        <time>2014-02-16T12:30:17Z</time>
      </trkpt>
      <trkpt lat="45.84219" lon="4.79342">
        <ele>528</ele>
        <time>2014-02-16T12:30:22Z</time>
      </trkpt>
      <trkpt lat="45.84216" lon="4.79342">
        <ele>528</ele>
        <time>2014-02-16T12:30:23Z</time>
      </trkpt>
      <trkpt lat="45.84203" lon="4.7934">
        <ele>528</ele>
        <time>2014-02-16T12:30:28Z</time>
      </trkpt>
      <trkpt lat="45.84201" lon="4.7934">
        <ele>528</ele>
        <time>2014-02-16T12:30:29Z</time>
      </trkpt>
      <trkpt lat="45.84191" lon="4.79341">
        <ele>528</ele>
        <time>2014-02-16T12:30:33Z</time>
      </trkpt>
      <trkpt lat="45.84181" lon="4.79339">
        <ele>528</ele>
        <time>2014-02-16T12:30:37Z</time>
      </trkpt>
      <trkpt lat="45.84177" lon="4.79337">
        <ele>527</ele>
        <time>2014-02-16T12:30:39Z</time>
      </trkpt>
      <trkpt lat="45.84167" lon="4.79339">
        <ele>527</ele>
        <time>2014-02-16T12:30:43Z</time>
      </trkpt>
      <trkpt lat="45.84162" lon="4.79341">
        <ele>527</ele>
        <time>2014-02-16T12:30:45Z</time>
      </trkpt>
      <trkpt lat="45.8415" lon="4.79348">
        <ele>528</ele>
        <time>2014-02-16T12:30:50Z</time>
      </trkpt>
      <trkpt lat="45.84143" lon="4.79352">
        <ele>528</ele>
        <time>2014-02-16T12:30:53Z</time>
      </trkpt>
      <trkpt lat="45.84137" lon="4.79356">
        <ele>528</ele>
        <time>2014-02-16T12:30:56Z</time>
      </trkpt>
      <trkpt lat="45.84124" lon="4.79363">
        <ele>528</ele>
        <time>2014-02-16T12:31:02Z</time>
      </trkpt>
      <trkpt lat="45.84119" lon="4.79365">
        <ele>528</ele>
        <time>2014-02-16T12:31:04Z</time>
      </trkpt>
      <trkpt lat="45.84108" lon="4.79371">
        <ele>529</ele>
        <time>2014-02-16T12:31:09Z</time>
      </trkpt>
      <trkpt lat="45.84105" lon="4.79373">
        <ele>529</ele>
        <time>2014-02-16T12:31:10Z</time>
      </trkpt>
      <trkpt lat="45.84102" lon="4.79374">
        <ele>529</ele>
        <time>2014-02-16T12:31:11Z</time>
      </trkpt>
      <trkpt lat="45.84093" lon="4.7938">
        <ele>529</ele>
        <time>2014-02-16T12:31:15Z</time>
      </trkpt>
      <trkpt lat="45.84088" lon="4.79383">
        <ele>530</ele>
        <time>2014-02-16T12:31:17Z</time>
      </trkpt>
      <trkpt lat="45.8408" lon="4.79388">
        <ele>527</ele>
        <time>2014-02-16T12:31:20Z</time>
      </trkpt>
      <trkpt lat="45.8407" lon="4.79396">
        <ele>528</ele>
        <time>2014-02-16T12:31:24Z</time>
      </trkpt>
      <trkpt lat="45.84063" lon="4.79402">
        <ele>528</ele>
        <time>2014-02-16T12:31:27Z</time>
      </trkpt>
      <trkpt lat="45.84053" lon="4.7941">
        <ele>527</ele>
        <time>2014-02-16T12:31:32Z</time>
      </trkpt>
      <trkpt lat="45.84051" lon="4.79412">
        <ele>527</ele>
        <time>2014-02-16T12:31:33Z</time>
      </trkpt>
      <trkpt lat="45.84036" lon="4.79423">
        <ele>536</ele>
        <time>2014-02-16T12:31:40Z</time>
      </trkpt>
      <trkpt lat="45.84026" lon="4.79432">
        <ele>536</ele>
        <time>2014-02-16T12:31:45Z</time>
      </trkpt>
      <trkpt lat="45.84019" lon="4.79437">
        <ele>536</ele>
        <time>2014-02-16T12:31:48Z</time>
      </trkpt>
      <trkpt lat="45.84012" lon="4.79442">
        <ele>536</ele>
        <time>2014-02-16T12:31:51Z</time>
      </trkpt>
      <trkpt lat="45.84003" lon="4.7945">
        <ele>537</ele>
        <time>2014-02-16T12:31:55Z</time>
      </trkpt>
      <trkpt lat="45.83997" lon="4.79456">
        <ele>530</ele>
        <time>2014-02-16T12:31:58Z</time>
      </trkpt>
      <trkpt lat="45.83986" lon="4.79465">
        <ele>531</ele>
        <time>2014-02-16T12:32:03Z</time>
      </trkpt>
      <trkpt lat="45.8398" lon="4.7947">
        <ele>531</ele>
        <time>2014-02-16T12:32:06Z</time>
      </trkpt>
      <trkpt lat="45.8397" lon="4.79479">
        <ele>531</ele>
        <time>2014-02-16T12:32:10Z</time>
      </trkpt>
      <trkpt lat="45.83968" lon="4.79481">
        <ele>531</ele>
        <time>2014-02-16T12:32:11Z</time>
      </trkpt>
      <trkpt lat="45.83954" lon="4.79493">
        <ele>530</ele>
        <time>2014-02-16T12:32:17Z</time>
      </trkpt>
      <trkpt lat="45.83942" lon="4.79503">
        <ele>538</ele>
        <time>2014-02-16T12:32:22Z</time>
      </trkpt>
      <trkpt lat="45.83938" lon="4.79506">
        <ele>537</ele>
        <time>2014-02-16T12:32:24Z</time>
      </trkpt>
      <trkpt lat="45.83927" lon="4.79517">
        <ele>536</ele>
        <time>2014-02-16T12:32:29Z</time>
      </trkpt>
      <trkpt lat="45.83923" lon="4.79522">
        <ele>537</ele>
        <time>2014-02-16T12:32:31Z</time>
      </trkpt>
      <trkpt lat="45.83915" lon="4.79535">
        <ele>526</ele>
        <time>2014-02-16T12:32:35Z</time>
      </trkpt>
      <trkpt lat="45.8391" lon="4.79544">
        <ele>527</ele>
        <time>2014-02-16T12:32:38Z</time>
      </trkpt>
      <trkpt lat="45.83908" lon="4.79549">
        <ele>527</ele>
        <time>2014-02-16T12:32:40Z</time>
      </trkpt>
      <trkpt lat="45.83901" lon="4.79563">
        <ele>529</ele>
        <time>2014-02-16T12:32:44Z</time>
      </trkpt>
      <trkpt lat="45.83899" lon="4.79567">
        <ele>529</ele>
        <time>2014-02-16T12:32:45Z</time>
      </trkpt>
      <trkpt lat="45.83893" lon="4.79581">
        <ele>529</ele>
        <time>2014-02-16T12:32:49Z</time>
      </trkpt>
      <trkpt lat="45.83888" lon="4.79591">
        <ele>533</ele>
        <time>2014-02-16T12:32:52Z</time>
      </trkpt>
      <trkpt lat="45.83884" lon="4.796">
        <ele>532</ele>
        <time>2014-02-16T12:32:55Z</time>
      </trkpt>
      <trkpt lat="45.83878" lon="4.79613">
        <ele>532</ele>
        <time>2014-02-16T12:32:59Z</time>
      </trkpt>
      <trkpt lat="45.83877" lon="4.79616">
        <ele>532</ele>
        <time>2014-02-16T12:33:00Z</time>
      </trkpt>
      <trkpt lat="45.83868" lon="4.79635">
        <ele>531</ele>
        <time>2014-02-16T12:33:06Z</time>
      </trkpt>
      <trkpt lat="45.83868" lon="4.79638">
        <ele>531</ele>
        <time>2014-02-16T12:33:07Z</time>
      </trkpt>
      <trkpt lat="45.83861" lon="4.79657">
        <ele>530</ele>
        <time>2014-02-16T12:33:12Z</time>
      </trkpt>
      <trkpt lat="45.8386" lon="4.79661">
        <ele>530</ele>
        <time>2014-02-16T12:33:13Z</time>
      </trkpt>
      <trkpt lat="45.83858" lon="4.79676">
        <ele>534</ele>
        <time>2014-02-16T12:33:17Z</time>
      </trkpt>
      <trkpt lat="45.83855" lon="4.79688">
        <ele>535</ele>
        <time>2014-02-16T12:33:20Z</time>
      </trkpt>
      <trkpt lat="45.83853" lon="4.79696">
        <ele>535</ele>
        <time>2014-02-16T12:33:22Z</time>
      </trkpt>
      <trkpt lat="45.83849" lon="4.79711">
        <ele>536</ele>
        <time>2014-02-16T12:33:26Z</time>
      </trkpt>
      <trkpt lat="45.83848" lon="4.79714">
        <ele>536</ele>
        <time>2014-02-16T12:33:27Z</time>
      </trkpt>
      <trkpt lat="45.83845" lon="4.79731">
        <ele>535</ele>
        <time>2014-02-16T12:33:31Z</time>
      </trkpt>
      <trkpt lat="45.83841" lon="4.79741">
        <ele>534</ele>
        <time>2014-02-16T12:33:34Z</time>
      </trkpt>
      <trkpt lat="45.83839" lon="4.79748">
        <ele>532</ele>
        <time>2014-02-16T12:33:36Z</time>
      </trkpt>
      <trkpt lat="45.83832" lon="4.79766">
        <ele>526</ele>
        <time>2014-02-16T12:33:42Z</time>
      </trkpt>
      <trkpt lat="45.83824" lon="4.79782">
        <ele>524</ele>
        <time>2014-02-16T12:33:48Z</time>
      </trkpt>
      <trkpt lat="45.83821" lon="4.79789">
        <ele>524</ele>
        <time>2014-02-16T12:33:50Z</time>
      </trkpt>
      <trkpt lat="45.83818" lon="4.79795">
        <ele>524</ele>
        <time>2014-02-16T12:33:52Z</time>
      </trkpt>
      <trkpt lat="45.83812" lon="4.79808">
        <ele>524</ele>
        <time>2014-02-16T12:33:56Z</time>
      </trkpt>
      <trkpt lat="45.8381" lon="4.79811">
        <ele>524</ele>
        <time>2014-02-16T12:33:57Z</time>
      </trkpt>
      <trkpt lat="45.83802" lon="4.79827">
        <ele>524</ele>
        <time>2014-02-16T12:34:02Z</time>
      </trkpt>
      <trkpt lat="45.83799" lon="4.79833">
        <ele>524</ele>
        <time>2014-02-16T12:34:04Z</time>
      </trkpt>
      <trkpt lat="45.83793" lon="4.79848">
        <ele>525</ele>
        <time>2014-02-16T12:34:08Z</time>
      </trkpt>
      <trkpt lat="45.83789" lon="4.79855">
        <ele>525</ele>
        <time>2014-02-16T12:34:10Z</time>
      </trkpt>
      <trkpt lat="45.83782" lon="4.79868">
        <ele>524</ele>
        <time>2014-02-16T12:34:14Z</time>
      </trkpt>
      <trkpt lat="45.83777" lon="4.79878">
        <ele>524</ele>
        <time>2014-02-16T12:34:17Z</time>
      </trkpt>
      <trkpt lat="45.83771" lon="4.79893">
        <ele>524</ele>
        <time>2014-02-16T12:34:21Z</time>
      </trkpt>
      <trkpt lat="45.83768" lon="4.79904">
        <ele>524</ele>
        <time>2014-02-16T12:34:24Z</time>
      </trkpt>
      <trkpt lat="45.83766" lon="4.79911">
        <ele>524</ele>
        <time>2014-02-16T12:34:26Z</time>
      </trkpt>
      <trkpt lat="45.83759" lon="4.79928">
        <ele>522</ele>
        <time>2014-02-16T12:34:32Z</time>
      </trkpt>
      <trkpt lat="45.83751" lon="4.79939">
        <ele>522</ele>
        <time>2014-02-16T12:34:36Z</time>
      </trkpt>
      <trkpt lat="45.83745" lon="4.79943">
        <ele>518</ele>
        <time>2014-02-16T12:34:38Z</time>
      </trkpt>
      <trkpt lat="45.83737" lon="4.79946">
        <ele>517</ele>
        <time>2014-02-16T12:34:41Z</time>
      </trkpt>
      <trkpt lat="45.83727" lon="4.79949">
        <ele>517</ele>
        <time>2014-02-16T12:34:45Z</time>
      </trkpt>
      <trkpt lat="45.83721" lon="4.79952">
        <ele>516</ele>
        <time>2014-02-16T12:34:47Z</time>
      </trkpt>
      <trkpt lat="45.83717" lon="4.79955">
        <ele>516</ele>
        <time>2014-02-16T12:34:49Z</time>
      </trkpt>
      <trkpt lat="45.83712" lon="4.79956">
        <ele>516</ele>
        <time>2014-02-16T12:34:51Z</time>
      </trkpt>
      <trkpt lat="45.83709" lon="4.79957">
        <ele>516</ele>
        <time>2014-02-16T12:34:52Z</time>
      </trkpt>
      <trkpt lat="45.83707" lon="4.79958">
        <ele>515</ele>
        <time>2014-02-16T12:34:53Z</time>
      </trkpt>
      <trkpt lat="45.83698" lon="4.79962">
        <ele>515</ele>
        <time>2014-02-16T12:34:56Z</time>
      </trkpt>
      <trkpt lat="45.83691" lon="4.79965">
        <ele>515</ele>
        <time>2014-02-16T12:34:59Z</time>
      </trkpt>
      <trkpt lat="45.83687" lon="4.79967">
        <ele>514</ele>
        <time>2014-02-16T12:35:01Z</time>
      </trkpt>
      <trkpt lat="45.83675" lon="4.79976">
        <ele>513</ele>
        <time>2014-02-16T12:35:06Z</time>
      </trkpt>
      <trkpt lat="45.83672" lon="4.79978">
        <ele>513</ele>
        <time>2014-02-16T12:35:07Z</time>
      </trkpt>
      <trkpt lat="45.83663" lon="4.79985">
        <ele>512</ele>
        <time>2014-02-16T12:35:11Z</time>
      </trkpt>
      <trkpt lat="45.83658" lon="4.7999">
        <ele>511</ele>
        <time>2014-02-16T12:35:13Z</time>
      </trkpt>
      <trkpt lat="45.83651" lon="4.79995">
        <ele>512</ele>
        <time>2014-02-16T12:35:16Z</time>
      </trkpt>
      <trkpt lat="45.83641" lon="4.80003">
        <ele>506</ele>
        <time>2014-02-16T12:35:20Z</time>
      </trkpt>
      <trkpt lat="45.83639" lon="4.80004">
        <ele>506</ele>
        <time>2014-02-16T12:35:21Z</time>
      </trkpt>
      <trkpt lat="45.83628" lon="4.80012">
        <ele>506</ele>
        <time>2014-02-16T12:35:26Z</time>
      </trkpt>
      <trkpt lat="45.83624" lon="4.80014">
        <ele>506</ele>
        <time>2014-02-16T12:35:28Z</time>
      </trkpt>
      <trkpt lat="45.83617" lon="4.80023">
        <ele>505</ele>
        <time>2014-02-16T12:35:31Z</time>
      </trkpt>
      <trkpt lat="45.8361" lon="4.80035">
        <ele>504</ele>
        <time>2014-02-16T12:35:35Z</time>
      </trkpt>
      <trkpt lat="45.83608" lon="4.80038">
        <ele>504</ele>
        <time>2014-02-16T12:35:36Z</time>
      </trkpt>
      <trkpt lat="45.83596" lon="4.80055">
        <ele>502</ele>
        <time>2014-02-16T12:35:42Z</time>
      </trkpt>
      <trkpt lat="45.83588" lon="4.80064">
        <ele>500</ele>
        <time>2014-02-16T12:35:46Z</time>
      </trkpt>
      <trkpt lat="45.8358" lon="4.80072">
        <ele>498</ele>
        <time>2014-02-16T12:35:50Z</time>
      </trkpt>
      <trkpt lat="45.83578" lon="4.80074">
        <ele>498</ele>
        <time>2014-02-16T12:35:51Z</time>
      </trkpt>
      <trkpt lat="45.8357" lon="4.80084">
        <ele>493</ele>
        <time>2014-02-16T12:35:55Z</time>
      </trkpt>
      <trkpt lat="45.83566" lon="4.8009">
        <ele>492</ele>
        <time>2014-02-16T12:35:57Z</time>
      </trkpt>
      <trkpt lat="45.8356" lon="4.80102">
        <ele>491</ele>
        <time>2014-02-16T12:36:00Z</time>
      </trkpt>
      <trkpt lat="45.83555" lon="4.80112">
        <ele>490</ele>
        <time>2014-02-16T12:36:03Z</time>
      </trkpt>
      <trkpt lat="45.83553" lon="4.80116">
        <ele>490</ele>
        <time>2014-02-16T12:36:04Z</time>
      </trkpt>
      <trkpt lat="45.83543" lon="4.80133">
        <ele>489</ele>
        <time>2014-02-16T12:36:10Z</time>
      </trkpt>
      <trkpt lat="45.8353" lon="4.80145">
        <ele>488</ele>
        <time>2014-02-16T12:36:16Z</time>
      </trkpt>
      <trkpt lat="45.83526" lon="4.8015">
        <ele>488</ele>
        <time>2014-02-16T12:36:18Z</time>
      </trkpt>
      <trkpt lat="45.83522" lon="4.80156">
        <ele>487</ele>
        <time>2014-02-16T12:36:21Z</time>
      </trkpt>
      <trkpt lat="45.83517" lon="4.8017">
        <ele>483</ele>
        <time>2014-02-16T12:36:25Z</time>
      </trkpt>
      <trkpt lat="45.83515" lon="4.80173">
        <ele>483</ele>
        <time>2014-02-16T12:36:26Z</time>
      </trkpt>
      <trkpt lat="45.83511" lon="4.80189">
        <ele>483</ele>
        <time>2014-02-16T12:36:31Z</time>
      </trkpt>
      <trkpt lat="45.83508" lon="4.80198">
        <ele>482</ele>
        <time>2014-02-16T12:36:34Z</time>
      </trkpt>
      <trkpt lat="45.83508" lon="4.80201">
        <ele>482</ele>
        <time>2014-02-16T12:36:35Z</time>
      </trkpt>
      <trkpt lat="45.83507" lon="4.80204">
        <ele>482</ele>
        <time>2014-02-16T12:36:36Z</time>
      </trkpt>
      <trkpt lat="45.83509" lon="4.8022">
        <ele>481</ele>
        <time>2014-02-16T12:36:41Z</time>
      </trkpt>
      <trkpt lat="45.83508" lon="4.80225">
        <ele>481</ele>
        <time>2014-02-16T12:36:42Z</time>
      </trkpt>
      <trkpt lat="45.83509" lon="4.8024">
        <ele>480</ele>
        <time>2014-02-16T12:36:46Z</time>
      </trkpt>
      <trkpt lat="45.83509" lon="4.80253">
        <ele>477</ele>
        <time>2014-02-16T12:36:49Z</time>
      </trkpt>
      <trkpt lat="45.8351" lon="4.80265">
        <ele>477</ele>
        <time>2014-02-16T12:36:52Z</time>
      </trkpt>
      <trkpt lat="45.83512" lon="4.80268">
        <ele>477</ele>
        <time>2014-02-16T12:36:53Z</time>
      </trkpt>
      <trkpt lat="45.83514" lon="4.80278">
        <ele>476</ele>
        <time>2014-02-16T12:36:56Z</time>
      </trkpt>
      <trkpt lat="45.83514" lon="4.8029">
        <ele>476</ele>
        <time>2014-02-16T12:36:59Z</time>
      </trkpt>
      <trkpt lat="45.83518" lon="4.80304">
        <ele>475</ele>
        <time>2014-02-16T12:37:04Z</time>
      </trkpt>
      <trkpt lat="45.83522" lon="4.80317">
        <ele>475</ele>
        <time>2014-02-16T12:37:08Z</time>
      </trkpt>
      <trkpt lat="45.83523" lon="4.8032">
        <ele>475</ele>
        <time>2014-02-16T12:37:09Z</time>
      </trkpt>
      <trkpt lat="45.83526" lon="4.80328">
        <ele>475</ele>
        <time>2014-02-16T12:37:11Z</time>
      </trkpt>
      <trkpt lat="45.83532" lon="4.80341">
        <ele>471</ele>
        <time>2014-02-16T12:37:15Z</time>
      </trkpt>
      <trkpt lat="45.83535" lon="4.80351">
        <ele>471</ele>
        <time>2014-02-16T12:37:18Z</time>
      </trkpt>
      <trkpt lat="45.83537" lon="4.80354">
        <ele>471</ele>
        <time>2014-02-16T12:37:19Z</time>
      </trkpt>
      <trkpt lat="45.83541" lon="4.80359">
        <ele>471</ele>
        <time>2014-02-16T12:37:21Z</time>
      </trkpt>
      <trkpt lat="45.83548" lon="4.80366">
        <ele>471</ele>
        <time>2014-02-16T12:37:24Z</time>
      </trkpt>
      <trkpt lat="45.8355" lon="4.80367">
        <ele>471</ele>
        <time>2014-02-16T12:37:25Z</time>
      </trkpt>
      <trkpt lat="45.83555" lon="4.80372">
        <ele>471</ele>
        <time>2014-02-16T12:37:27Z</time>
      </trkpt>
      <trkpt lat="45.83558" lon="4.80374">
        <ele>471</ele>
        <time>2014-02-16T12:37:28Z</time>
      </trkpt>
      <trkpt lat="45.83568" lon="4.80376">
        <ele>471</ele>
        <time>2014-02-16T12:37:31Z</time>
      </trkpt>
      <trkpt lat="45.8357" lon="4.80377">
        <ele>471</ele>
        <time>2014-02-16T12:37:32Z</time>
      </trkpt>
      <trkpt lat="45.83581" lon="4.8039">
        <ele>471</ele>
        <time>2014-02-16T12:37:37Z</time>
      </trkpt>
      <trkpt lat="45.83582" lon="4.80394">
        <ele>471</ele>
        <time>2014-02-16T12:37:38Z</time>
      </trkpt>
      <trkpt lat="45.83586" lon="4.80407">
        <ele>470</ele>
        <time>2014-02-16T12:37:42Z</time>
      </trkpt>
      <trkpt lat="45.83588" lon="4.80411">
        <ele>470</ele>
        <time>2014-02-16T12:37:43Z</time>
      </trkpt>
      <trkpt lat="45.83591" lon="4.80418">
        <ele>469</ele>
        <time>2014-02-16T12:37:45Z</time>
      </trkpt>
      <trkpt lat="45.83592" lon="4.80422">
        <ele>468</ele>
        <time>2014-02-16T12:37:46Z</time>
      </trkpt>
      <trkpt lat="45.83599" lon="4.80429">
        <ele>468</ele>
        <time>2014-02-16T12:37:48Z</time>
      </trkpt>
      <trkpt lat="45.83601" lon="4.8043">
        <ele>467</ele>
        <time>2014-02-16T12:37:50Z</time>
      </trkpt>
      <trkpt lat="45.83597" lon="4.80432">
        <ele>467</ele>
        <time>2014-02-16T12:37:53Z</time>
      </trkpt>
      <trkpt lat="45.83595" lon="4.80433">
        <ele>467</ele>
        <time>2014-02-16T12:37:54Z</time>
      </trkpt>
      <trkpt lat="45.83589" lon="4.80437">
        <ele>467</ele>
        <time>2014-02-16T12:37:57Z</time>
      </trkpt>
      <trkpt lat="45.83585" lon="4.80438">
        <ele>467</ele>
        <time>2014-02-16T12:37:59Z</time>
      </trkpt>
      <trkpt lat="45.83579" lon="4.80441">
        <ele>467</ele>
        <time>2014-02-16T12:38:02Z</time>
      </trkpt>
      <trkpt lat="45.83577" lon="4.80444">
        <ele>467</ele>
        <time>2014-02-16T12:38:03Z</time>
      </trkpt>
      <trkpt lat="45.83571" lon="4.80448">
        <ele>467</ele>
        <time>2014-02-16T12:38:05Z</time>
      </trkpt>
      <trkpt lat="45.83564" lon="4.80454">
        <ele>466</ele>
        <time>2014-02-16T12:38:08Z</time>
      </trkpt>
      <trkpt lat="45.83555" lon="4.80462">
        <ele>466</ele>
        <time>2014-02-16T12:38:11Z</time>
      </trkpt>
      <trkpt lat="45.83551" lon="4.80467">
        <ele>466</ele>
        <time>2014-02-16T12:38:13Z</time>
      </trkpt>
      <trkpt lat="45.83541" lon="4.80472">
        <ele>465</ele>
        <time>2014-02-16T12:38:17Z</time>
      </trkpt>
      <trkpt lat="45.83537" lon="4.80473">
        <ele>465</ele>
        <time>2014-02-16T12:38:19Z</time>
      </trkpt>
      <trkpt lat="45.8353" lon="4.80477">
        <ele>464</ele>
        <time>2014-02-16T12:38:22Z</time>
      </trkpt>
      <trkpt lat="45.83521" lon="4.80485">
        <ele>464</ele>
        <time>2014-02-16T12:38:26Z</time>
      </trkpt>
      <trkpt lat="45.83517" lon="4.8049">
        <ele>463</ele>
        <time>2014-02-16T12:38:28Z</time>
      </trkpt>
      <trkpt lat="45.83505" lon="4.80501">
        <ele>460</ele>
        <time>2014-02-16T12:38:33Z</time>
      </trkpt>
      <trkpt lat="45.83496" lon="4.80509">
        <ele>457</ele>
        <time>2014-02-16T12:38:37Z</time>
      </trkpt>
      <trkpt lat="45.83494" lon="4.8051">
        <ele>457</ele>
        <time>2014-02-16T12:38:38Z</time>
      </trkpt>
      <trkpt lat="45.83487" lon="4.80513">
        <ele>456</ele>
        <time>2014-02-16T12:38:41Z</time>
      </trkpt>
      <trkpt lat="45.83482" lon="4.80514">
        <ele>455</ele>
        <time>2014-02-16T12:38:43Z</time>
      </trkpt>
      <trkpt lat="45.83471" lon="4.80518">
        <ele>454</ele>
        <time>2014-02-16T12:38:47Z</time>
      </trkpt>
      <trkpt lat="45.83468" lon="4.80519">
        <ele>454</ele>
        <time>2014-02-16T12:38:48Z</time>
      </trkpt>
      <trkpt lat="45.83459" lon="4.80518">
        <ele>453</ele>
        <time>2014-02-16T12:38:52Z</time>
      </trkpt>
      <trkpt lat="45.8345" lon="4.80521">
        <ele>452</ele>
        <time>2014-02-16T12:38:55Z</time>
      </trkpt>
      <trkpt lat="45.83444" lon="4.80527">
        <ele>451</ele>
        <time>2014-02-16T12:38:57Z</time>
      </trkpt>
      <trkpt lat="45.83433" lon="4.80537">
        <ele>451</ele>
        <time>2014-02-16T12:39:01Z</time>
      </trkpt>
      <trkpt lat="45.83423" lon="4.80546">
        <ele>450</ele>
        <time>2014-02-16T12:39:05Z</time>
      </trkpt>
      <trkpt lat="45.83415" lon="4.80546">
        <ele>442</ele>
        <time>2014-02-16T12:39:08Z</time>
      </trkpt>
      <trkpt lat="45.8341" lon="4.80546">
        <ele>442</ele>
        <time>2014-02-16T12:39:10Z</time>
      </trkpt>
      <trkpt lat="45.83398" lon="4.80552">
        <ele>441</ele>
        <time>2014-02-16T12:39:14Z</time>
      </trkpt>
      <trkpt lat="45.83395" lon="4.80553">
        <ele>441</ele>
        <time>2014-02-16T12:39:15Z</time>
      </trkpt>
      <trkpt lat="45.83382" lon="4.8056">
        <ele>440</ele>
        <time>2014-02-16T12:39:20Z</time>
      </trkpt>
      <trkpt lat="45.83379" lon="4.80561">
        <ele>440</ele>
        <time>2014-02-16T12:39:21Z</time>
      </trkpt>
      <trkpt lat="45.83374" lon="4.80562">
        <ele>439</ele>
        <time>2014-02-16T12:39:23Z</time>
      </trkpt>
      <trkpt lat="45.83371" lon="4.80562">
        <ele>439</ele>
        <time>2014-02-16T12:39:24Z</time>
      </trkpt>
      <trkpt lat="45.83361" lon="4.80563">
        <ele>438</ele>
        <time>2014-02-16T12:39:28Z</time>
      </trkpt>
      <trkpt lat="45.83358" lon="4.80564">
        <ele>438</ele>
        <time>2014-02-16T12:39:29Z</time>
      </trkpt>
      <trkpt lat="45.83342" lon="4.80565">
        <ele>436</ele>
        <time>2014-02-16T12:39:34Z</time>
      </trkpt>
      <trkpt lat="45.83339" lon="4.80564">
        <ele>436</ele>
        <time>2014-02-16T12:39:35Z</time>
      </trkpt>
      <trkpt lat="45.83322" lon="4.80561">
        <ele>432</ele>
        <time>2014-02-16T12:39:40Z</time>
      </trkpt>
      <trkpt lat="45.83316" lon="4.80558">
        <ele>432</ele>
        <time>2014-02-16T12:39:42Z</time>
      </trkpt>
      <trkpt lat="45.83304" lon="4.80553">
        <ele>432</ele>
        <time>2014-02-16T12:39:46Z</time>
      </trkpt>
      <trkpt lat="45.83299" lon="4.80552">
        <ele>432</ele>
        <time>2014-02-16T12:39:48Z</time>
      </trkpt>
      <trkpt lat="45.83289" lon="4.80547">
        <ele>432</ele>
        <time>2014-02-16T12:39:52Z</time>
      </trkpt>
      <trkpt lat="45.83286" lon="4.80547">
        <ele>432</ele>
        <time>2014-02-16T12:39:53Z</time>
      </trkpt>
      <trkpt lat="45.83278" lon="4.8055">
        <ele>432</ele>
        <time>2014-02-16T12:39:56Z</time>
      </trkpt>
      <trkpt lat="45.83267" lon="4.80553">
        <ele>431</ele>
        <time>2014-02-16T12:39:59Z</time>
      </trkpt>
      <trkpt lat="45.83264" lon="4.80554">
        <ele>431</ele>
        <time>2014-02-16T12:40:00Z</time>
      </trkpt>
      <trkpt lat="45.83249" lon="4.80563">
        <ele>429</ele>
        <time>2014-02-16T12:40:05Z</time>
      </trkpt>
      <trkpt lat="45.83234" lon="4.8057">
        <ele>429</ele>
        <time>2014-02-16T12:40:10Z</time>
      </trkpt>
      <trkpt lat="45.83231" lon="4.80571">
        <ele>430</ele>
        <time>2014-02-16T12:40:11Z</time>
      </trkpt>
      <trkpt lat="45.83222" lon="4.80574">
        <ele>430</ele>
        <time>2014-02-16T12:40:14Z</time>
      </trkpt>
      <trkpt lat="45.83212" lon="4.80579">
        <ele>431</ele>
        <time>2014-02-16T12:40:17Z</time>
      </trkpt>
      <trkpt lat="45.83207" lon="4.80582">
        <ele>431</ele>
        <time>2014-02-16T12:40:19Z</time>
      </trkpt>
      <trkpt lat="45.83194" lon="4.8059">
        <ele>427</ele>
        <time>2014-02-16T12:40:24Z</time>
      </trkpt>
      <trkpt lat="45.83184" lon="4.80607">
        <ele>426</ele>
        <time>2014-02-16T12:40:29Z</time>
      </trkpt>
      <trkpt lat="45.83182" lon="4.8061">
        <ele>426</ele>
        <time>2014-02-16T12:40:30Z</time>
      </trkpt>
      <trkpt lat="45.83177" lon="4.80619">
        <ele>426</ele>
        <time>2014-02-16T12:40:33Z</time>
      </trkpt>
      <trkpt lat="45.83176" lon="4.80622">
        <ele>426</ele>
        <time>2014-02-16T12:40:34Z</time>
      </trkpt>
      <trkpt lat="45.8317" lon="4.80633">
        <ele>425</ele>
        <time>2014-02-16T12:40:37Z</time>
      </trkpt>
      <trkpt lat="45.83167" lon="4.80639">
        <ele>425</ele>
        <time>2014-02-16T12:40:39Z</time>
      </trkpt>
      <trkpt lat="45.83166" lon="4.80641">
        <ele>428</ele>
        <time>2014-02-16T12:40:40Z</time>
      </trkpt>
      <trkpt lat="45.83159" lon="4.80656">
        <ele>427</ele>
        <time>2014-02-16T12:40:45Z</time>
      </trkpt>
      <trkpt lat="45.83159" lon="4.80676">
        <ele>425</ele>
        <time>2014-02-16T12:40:50Z</time>
      </trkpt>
      <trkpt lat="45.83159" lon="4.80685">
        <ele>425</ele>
        <time>2014-02-16T12:40:52Z</time>
      </trkpt>
      <trkpt lat="45.83158" lon="4.80693">
        <ele>425</ele>
        <time>2014-02-16T12:40:54Z</time>
      </trkpt>
      <trkpt lat="45.83156" lon="4.80712">
        <ele>424</ele>
        <time>2014-02-16T12:40:58Z</time>
      </trkpt>
      <trkpt lat="45.83156" lon="4.80716">
        <ele>424</ele>
        <time>2014-02-16T12:40:59Z</time>
      </trkpt>
      <trkpt lat="45.83154" lon="4.80741">
        <ele>423</ele>
        <time>2014-02-16T12:41:05Z</time>
      </trkpt>
      <trkpt lat="45.83151" lon="4.80762">
        <ele>422</ele>
        <time>2014-02-16T12:41:10Z</time>
      </trkpt>
      <trkpt lat="45.83151" lon="4.80766">
        <ele>422</ele>
        <time>2014-02-16T12:41:11Z</time>
      </trkpt>
      <trkpt lat="45.83145" lon="4.8079">
        <ele>421</ele>
        <time>2014-02-16T12:41:17Z</time>
      </trkpt>
      <trkpt lat="45.83144" lon="4.80793">
        <ele>421</ele>
        <time>2014-02-16T12:41:18Z</time>
      </trkpt>
      <trkpt lat="45.83136" lon="4.80811">
        <ele>421</ele>
        <time>2014-02-16T12:41:23Z</time>
      </trkpt>
      <trkpt lat="45.83133" lon="4.80817">
        <ele>421</ele>
        <time>2014-02-16T12:41:25Z</time>
      </trkpt>
      <trkpt lat="45.83127" lon="4.80829">
        <ele>421</ele>
        <time>2014-02-16T12:41:29Z</time>
      </trkpt>
      <trkpt lat="45.83121" lon="4.80838">
        <ele>418</ele>
        <time>2014-02-16T12:41:32Z</time>
      </trkpt>
      <trkpt lat="45.83116" lon="4.80844">
        <ele>418</ele>
        <time>2014-02-16T12:41:34Z</time>
      </trkpt>
      <trkpt lat="45.83107" lon="4.80855">
        <ele>418</ele>
        <time>2014-02-16T12:41:38Z</time>
      </trkpt>
      <trkpt lat="45.83105" lon="4.80858">
        <ele>418</ele>
        <time>2014-02-16T12:41:39Z</time>
      </trkpt>
      <trkpt lat="45.83103" lon="4.8086">
        <ele>418</ele>
        <time>2014-02-16T12:41:40Z</time>
      </trkpt>
      <trkpt lat="45.83098" lon="4.80866">
        <ele>418</ele>
        <time>2014-02-16T12:41:43Z</time>
      </trkpt>
      <trkpt lat="45.83093" lon="4.80872">
        <ele>418</ele>
        <time>2014-02-16T12:41:45Z</time>
      </trkpt>
      <trkpt lat="45.83091" lon="4.80875">
        <ele>418</ele>
        <time>2014-02-16T12:41:46Z</time>
      </trkpt>
      <trkpt lat="45.83083" lon="4.80884">
        <ele>419</ele>
        <time>2014-02-16T12:41:49Z</time>
      </trkpt>
      <trkpt lat="45.83075" lon="4.80892">
        <ele>419</ele>
        <time>2014-02-16T12:41:52Z</time>
      </trkpt>
      <trkpt lat="45.83069" lon="4.809">
        <ele>419</ele>
        <time>2014-02-16T12:41:55Z</time>
      </trkpt>
      <trkpt lat="45.83061" lon="4.80908">
        <ele>418</ele>
        <time>2014-02-16T12:41:58Z</time>
      </trkpt>
      <trkpt lat="45.83056" lon="4.80914">
        <ele>418</ele>
        <time>2014-02-16T12:42:00Z</time>
      </trkpt>
      <trkpt lat="45.83048" lon="4.80919">
        <ele>415</ele>
        <time>2014-02-16T12:42:03Z</time>
      </trkpt>
      <trkpt lat="45.83046" lon="4.80922">
        <ele>415</ele>
        <time>2014-02-16T12:42:04Z</time>
      </trkpt>
      <trkpt lat="45.83044" lon="4.80924">
        <ele>415</ele>
        <time>2014-02-16T12:42:05Z</time>
      </trkpt>
      <trkpt lat="45.83034" lon="4.80934">
        <ele>414</ele>
        <time>2014-02-16T12:42:09Z</time>
      </trkpt>
      <trkpt lat="45.83028" lon="4.8094">
        <ele>414</ele>
        <time>2014-02-16T12:42:11Z</time>
      </trkpt>
      <trkpt lat="45.8302" lon="4.80948">
        <ele>414</ele>
        <time>2014-02-16T12:42:14Z</time>
      </trkpt>
      <trkpt lat="45.83012" lon="4.80956">
        <ele>414</ele>
        <time>2014-02-16T12:42:18Z</time>
      </trkpt>
      <trkpt lat="45.8301" lon="4.80959">
        <ele>414</ele>
        <time>2014-02-16T12:42:19Z</time>
      </trkpt>
      <trkpt lat="45.82998" lon="4.80973">
        <ele>413</ele>
        <time>2014-02-16T12:42:24Z</time>
      </trkpt>
      <trkpt lat="45.82988" lon="4.80981">
        <ele>413</ele>
        <time>2014-02-16T12:42:28Z</time>
      </trkpt>
      <trkpt lat="45.82982" lon="4.80988">
        <ele>413</ele>
        <time>2014-02-16T12:42:30Z</time>
      </trkpt>
      <trkpt lat="45.82978" lon="4.80992">
        <ele>413</ele>
        <time>2014-02-16T12:42:32Z</time>
      </trkpt>
      <trkpt lat="45.82967" lon="4.81004">
        <ele>411</ele>
        <time>2014-02-16T12:42:36Z</time>
      </trkpt>
      <trkpt lat="45.82964" lon="4.81007">
        <ele>411</ele>
        <time>2014-02-16T12:42:37Z</time>
      </trkpt>
      <trkpt lat="45.82952" lon="4.81019">
        <ele>410</ele>
        <time>2014-02-16T12:42:42Z</time>
      </trkpt>
      <trkpt lat="45.8295" lon="4.81022">
        <ele>410</ele>
        <time>2014-02-16T12:42:43Z</time>
      </trkpt>
      <trkpt lat="45.8294" lon="4.81032">
        <ele>410</ele>
        <time>2014-02-16T12:42:47Z</time>
      </trkpt>
      <trkpt lat="45.82935" lon="4.81037">
        <ele>409</ele>
        <time>2014-02-16T12:42:49Z</time>
      </trkpt>
      <trkpt lat="45.82925" lon="4.81047">
        <ele>409</ele>
        <time>2014-02-16T12:42:53Z</time>
      </trkpt>
      <trkpt lat="45.82919" lon="4.81054">
        <ele>409</ele>
        <time>2014-02-16T12:42:56Z</time>
      </trkpt>
      <trkpt lat="45.82914" lon="4.81058">
        <ele>407</ele>
        <time>2014-02-16T12:42:58Z</time>
      </trkpt>
      <trkpt lat="45.82903" lon="4.8107">
        <ele>407</ele>
        <time>2014-02-16T12:43:03Z</time>
      </trkpt>
      <trkpt lat="45.82899" lon="4.81074">
        <ele>407</ele>
        <time>2014-02-16T12:43:05Z</time>
      </trkpt>
      <trkpt lat="45.82888" lon="4.81085">
        <ele>408</ele>
        <time>2014-02-16T12:43:10Z</time>
      </trkpt>
      <trkpt lat="45.82883" lon="4.81091">
        <ele>408</ele>
        <time>2014-02-16T12:43:12Z</time>
      </trkpt>
      <trkpt lat="45.82873" lon="4.81102">
        <ele>407</ele>
        <time>2014-02-16T12:43:16Z</time>
      </trkpt>
      <trkpt lat="45.82865" lon="4.81113">
        <ele>407</ele>
        <time>2014-02-16T12:43:20Z</time>
      </trkpt>
      <trkpt lat="45.82857" lon="4.81119">
        <ele>408</ele>
        <time>2014-02-16T12:43:23Z</time>
      </trkpt>
      <trkpt lat="45.82853" lon="4.81123">
        <ele>408</ele>
        <time>2014-02-16T12:43:25Z</time>
      </trkpt>
      <trkpt lat="45.82852" lon="4.81126">
        <ele>408</ele>
        <time>2014-02-16T12:43:26Z</time>
      </trkpt>
      <trkpt lat="45.82851" lon="4.81135">
        <ele>408</ele>
        <time>2014-02-16T12:43:29Z</time>
      </trkpt>
      <trkpt lat="45.82849" lon="4.81141">
        <ele>408</ele>
        <time>2014-02-16T12:43:31Z</time>
      </trkpt>
      <trkpt lat="45.82848" lon="4.81144">
        <ele>408</ele>
        <time>2014-02-16T12:43:32Z</time>
      </trkpt>
      <trkpt lat="45.82846" lon="4.8115">
        <ele>408</ele>
        <time>2014-02-16T12:43:34Z</time>
      </trkpt>
      <trkpt lat="45.82843" lon="4.81165">
        <ele>409</ele>
        <time>2014-02-16T12:43:38Z</time>
      </trkpt>
      <trkpt lat="45.82842" lon="4.81168">
        <ele>409</ele>
        <time>2014-02-16T12:43:39Z</time>
      </trkpt>
      <trkpt lat="45.82835" lon="4.81187">
        <ele>407</ele>
        <time>2014-02-16T12:43:45Z</time>
      </trkpt>
      <trkpt lat="45.82834" lon="4.8119">
        <ele>407</ele>
        <time>2014-02-16T12:43:46Z</time>
      </trkpt>
      <trkpt lat="45.82829" lon="4.81204">
        <ele>411</ele>
        <time>2014-02-16T12:43:50Z</time>
      </trkpt>
      <trkpt lat="45.82825" lon="4.81216">
        <ele>411</ele>
        <time>2014-02-16T12:43:54Z</time>
      </trkpt>
      <trkpt lat="45.82822" lon="4.81223">
        <ele>411</ele>
        <time>2014-02-16T12:43:57Z</time>
      </trkpt>
      <trkpt lat="45.82817" lon="4.81239">
        <ele>411</ele>
        <time>2014-02-16T12:44:03Z</time>
      </trkpt>
    </trkseg>
  </trk>
</gpx>